<?xml version="1.0" encoding="UTF-8" standalone="no" ?>
<gpx xmlns="http://www.topografix.com/GPX/1/1" xmlns:xsi="http://www.w3.org/2001/XMLSchema-instance" xsi:schemaLocation="http://www.topografix.com/GPX/1/1 http://www.topografix.com/GPX/1/1/gpx.xsd" version="1.1" creator="VisuGPX - https://www.visugpx.com">
  <metadata>
    <name>E-N-Pont St Martin Le Bignon Maisdon/Sevre Chapelle Heulin Thouaré Nantes</name>
    <desc><![CDATA[E-N-Pont St Martin Le Bignon Maisdon/Sevre Chapelle Heulin Thouaré Nantes]]></desc>
  </metadata>
  <trk>
    <name><![CDATA[2020-12-19 10:53 +01:00]]></name>
    <trkseg>
      <trkpt lat="47.1679" lon="-1.62647">
        <ele>84</ele>
        <time>2020-12-19T09:53:10.000Z</time>
      </trkpt>
      <trkpt lat="47.16781" lon="-1.62648">
        <ele>81</ele>
        <time>2020-12-19T09:54:00.000Z</time>
      </trkpt>
      <trkpt lat="47.16782" lon="-1.62668">
        <ele>84</ele>
        <time>2020-12-19T09:55:08.000Z</time>
      </trkpt>
      <trkpt lat="47.16775" lon="-1.62679">
        <ele>83</ele>
        <time>2020-12-19T09:55:10.000Z</time>
      </trkpt>
      <trkpt lat="47.16765" lon="-1.62678">
        <ele>82</ele>
        <time>2020-12-19T09:55:12.000Z</time>
      </trkpt>
      <trkpt lat="47.16755" lon="-1.62673">
        <ele>81</ele>
        <time>2020-12-19T09:55:14.000Z</time>
      </trkpt>
      <trkpt lat="47.16745" lon="-1.62677">
        <ele>81</ele>
        <time>2020-12-19T09:55:16.000Z</time>
      </trkpt>
      <trkpt lat="47.16735" lon="-1.62686">
        <ele>81</ele>
        <time>2020-12-19T09:55:18.000Z</time>
      </trkpt>
      <trkpt lat="47.16725" lon="-1.62694">
        <ele>82</ele>
        <time>2020-12-19T09:55:20.000Z</time>
      </trkpt>
      <trkpt lat="47.16714" lon="-1.62693">
        <ele>81</ele>
        <time>2020-12-19T09:55:23.000Z</time>
      </trkpt>
      <trkpt lat="47.16706" lon="-1.62678">
        <ele>80</ele>
        <time>2020-12-19T09:55:25.000Z</time>
      </trkpt>
      <trkpt lat="47.16701" lon="-1.62658">
        <ele>80</ele>
        <time>2020-12-19T09:55:27.000Z</time>
      </trkpt>
      <trkpt lat="47.16697" lon="-1.62637">
        <ele>79</ele>
        <time>2020-12-19T09:55:29.000Z</time>
      </trkpt>
      <trkpt lat="47.16697" lon="-1.62616">
        <ele>78</ele>
        <time>2020-12-19T09:55:31.000Z</time>
      </trkpt>
      <trkpt lat="47.16697" lon="-1.62595">
        <ele>78</ele>
        <time>2020-12-19T09:55:33.000Z</time>
      </trkpt>
      <trkpt lat="47.16698" lon="-1.62575">
        <ele>77</ele>
        <time>2020-12-19T09:55:35.000Z</time>
      </trkpt>
      <trkpt lat="47.167" lon="-1.62555">
        <ele>75</ele>
        <time>2020-12-19T09:55:37.000Z</time>
      </trkpt>
      <trkpt lat="47.16704" lon="-1.62534">
        <ele>74</ele>
        <time>2020-12-19T09:55:39.000Z</time>
      </trkpt>
      <trkpt lat="47.16706" lon="-1.62514">
        <ele>73</ele>
        <time>2020-12-19T09:55:41.000Z</time>
      </trkpt>
      <trkpt lat="47.16709" lon="-1.62493">
        <ele>72</ele>
        <time>2020-12-19T09:55:43.000Z</time>
      </trkpt>
      <trkpt lat="47.16713" lon="-1.62473">
        <ele>72</ele>
        <time>2020-12-19T09:55:45.000Z</time>
      </trkpt>
      <trkpt lat="47.16716" lon="-1.62454">
        <ele>72</ele>
        <time>2020-12-19T09:55:47.000Z</time>
      </trkpt>
      <trkpt lat="47.16717" lon="-1.62436">
        <ele>72</ele>
        <time>2020-12-19T09:55:49.000Z</time>
      </trkpt>
      <trkpt lat="47.16721" lon="-1.62421">
        <ele>72</ele>
        <time>2020-12-19T09:55:51.000Z</time>
      </trkpt>
      <trkpt lat="47.16723" lon="-1.62406">
        <ele>71</ele>
        <time>2020-12-19T09:55:54.000Z</time>
      </trkpt>
      <trkpt lat="47.16716" lon="-1.62397">
        <ele>72</ele>
        <time>2020-12-19T09:55:56.000Z</time>
      </trkpt>
      <trkpt lat="47.16709" lon="-1.62383">
        <ele>71</ele>
        <time>2020-12-19T09:55:58.000Z</time>
      </trkpt>
      <trkpt lat="47.16699" lon="-1.62371">
        <ele>71</ele>
        <time>2020-12-19T09:56:00.000Z</time>
      </trkpt>
      <trkpt lat="47.16688" lon="-1.62362">
        <ele>72</ele>
        <time>2020-12-19T09:56:02.000Z</time>
      </trkpt>
      <trkpt lat="47.16676" lon="-1.62358">
        <ele>71</ele>
        <time>2020-12-19T09:56:04.000Z</time>
      </trkpt>
      <trkpt lat="47.16663" lon="-1.62359">
        <ele>72</ele>
        <time>2020-12-19T09:56:06.000Z</time>
      </trkpt>
      <trkpt lat="47.16651" lon="-1.62366">
        <ele>74</ele>
        <time>2020-12-19T09:56:08.000Z</time>
      </trkpt>
      <trkpt lat="47.1664" lon="-1.62376">
        <ele>75</ele>
        <time>2020-12-19T09:56:10.000Z</time>
      </trkpt>
      <trkpt lat="47.16631" lon="-1.62387">
        <ele>75</ele>
        <time>2020-12-19T09:56:12.000Z</time>
      </trkpt>
      <trkpt lat="47.16623" lon="-1.62402">
        <ele>76</ele>
        <time>2020-12-19T09:56:14.000Z</time>
      </trkpt>
      <trkpt lat="47.16614" lon="-1.62418">
        <ele>77</ele>
        <time>2020-12-19T09:56:16.000Z</time>
      </trkpt>
      <trkpt lat="47.16606" lon="-1.62434">
        <ele>78</ele>
        <time>2020-12-19T09:56:18.000Z</time>
      </trkpt>
      <trkpt lat="47.16599" lon="-1.62449">
        <ele>78</ele>
        <time>2020-12-19T09:56:20.000Z</time>
      </trkpt>
      <trkpt lat="47.16592" lon="-1.62465">
        <ele>79</ele>
        <time>2020-12-19T09:56:22.000Z</time>
      </trkpt>
      <trkpt lat="47.16586" lon="-1.6248">
        <ele>79</ele>
        <time>2020-12-19T09:56:24.000Z</time>
      </trkpt>
      <trkpt lat="47.1658" lon="-1.62495">
        <ele>80</ele>
        <time>2020-12-19T09:56:26.000Z</time>
      </trkpt>
      <trkpt lat="47.16574" lon="-1.6251">
        <ele>80</ele>
        <time>2020-12-19T09:56:28.000Z</time>
      </trkpt>
      <trkpt lat="47.16568" lon="-1.62525">
        <ele>80</ele>
        <time>2020-12-19T09:56:30.000Z</time>
      </trkpt>
      <trkpt lat="47.16562" lon="-1.62538">
        <ele>81</ele>
        <time>2020-12-19T09:56:32.000Z</time>
      </trkpt>
      <trkpt lat="47.16552" lon="-1.62549">
        <ele>82</ele>
        <time>2020-12-19T09:56:34.000Z</time>
      </trkpt>
      <trkpt lat="47.16543" lon="-1.62558">
        <ele>82</ele>
        <time>2020-12-19T09:56:36.000Z</time>
      </trkpt>
      <trkpt lat="47.16532" lon="-1.62563">
        <ele>83</ele>
        <time>2020-12-19T09:56:38.000Z</time>
      </trkpt>
      <trkpt lat="47.1652" lon="-1.62563">
        <ele>82</ele>
        <time>2020-12-19T09:56:40.000Z</time>
      </trkpt>
      <trkpt lat="47.16508" lon="-1.62559">
        <ele>81</ele>
        <time>2020-12-19T09:56:42.000Z</time>
      </trkpt>
      <trkpt lat="47.16497" lon="-1.62556">
        <ele>81</ele>
        <time>2020-12-19T09:56:44.000Z</time>
      </trkpt>
      <trkpt lat="47.16486" lon="-1.62553">
        <ele>80</ele>
        <time>2020-12-19T09:56:46.000Z</time>
      </trkpt>
      <trkpt lat="47.16475" lon="-1.6255">
        <ele>80</ele>
        <time>2020-12-19T09:56:48.000Z</time>
      </trkpt>
      <trkpt lat="47.16464" lon="-1.62547">
        <ele>79</ele>
        <time>2020-12-19T09:56:50.000Z</time>
      </trkpt>
      <trkpt lat="47.16454" lon="-1.62544">
        <ele>79</ele>
        <time>2020-12-19T09:56:52.000Z</time>
      </trkpt>
      <trkpt lat="47.16443" lon="-1.62541">
        <ele>79</ele>
        <time>2020-12-19T09:56:54.000Z</time>
      </trkpt>
      <trkpt lat="47.16433" lon="-1.62542">
        <ele>78</ele>
        <time>2020-12-19T09:56:56.000Z</time>
      </trkpt>
      <trkpt lat="47.16423" lon="-1.6255">
        <ele>78</ele>
        <time>2020-12-19T09:56:58.000Z</time>
      </trkpt>
      <trkpt lat="47.16414" lon="-1.6256">
        <ele>78</ele>
        <time>2020-12-19T09:57:00.000Z</time>
      </trkpt>
      <trkpt lat="47.16403" lon="-1.62569">
        <ele>77</ele>
        <time>2020-12-19T09:57:02.000Z</time>
      </trkpt>
      <trkpt lat="47.16392" lon="-1.62577">
        <ele>77</ele>
        <time>2020-12-19T09:57:04.000Z</time>
      </trkpt>
      <trkpt lat="47.1638" lon="-1.62581">
        <ele>76</ele>
        <time>2020-12-19T09:57:06.000Z</time>
      </trkpt>
      <trkpt lat="47.16368" lon="-1.62583">
        <ele>76</ele>
        <time>2020-12-19T09:57:08.000Z</time>
      </trkpt>
      <trkpt lat="47.16356" lon="-1.62581">
        <ele>76</ele>
        <time>2020-12-19T09:57:10.000Z</time>
      </trkpt>
      <trkpt lat="47.16344" lon="-1.62579">
        <ele>76</ele>
        <time>2020-12-19T09:57:12.000Z</time>
      </trkpt>
      <trkpt lat="47.16332" lon="-1.62574">
        <ele>75</ele>
        <time>2020-12-19T09:57:14.000Z</time>
      </trkpt>
      <trkpt lat="47.16319" lon="-1.6257">
        <ele>75</ele>
        <time>2020-12-19T09:57:16.000Z</time>
      </trkpt>
      <trkpt lat="47.16308" lon="-1.62573">
        <ele>74</ele>
        <time>2020-12-19T09:57:18.000Z</time>
      </trkpt>
      <trkpt lat="47.16297" lon="-1.6258">
        <ele>74</ele>
        <time>2020-12-19T09:57:20.000Z</time>
      </trkpt>
      <trkpt lat="47.1629" lon="-1.62594">
        <ele>74</ele>
        <time>2020-12-19T09:57:22.000Z</time>
      </trkpt>
      <trkpt lat="47.16285" lon="-1.6261">
        <ele>74</ele>
        <time>2020-12-19T09:57:24.000Z</time>
      </trkpt>
      <trkpt lat="47.16281" lon="-1.62627">
        <ele>74</ele>
        <time>2020-12-19T09:57:26.000Z</time>
      </trkpt>
      <trkpt lat="47.16279" lon="-1.62645">
        <ele>74</ele>
        <time>2020-12-19T09:57:28.000Z</time>
      </trkpt>
      <trkpt lat="47.16279" lon="-1.62663">
        <ele>74</ele>
        <time>2020-12-19T09:57:30.000Z</time>
      </trkpt>
      <trkpt lat="47.16279" lon="-1.62681">
        <ele>75</ele>
        <time>2020-12-19T09:57:32.000Z</time>
      </trkpt>
      <trkpt lat="47.16279" lon="-1.62697">
        <ele>76</ele>
        <time>2020-12-19T09:57:34.000Z</time>
      </trkpt>
      <trkpt lat="47.16281" lon="-1.62712">
        <ele>76</ele>
        <time>2020-12-19T09:57:36.000Z</time>
      </trkpt>
      <trkpt lat="47.16283" lon="-1.6273">
        <ele>77</ele>
        <time>2020-12-19T09:57:39.000Z</time>
      </trkpt>
      <trkpt lat="47.16271" lon="-1.62735">
        <ele>77</ele>
        <time>2020-12-19T09:57:42.000Z</time>
      </trkpt>
      <trkpt lat="47.1626" lon="-1.6274">
        <ele>77</ele>
        <time>2020-12-19T09:57:44.000Z</time>
      </trkpt>
      <trkpt lat="47.16247" lon="-1.62747">
        <ele>77</ele>
        <time>2020-12-19T09:57:46.000Z</time>
      </trkpt>
      <trkpt lat="47.16234" lon="-1.62754">
        <ele>76</ele>
        <time>2020-12-19T09:57:48.000Z</time>
      </trkpt>
      <trkpt lat="47.1622" lon="-1.62761">
        <ele>75</ele>
        <time>2020-12-19T09:57:50.000Z</time>
      </trkpt>
      <trkpt lat="47.16206" lon="-1.6277">
        <ele>74</ele>
        <time>2020-12-19T09:57:52.000Z</time>
      </trkpt>
      <trkpt lat="47.16192" lon="-1.62782">
        <ele>73</ele>
        <time>2020-12-19T09:57:54.000Z</time>
      </trkpt>
      <trkpt lat="47.16178" lon="-1.62794">
        <ele>73</ele>
        <time>2020-12-19T09:57:56.000Z</time>
      </trkpt>
      <trkpt lat="47.16163" lon="-1.62806">
        <ele>73</ele>
        <time>2020-12-19T09:57:58.000Z</time>
      </trkpt>
      <trkpt lat="47.1615" lon="-1.62817">
        <ele>72</ele>
        <time>2020-12-19T09:58:00.000Z</time>
      </trkpt>
      <trkpt lat="47.16136" lon="-1.6283">
        <ele>73</ele>
        <time>2020-12-19T09:58:02.000Z</time>
      </trkpt>
      <trkpt lat="47.16122" lon="-1.62841">
        <ele>73</ele>
        <time>2020-12-19T09:58:04.000Z</time>
      </trkpt>
      <trkpt lat="47.16108" lon="-1.62854">
        <ele>72</ele>
        <time>2020-12-19T09:58:06.000Z</time>
      </trkpt>
      <trkpt lat="47.16095" lon="-1.62866">
        <ele>72</ele>
        <time>2020-12-19T09:58:08.000Z</time>
      </trkpt>
      <trkpt lat="47.16081" lon="-1.62878">
        <ele>72</ele>
        <time>2020-12-19T09:58:10.000Z</time>
      </trkpt>
      <trkpt lat="47.16067" lon="-1.6289">
        <ele>72</ele>
        <time>2020-12-19T09:58:12.000Z</time>
      </trkpt>
      <trkpt lat="47.16053" lon="-1.62902">
        <ele>72</ele>
        <time>2020-12-19T09:58:14.000Z</time>
      </trkpt>
      <trkpt lat="47.16039" lon="-1.62914">
        <ele>71</ele>
        <time>2020-12-19T09:58:16.000Z</time>
      </trkpt>
      <trkpt lat="47.16026" lon="-1.62926">
        <ele>71</ele>
        <time>2020-12-19T09:58:18.000Z</time>
      </trkpt>
      <trkpt lat="47.16012" lon="-1.62939">
        <ele>70</ele>
        <time>2020-12-19T09:58:20.000Z</time>
      </trkpt>
      <trkpt lat="47.15998" lon="-1.62951">
        <ele>69</ele>
        <time>2020-12-19T09:58:22.000Z</time>
      </trkpt>
      <trkpt lat="47.15984" lon="-1.62963">
        <ele>69</ele>
        <time>2020-12-19T09:58:24.000Z</time>
      </trkpt>
      <trkpt lat="47.15969" lon="-1.62976">
        <ele>68</ele>
        <time>2020-12-19T09:58:26.000Z</time>
      </trkpt>
      <trkpt lat="47.15955" lon="-1.62989">
        <ele>68</ele>
        <time>2020-12-19T09:58:28.000Z</time>
      </trkpt>
      <trkpt lat="47.15941" lon="-1.63002">
        <ele>68</ele>
        <time>2020-12-19T09:58:30.000Z</time>
      </trkpt>
      <trkpt lat="47.15927" lon="-1.63015">
        <ele>68</ele>
        <time>2020-12-19T09:58:32.000Z</time>
      </trkpt>
      <trkpt lat="47.15912" lon="-1.63027">
        <ele>67</ele>
        <time>2020-12-19T09:58:34.000Z</time>
      </trkpt>
      <trkpt lat="47.15899" lon="-1.63039">
        <ele>67</ele>
        <time>2020-12-19T09:58:36.000Z</time>
      </trkpt>
      <trkpt lat="47.15885" lon="-1.63051">
        <ele>67</ele>
        <time>2020-12-19T09:58:38.000Z</time>
      </trkpt>
      <trkpt lat="47.15872" lon="-1.63063">
        <ele>67</ele>
        <time>2020-12-19T09:58:40.000Z</time>
      </trkpt>
      <trkpt lat="47.1586" lon="-1.63073">
        <ele>67</ele>
        <time>2020-12-19T09:58:42.000Z</time>
      </trkpt>
      <trkpt lat="47.15848" lon="-1.63085">
        <ele>67</ele>
        <time>2020-12-19T09:58:44.000Z</time>
      </trkpt>
      <trkpt lat="47.15836" lon="-1.63095">
        <ele>67</ele>
        <time>2020-12-19T09:58:46.000Z</time>
      </trkpt>
      <trkpt lat="47.15825" lon="-1.63104">
        <ele>68</ele>
        <time>2020-12-19T09:58:48.000Z</time>
      </trkpt>
      <trkpt lat="47.15813" lon="-1.63114">
        <ele>68</ele>
        <time>2020-12-19T09:58:50.000Z</time>
      </trkpt>
      <trkpt lat="47.15802" lon="-1.63124">
        <ele>68</ele>
        <time>2020-12-19T09:58:52.000Z</time>
      </trkpt>
      <trkpt lat="47.15791" lon="-1.63134">
        <ele>68</ele>
        <time>2020-12-19T09:58:54.000Z</time>
      </trkpt>
      <trkpt lat="47.1578" lon="-1.63144">
        <ele>68</ele>
        <time>2020-12-19T09:58:56.000Z</time>
      </trkpt>
      <trkpt lat="47.15769" lon="-1.63154">
        <ele>68</ele>
        <time>2020-12-19T09:58:58.000Z</time>
      </trkpt>
      <trkpt lat="47.15757" lon="-1.63164">
        <ele>68</ele>
        <time>2020-12-19T09:59:00.000Z</time>
      </trkpt>
      <trkpt lat="47.15747" lon="-1.63174">
        <ele>69</ele>
        <time>2020-12-19T09:59:02.000Z</time>
      </trkpt>
      <trkpt lat="47.15736" lon="-1.63184">
        <ele>69</ele>
        <time>2020-12-19T09:59:04.000Z</time>
      </trkpt>
      <trkpt lat="47.15724" lon="-1.63194">
        <ele>69</ele>
        <time>2020-12-19T09:59:06.000Z</time>
      </trkpt>
      <trkpt lat="47.15713" lon="-1.63204">
        <ele>69</ele>
        <time>2020-12-19T09:59:08.000Z</time>
      </trkpt>
      <trkpt lat="47.15701" lon="-1.63213">
        <ele>70</ele>
        <time>2020-12-19T09:59:10.000Z</time>
      </trkpt>
      <trkpt lat="47.1569" lon="-1.63224">
        <ele>69</ele>
        <time>2020-12-19T09:59:12.000Z</time>
      </trkpt>
      <trkpt lat="47.15679" lon="-1.63234">
        <ele>69</ele>
        <time>2020-12-19T09:59:14.000Z</time>
      </trkpt>
      <trkpt lat="47.15668" lon="-1.63244">
        <ele>69</ele>
        <time>2020-12-19T09:59:16.000Z</time>
      </trkpt>
      <trkpt lat="47.15656" lon="-1.63254">
        <ele>69</ele>
        <time>2020-12-19T09:59:18.000Z</time>
      </trkpt>
      <trkpt lat="47.15645" lon="-1.63264">
        <ele>69</ele>
        <time>2020-12-19T09:59:20.000Z</time>
      </trkpt>
      <trkpt lat="47.15634" lon="-1.63273">
        <ele>69</ele>
        <time>2020-12-19T09:59:22.000Z</time>
      </trkpt>
      <trkpt lat="47.15622" lon="-1.63283">
        <ele>68</ele>
        <time>2020-12-19T09:59:24.000Z</time>
      </trkpt>
      <trkpt lat="47.15611" lon="-1.63294">
        <ele>69</ele>
        <time>2020-12-19T09:59:26.000Z</time>
      </trkpt>
      <trkpt lat="47.156" lon="-1.63304">
        <ele>69</ele>
        <time>2020-12-19T09:59:28.000Z</time>
      </trkpt>
      <trkpt lat="47.15589" lon="-1.63314">
        <ele>70</ele>
        <time>2020-12-19T09:59:30.000Z</time>
      </trkpt>
      <trkpt lat="47.15578" lon="-1.63324">
        <ele>70</ele>
        <time>2020-12-19T09:59:32.000Z</time>
      </trkpt>
      <trkpt lat="47.15567" lon="-1.63332">
        <ele>71</ele>
        <time>2020-12-19T09:59:34.000Z</time>
      </trkpt>
      <trkpt lat="47.15557" lon="-1.63341">
        <ele>70</ele>
        <time>2020-12-19T09:59:36.000Z</time>
      </trkpt>
      <trkpt lat="47.15547" lon="-1.6335">
        <ele>70</ele>
        <time>2020-12-19T09:59:38.000Z</time>
      </trkpt>
      <trkpt lat="47.15537" lon="-1.63359">
        <ele>71</ele>
        <time>2020-12-19T09:59:40.000Z</time>
      </trkpt>
      <trkpt lat="47.15527" lon="-1.63367">
        <ele>71</ele>
        <time>2020-12-19T09:59:42.000Z</time>
      </trkpt>
      <trkpt lat="47.15517" lon="-1.63377">
        <ele>71</ele>
        <time>2020-12-19T09:59:44.000Z</time>
      </trkpt>
      <trkpt lat="47.15508" lon="-1.63386">
        <ele>71</ele>
        <time>2020-12-19T09:59:46.000Z</time>
      </trkpt>
      <trkpt lat="47.15498" lon="-1.63395">
        <ele>71</ele>
        <time>2020-12-19T09:59:48.000Z</time>
      </trkpt>
      <trkpt lat="47.15488" lon="-1.63404">
        <ele>72</ele>
        <time>2020-12-19T09:59:50.000Z</time>
      </trkpt>
      <trkpt lat="47.15478" lon="-1.63414">
        <ele>72</ele>
        <time>2020-12-19T09:59:52.000Z</time>
      </trkpt>
      <trkpt lat="47.15468" lon="-1.63423">
        <ele>71</ele>
        <time>2020-12-19T09:59:54.000Z</time>
      </trkpt>
      <trkpt lat="47.15457" lon="-1.63432">
        <ele>71</ele>
        <time>2020-12-19T09:59:56.000Z</time>
      </trkpt>
      <trkpt lat="47.15448" lon="-1.6344">
        <ele>71</ele>
        <time>2020-12-19T09:59:58.000Z</time>
      </trkpt>
      <trkpt lat="47.15438" lon="-1.63449">
        <ele>71</ele>
        <time>2020-12-19T10:00:00.000Z</time>
      </trkpt>
      <trkpt lat="47.15428" lon="-1.63458">
        <ele>71</ele>
        <time>2020-12-19T10:00:02.000Z</time>
      </trkpt>
      <trkpt lat="47.15418" lon="-1.63468">
        <ele>71</ele>
        <time>2020-12-19T10:00:04.000Z</time>
      </trkpt>
      <trkpt lat="47.15409" lon="-1.63477">
        <ele>72</ele>
        <time>2020-12-19T10:00:06.000Z</time>
      </trkpt>
      <trkpt lat="47.15402" lon="-1.63489">
        <ele>72</ele>
        <time>2020-12-19T10:00:08.000Z</time>
      </trkpt>
      <trkpt lat="47.15394" lon="-1.63499">
        <ele>72</ele>
        <time>2020-12-19T10:00:10.000Z</time>
      </trkpt>
      <trkpt lat="47.15386" lon="-1.63508">
        <ele>72</ele>
        <time>2020-12-19T10:00:12.000Z</time>
      </trkpt>
      <trkpt lat="47.15377" lon="-1.63511">
        <ele>72</ele>
        <time>2020-12-19T10:00:14.000Z</time>
      </trkpt>
      <trkpt lat="47.15367" lon="-1.63514">
        <ele>72</ele>
        <time>2020-12-19T10:00:16.000Z</time>
      </trkpt>
      <trkpt lat="47.15358" lon="-1.63523">
        <ele>72</ele>
        <time>2020-12-19T10:00:18.000Z</time>
      </trkpt>
      <trkpt lat="47.15349" lon="-1.63534">
        <ele>72</ele>
        <time>2020-12-19T10:00:20.000Z</time>
      </trkpt>
      <trkpt lat="47.15339" lon="-1.63543">
        <ele>72</ele>
        <time>2020-12-19T10:00:22.000Z</time>
      </trkpt>
      <trkpt lat="47.15328" lon="-1.63552">
        <ele>72</ele>
        <time>2020-12-19T10:00:24.000Z</time>
      </trkpt>
      <trkpt lat="47.15317" lon="-1.63559">
        <ele>72</ele>
        <time>2020-12-19T10:00:26.000Z</time>
      </trkpt>
      <trkpt lat="47.15306" lon="-1.63566">
        <ele>72</ele>
        <time>2020-12-19T10:00:28.000Z</time>
      </trkpt>
      <trkpt lat="47.15295" lon="-1.63576">
        <ele>71</ele>
        <time>2020-12-19T10:00:30.000Z</time>
      </trkpt>
      <trkpt lat="47.15285" lon="-1.63586">
        <ele>71</ele>
        <time>2020-12-19T10:00:32.000Z</time>
      </trkpt>
      <trkpt lat="47.15275" lon="-1.63595">
        <ele>70</ele>
        <time>2020-12-19T10:00:34.000Z</time>
      </trkpt>
      <trkpt lat="47.15264" lon="-1.63604">
        <ele>70</ele>
        <time>2020-12-19T10:00:36.000Z</time>
      </trkpt>
      <trkpt lat="47.15253" lon="-1.63613">
        <ele>70</ele>
        <time>2020-12-19T10:00:38.000Z</time>
      </trkpt>
      <trkpt lat="47.15241" lon="-1.63622">
        <ele>69</ele>
        <time>2020-12-19T10:00:40.000Z</time>
      </trkpt>
      <trkpt lat="47.15231" lon="-1.63632">
        <ele>70</ele>
        <time>2020-12-19T10:00:42.000Z</time>
      </trkpt>
      <trkpt lat="47.1522" lon="-1.63641">
        <ele>70</ele>
        <time>2020-12-19T10:00:44.000Z</time>
      </trkpt>
      <trkpt lat="47.15209" lon="-1.6365">
        <ele>70</ele>
        <time>2020-12-19T10:00:46.000Z</time>
      </trkpt>
      <trkpt lat="47.15198" lon="-1.63659">
        <ele>71</ele>
        <time>2020-12-19T10:00:48.000Z</time>
      </trkpt>
      <trkpt lat="47.15188" lon="-1.63669">
        <ele>71</ele>
        <time>2020-12-19T10:00:50.000Z</time>
      </trkpt>
      <trkpt lat="47.15176" lon="-1.63679">
        <ele>72</ele>
        <time>2020-12-19T10:00:52.000Z</time>
      </trkpt>
      <trkpt lat="47.15165" lon="-1.63689">
        <ele>72</ele>
        <time>2020-12-19T10:00:54.000Z</time>
      </trkpt>
      <trkpt lat="47.15155" lon="-1.63699">
        <ele>73</ele>
        <time>2020-12-19T10:00:56.000Z</time>
      </trkpt>
      <trkpt lat="47.15144" lon="-1.6371">
        <ele>73</ele>
        <time>2020-12-19T10:00:58.000Z</time>
      </trkpt>
      <trkpt lat="47.15133" lon="-1.6372">
        <ele>73</ele>
        <time>2020-12-19T10:01:00.000Z</time>
      </trkpt>
      <trkpt lat="47.15123" lon="-1.63731">
        <ele>74</ele>
        <time>2020-12-19T10:01:02.000Z</time>
      </trkpt>
      <trkpt lat="47.15113" lon="-1.63741">
        <ele>74</ele>
        <time>2020-12-19T10:01:04.000Z</time>
      </trkpt>
      <trkpt lat="47.15102" lon="-1.63752">
        <ele>74</ele>
        <time>2020-12-19T10:01:06.000Z</time>
      </trkpt>
      <trkpt lat="47.15093" lon="-1.63763">
        <ele>74</ele>
        <time>2020-12-19T10:01:08.000Z</time>
      </trkpt>
      <trkpt lat="47.15083" lon="-1.63775">
        <ele>73</ele>
        <time>2020-12-19T10:01:10.000Z</time>
      </trkpt>
      <trkpt lat="47.15072" lon="-1.63787">
        <ele>73</ele>
        <time>2020-12-19T10:01:12.000Z</time>
      </trkpt>
      <trkpt lat="47.15063" lon="-1.63798">
        <ele>73</ele>
        <time>2020-12-19T10:01:14.000Z</time>
      </trkpt>
      <trkpt lat="47.15052" lon="-1.63811">
        <ele>73</ele>
        <time>2020-12-19T10:01:16.000Z</time>
      </trkpt>
      <trkpt lat="47.15043" lon="-1.63824">
        <ele>73</ele>
        <time>2020-12-19T10:01:18.000Z</time>
      </trkpt>
      <trkpt lat="47.15034" lon="-1.63836">
        <ele>73</ele>
        <time>2020-12-19T10:01:20.000Z</time>
      </trkpt>
      <trkpt lat="47.15025" lon="-1.63849">
        <ele>73</ele>
        <time>2020-12-19T10:01:22.000Z</time>
      </trkpt>
      <trkpt lat="47.15017" lon="-1.63863">
        <ele>73</ele>
        <time>2020-12-19T10:01:24.000Z</time>
      </trkpt>
      <trkpt lat="47.15008" lon="-1.63876">
        <ele>73</ele>
        <time>2020-12-19T10:01:26.000Z</time>
      </trkpt>
      <trkpt lat="47.15" lon="-1.63889">
        <ele>73</ele>
        <time>2020-12-19T10:01:28.000Z</time>
      </trkpt>
      <trkpt lat="47.14991" lon="-1.63903">
        <ele>73</ele>
        <time>2020-12-19T10:01:30.000Z</time>
      </trkpt>
      <trkpt lat="47.14983" lon="-1.63916">
        <ele>73</ele>
        <time>2020-12-19T10:01:32.000Z</time>
      </trkpt>
      <trkpt lat="47.14974" lon="-1.63929">
        <ele>74</ele>
        <time>2020-12-19T10:01:34.000Z</time>
      </trkpt>
      <trkpt lat="47.14966" lon="-1.63943">
        <ele>74</ele>
        <time>2020-12-19T10:01:36.000Z</time>
      </trkpt>
      <trkpt lat="47.14959" lon="-1.63957">
        <ele>75</ele>
        <time>2020-12-19T10:01:38.000Z</time>
      </trkpt>
      <trkpt lat="47.14951" lon="-1.6397">
        <ele>75</ele>
        <time>2020-12-19T10:01:40.000Z</time>
      </trkpt>
      <trkpt lat="47.14944" lon="-1.63983">
        <ele>75</ele>
        <time>2020-12-19T10:01:42.000Z</time>
      </trkpt>
      <trkpt lat="47.14937" lon="-1.63995">
        <ele>76</ele>
        <time>2020-12-19T10:01:44.000Z</time>
      </trkpt>
      <trkpt lat="47.14931" lon="-1.64007">
        <ele>76</ele>
        <time>2020-12-19T10:01:46.000Z</time>
      </trkpt>
      <trkpt lat="47.14925" lon="-1.64018">
        <ele>76</ele>
        <time>2020-12-19T10:01:48.000Z</time>
      </trkpt>
      <trkpt lat="47.14918" lon="-1.64032">
        <ele>75</ele>
        <time>2020-12-19T10:01:51.000Z</time>
      </trkpt>
      <trkpt lat="47.14913" lon="-1.64043">
        <ele>76</ele>
        <time>2020-12-19T10:01:54.000Z</time>
      </trkpt>
      <trkpt lat="47.14907" lon="-1.64056">
        <ele>76</ele>
        <time>2020-12-19T10:01:58.000Z</time>
      </trkpt>
      <trkpt lat="47.14896" lon="-1.64059">
        <ele>76</ele>
        <time>2020-12-19T10:02:02.000Z</time>
      </trkpt>
      <trkpt lat="47.14889" lon="-1.64048">
        <ele>76</ele>
        <time>2020-12-19T10:02:04.000Z</time>
      </trkpt>
      <trkpt lat="47.14882" lon="-1.64032">
        <ele>75</ele>
        <time>2020-12-19T10:02:06.000Z</time>
      </trkpt>
      <trkpt lat="47.14874" lon="-1.64016">
        <ele>75</ele>
        <time>2020-12-19T10:02:08.000Z</time>
      </trkpt>
      <trkpt lat="47.14866" lon="-1.64003">
        <ele>76</ele>
        <time>2020-12-19T10:02:10.000Z</time>
      </trkpt>
      <trkpt lat="47.14855" lon="-1.63991">
        <ele>76</ele>
        <time>2020-12-19T10:02:12.000Z</time>
      </trkpt>
      <trkpt lat="47.14843" lon="-1.63985">
        <ele>75</ele>
        <time>2020-12-19T10:02:14.000Z</time>
      </trkpt>
      <trkpt lat="47.1483" lon="-1.63987">
        <ele>74</ele>
        <time>2020-12-19T10:02:16.000Z</time>
      </trkpt>
      <trkpt lat="47.14819" lon="-1.63996">
        <ele>74</ele>
        <time>2020-12-19T10:02:18.000Z</time>
      </trkpt>
      <trkpt lat="47.14808" lon="-1.64007">
        <ele>74</ele>
        <time>2020-12-19T10:02:20.000Z</time>
      </trkpt>
      <trkpt lat="47.14798" lon="-1.64018">
        <ele>74</ele>
        <time>2020-12-19T10:02:22.000Z</time>
      </trkpt>
      <trkpt lat="47.14788" lon="-1.64029">
        <ele>74</ele>
        <time>2020-12-19T10:02:24.000Z</time>
      </trkpt>
      <trkpt lat="47.14775" lon="-1.64039">
        <ele>75</ele>
        <time>2020-12-19T10:02:26.000Z</time>
      </trkpt>
      <trkpt lat="47.14763" lon="-1.64047">
        <ele>75</ele>
        <time>2020-12-19T10:02:28.000Z</time>
      </trkpt>
      <trkpt lat="47.1475" lon="-1.64053">
        <ele>75</ele>
        <time>2020-12-19T10:02:30.000Z</time>
      </trkpt>
      <trkpt lat="47.14737" lon="-1.64059">
        <ele>75</ele>
        <time>2020-12-19T10:02:32.000Z</time>
      </trkpt>
      <trkpt lat="47.14724" lon="-1.64065">
        <ele>75</ele>
        <time>2020-12-19T10:02:34.000Z</time>
      </trkpt>
      <trkpt lat="47.14712" lon="-1.6407">
        <ele>75</ele>
        <time>2020-12-19T10:02:36.000Z</time>
      </trkpt>
      <trkpt lat="47.14699" lon="-1.64075">
        <ele>76</ele>
        <time>2020-12-19T10:02:38.000Z</time>
      </trkpt>
      <trkpt lat="47.14687" lon="-1.6408">
        <ele>76</ele>
        <time>2020-12-19T10:02:40.000Z</time>
      </trkpt>
      <trkpt lat="47.14674" lon="-1.64085">
        <ele>76</ele>
        <time>2020-12-19T10:02:42.000Z</time>
      </trkpt>
      <trkpt lat="47.14661" lon="-1.64092">
        <ele>76</ele>
        <time>2020-12-19T10:02:44.000Z</time>
      </trkpt>
      <trkpt lat="47.14647" lon="-1.641">
        <ele>76</ele>
        <time>2020-12-19T10:02:46.000Z</time>
      </trkpt>
      <trkpt lat="47.14633" lon="-1.64107">
        <ele>76</ele>
        <time>2020-12-19T10:02:48.000Z</time>
      </trkpt>
      <trkpt lat="47.14619" lon="-1.64115">
        <ele>75</ele>
        <time>2020-12-19T10:02:50.000Z</time>
      </trkpt>
      <trkpt lat="47.14606" lon="-1.64122">
        <ele>75</ele>
        <time>2020-12-19T10:02:52.000Z</time>
      </trkpt>
      <trkpt lat="47.14593" lon="-1.6413">
        <ele>75</ele>
        <time>2020-12-19T10:02:54.000Z</time>
      </trkpt>
      <trkpt lat="47.14579" lon="-1.64136">
        <ele>75</ele>
        <time>2020-12-19T10:02:56.000Z</time>
      </trkpt>
      <trkpt lat="47.14565" lon="-1.64144">
        <ele>75</ele>
        <time>2020-12-19T10:02:58.000Z</time>
      </trkpt>
      <trkpt lat="47.14552" lon="-1.64152">
        <ele>74</ele>
        <time>2020-12-19T10:03:00.000Z</time>
      </trkpt>
      <trkpt lat="47.1454" lon="-1.6416">
        <ele>74</ele>
        <time>2020-12-19T10:03:02.000Z</time>
      </trkpt>
      <trkpt lat="47.14527" lon="-1.64169">
        <ele>74</ele>
        <time>2020-12-19T10:03:04.000Z</time>
      </trkpt>
      <trkpt lat="47.14514" lon="-1.64178">
        <ele>73</ele>
        <time>2020-12-19T10:03:06.000Z</time>
      </trkpt>
      <trkpt lat="47.14501" lon="-1.64187">
        <ele>73</ele>
        <time>2020-12-19T10:03:08.000Z</time>
      </trkpt>
      <trkpt lat="47.14487" lon="-1.64196">
        <ele>73</ele>
        <time>2020-12-19T10:03:10.000Z</time>
      </trkpt>
      <trkpt lat="47.14474" lon="-1.64205">
        <ele>72</ele>
        <time>2020-12-19T10:03:12.000Z</time>
      </trkpt>
      <trkpt lat="47.14459" lon="-1.64212">
        <ele>73</ele>
        <time>2020-12-19T10:03:14.000Z</time>
      </trkpt>
      <trkpt lat="47.14444" lon="-1.64217">
        <ele>73</ele>
        <time>2020-12-19T10:03:16.000Z</time>
      </trkpt>
      <trkpt lat="47.1443" lon="-1.6422">
        <ele>73</ele>
        <time>2020-12-19T10:03:18.000Z</time>
      </trkpt>
      <trkpt lat="47.14417" lon="-1.64221">
        <ele>73</ele>
        <time>2020-12-19T10:03:20.000Z</time>
      </trkpt>
      <trkpt lat="47.14402" lon="-1.64225">
        <ele>73</ele>
        <time>2020-12-19T10:03:22.000Z</time>
      </trkpt>
      <trkpt lat="47.14388" lon="-1.64227">
        <ele>73</ele>
        <time>2020-12-19T10:03:24.000Z</time>
      </trkpt>
      <trkpt lat="47.14373" lon="-1.64228">
        <ele>73</ele>
        <time>2020-12-19T10:03:26.000Z</time>
      </trkpt>
      <trkpt lat="47.1436" lon="-1.64231">
        <ele>74</ele>
        <time>2020-12-19T10:03:28.000Z</time>
      </trkpt>
      <trkpt lat="47.14346" lon="-1.64234">
        <ele>73</ele>
        <time>2020-12-19T10:03:30.000Z</time>
      </trkpt>
      <trkpt lat="47.14329" lon="-1.64236">
        <ele>73</ele>
        <time>2020-12-19T10:03:32.000Z</time>
      </trkpt>
      <trkpt lat="47.14314" lon="-1.64239">
        <ele>73</ele>
        <time>2020-12-19T10:03:34.000Z</time>
      </trkpt>
      <trkpt lat="47.143" lon="-1.64242">
        <ele>73</ele>
        <time>2020-12-19T10:03:36.000Z</time>
      </trkpt>
      <trkpt lat="47.14285" lon="-1.64247">
        <ele>71</ele>
        <time>2020-12-19T10:03:38.000Z</time>
      </trkpt>
      <trkpt lat="47.14271" lon="-1.64255">
        <ele>71</ele>
        <time>2020-12-19T10:03:40.000Z</time>
      </trkpt>
      <trkpt lat="47.14256" lon="-1.64265">
        <ele>70</ele>
        <time>2020-12-19T10:03:42.000Z</time>
      </trkpt>
      <trkpt lat="47.14244" lon="-1.64276">
        <ele>70</ele>
        <time>2020-12-19T10:03:44.000Z</time>
      </trkpt>
      <trkpt lat="47.14231" lon="-1.64288">
        <ele>72</ele>
        <time>2020-12-19T10:03:46.000Z</time>
      </trkpt>
      <trkpt lat="47.14219" lon="-1.64301">
        <ele>73</ele>
        <time>2020-12-19T10:03:48.000Z</time>
      </trkpt>
      <trkpt lat="47.14207" lon="-1.64313">
        <ele>74</ele>
        <time>2020-12-19T10:03:50.000Z</time>
      </trkpt>
      <trkpt lat="47.14196" lon="-1.64326">
        <ele>74</ele>
        <time>2020-12-19T10:03:52.000Z</time>
      </trkpt>
      <trkpt lat="47.14184" lon="-1.64341">
        <ele>74</ele>
        <time>2020-12-19T10:03:54.000Z</time>
      </trkpt>
      <trkpt lat="47.14171" lon="-1.64354">
        <ele>74</ele>
        <time>2020-12-19T10:03:56.000Z</time>
      </trkpt>
      <trkpt lat="47.14158" lon="-1.64366">
        <ele>75</ele>
        <time>2020-12-19T10:03:58.000Z</time>
      </trkpt>
      <trkpt lat="47.14144" lon="-1.64377">
        <ele>74</ele>
        <time>2020-12-19T10:04:00.000Z</time>
      </trkpt>
      <trkpt lat="47.14129" lon="-1.64388">
        <ele>73</ele>
        <time>2020-12-19T10:04:02.000Z</time>
      </trkpt>
      <trkpt lat="47.14115" lon="-1.64399">
        <ele>73</ele>
        <time>2020-12-19T10:04:04.000Z</time>
      </trkpt>
      <trkpt lat="47.141" lon="-1.6441">
        <ele>72</ele>
        <time>2020-12-19T10:04:06.000Z</time>
      </trkpt>
      <trkpt lat="47.14087" lon="-1.64421">
        <ele>71</ele>
        <time>2020-12-19T10:04:08.000Z</time>
      </trkpt>
      <trkpt lat="47.14073" lon="-1.64431">
        <ele>71</ele>
        <time>2020-12-19T10:04:10.000Z</time>
      </trkpt>
      <trkpt lat="47.14059" lon="-1.64442">
        <ele>70</ele>
        <time>2020-12-19T10:04:12.000Z</time>
      </trkpt>
      <trkpt lat="47.14046" lon="-1.64452">
        <ele>70</ele>
        <time>2020-12-19T10:04:14.000Z</time>
      </trkpt>
      <trkpt lat="47.14033" lon="-1.64462">
        <ele>70</ele>
        <time>2020-12-19T10:04:16.000Z</time>
      </trkpt>
      <trkpt lat="47.1402" lon="-1.64473">
        <ele>69</ele>
        <time>2020-12-19T10:04:18.000Z</time>
      </trkpt>
      <trkpt lat="47.14008" lon="-1.64482">
        <ele>70</ele>
        <time>2020-12-19T10:04:20.000Z</time>
      </trkpt>
      <trkpt lat="47.13996" lon="-1.64493">
        <ele>70</ele>
        <time>2020-12-19T10:04:22.000Z</time>
      </trkpt>
      <trkpt lat="47.13983" lon="-1.64505">
        <ele>70</ele>
        <time>2020-12-19T10:04:24.000Z</time>
      </trkpt>
      <trkpt lat="47.1397" lon="-1.64519">
        <ele>71</ele>
        <time>2020-12-19T10:04:26.000Z</time>
      </trkpt>
      <trkpt lat="47.13956" lon="-1.64532">
        <ele>71</ele>
        <time>2020-12-19T10:04:28.000Z</time>
      </trkpt>
      <trkpt lat="47.13943" lon="-1.64544">
        <ele>71</ele>
        <time>2020-12-19T10:04:30.000Z</time>
      </trkpt>
      <trkpt lat="47.13932" lon="-1.64555">
        <ele>71</ele>
        <time>2020-12-19T10:04:32.000Z</time>
      </trkpt>
      <trkpt lat="47.13921" lon="-1.64566">
        <ele>71</ele>
        <time>2020-12-19T10:04:34.000Z</time>
      </trkpt>
      <trkpt lat="47.13909" lon="-1.64577">
        <ele>71</ele>
        <time>2020-12-19T10:04:36.000Z</time>
      </trkpt>
      <trkpt lat="47.13896" lon="-1.64586">
        <ele>71</ele>
        <time>2020-12-19T10:04:38.000Z</time>
      </trkpt>
      <trkpt lat="47.1388" lon="-1.64594">
        <ele>69</ele>
        <time>2020-12-19T10:04:40.000Z</time>
      </trkpt>
      <trkpt lat="47.13864" lon="-1.64599">
        <ele>68</ele>
        <time>2020-12-19T10:04:42.000Z</time>
      </trkpt>
      <trkpt lat="47.1385" lon="-1.64601">
        <ele>67</ele>
        <time>2020-12-19T10:04:44.000Z</time>
      </trkpt>
      <trkpt lat="47.13835" lon="-1.64602">
        <ele>67</ele>
        <time>2020-12-19T10:04:46.000Z</time>
      </trkpt>
      <trkpt lat="47.13821" lon="-1.64602">
        <ele>67</ele>
        <time>2020-12-19T10:04:48.000Z</time>
      </trkpt>
      <trkpt lat="47.13808" lon="-1.646">
        <ele>67</ele>
        <time>2020-12-19T10:04:50.000Z</time>
      </trkpt>
      <trkpt lat="47.13796" lon="-1.64599">
        <ele>68</ele>
        <time>2020-12-19T10:04:52.000Z</time>
      </trkpt>
      <trkpt lat="47.13784" lon="-1.64597">
        <ele>68</ele>
        <time>2020-12-19T10:04:54.000Z</time>
      </trkpt>
      <trkpt lat="47.13772" lon="-1.64595">
        <ele>68</ele>
        <time>2020-12-19T10:04:56.000Z</time>
      </trkpt>
      <trkpt lat="47.13758" lon="-1.64593">
        <ele>67</ele>
        <time>2020-12-19T10:04:58.000Z</time>
      </trkpt>
      <trkpt lat="47.13745" lon="-1.64589">
        <ele>66</ele>
        <time>2020-12-19T10:05:00.000Z</time>
      </trkpt>
      <trkpt lat="47.13732" lon="-1.64586">
        <ele>66</ele>
        <time>2020-12-19T10:05:02.000Z</time>
      </trkpt>
      <trkpt lat="47.1372" lon="-1.64582">
        <ele>66</ele>
        <time>2020-12-19T10:05:04.000Z</time>
      </trkpt>
      <trkpt lat="47.13708" lon="-1.6458">
        <ele>66</ele>
        <time>2020-12-19T10:05:06.000Z</time>
      </trkpt>
      <trkpt lat="47.13696" lon="-1.64577">
        <ele>67</ele>
        <time>2020-12-19T10:05:08.000Z</time>
      </trkpt>
      <trkpt lat="47.13684" lon="-1.64574">
        <ele>67</ele>
        <time>2020-12-19T10:05:10.000Z</time>
      </trkpt>
      <trkpt lat="47.13672" lon="-1.6457">
        <ele>68</ele>
        <time>2020-12-19T10:05:12.000Z</time>
      </trkpt>
      <trkpt lat="47.1366" lon="-1.64568">
        <ele>69</ele>
        <time>2020-12-19T10:05:14.000Z</time>
      </trkpt>
      <trkpt lat="47.13647" lon="-1.64565">
        <ele>69</ele>
        <time>2020-12-19T10:05:16.000Z</time>
      </trkpt>
      <trkpt lat="47.13635" lon="-1.64563">
        <ele>70</ele>
        <time>2020-12-19T10:05:18.000Z</time>
      </trkpt>
      <trkpt lat="47.13624" lon="-1.64561">
        <ele>70</ele>
        <time>2020-12-19T10:05:20.000Z</time>
      </trkpt>
      <trkpt lat="47.13613" lon="-1.64559">
        <ele>70</ele>
        <time>2020-12-19T10:05:22.000Z</time>
      </trkpt>
      <trkpt lat="47.13602" lon="-1.64557">
        <ele>70</ele>
        <time>2020-12-19T10:05:24.000Z</time>
      </trkpt>
      <trkpt lat="47.13591" lon="-1.64558">
        <ele>69</ele>
        <time>2020-12-19T10:05:26.000Z</time>
      </trkpt>
      <trkpt lat="47.1358" lon="-1.64562">
        <ele>70</ele>
        <time>2020-12-19T10:05:28.000Z</time>
      </trkpt>
      <trkpt lat="47.13569" lon="-1.64569">
        <ele>70</ele>
        <time>2020-12-19T10:05:30.000Z</time>
      </trkpt>
      <trkpt lat="47.13559" lon="-1.64577">
        <ele>70</ele>
        <time>2020-12-19T10:05:32.000Z</time>
      </trkpt>
      <trkpt lat="47.13549" lon="-1.64587">
        <ele>71</ele>
        <time>2020-12-19T10:05:34.000Z</time>
      </trkpt>
      <trkpt lat="47.1354" lon="-1.64596">
        <ele>71</ele>
        <time>2020-12-19T10:05:36.000Z</time>
      </trkpt>
      <trkpt lat="47.1353" lon="-1.64606">
        <ele>72</ele>
        <time>2020-12-19T10:05:38.000Z</time>
      </trkpt>
      <trkpt lat="47.13521" lon="-1.64616">
        <ele>73</ele>
        <time>2020-12-19T10:05:40.000Z</time>
      </trkpt>
      <trkpt lat="47.13511" lon="-1.64626">
        <ele>73</ele>
        <time>2020-12-19T10:05:42.000Z</time>
      </trkpt>
      <trkpt lat="47.13501" lon="-1.64635">
        <ele>74</ele>
        <time>2020-12-19T10:05:46.000Z</time>
      </trkpt>
      <trkpt lat="47.13488" lon="-1.64641">
        <ele>74</ele>
        <time>2020-12-19T10:05:48.000Z</time>
      </trkpt>
      <trkpt lat="47.13474" lon="-1.64645">
        <ele>74</ele>
        <time>2020-12-19T10:05:50.000Z</time>
      </trkpt>
      <trkpt lat="47.13461" lon="-1.64646">
        <ele>74</ele>
        <time>2020-12-19T10:05:52.000Z</time>
      </trkpt>
      <trkpt lat="47.13448" lon="-1.64645">
        <ele>75</ele>
        <time>2020-12-19T10:05:54.000Z</time>
      </trkpt>
      <trkpt lat="47.13436" lon="-1.64644">
        <ele>75</ele>
        <time>2020-12-19T10:05:56.000Z</time>
      </trkpt>
      <trkpt lat="47.13425" lon="-1.64643">
        <ele>76</ele>
        <time>2020-12-19T10:05:58.000Z</time>
      </trkpt>
      <trkpt lat="47.13415" lon="-1.64643">
        <ele>76</ele>
        <time>2020-12-19T10:06:00.000Z</time>
      </trkpt>
      <trkpt lat="47.13406" lon="-1.6464">
        <ele>75</ele>
        <time>2020-12-19T10:06:03.000Z</time>
      </trkpt>
      <trkpt lat="47.13399" lon="-1.64624">
        <ele>76</ele>
        <time>2020-12-19T10:06:06.000Z</time>
      </trkpt>
      <trkpt lat="47.13397" lon="-1.64607">
        <ele>76</ele>
        <time>2020-12-19T10:06:08.000Z</time>
      </trkpt>
      <trkpt lat="47.13394" lon="-1.64592">
        <ele>76</ele>
        <time>2020-12-19T10:06:10.000Z</time>
      </trkpt>
      <trkpt lat="47.13391" lon="-1.64576">
        <ele>75</ele>
        <time>2020-12-19T10:06:12.000Z</time>
      </trkpt>
      <trkpt lat="47.13387" lon="-1.64561">
        <ele>74</ele>
        <time>2020-12-19T10:06:14.000Z</time>
      </trkpt>
      <trkpt lat="47.13383" lon="-1.64545">
        <ele>74</ele>
        <time>2020-12-19T10:06:16.000Z</time>
      </trkpt>
      <trkpt lat="47.13378" lon="-1.6453">
        <ele>74</ele>
        <time>2020-12-19T10:06:18.000Z</time>
      </trkpt>
      <trkpt lat="47.13373" lon="-1.64515">
        <ele>74</ele>
        <time>2020-12-19T10:06:20.000Z</time>
      </trkpt>
      <trkpt lat="47.13368" lon="-1.64499">
        <ele>75</ele>
        <time>2020-12-19T10:06:22.000Z</time>
      </trkpt>
      <trkpt lat="47.13361" lon="-1.64484">
        <ele>75</ele>
        <time>2020-12-19T10:06:24.000Z</time>
      </trkpt>
      <trkpt lat="47.13354" lon="-1.64467">
        <ele>75</ele>
        <time>2020-12-19T10:06:26.000Z</time>
      </trkpt>
      <trkpt lat="47.13346" lon="-1.64451">
        <ele>75</ele>
        <time>2020-12-19T10:06:28.000Z</time>
      </trkpt>
      <trkpt lat="47.13338" lon="-1.64435">
        <ele>74</ele>
        <time>2020-12-19T10:06:30.000Z</time>
      </trkpt>
      <trkpt lat="47.1333" lon="-1.64418">
        <ele>73</ele>
        <time>2020-12-19T10:06:32.000Z</time>
      </trkpt>
      <trkpt lat="47.13322" lon="-1.644">
        <ele>73</ele>
        <time>2020-12-19T10:06:34.000Z</time>
      </trkpt>
      <trkpt lat="47.13313" lon="-1.64383">
        <ele>72</ele>
        <time>2020-12-19T10:06:36.000Z</time>
      </trkpt>
      <trkpt lat="47.13305" lon="-1.64364">
        <ele>71</ele>
        <time>2020-12-19T10:06:38.000Z</time>
      </trkpt>
      <trkpt lat="47.13296" lon="-1.64346">
        <ele>70</ele>
        <time>2020-12-19T10:06:40.000Z</time>
      </trkpt>
      <trkpt lat="47.13287" lon="-1.64328">
        <ele>70</ele>
        <time>2020-12-19T10:06:42.000Z</time>
      </trkpt>
      <trkpt lat="47.13278" lon="-1.64309">
        <ele>68</ele>
        <time>2020-12-19T10:06:44.000Z</time>
      </trkpt>
      <trkpt lat="47.13269" lon="-1.64291">
        <ele>67</ele>
        <time>2020-12-19T10:06:46.000Z</time>
      </trkpt>
      <trkpt lat="47.13261" lon="-1.64272">
        <ele>66</ele>
        <time>2020-12-19T10:06:48.000Z</time>
      </trkpt>
      <trkpt lat="47.13252" lon="-1.64254">
        <ele>66</ele>
        <time>2020-12-19T10:06:50.000Z</time>
      </trkpt>
      <trkpt lat="47.13244" lon="-1.64234">
        <ele>65</ele>
        <time>2020-12-19T10:06:52.000Z</time>
      </trkpt>
      <trkpt lat="47.13236" lon="-1.64215">
        <ele>65</ele>
        <time>2020-12-19T10:06:54.000Z</time>
      </trkpt>
      <trkpt lat="47.13227" lon="-1.64198">
        <ele>65</ele>
        <time>2020-12-19T10:06:56.000Z</time>
      </trkpt>
      <trkpt lat="47.13218" lon="-1.64181">
        <ele>65</ele>
        <time>2020-12-19T10:06:58.000Z</time>
      </trkpt>
      <trkpt lat="47.1321" lon="-1.64163">
        <ele>65</ele>
        <time>2020-12-19T10:07:00.000Z</time>
      </trkpt>
      <trkpt lat="47.13202" lon="-1.64145">
        <ele>65</ele>
        <time>2020-12-19T10:07:02.000Z</time>
      </trkpt>
      <trkpt lat="47.13194" lon="-1.64127">
        <ele>65</ele>
        <time>2020-12-19T10:07:04.000Z</time>
      </trkpt>
      <trkpt lat="47.13186" lon="-1.64109">
        <ele>65</ele>
        <time>2020-12-19T10:07:06.000Z</time>
      </trkpt>
      <trkpt lat="47.13178" lon="-1.6409">
        <ele>64</ele>
        <time>2020-12-19T10:07:08.000Z</time>
      </trkpt>
      <trkpt lat="47.1317" lon="-1.64072">
        <ele>65</ele>
        <time>2020-12-19T10:07:10.000Z</time>
      </trkpt>
      <trkpt lat="47.13162" lon="-1.64053">
        <ele>65</ele>
        <time>2020-12-19T10:07:12.000Z</time>
      </trkpt>
      <trkpt lat="47.13154" lon="-1.64035">
        <ele>65</ele>
        <time>2020-12-19T10:07:14.000Z</time>
      </trkpt>
      <trkpt lat="47.13147" lon="-1.64016">
        <ele>64</ele>
        <time>2020-12-19T10:07:16.000Z</time>
      </trkpt>
      <trkpt lat="47.13139" lon="-1.63997">
        <ele>64</ele>
        <time>2020-12-19T10:07:18.000Z</time>
      </trkpt>
      <trkpt lat="47.13132" lon="-1.63978">
        <ele>64</ele>
        <time>2020-12-19T10:07:20.000Z</time>
      </trkpt>
      <trkpt lat="47.13124" lon="-1.63959">
        <ele>64</ele>
        <time>2020-12-19T10:07:22.000Z</time>
      </trkpt>
      <trkpt lat="47.13117" lon="-1.63939">
        <ele>63</ele>
        <time>2020-12-19T10:07:24.000Z</time>
      </trkpt>
      <trkpt lat="47.1311" lon="-1.6392">
        <ele>62</ele>
        <time>2020-12-19T10:07:26.000Z</time>
      </trkpt>
      <trkpt lat="47.13103" lon="-1.63902">
        <ele>62</ele>
        <time>2020-12-19T10:07:28.000Z</time>
      </trkpt>
      <trkpt lat="47.13096" lon="-1.63883">
        <ele>61</ele>
        <time>2020-12-19T10:07:30.000Z</time>
      </trkpt>
      <trkpt lat="47.13089" lon="-1.63864">
        <ele>61</ele>
        <time>2020-12-19T10:07:32.000Z</time>
      </trkpt>
      <trkpt lat="47.13082" lon="-1.63845">
        <ele>61</ele>
        <time>2020-12-19T10:07:34.000Z</time>
      </trkpt>
      <trkpt lat="47.13074" lon="-1.63827">
        <ele>60</ele>
        <time>2020-12-19T10:07:36.000Z</time>
      </trkpt>
      <trkpt lat="47.13067" lon="-1.63808">
        <ele>60</ele>
        <time>2020-12-19T10:07:38.000Z</time>
      </trkpt>
      <trkpt lat="47.13059" lon="-1.63789">
        <ele>59</ele>
        <time>2020-12-19T10:07:40.000Z</time>
      </trkpt>
      <trkpt lat="47.13051" lon="-1.63771">
        <ele>59</ele>
        <time>2020-12-19T10:07:42.000Z</time>
      </trkpt>
      <trkpt lat="47.13042" lon="-1.63753">
        <ele>59</ele>
        <time>2020-12-19T10:07:44.000Z</time>
      </trkpt>
      <trkpt lat="47.13033" lon="-1.63735">
        <ele>59</ele>
        <time>2020-12-19T10:07:46.000Z</time>
      </trkpt>
      <trkpt lat="47.13025" lon="-1.63718">
        <ele>60</ele>
        <time>2020-12-19T10:07:48.000Z</time>
      </trkpt>
      <trkpt lat="47.13016" lon="-1.63701">
        <ele>60</ele>
        <time>2020-12-19T10:07:50.000Z</time>
      </trkpt>
      <trkpt lat="47.13008" lon="-1.63684">
        <ele>60</ele>
        <time>2020-12-19T10:07:52.000Z</time>
      </trkpt>
      <trkpt lat="47.12999" lon="-1.63669">
        <ele>59</ele>
        <time>2020-12-19T10:07:54.000Z</time>
      </trkpt>
      <trkpt lat="47.12992" lon="-1.6365">
        <ele>58</ele>
        <time>2020-12-19T10:07:56.000Z</time>
      </trkpt>
      <trkpt lat="47.12987" lon="-1.6363">
        <ele>57</ele>
        <time>2020-12-19T10:07:58.000Z</time>
      </trkpt>
      <trkpt lat="47.1298" lon="-1.63611">
        <ele>56</ele>
        <time>2020-12-19T10:08:00.000Z</time>
      </trkpt>
      <trkpt lat="47.12973" lon="-1.63592">
        <ele>56</ele>
        <time>2020-12-19T10:08:02.000Z</time>
      </trkpt>
      <trkpt lat="47.12965" lon="-1.63573">
        <ele>56</ele>
        <time>2020-12-19T10:08:04.000Z</time>
      </trkpt>
      <trkpt lat="47.12958" lon="-1.63555">
        <ele>56</ele>
        <time>2020-12-19T10:08:06.000Z</time>
      </trkpt>
      <trkpt lat="47.12951" lon="-1.63537">
        <ele>56</ele>
        <time>2020-12-19T10:08:08.000Z</time>
      </trkpt>
      <trkpt lat="47.12943" lon="-1.63519">
        <ele>56</ele>
        <time>2020-12-19T10:08:10.000Z</time>
      </trkpt>
      <trkpt lat="47.12937" lon="-1.63501">
        <ele>56</ele>
        <time>2020-12-19T10:08:12.000Z</time>
      </trkpt>
      <trkpt lat="47.12931" lon="-1.63483">
        <ele>57</ele>
        <time>2020-12-19T10:08:14.000Z</time>
      </trkpt>
      <trkpt lat="47.12924" lon="-1.63465">
        <ele>57</ele>
        <time>2020-12-19T10:08:16.000Z</time>
      </trkpt>
      <trkpt lat="47.12917" lon="-1.63446">
        <ele>57</ele>
        <time>2020-12-19T10:08:18.000Z</time>
      </trkpt>
      <trkpt lat="47.1291" lon="-1.63427">
        <ele>57</ele>
        <time>2020-12-19T10:08:20.000Z</time>
      </trkpt>
      <trkpt lat="47.12903" lon="-1.63409">
        <ele>57</ele>
        <time>2020-12-19T10:08:22.000Z</time>
      </trkpt>
      <trkpt lat="47.12895" lon="-1.63391">
        <ele>56</ele>
        <time>2020-12-19T10:08:24.000Z</time>
      </trkpt>
      <trkpt lat="47.12888" lon="-1.63373">
        <ele>55</ele>
        <time>2020-12-19T10:08:26.000Z</time>
      </trkpt>
      <trkpt lat="47.12881" lon="-1.63356">
        <ele>55</ele>
        <time>2020-12-19T10:08:28.000Z</time>
      </trkpt>
      <trkpt lat="47.12873" lon="-1.63338">
        <ele>55</ele>
        <time>2020-12-19T10:08:30.000Z</time>
      </trkpt>
      <trkpt lat="47.12866" lon="-1.63319">
        <ele>55</ele>
        <time>2020-12-19T10:08:32.000Z</time>
      </trkpt>
      <trkpt lat="47.12859" lon="-1.63302">
        <ele>54</ele>
        <time>2020-12-19T10:08:34.000Z</time>
      </trkpt>
      <trkpt lat="47.12851" lon="-1.63282">
        <ele>55</ele>
        <time>2020-12-19T10:08:36.000Z</time>
      </trkpt>
      <trkpt lat="47.12845" lon="-1.63264">
        <ele>55</ele>
        <time>2020-12-19T10:08:38.000Z</time>
      </trkpt>
      <trkpt lat="47.12838" lon="-1.63245">
        <ele>55</ele>
        <time>2020-12-19T10:08:40.000Z</time>
      </trkpt>
      <trkpt lat="47.12831" lon="-1.63228">
        <ele>56</ele>
        <time>2020-12-19T10:08:42.000Z</time>
      </trkpt>
      <trkpt lat="47.12824" lon="-1.63211">
        <ele>56</ele>
        <time>2020-12-19T10:08:44.000Z</time>
      </trkpt>
      <trkpt lat="47.12818" lon="-1.63193">
        <ele>56</ele>
        <time>2020-12-19T10:08:46.000Z</time>
      </trkpt>
      <trkpt lat="47.12812" lon="-1.63174">
        <ele>57</ele>
        <time>2020-12-19T10:08:48.000Z</time>
      </trkpt>
      <trkpt lat="47.12804" lon="-1.63156">
        <ele>57</ele>
        <time>2020-12-19T10:08:50.000Z</time>
      </trkpt>
      <trkpt lat="47.12797" lon="-1.63137">
        <ele>57</ele>
        <time>2020-12-19T10:08:52.000Z</time>
      </trkpt>
      <trkpt lat="47.12791" lon="-1.63118">
        <ele>58</ele>
        <time>2020-12-19T10:08:54.000Z</time>
      </trkpt>
      <trkpt lat="47.12783" lon="-1.631">
        <ele>58</ele>
        <time>2020-12-19T10:08:56.000Z</time>
      </trkpt>
      <trkpt lat="47.12777" lon="-1.63083">
        <ele>58</ele>
        <time>2020-12-19T10:08:58.000Z</time>
      </trkpt>
      <trkpt lat="47.1277" lon="-1.63066">
        <ele>58</ele>
        <time>2020-12-19T10:09:00.000Z</time>
      </trkpt>
      <trkpt lat="47.12764" lon="-1.63049">
        <ele>58</ele>
        <time>2020-12-19T10:09:02.000Z</time>
      </trkpt>
      <trkpt lat="47.12757" lon="-1.63033">
        <ele>58</ele>
        <time>2020-12-19T10:09:04.000Z</time>
      </trkpt>
      <trkpt lat="47.1275" lon="-1.63015">
        <ele>58</ele>
        <time>2020-12-19T10:09:06.000Z</time>
      </trkpt>
      <trkpt lat="47.12743" lon="-1.62998">
        <ele>58</ele>
        <time>2020-12-19T10:09:08.000Z</time>
      </trkpt>
      <trkpt lat="47.12736" lon="-1.6298">
        <ele>58</ele>
        <time>2020-12-19T10:09:10.000Z</time>
      </trkpt>
      <trkpt lat="47.12729" lon="-1.62962">
        <ele>59</ele>
        <time>2020-12-19T10:09:12.000Z</time>
      </trkpt>
      <trkpt lat="47.12723" lon="-1.62945">
        <ele>59</ele>
        <time>2020-12-19T10:09:14.000Z</time>
      </trkpt>
      <trkpt lat="47.12716" lon="-1.62928">
        <ele>59</ele>
        <time>2020-12-19T10:09:16.000Z</time>
      </trkpt>
      <trkpt lat="47.12709" lon="-1.62911">
        <ele>60</ele>
        <time>2020-12-19T10:09:18.000Z</time>
      </trkpt>
      <trkpt lat="47.12703" lon="-1.62894">
        <ele>59</ele>
        <time>2020-12-19T10:09:20.000Z</time>
      </trkpt>
      <trkpt lat="47.12696" lon="-1.62878">
        <ele>60</ele>
        <time>2020-12-19T10:09:22.000Z</time>
      </trkpt>
      <trkpt lat="47.12689" lon="-1.62862">
        <ele>61</ele>
        <time>2020-12-19T10:09:24.000Z</time>
      </trkpt>
      <trkpt lat="47.12683" lon="-1.62847">
        <ele>61</ele>
        <time>2020-12-19T10:09:26.000Z</time>
      </trkpt>
      <trkpt lat="47.12675" lon="-1.62832">
        <ele>62</ele>
        <time>2020-12-19T10:09:28.000Z</time>
      </trkpt>
      <trkpt lat="47.12666" lon="-1.62819">
        <ele>61</ele>
        <time>2020-12-19T10:09:30.000Z</time>
      </trkpt>
      <trkpt lat="47.12659" lon="-1.62803">
        <ele>60</ele>
        <time>2020-12-19T10:09:32.000Z</time>
      </trkpt>
      <trkpt lat="47.12655" lon="-1.62784">
        <ele>60</ele>
        <time>2020-12-19T10:09:34.000Z</time>
      </trkpt>
      <trkpt lat="47.12648" lon="-1.62768">
        <ele>60</ele>
        <time>2020-12-19T10:09:36.000Z</time>
      </trkpt>
      <trkpt lat="47.1264" lon="-1.62752">
        <ele>60</ele>
        <time>2020-12-19T10:09:38.000Z</time>
      </trkpt>
      <trkpt lat="47.12633" lon="-1.62736">
        <ele>59</ele>
        <time>2020-12-19T10:09:40.000Z</time>
      </trkpt>
      <trkpt lat="47.12625" lon="-1.6272">
        <ele>58</ele>
        <time>2020-12-19T10:09:42.000Z</time>
      </trkpt>
      <trkpt lat="47.12617" lon="-1.62704">
        <ele>58</ele>
        <time>2020-12-19T10:09:44.000Z</time>
      </trkpt>
      <trkpt lat="47.12609" lon="-1.62688">
        <ele>59</ele>
        <time>2020-12-19T10:09:46.000Z</time>
      </trkpt>
      <trkpt lat="47.12601" lon="-1.62671">
        <ele>59</ele>
        <time>2020-12-19T10:09:48.000Z</time>
      </trkpt>
      <trkpt lat="47.12589" lon="-1.62646">
        <ele>58</ele>
        <time>2020-12-19T10:09:51.000Z</time>
      </trkpt>
      <trkpt lat="47.12582" lon="-1.62629">
        <ele>59</ele>
        <time>2020-12-19T10:09:53.000Z</time>
      </trkpt>
      <trkpt lat="47.12577" lon="-1.62611">
        <ele>59</ele>
        <time>2020-12-19T10:09:55.000Z</time>
      </trkpt>
      <trkpt lat="47.12572" lon="-1.62592">
        <ele>59</ele>
        <time>2020-12-19T10:09:57.000Z</time>
      </trkpt>
      <trkpt lat="47.12568" lon="-1.62573">
        <ele>59</ele>
        <time>2020-12-19T10:09:59.000Z</time>
      </trkpt>
      <trkpt lat="47.12565" lon="-1.62553">
        <ele>59</ele>
        <time>2020-12-19T10:10:01.000Z</time>
      </trkpt>
      <trkpt lat="47.12561" lon="-1.62534">
        <ele>59</ele>
        <time>2020-12-19T10:10:03.000Z</time>
      </trkpt>
      <trkpt lat="47.12556" lon="-1.62513">
        <ele>59</ele>
        <time>2020-12-19T10:10:05.000Z</time>
      </trkpt>
      <trkpt lat="47.12553" lon="-1.62494">
        <ele>58</ele>
        <time>2020-12-19T10:10:07.000Z</time>
      </trkpt>
      <trkpt lat="47.12549" lon="-1.62474">
        <ele>58</ele>
        <time>2020-12-19T10:10:09.000Z</time>
      </trkpt>
      <trkpt lat="47.12544" lon="-1.62454">
        <ele>58</ele>
        <time>2020-12-19T10:10:11.000Z</time>
      </trkpt>
      <trkpt lat="47.12539" lon="-1.62435">
        <ele>58</ele>
        <time>2020-12-19T10:10:13.000Z</time>
      </trkpt>
      <trkpt lat="47.12533" lon="-1.62416">
        <ele>57</ele>
        <time>2020-12-19T10:10:15.000Z</time>
      </trkpt>
      <trkpt lat="47.12527" lon="-1.62397">
        <ele>57</ele>
        <time>2020-12-19T10:10:17.000Z</time>
      </trkpt>
      <trkpt lat="47.1252" lon="-1.62379">
        <ele>57</ele>
        <time>2020-12-19T10:10:19.000Z</time>
      </trkpt>
      <trkpt lat="47.12513" lon="-1.62363">
        <ele>57</ele>
        <time>2020-12-19T10:10:21.000Z</time>
      </trkpt>
      <trkpt lat="47.12505" lon="-1.62347">
        <ele>57</ele>
        <time>2020-12-19T10:10:23.000Z</time>
      </trkpt>
      <trkpt lat="47.12497" lon="-1.62331">
        <ele>56</ele>
        <time>2020-12-19T10:10:25.000Z</time>
      </trkpt>
      <trkpt lat="47.12488" lon="-1.62316">
        <ele>56</ele>
        <time>2020-12-19T10:10:27.000Z</time>
      </trkpt>
      <trkpt lat="47.12479" lon="-1.62302">
        <ele>56</ele>
        <time>2020-12-19T10:10:29.000Z</time>
      </trkpt>
      <trkpt lat="47.12471" lon="-1.62288">
        <ele>56</ele>
        <time>2020-12-19T10:10:31.000Z</time>
      </trkpt>
      <trkpt lat="47.12462" lon="-1.62274">
        <ele>55</ele>
        <time>2020-12-19T10:10:33.000Z</time>
      </trkpt>
      <trkpt lat="47.12453" lon="-1.62259">
        <ele>56</ele>
        <time>2020-12-19T10:10:35.000Z</time>
      </trkpt>
      <trkpt lat="47.12439" lon="-1.62239">
        <ele>55</ele>
        <time>2020-12-19T10:10:38.000Z</time>
      </trkpt>
      <trkpt lat="47.1243" lon="-1.62225">
        <ele>54</ele>
        <time>2020-12-19T10:10:40.000Z</time>
      </trkpt>
      <trkpt lat="47.12421" lon="-1.62211">
        <ele>54</ele>
        <time>2020-12-19T10:10:42.000Z</time>
      </trkpt>
      <trkpt lat="47.12413" lon="-1.62197">
        <ele>54</ele>
        <time>2020-12-19T10:10:44.000Z</time>
      </trkpt>
      <trkpt lat="47.12405" lon="-1.62182">
        <ele>54</ele>
        <time>2020-12-19T10:10:46.000Z</time>
      </trkpt>
      <trkpt lat="47.12399" lon="-1.62166">
        <ele>54</ele>
        <time>2020-12-19T10:10:48.000Z</time>
      </trkpt>
      <trkpt lat="47.12393" lon="-1.62149">
        <ele>54</ele>
        <time>2020-12-19T10:10:50.000Z</time>
      </trkpt>
      <trkpt lat="47.12389" lon="-1.62131">
        <ele>54</ele>
        <time>2020-12-19T10:10:52.000Z</time>
      </trkpt>
      <trkpt lat="47.12385" lon="-1.62113">
        <ele>54</ele>
        <time>2020-12-19T10:10:54.000Z</time>
      </trkpt>
      <trkpt lat="47.12383" lon="-1.62094">
        <ele>54</ele>
        <time>2020-12-19T10:10:56.000Z</time>
      </trkpt>
      <trkpt lat="47.12382" lon="-1.62075">
        <ele>54</ele>
        <time>2020-12-19T10:10:58.000Z</time>
      </trkpt>
      <trkpt lat="47.12383" lon="-1.62056">
        <ele>54</ele>
        <time>2020-12-19T10:11:00.000Z</time>
      </trkpt>
      <trkpt lat="47.12386" lon="-1.62027">
        <ele>54</ele>
        <time>2020-12-19T10:11:03.000Z</time>
      </trkpt>
      <trkpt lat="47.12389" lon="-1.62009">
        <ele>55</ele>
        <time>2020-12-19T10:11:05.000Z</time>
      </trkpt>
      <trkpt lat="47.12396" lon="-1.61982">
        <ele>55</ele>
        <time>2020-12-19T10:11:08.000Z</time>
      </trkpt>
      <trkpt lat="47.124" lon="-1.61965">
        <ele>55</ele>
        <time>2020-12-19T10:11:10.000Z</time>
      </trkpt>
      <trkpt lat="47.12404" lon="-1.61947">
        <ele>55</ele>
        <time>2020-12-19T10:11:12.000Z</time>
      </trkpt>
      <trkpt lat="47.12409" lon="-1.61929">
        <ele>56</ele>
        <time>2020-12-19T10:11:14.000Z</time>
      </trkpt>
      <trkpt lat="47.12414" lon="-1.61911">
        <ele>56</ele>
        <time>2020-12-19T10:11:16.000Z</time>
      </trkpt>
      <trkpt lat="47.12418" lon="-1.61893">
        <ele>56</ele>
        <time>2020-12-19T10:11:18.000Z</time>
      </trkpt>
      <trkpt lat="47.12423" lon="-1.61877">
        <ele>56</ele>
        <time>2020-12-19T10:11:20.000Z</time>
      </trkpt>
      <trkpt lat="47.12429" lon="-1.6186">
        <ele>56</ele>
        <time>2020-12-19T10:11:22.000Z</time>
      </trkpt>
      <trkpt lat="47.12435" lon="-1.61834">
        <ele>57</ele>
        <time>2020-12-19T10:11:25.000Z</time>
      </trkpt>
      <trkpt lat="47.12438" lon="-1.61816">
        <ele>57</ele>
        <time>2020-12-19T10:11:27.000Z</time>
      </trkpt>
      <trkpt lat="47.12443" lon="-1.61798">
        <ele>58</ele>
        <time>2020-12-19T10:11:29.000Z</time>
      </trkpt>
      <trkpt lat="47.1245" lon="-1.61772">
        <ele>58</ele>
        <time>2020-12-19T10:11:32.000Z</time>
      </trkpt>
      <trkpt lat="47.12455" lon="-1.61755">
        <ele>58</ele>
        <time>2020-12-19T10:11:34.000Z</time>
      </trkpt>
      <trkpt lat="47.12459" lon="-1.61737">
        <ele>58</ele>
        <time>2020-12-19T10:11:36.000Z</time>
      </trkpt>
      <trkpt lat="47.12466" lon="-1.61711">
        <ele>59</ele>
        <time>2020-12-19T10:11:39.000Z</time>
      </trkpt>
      <trkpt lat="47.1247" lon="-1.61693">
        <ele>58</ele>
        <time>2020-12-19T10:11:41.000Z</time>
      </trkpt>
      <trkpt lat="47.12475" lon="-1.61665">
        <ele>58</ele>
        <time>2020-12-19T10:11:44.000Z</time>
      </trkpt>
      <trkpt lat="47.12478" lon="-1.61647">
        <ele>58</ele>
        <time>2020-12-19T10:11:46.000Z</time>
      </trkpt>
      <trkpt lat="47.12479" lon="-1.61628">
        <ele>58</ele>
        <time>2020-12-19T10:11:48.000Z</time>
      </trkpt>
      <trkpt lat="47.12478" lon="-1.61609">
        <ele>57</ele>
        <time>2020-12-19T10:11:50.000Z</time>
      </trkpt>
      <trkpt lat="47.12476" lon="-1.6159">
        <ele>58</ele>
        <time>2020-12-19T10:11:52.000Z</time>
      </trkpt>
      <trkpt lat="47.12473" lon="-1.61562">
        <ele>57</ele>
        <time>2020-12-19T10:11:55.000Z</time>
      </trkpt>
      <trkpt lat="47.12471" lon="-1.61543">
        <ele>58</ele>
        <time>2020-12-19T10:11:57.000Z</time>
      </trkpt>
      <trkpt lat="47.12469" lon="-1.61515">
        <ele>58</ele>
        <time>2020-12-19T10:12:00.000Z</time>
      </trkpt>
      <trkpt lat="47.12466" lon="-1.61497">
        <ele>58</ele>
        <time>2020-12-19T10:12:02.000Z</time>
      </trkpt>
      <trkpt lat="47.12464" lon="-1.61478">
        <ele>58</ele>
        <time>2020-12-19T10:12:04.000Z</time>
      </trkpt>
      <trkpt lat="47.12463" lon="-1.6146">
        <ele>59</ele>
        <time>2020-12-19T10:12:06.000Z</time>
      </trkpt>
      <trkpt lat="47.12461" lon="-1.61442">
        <ele>59</ele>
        <time>2020-12-19T10:12:08.000Z</time>
      </trkpt>
      <trkpt lat="47.12459" lon="-1.61424">
        <ele>59</ele>
        <time>2020-12-19T10:12:10.000Z</time>
      </trkpt>
      <trkpt lat="47.12457" lon="-1.61405">
        <ele>59</ele>
        <time>2020-12-19T10:12:12.000Z</time>
      </trkpt>
      <trkpt lat="47.12456" lon="-1.61387">
        <ele>59</ele>
        <time>2020-12-19T10:12:14.000Z</time>
      </trkpt>
      <trkpt lat="47.12457" lon="-1.61368">
        <ele>59</ele>
        <time>2020-12-19T10:12:16.000Z</time>
      </trkpt>
      <trkpt lat="47.12459" lon="-1.6135">
        <ele>60</ele>
        <time>2020-12-19T10:12:18.000Z</time>
      </trkpt>
      <trkpt lat="47.12462" lon="-1.61333">
        <ele>60</ele>
        <time>2020-12-19T10:12:20.000Z</time>
      </trkpt>
      <trkpt lat="47.12467" lon="-1.61315">
        <ele>60</ele>
        <time>2020-12-19T10:12:22.000Z</time>
      </trkpt>
      <trkpt lat="47.12472" lon="-1.61299">
        <ele>60</ele>
        <time>2020-12-19T10:12:24.000Z</time>
      </trkpt>
      <trkpt lat="47.12478" lon="-1.61282">
        <ele>60</ele>
        <time>2020-12-19T10:12:26.000Z</time>
      </trkpt>
      <trkpt lat="47.12484" lon="-1.61264">
        <ele>60</ele>
        <time>2020-12-19T10:12:28.000Z</time>
      </trkpt>
      <trkpt lat="47.12489" lon="-1.61247">
        <ele>60</ele>
        <time>2020-12-19T10:12:30.000Z</time>
      </trkpt>
      <trkpt lat="47.12493" lon="-1.61229">
        <ele>60</ele>
        <time>2020-12-19T10:12:32.000Z</time>
      </trkpt>
      <trkpt lat="47.12496" lon="-1.61211">
        <ele>60</ele>
        <time>2020-12-19T10:12:34.000Z</time>
      </trkpt>
      <trkpt lat="47.125" lon="-1.61193">
        <ele>59</ele>
        <time>2020-12-19T10:12:36.000Z</time>
      </trkpt>
      <trkpt lat="47.12502" lon="-1.61174">
        <ele>59</ele>
        <time>2020-12-19T10:12:38.000Z</time>
      </trkpt>
      <trkpt lat="47.12505" lon="-1.61154">
        <ele>59</ele>
        <time>2020-12-19T10:12:40.000Z</time>
      </trkpt>
      <trkpt lat="47.12506" lon="-1.61135">
        <ele>58</ele>
        <time>2020-12-19T10:12:42.000Z</time>
      </trkpt>
      <trkpt lat="47.12508" lon="-1.61115">
        <ele>59</ele>
        <time>2020-12-19T10:12:44.000Z</time>
      </trkpt>
      <trkpt lat="47.1251" lon="-1.61094">
        <ele>59</ele>
        <time>2020-12-19T10:12:46.000Z</time>
      </trkpt>
      <trkpt lat="47.12512" lon="-1.61075">
        <ele>59</ele>
        <time>2020-12-19T10:12:48.000Z</time>
      </trkpt>
      <trkpt lat="47.12514" lon="-1.61055">
        <ele>58</ele>
        <time>2020-12-19T10:12:50.000Z</time>
      </trkpt>
      <trkpt lat="47.12516" lon="-1.61035">
        <ele>58</ele>
        <time>2020-12-19T10:12:52.000Z</time>
      </trkpt>
      <trkpt lat="47.12518" lon="-1.61015">
        <ele>58</ele>
        <time>2020-12-19T10:12:54.000Z</time>
      </trkpt>
      <trkpt lat="47.1252" lon="-1.60996">
        <ele>58</ele>
        <time>2020-12-19T10:12:56.000Z</time>
      </trkpt>
      <trkpt lat="47.12522" lon="-1.60966">
        <ele>58</ele>
        <time>2020-12-19T10:12:59.000Z</time>
      </trkpt>
      <trkpt lat="47.12524" lon="-1.60947">
        <ele>57</ele>
        <time>2020-12-19T10:13:01.000Z</time>
      </trkpt>
      <trkpt lat="47.12526" lon="-1.60927">
        <ele>57</ele>
        <time>2020-12-19T10:13:03.000Z</time>
      </trkpt>
      <trkpt lat="47.12528" lon="-1.60907">
        <ele>58</ele>
        <time>2020-12-19T10:13:05.000Z</time>
      </trkpt>
      <trkpt lat="47.12529" lon="-1.60888">
        <ele>58</ele>
        <time>2020-12-19T10:13:07.000Z</time>
      </trkpt>
      <trkpt lat="47.12531" lon="-1.60868">
        <ele>58</ele>
        <time>2020-12-19T10:13:09.000Z</time>
      </trkpt>
      <trkpt lat="47.12533" lon="-1.60848">
        <ele>58</ele>
        <time>2020-12-19T10:13:11.000Z</time>
      </trkpt>
      <trkpt lat="47.12534" lon="-1.60828">
        <ele>58</ele>
        <time>2020-12-19T10:13:13.000Z</time>
      </trkpt>
      <trkpt lat="47.12537" lon="-1.60808">
        <ele>58</ele>
        <time>2020-12-19T10:13:15.000Z</time>
      </trkpt>
      <trkpt lat="47.12539" lon="-1.60788">
        <ele>58</ele>
        <time>2020-12-19T10:13:17.000Z</time>
      </trkpt>
      <trkpt lat="47.1254" lon="-1.60767">
        <ele>58</ele>
        <time>2020-12-19T10:13:19.000Z</time>
      </trkpt>
      <trkpt lat="47.12542" lon="-1.60747">
        <ele>58</ele>
        <time>2020-12-19T10:13:21.000Z</time>
      </trkpt>
      <trkpt lat="47.12543" lon="-1.60726">
        <ele>58</ele>
        <time>2020-12-19T10:13:23.000Z</time>
      </trkpt>
      <trkpt lat="47.12543" lon="-1.60706">
        <ele>57</ele>
        <time>2020-12-19T10:13:25.000Z</time>
      </trkpt>
      <trkpt lat="47.12543" lon="-1.60686">
        <ele>57</ele>
        <time>2020-12-19T10:13:27.000Z</time>
      </trkpt>
      <trkpt lat="47.12542" lon="-1.60666">
        <ele>58</ele>
        <time>2020-12-19T10:13:29.000Z</time>
      </trkpt>
      <trkpt lat="47.12542" lon="-1.60646">
        <ele>58</ele>
        <time>2020-12-19T10:13:31.000Z</time>
      </trkpt>
      <trkpt lat="47.12542" lon="-1.60626">
        <ele>59</ele>
        <time>2020-12-19T10:13:33.000Z</time>
      </trkpt>
      <trkpt lat="47.12541" lon="-1.60606">
        <ele>59</ele>
        <time>2020-12-19T10:13:35.000Z</time>
      </trkpt>
      <trkpt lat="47.1254" lon="-1.60587">
        <ele>59</ele>
        <time>2020-12-19T10:13:37.000Z</time>
      </trkpt>
      <trkpt lat="47.1254" lon="-1.60567">
        <ele>59</ele>
        <time>2020-12-19T10:13:39.000Z</time>
      </trkpt>
      <trkpt lat="47.12539" lon="-1.60547">
        <ele>59</ele>
        <time>2020-12-19T10:13:41.000Z</time>
      </trkpt>
      <trkpt lat="47.12539" lon="-1.60528">
        <ele>59</ele>
        <time>2020-12-19T10:13:43.000Z</time>
      </trkpt>
      <trkpt lat="47.12537" lon="-1.60508">
        <ele>59</ele>
        <time>2020-12-19T10:13:45.000Z</time>
      </trkpt>
      <trkpt lat="47.12534" lon="-1.60479">
        <ele>58</ele>
        <time>2020-12-19T10:13:48.000Z</time>
      </trkpt>
      <trkpt lat="47.12531" lon="-1.60459">
        <ele>58</ele>
        <time>2020-12-19T10:13:50.000Z</time>
      </trkpt>
      <trkpt lat="47.12527" lon="-1.6044">
        <ele>58</ele>
        <time>2020-12-19T10:13:52.000Z</time>
      </trkpt>
      <trkpt lat="47.12524" lon="-1.60421">
        <ele>58</ele>
        <time>2020-12-19T10:13:54.000Z</time>
      </trkpt>
      <trkpt lat="47.1252" lon="-1.60401">
        <ele>58</ele>
        <time>2020-12-19T10:13:56.000Z</time>
      </trkpt>
      <trkpt lat="47.12516" lon="-1.60381">
        <ele>57</ele>
        <time>2020-12-19T10:13:58.000Z</time>
      </trkpt>
      <trkpt lat="47.12512" lon="-1.60361">
        <ele>57</ele>
        <time>2020-12-19T10:14:00.000Z</time>
      </trkpt>
      <trkpt lat="47.12508" lon="-1.6034">
        <ele>57</ele>
        <time>2020-12-19T10:14:02.000Z</time>
      </trkpt>
      <trkpt lat="47.12504" lon="-1.6032">
        <ele>57</ele>
        <time>2020-12-19T10:14:04.000Z</time>
      </trkpt>
      <trkpt lat="47.125" lon="-1.60298">
        <ele>56</ele>
        <time>2020-12-19T10:14:06.000Z</time>
      </trkpt>
      <trkpt lat="47.12496" lon="-1.60278">
        <ele>56</ele>
        <time>2020-12-19T10:14:08.000Z</time>
      </trkpt>
      <trkpt lat="47.12492" lon="-1.60258">
        <ele>56</ele>
        <time>2020-12-19T10:14:10.000Z</time>
      </trkpt>
      <trkpt lat="47.12487" lon="-1.60238">
        <ele>56</ele>
        <time>2020-12-19T10:14:12.000Z</time>
      </trkpt>
      <trkpt lat="47.12484" lon="-1.60218">
        <ele>56</ele>
        <time>2020-12-19T10:14:14.000Z</time>
      </trkpt>
      <trkpt lat="47.12481" lon="-1.60198">
        <ele>56</ele>
        <time>2020-12-19T10:14:16.000Z</time>
      </trkpt>
      <trkpt lat="47.12479" lon="-1.60179">
        <ele>56</ele>
        <time>2020-12-19T10:14:18.000Z</time>
      </trkpt>
      <trkpt lat="47.12478" lon="-1.60159">
        <ele>56</ele>
        <time>2020-12-19T10:14:20.000Z</time>
      </trkpt>
      <trkpt lat="47.12477" lon="-1.6014">
        <ele>56</ele>
        <time>2020-12-19T10:14:22.000Z</time>
      </trkpt>
      <trkpt lat="47.12477" lon="-1.60121">
        <ele>56</ele>
        <time>2020-12-19T10:14:24.000Z</time>
      </trkpt>
      <trkpt lat="47.12476" lon="-1.60102">
        <ele>56</ele>
        <time>2020-12-19T10:14:26.000Z</time>
      </trkpt>
      <trkpt lat="47.12476" lon="-1.60082">
        <ele>57</ele>
        <time>2020-12-19T10:14:28.000Z</time>
      </trkpt>
      <trkpt lat="47.12475" lon="-1.60063">
        <ele>56</ele>
        <time>2020-12-19T10:14:30.000Z</time>
      </trkpt>
      <trkpt lat="47.12474" lon="-1.60043">
        <ele>57</ele>
        <time>2020-12-19T10:14:32.000Z</time>
      </trkpt>
      <trkpt lat="47.12473" lon="-1.60024">
        <ele>56</ele>
        <time>2020-12-19T10:14:34.000Z</time>
      </trkpt>
      <trkpt lat="47.12472" lon="-1.60004">
        <ele>56</ele>
        <time>2020-12-19T10:14:36.000Z</time>
      </trkpt>
      <trkpt lat="47.1247" lon="-1.59985">
        <ele>57</ele>
        <time>2020-12-19T10:14:38.000Z</time>
      </trkpt>
      <trkpt lat="47.1247" lon="-1.59966">
        <ele>57</ele>
        <time>2020-12-19T10:14:40.000Z</time>
      </trkpt>
      <trkpt lat="47.12469" lon="-1.59947">
        <ele>57</ele>
        <time>2020-12-19T10:14:42.000Z</time>
      </trkpt>
      <trkpt lat="47.12468" lon="-1.59928">
        <ele>58</ele>
        <time>2020-12-19T10:14:44.000Z</time>
      </trkpt>
      <trkpt lat="47.12467" lon="-1.59908">
        <ele>58</ele>
        <time>2020-12-19T10:14:46.000Z</time>
      </trkpt>
      <trkpt lat="47.12468" lon="-1.59889">
        <ele>58</ele>
        <time>2020-12-19T10:14:48.000Z</time>
      </trkpt>
      <trkpt lat="47.12467" lon="-1.59871">
        <ele>58</ele>
        <time>2020-12-19T10:14:50.000Z</time>
      </trkpt>
      <trkpt lat="47.12467" lon="-1.59853">
        <ele>58</ele>
        <time>2020-12-19T10:14:52.000Z</time>
      </trkpt>
      <trkpt lat="47.12466" lon="-1.59836">
        <ele>58</ele>
        <time>2020-12-19T10:14:54.000Z</time>
      </trkpt>
      <trkpt lat="47.12465" lon="-1.59816">
        <ele>57</ele>
        <time>2020-12-19T10:14:56.000Z</time>
      </trkpt>
      <trkpt lat="47.12464" lon="-1.59797">
        <ele>57</ele>
        <time>2020-12-19T10:14:58.000Z</time>
      </trkpt>
      <trkpt lat="47.12463" lon="-1.59778">
        <ele>57</ele>
        <time>2020-12-19T10:15:00.000Z</time>
      </trkpt>
      <trkpt lat="47.12462" lon="-1.59759">
        <ele>58</ele>
        <time>2020-12-19T10:15:02.000Z</time>
      </trkpt>
      <trkpt lat="47.1246" lon="-1.59741">
        <ele>58</ele>
        <time>2020-12-19T10:15:04.000Z</time>
      </trkpt>
      <trkpt lat="47.12458" lon="-1.59722">
        <ele>57</ele>
        <time>2020-12-19T10:15:06.000Z</time>
      </trkpt>
      <trkpt lat="47.12457" lon="-1.59703">
        <ele>57</ele>
        <time>2020-12-19T10:15:08.000Z</time>
      </trkpt>
      <trkpt lat="47.12456" lon="-1.59684">
        <ele>57</ele>
        <time>2020-12-19T10:15:10.000Z</time>
      </trkpt>
      <trkpt lat="47.12455" lon="-1.59665">
        <ele>57</ele>
        <time>2020-12-19T10:15:12.000Z</time>
      </trkpt>
      <trkpt lat="47.12454" lon="-1.59646">
        <ele>57</ele>
        <time>2020-12-19T10:15:14.000Z</time>
      </trkpt>
      <trkpt lat="47.12453" lon="-1.59627">
        <ele>57</ele>
        <time>2020-12-19T10:15:16.000Z</time>
      </trkpt>
      <trkpt lat="47.12452" lon="-1.59608">
        <ele>57</ele>
        <time>2020-12-19T10:15:18.000Z</time>
      </trkpt>
      <trkpt lat="47.1245" lon="-1.59589">
        <ele>57</ele>
        <time>2020-12-19T10:15:20.000Z</time>
      </trkpt>
      <trkpt lat="47.1245" lon="-1.5957">
        <ele>56</ele>
        <time>2020-12-19T10:15:22.000Z</time>
      </trkpt>
      <trkpt lat="47.12449" lon="-1.59551">
        <ele>57</ele>
        <time>2020-12-19T10:15:24.000Z</time>
      </trkpt>
      <trkpt lat="47.12449" lon="-1.59532">
        <ele>56</ele>
        <time>2020-12-19T10:15:26.000Z</time>
      </trkpt>
      <trkpt lat="47.12448" lon="-1.59513">
        <ele>56</ele>
        <time>2020-12-19T10:15:28.000Z</time>
      </trkpt>
      <trkpt lat="47.12447" lon="-1.59494">
        <ele>57</ele>
        <time>2020-12-19T10:15:30.000Z</time>
      </trkpt>
      <trkpt lat="47.12446" lon="-1.59475">
        <ele>57</ele>
        <time>2020-12-19T10:15:32.000Z</time>
      </trkpt>
      <trkpt lat="47.12445" lon="-1.59456">
        <ele>57</ele>
        <time>2020-12-19T10:15:34.000Z</time>
      </trkpt>
      <trkpt lat="47.12444" lon="-1.59437">
        <ele>56</ele>
        <time>2020-12-19T10:15:36.000Z</time>
      </trkpt>
      <trkpt lat="47.12443" lon="-1.59418">
        <ele>56</ele>
        <time>2020-12-19T10:15:38.000Z</time>
      </trkpt>
      <trkpt lat="47.12442" lon="-1.59398">
        <ele>55</ele>
        <time>2020-12-19T10:15:40.000Z</time>
      </trkpt>
      <trkpt lat="47.12441" lon="-1.59379">
        <ele>55</ele>
        <time>2020-12-19T10:15:42.000Z</time>
      </trkpt>
      <trkpt lat="47.1244" lon="-1.59359">
        <ele>54</ele>
        <time>2020-12-19T10:15:44.000Z</time>
      </trkpt>
      <trkpt lat="47.12439" lon="-1.59339">
        <ele>54</ele>
        <time>2020-12-19T10:15:46.000Z</time>
      </trkpt>
      <trkpt lat="47.12438" lon="-1.59318">
        <ele>54</ele>
        <time>2020-12-19T10:15:48.000Z</time>
      </trkpt>
      <trkpt lat="47.12437" lon="-1.59299">
        <ele>54</ele>
        <time>2020-12-19T10:15:50.000Z</time>
      </trkpt>
      <trkpt lat="47.12436" lon="-1.5928">
        <ele>54</ele>
        <time>2020-12-19T10:15:52.000Z</time>
      </trkpt>
      <trkpt lat="47.12435" lon="-1.59261">
        <ele>54</ele>
        <time>2020-12-19T10:15:54.000Z</time>
      </trkpt>
      <trkpt lat="47.12434" lon="-1.59241">
        <ele>54</ele>
        <time>2020-12-19T10:15:56.000Z</time>
      </trkpt>
      <trkpt lat="47.12431" lon="-1.59221">
        <ele>54</ele>
        <time>2020-12-19T10:15:58.000Z</time>
      </trkpt>
      <trkpt lat="47.12428" lon="-1.59202">
        <ele>54</ele>
        <time>2020-12-19T10:16:00.000Z</time>
      </trkpt>
      <trkpt lat="47.12427" lon="-1.59182">
        <ele>54</ele>
        <time>2020-12-19T10:16:02.000Z</time>
      </trkpt>
      <trkpt lat="47.12428" lon="-1.59162">
        <ele>54</ele>
        <time>2020-12-19T10:16:04.000Z</time>
      </trkpt>
      <trkpt lat="47.12429" lon="-1.59142">
        <ele>54</ele>
        <time>2020-12-19T10:16:06.000Z</time>
      </trkpt>
      <trkpt lat="47.12429" lon="-1.59122">
        <ele>54</ele>
        <time>2020-12-19T10:16:08.000Z</time>
      </trkpt>
      <trkpt lat="47.12429" lon="-1.59102">
        <ele>54</ele>
        <time>2020-12-19T10:16:10.000Z</time>
      </trkpt>
      <trkpt lat="47.12429" lon="-1.59082">
        <ele>54</ele>
        <time>2020-12-19T10:16:12.000Z</time>
      </trkpt>
      <trkpt lat="47.12428" lon="-1.59063">
        <ele>54</ele>
        <time>2020-12-19T10:16:14.000Z</time>
      </trkpt>
      <trkpt lat="47.12427" lon="-1.59043">
        <ele>54</ele>
        <time>2020-12-19T10:16:16.000Z</time>
      </trkpt>
      <trkpt lat="47.12426" lon="-1.59025">
        <ele>55</ele>
        <time>2020-12-19T10:16:18.000Z</time>
      </trkpt>
      <trkpt lat="47.12425" lon="-1.59008">
        <ele>55</ele>
        <time>2020-12-19T10:16:20.000Z</time>
      </trkpt>
      <trkpt lat="47.12424" lon="-1.5899">
        <ele>55</ele>
        <time>2020-12-19T10:16:22.000Z</time>
      </trkpt>
      <trkpt lat="47.12423" lon="-1.58973">
        <ele>56</ele>
        <time>2020-12-19T10:16:24.000Z</time>
      </trkpt>
      <trkpt lat="47.12422" lon="-1.58957">
        <ele>57</ele>
        <time>2020-12-19T10:16:26.000Z</time>
      </trkpt>
      <trkpt lat="47.12421" lon="-1.58941">
        <ele>57</ele>
        <time>2020-12-19T10:16:28.000Z</time>
      </trkpt>
      <trkpt lat="47.1242" lon="-1.58925">
        <ele>57</ele>
        <time>2020-12-19T10:16:30.000Z</time>
      </trkpt>
      <trkpt lat="47.12419" lon="-1.5891">
        <ele>58</ele>
        <time>2020-12-19T10:16:32.000Z</time>
      </trkpt>
      <trkpt lat="47.12417" lon="-1.58894">
        <ele>58</ele>
        <time>2020-12-19T10:16:34.000Z</time>
      </trkpt>
      <trkpt lat="47.12416" lon="-1.58877">
        <ele>59</ele>
        <time>2020-12-19T10:16:36.000Z</time>
      </trkpt>
      <trkpt lat="47.12414" lon="-1.58859">
        <ele>59</ele>
        <time>2020-12-19T10:16:38.000Z</time>
      </trkpt>
      <trkpt lat="47.12413" lon="-1.58842">
        <ele>59</ele>
        <time>2020-12-19T10:16:40.000Z</time>
      </trkpt>
      <trkpt lat="47.1241" lon="-1.58825">
        <ele>59</ele>
        <time>2020-12-19T10:16:42.000Z</time>
      </trkpt>
      <trkpt lat="47.12408" lon="-1.58808">
        <ele>59</ele>
        <time>2020-12-19T10:16:44.000Z</time>
      </trkpt>
      <trkpt lat="47.12406" lon="-1.58791">
        <ele>59</ele>
        <time>2020-12-19T10:16:46.000Z</time>
      </trkpt>
      <trkpt lat="47.12402" lon="-1.58773">
        <ele>59</ele>
        <time>2020-12-19T10:16:48.000Z</time>
      </trkpt>
      <trkpt lat="47.12399" lon="-1.58755">
        <ele>59</ele>
        <time>2020-12-19T10:16:50.000Z</time>
      </trkpt>
      <trkpt lat="47.12395" lon="-1.58738">
        <ele>60</ele>
        <time>2020-12-19T10:16:52.000Z</time>
      </trkpt>
      <trkpt lat="47.12392" lon="-1.5872">
        <ele>60</ele>
        <time>2020-12-19T10:16:54.000Z</time>
      </trkpt>
      <trkpt lat="47.12388" lon="-1.58702">
        <ele>60</ele>
        <time>2020-12-19T10:16:56.000Z</time>
      </trkpt>
      <trkpt lat="47.12384" lon="-1.58683">
        <ele>60</ele>
        <time>2020-12-19T10:16:58.000Z</time>
      </trkpt>
      <trkpt lat="47.1238" lon="-1.58665">
        <ele>60</ele>
        <time>2020-12-19T10:17:00.000Z</time>
      </trkpt>
      <trkpt lat="47.12375" lon="-1.58648">
        <ele>60</ele>
        <time>2020-12-19T10:17:02.000Z</time>
      </trkpt>
      <trkpt lat="47.12372" lon="-1.58629">
        <ele>60</ele>
        <time>2020-12-19T10:17:04.000Z</time>
      </trkpt>
      <trkpt lat="47.12367" lon="-1.58611">
        <ele>61</ele>
        <time>2020-12-19T10:17:06.000Z</time>
      </trkpt>
      <trkpt lat="47.12363" lon="-1.58592">
        <ele>60</ele>
        <time>2020-12-19T10:17:08.000Z</time>
      </trkpt>
      <trkpt lat="47.12359" lon="-1.58573">
        <ele>60</ele>
        <time>2020-12-19T10:17:10.000Z</time>
      </trkpt>
      <trkpt lat="47.12354" lon="-1.58554">
        <ele>60</ele>
        <time>2020-12-19T10:17:12.000Z</time>
      </trkpt>
      <trkpt lat="47.1235" lon="-1.58536">
        <ele>60</ele>
        <time>2020-12-19T10:17:14.000Z</time>
      </trkpt>
      <trkpt lat="47.12346" lon="-1.58517">
        <ele>61</ele>
        <time>2020-12-19T10:17:16.000Z</time>
      </trkpt>
      <trkpt lat="47.12342" lon="-1.58499">
        <ele>61</ele>
        <time>2020-12-19T10:17:18.000Z</time>
      </trkpt>
      <trkpt lat="47.12338" lon="-1.58481">
        <ele>61</ele>
        <time>2020-12-19T10:17:20.000Z</time>
      </trkpt>
      <trkpt lat="47.12334" lon="-1.58464">
        <ele>60</ele>
        <time>2020-12-19T10:17:22.000Z</time>
      </trkpt>
      <trkpt lat="47.12331" lon="-1.5845">
        <ele>61</ele>
        <time>2020-12-19T10:17:24.000Z</time>
      </trkpt>
      <trkpt lat="47.12326" lon="-1.58438">
        <ele>61</ele>
        <time>2020-12-19T10:17:27.000Z</time>
      </trkpt>
      <trkpt lat="47.1232" lon="-1.58428">
        <ele>62</ele>
        <time>2020-12-19T10:17:29.000Z</time>
      </trkpt>
      <trkpt lat="47.12314" lon="-1.58415">
        <ele>63</ele>
        <time>2020-12-19T10:17:31.000Z</time>
      </trkpt>
      <trkpt lat="47.12307" lon="-1.584">
        <ele>63</ele>
        <time>2020-12-19T10:17:33.000Z</time>
      </trkpt>
      <trkpt lat="47.12302" lon="-1.58384">
        <ele>61</ele>
        <time>2020-12-19T10:17:35.000Z</time>
      </trkpt>
      <trkpt lat="47.12302" lon="-1.58367">
        <ele>61</ele>
        <time>2020-12-19T10:17:37.000Z</time>
      </trkpt>
      <trkpt lat="47.12298" lon="-1.58349">
        <ele>62</ele>
        <time>2020-12-19T10:17:39.000Z</time>
      </trkpt>
      <trkpt lat="47.12288" lon="-1.58333">
        <ele>62</ele>
        <time>2020-12-19T10:17:41.000Z</time>
      </trkpt>
      <trkpt lat="47.12276" lon="-1.58321">
        <ele>61</ele>
        <time>2020-12-19T10:17:43.000Z</time>
      </trkpt>
      <trkpt lat="47.12262" lon="-1.58312">
        <ele>61</ele>
        <time>2020-12-19T10:17:45.000Z</time>
      </trkpt>
      <trkpt lat="47.1225" lon="-1.583">
        <ele>61</ele>
        <time>2020-12-19T10:17:47.000Z</time>
      </trkpt>
      <trkpt lat="47.12238" lon="-1.58289">
        <ele>60</ele>
        <time>2020-12-19T10:17:49.000Z</time>
      </trkpt>
      <trkpt lat="47.12227" lon="-1.58278">
        <ele>59</ele>
        <time>2020-12-19T10:17:51.000Z</time>
      </trkpt>
      <trkpt lat="47.12216" lon="-1.58268">
        <ele>59</ele>
        <time>2020-12-19T10:17:53.000Z</time>
      </trkpt>
      <trkpt lat="47.12207" lon="-1.58259">
        <ele>59</ele>
        <time>2020-12-19T10:17:55.000Z</time>
      </trkpt>
      <trkpt lat="47.12199" lon="-1.58248">
        <ele>59</ele>
        <time>2020-12-19T10:17:58.000Z</time>
      </trkpt>
      <trkpt lat="47.12201" lon="-1.58229">
        <ele>59</ele>
        <time>2020-12-19T10:18:01.000Z</time>
      </trkpt>
      <trkpt lat="47.12204" lon="-1.58209">
        <ele>58</ele>
        <time>2020-12-19T10:18:03.000Z</time>
      </trkpt>
      <trkpt lat="47.12205" lon="-1.58191">
        <ele>58</ele>
        <time>2020-12-19T10:18:05.000Z</time>
      </trkpt>
      <trkpt lat="47.12207" lon="-1.58171">
        <ele>58</ele>
        <time>2020-12-19T10:18:07.000Z</time>
      </trkpt>
      <trkpt lat="47.1221" lon="-1.58153">
        <ele>58</ele>
        <time>2020-12-19T10:18:09.000Z</time>
      </trkpt>
      <trkpt lat="47.12217" lon="-1.58136">
        <ele>58</ele>
        <time>2020-12-19T10:18:11.000Z</time>
      </trkpt>
      <trkpt lat="47.12224" lon="-1.58119">
        <ele>58</ele>
        <time>2020-12-19T10:18:13.000Z</time>
      </trkpt>
      <trkpt lat="47.12231" lon="-1.58103">
        <ele>58</ele>
        <time>2020-12-19T10:18:15.000Z</time>
      </trkpt>
      <trkpt lat="47.12237" lon="-1.58087">
        <ele>58</ele>
        <time>2020-12-19T10:18:17.000Z</time>
      </trkpt>
      <trkpt lat="47.12244" lon="-1.5807">
        <ele>58</ele>
        <time>2020-12-19T10:18:19.000Z</time>
      </trkpt>
      <trkpt lat="47.12247" lon="-1.58052">
        <ele>57</ele>
        <time>2020-12-19T10:18:21.000Z</time>
      </trkpt>
      <trkpt lat="47.12247" lon="-1.58033">
        <ele>58</ele>
        <time>2020-12-19T10:18:23.000Z</time>
      </trkpt>
      <trkpt lat="47.12243" lon="-1.58017">
        <ele>58</ele>
        <time>2020-12-19T10:18:25.000Z</time>
      </trkpt>
      <trkpt lat="47.12234" lon="-1.58002">
        <ele>57</ele>
        <time>2020-12-19T10:18:27.000Z</time>
      </trkpt>
      <trkpt lat="47.12225" lon="-1.57989">
        <ele>56</ele>
        <time>2020-12-19T10:18:29.000Z</time>
      </trkpt>
      <trkpt lat="47.12216" lon="-1.57976">
        <ele>56</ele>
        <time>2020-12-19T10:18:31.000Z</time>
      </trkpt>
      <trkpt lat="47.12209" lon="-1.57963">
        <ele>56</ele>
        <time>2020-12-19T10:18:33.000Z</time>
      </trkpt>
      <trkpt lat="47.12202" lon="-1.5795">
        <ele>57</ele>
        <time>2020-12-19T10:18:35.000Z</time>
      </trkpt>
      <trkpt lat="47.12195" lon="-1.57937">
        <ele>57</ele>
        <time>2020-12-19T10:18:37.000Z</time>
      </trkpt>
      <trkpt lat="47.1219" lon="-1.57922">
        <ele>57</ele>
        <time>2020-12-19T10:18:39.000Z</time>
      </trkpt>
      <trkpt lat="47.12186" lon="-1.57906">
        <ele>57</ele>
        <time>2020-12-19T10:18:41.000Z</time>
      </trkpt>
      <trkpt lat="47.12184" lon="-1.57889">
        <ele>58</ele>
        <time>2020-12-19T10:18:43.000Z</time>
      </trkpt>
      <trkpt lat="47.12183" lon="-1.57872">
        <ele>58</ele>
        <time>2020-12-19T10:18:45.000Z</time>
      </trkpt>
      <trkpt lat="47.12183" lon="-1.57856">
        <ele>59</ele>
        <time>2020-12-19T10:18:47.000Z</time>
      </trkpt>
      <trkpt lat="47.12182" lon="-1.57839">
        <ele>59</ele>
        <time>2020-12-19T10:18:49.000Z</time>
      </trkpt>
      <trkpt lat="47.12182" lon="-1.57823">
        <ele>59</ele>
        <time>2020-12-19T10:18:51.000Z</time>
      </trkpt>
      <trkpt lat="47.12182" lon="-1.57807">
        <ele>60</ele>
        <time>2020-12-19T10:18:53.000Z</time>
      </trkpt>
      <trkpt lat="47.12181" lon="-1.57791">
        <ele>59</ele>
        <time>2020-12-19T10:18:55.000Z</time>
      </trkpt>
      <trkpt lat="47.12181" lon="-1.57774">
        <ele>59</ele>
        <time>2020-12-19T10:18:57.000Z</time>
      </trkpt>
      <trkpt lat="47.12181" lon="-1.57759">
        <ele>60</ele>
        <time>2020-12-19T10:18:59.000Z</time>
      </trkpt>
      <trkpt lat="47.12181" lon="-1.57742">
        <ele>60</ele>
        <time>2020-12-19T10:19:01.000Z</time>
      </trkpt>
      <trkpt lat="47.12181" lon="-1.57725">
        <ele>60</ele>
        <time>2020-12-19T10:19:03.000Z</time>
      </trkpt>
      <trkpt lat="47.1218" lon="-1.57708">
        <ele>60</ele>
        <time>2020-12-19T10:19:05.000Z</time>
      </trkpt>
      <trkpt lat="47.1218" lon="-1.5769">
        <ele>60</ele>
        <time>2020-12-19T10:19:07.000Z</time>
      </trkpt>
      <trkpt lat="47.12181" lon="-1.57673">
        <ele>61</ele>
        <time>2020-12-19T10:19:09.000Z</time>
      </trkpt>
      <trkpt lat="47.1218" lon="-1.57655">
        <ele>61</ele>
        <time>2020-12-19T10:19:11.000Z</time>
      </trkpt>
      <trkpt lat="47.1218" lon="-1.57636">
        <ele>60</ele>
        <time>2020-12-19T10:19:13.000Z</time>
      </trkpt>
      <trkpt lat="47.12181" lon="-1.57618">
        <ele>60</ele>
        <time>2020-12-19T10:19:15.000Z</time>
      </trkpt>
      <trkpt lat="47.1218" lon="-1.57599">
        <ele>60</ele>
        <time>2020-12-19T10:19:17.000Z</time>
      </trkpt>
      <trkpt lat="47.12179" lon="-1.5758">
        <ele>60</ele>
        <time>2020-12-19T10:19:19.000Z</time>
      </trkpt>
      <trkpt lat="47.12178" lon="-1.57562">
        <ele>60</ele>
        <time>2020-12-19T10:19:21.000Z</time>
      </trkpt>
      <trkpt lat="47.12177" lon="-1.57543">
        <ele>60</ele>
        <time>2020-12-19T10:19:23.000Z</time>
      </trkpt>
      <trkpt lat="47.12175" lon="-1.57523">
        <ele>59</ele>
        <time>2020-12-19T10:19:25.000Z</time>
      </trkpt>
      <trkpt lat="47.12173" lon="-1.57505">
        <ele>59</ele>
        <time>2020-12-19T10:19:27.000Z</time>
      </trkpt>
      <trkpt lat="47.12171" lon="-1.57486">
        <ele>59</ele>
        <time>2020-12-19T10:19:29.000Z</time>
      </trkpt>
      <trkpt lat="47.12167" lon="-1.57468">
        <ele>58</ele>
        <time>2020-12-19T10:19:31.000Z</time>
      </trkpt>
      <trkpt lat="47.12163" lon="-1.57449">
        <ele>58</ele>
        <time>2020-12-19T10:19:33.000Z</time>
      </trkpt>
      <trkpt lat="47.1216" lon="-1.5743">
        <ele>58</ele>
        <time>2020-12-19T10:19:35.000Z</time>
      </trkpt>
      <trkpt lat="47.12156" lon="-1.57412">
        <ele>58</ele>
        <time>2020-12-19T10:19:37.000Z</time>
      </trkpt>
      <trkpt lat="47.12153" lon="-1.57393">
        <ele>59</ele>
        <time>2020-12-19T10:19:39.000Z</time>
      </trkpt>
      <trkpt lat="47.12149" lon="-1.57374">
        <ele>59</ele>
        <time>2020-12-19T10:19:41.000Z</time>
      </trkpt>
      <trkpt lat="47.12146" lon="-1.57355">
        <ele>59</ele>
        <time>2020-12-19T10:19:43.000Z</time>
      </trkpt>
      <trkpt lat="47.12143" lon="-1.57335">
        <ele>59</ele>
        <time>2020-12-19T10:19:45.000Z</time>
      </trkpt>
      <trkpt lat="47.12139" lon="-1.57315">
        <ele>58</ele>
        <time>2020-12-19T10:19:47.000Z</time>
      </trkpt>
      <trkpt lat="47.12135" lon="-1.57296">
        <ele>59</ele>
        <time>2020-12-19T10:19:49.000Z</time>
      </trkpt>
      <trkpt lat="47.1213" lon="-1.57277">
        <ele>59</ele>
        <time>2020-12-19T10:19:51.000Z</time>
      </trkpt>
      <trkpt lat="47.12127" lon="-1.57257">
        <ele>59</ele>
        <time>2020-12-19T10:19:53.000Z</time>
      </trkpt>
      <trkpt lat="47.12122" lon="-1.57237">
        <ele>58</ele>
        <time>2020-12-19T10:19:55.000Z</time>
      </trkpt>
      <trkpt lat="47.12119" lon="-1.57216">
        <ele>57</ele>
        <time>2020-12-19T10:19:57.000Z</time>
      </trkpt>
      <trkpt lat="47.12115" lon="-1.57195">
        <ele>57</ele>
        <time>2020-12-19T10:19:59.000Z</time>
      </trkpt>
      <trkpt lat="47.12111" lon="-1.57175">
        <ele>56</ele>
        <time>2020-12-19T10:20:01.000Z</time>
      </trkpt>
      <trkpt lat="47.12108" lon="-1.57155">
        <ele>56</ele>
        <time>2020-12-19T10:20:03.000Z</time>
      </trkpt>
      <trkpt lat="47.12105" lon="-1.57135">
        <ele>55</ele>
        <time>2020-12-19T10:20:05.000Z</time>
      </trkpt>
      <trkpt lat="47.12102" lon="-1.57115">
        <ele>55</ele>
        <time>2020-12-19T10:20:07.000Z</time>
      </trkpt>
      <trkpt lat="47.12098" lon="-1.57094">
        <ele>54</ele>
        <time>2020-12-19T10:20:09.000Z</time>
      </trkpt>
      <trkpt lat="47.12094" lon="-1.57074">
        <ele>54</ele>
        <time>2020-12-19T10:20:11.000Z</time>
      </trkpt>
      <trkpt lat="47.1209" lon="-1.57053">
        <ele>55</ele>
        <time>2020-12-19T10:20:13.000Z</time>
      </trkpt>
      <trkpt lat="47.12086" lon="-1.57032">
        <ele>55</ele>
        <time>2020-12-19T10:20:15.000Z</time>
      </trkpt>
      <trkpt lat="47.12082" lon="-1.57011">
        <ele>56</ele>
        <time>2020-12-19T10:20:17.000Z</time>
      </trkpt>
      <trkpt lat="47.12078" lon="-1.56991">
        <ele>56</ele>
        <time>2020-12-19T10:20:19.000Z</time>
      </trkpt>
      <trkpt lat="47.12074" lon="-1.56972">
        <ele>56</ele>
        <time>2020-12-19T10:20:21.000Z</time>
      </trkpt>
      <trkpt lat="47.1207" lon="-1.56953">
        <ele>56</ele>
        <time>2020-12-19T10:20:23.000Z</time>
      </trkpt>
      <trkpt lat="47.12065" lon="-1.56934">
        <ele>56</ele>
        <time>2020-12-19T10:20:25.000Z</time>
      </trkpt>
      <trkpt lat="47.12062" lon="-1.56917">
        <ele>56</ele>
        <time>2020-12-19T10:20:27.000Z</time>
      </trkpt>
      <trkpt lat="47.12058" lon="-1.569">
        <ele>56</ele>
        <time>2020-12-19T10:20:29.000Z</time>
      </trkpt>
      <trkpt lat="47.12055" lon="-1.56884">
        <ele>56</ele>
        <time>2020-12-19T10:20:31.000Z</time>
      </trkpt>
      <trkpt lat="47.12052" lon="-1.56868">
        <ele>57</ele>
        <time>2020-12-19T10:20:33.000Z</time>
      </trkpt>
      <trkpt lat="47.12049" lon="-1.56851">
        <ele>57</ele>
        <time>2020-12-19T10:20:35.000Z</time>
      </trkpt>
      <trkpt lat="47.12046" lon="-1.56834">
        <ele>57</ele>
        <time>2020-12-19T10:20:37.000Z</time>
      </trkpt>
      <trkpt lat="47.12043" lon="-1.56818">
        <ele>57</ele>
        <time>2020-12-19T10:20:39.000Z</time>
      </trkpt>
      <trkpt lat="47.12039" lon="-1.56801">
        <ele>57</ele>
        <time>2020-12-19T10:20:41.000Z</time>
      </trkpt>
      <trkpt lat="47.12036" lon="-1.56786">
        <ele>58</ele>
        <time>2020-12-19T10:20:43.000Z</time>
      </trkpt>
      <trkpt lat="47.12033" lon="-1.56769">
        <ele>58</ele>
        <time>2020-12-19T10:20:45.000Z</time>
      </trkpt>
      <trkpt lat="47.1203" lon="-1.56753">
        <ele>58</ele>
        <time>2020-12-19T10:20:47.000Z</time>
      </trkpt>
      <trkpt lat="47.12027" lon="-1.56736">
        <ele>59</ele>
        <time>2020-12-19T10:20:49.000Z</time>
      </trkpt>
      <trkpt lat="47.12024" lon="-1.5672">
        <ele>58</ele>
        <time>2020-12-19T10:20:51.000Z</time>
      </trkpt>
      <trkpt lat="47.12021" lon="-1.56703">
        <ele>59</ele>
        <time>2020-12-19T10:20:53.000Z</time>
      </trkpt>
      <trkpt lat="47.12017" lon="-1.56686">
        <ele>60</ele>
        <time>2020-12-19T10:20:55.000Z</time>
      </trkpt>
      <trkpt lat="47.12014" lon="-1.5667">
        <ele>60</ele>
        <time>2020-12-19T10:20:57.000Z</time>
      </trkpt>
      <trkpt lat="47.12011" lon="-1.56654">
        <ele>60</ele>
        <time>2020-12-19T10:20:59.000Z</time>
      </trkpt>
      <trkpt lat="47.12008" lon="-1.56639">
        <ele>61</ele>
        <time>2020-12-19T10:21:01.000Z</time>
      </trkpt>
      <trkpt lat="47.12005" lon="-1.56623">
        <ele>61</ele>
        <time>2020-12-19T10:21:03.000Z</time>
      </trkpt>
      <trkpt lat="47.12001" lon="-1.56607">
        <ele>61</ele>
        <time>2020-12-19T10:21:05.000Z</time>
      </trkpt>
      <trkpt lat="47.11998" lon="-1.56591">
        <ele>61</ele>
        <time>2020-12-19T10:21:07.000Z</time>
      </trkpt>
      <trkpt lat="47.11994" lon="-1.56574">
        <ele>61</ele>
        <time>2020-12-19T10:21:09.000Z</time>
      </trkpt>
      <trkpt lat="47.11991" lon="-1.56558">
        <ele>61</ele>
        <time>2020-12-19T10:21:11.000Z</time>
      </trkpt>
      <trkpt lat="47.11988" lon="-1.56541">
        <ele>61</ele>
        <time>2020-12-19T10:21:13.000Z</time>
      </trkpt>
      <trkpt lat="47.11984" lon="-1.56524">
        <ele>62</ele>
        <time>2020-12-19T10:21:15.000Z</time>
      </trkpt>
      <trkpt lat="47.1198" lon="-1.56507">
        <ele>62</ele>
        <time>2020-12-19T10:21:17.000Z</time>
      </trkpt>
      <trkpt lat="47.11975" lon="-1.5649">
        <ele>61</ele>
        <time>2020-12-19T10:21:19.000Z</time>
      </trkpt>
      <trkpt lat="47.11971" lon="-1.56473">
        <ele>61</ele>
        <time>2020-12-19T10:21:21.000Z</time>
      </trkpt>
      <trkpt lat="47.11966" lon="-1.56454">
        <ele>61</ele>
        <time>2020-12-19T10:21:23.000Z</time>
      </trkpt>
      <trkpt lat="47.11962" lon="-1.56437">
        <ele>61</ele>
        <time>2020-12-19T10:21:25.000Z</time>
      </trkpt>
      <trkpt lat="47.11958" lon="-1.56419">
        <ele>60</ele>
        <time>2020-12-19T10:21:27.000Z</time>
      </trkpt>
      <trkpt lat="47.11953" lon="-1.56401">
        <ele>60</ele>
        <time>2020-12-19T10:21:29.000Z</time>
      </trkpt>
      <trkpt lat="47.11948" lon="-1.56382">
        <ele>60</ele>
        <time>2020-12-19T10:21:31.000Z</time>
      </trkpt>
      <trkpt lat="47.11943" lon="-1.56364">
        <ele>60</ele>
        <time>2020-12-19T10:21:33.000Z</time>
      </trkpt>
      <trkpt lat="47.11939" lon="-1.56345">
        <ele>60</ele>
        <time>2020-12-19T10:21:35.000Z</time>
      </trkpt>
      <trkpt lat="47.11934" lon="-1.56327">
        <ele>59</ele>
        <time>2020-12-19T10:21:37.000Z</time>
      </trkpt>
      <trkpt lat="47.11929" lon="-1.56308">
        <ele>59</ele>
        <time>2020-12-19T10:21:39.000Z</time>
      </trkpt>
      <trkpt lat="47.11924" lon="-1.5629">
        <ele>59</ele>
        <time>2020-12-19T10:21:41.000Z</time>
      </trkpt>
      <trkpt lat="47.11919" lon="-1.56271">
        <ele>59</ele>
        <time>2020-12-19T10:21:43.000Z</time>
      </trkpt>
      <trkpt lat="47.11915" lon="-1.56252">
        <ele>59</ele>
        <time>2020-12-19T10:21:45.000Z</time>
      </trkpt>
      <trkpt lat="47.1191" lon="-1.56233">
        <ele>59</ele>
        <time>2020-12-19T10:21:47.000Z</time>
      </trkpt>
      <trkpt lat="47.11905" lon="-1.56214">
        <ele>59</ele>
        <time>2020-12-19T10:21:49.000Z</time>
      </trkpt>
      <trkpt lat="47.119" lon="-1.56195">
        <ele>59</ele>
        <time>2020-12-19T10:21:51.000Z</time>
      </trkpt>
      <trkpt lat="47.11895" lon="-1.56176">
        <ele>59</ele>
        <time>2020-12-19T10:21:53.000Z</time>
      </trkpt>
      <trkpt lat="47.1189" lon="-1.56158">
        <ele>59</ele>
        <time>2020-12-19T10:21:55.000Z</time>
      </trkpt>
      <trkpt lat="47.11885" lon="-1.56139">
        <ele>59</ele>
        <time>2020-12-19T10:21:57.000Z</time>
      </trkpt>
      <trkpt lat="47.1188" lon="-1.5612">
        <ele>59</ele>
        <time>2020-12-19T10:21:59.000Z</time>
      </trkpt>
      <trkpt lat="47.11876" lon="-1.56101">
        <ele>59</ele>
        <time>2020-12-19T10:22:01.000Z</time>
      </trkpt>
      <trkpt lat="47.11872" lon="-1.56082">
        <ele>59</ele>
        <time>2020-12-19T10:22:03.000Z</time>
      </trkpt>
      <trkpt lat="47.11869" lon="-1.56063">
        <ele>59</ele>
        <time>2020-12-19T10:22:05.000Z</time>
      </trkpt>
      <trkpt lat="47.11865" lon="-1.56044">
        <ele>60</ele>
        <time>2020-12-19T10:22:07.000Z</time>
      </trkpt>
      <trkpt lat="47.11863" lon="-1.56024">
        <ele>60</ele>
        <time>2020-12-19T10:22:09.000Z</time>
      </trkpt>
      <trkpt lat="47.11861" lon="-1.56005">
        <ele>60</ele>
        <time>2020-12-19T10:22:11.000Z</time>
      </trkpt>
      <trkpt lat="47.11859" lon="-1.55985">
        <ele>61</ele>
        <time>2020-12-19T10:22:13.000Z</time>
      </trkpt>
      <trkpt lat="47.11857" lon="-1.55966">
        <ele>61</ele>
        <time>2020-12-19T10:22:15.000Z</time>
      </trkpt>
      <trkpt lat="47.11856" lon="-1.55947">
        <ele>61</ele>
        <time>2020-12-19T10:22:17.000Z</time>
      </trkpt>
      <trkpt lat="47.11855" lon="-1.55927">
        <ele>61</ele>
        <time>2020-12-19T10:22:19.000Z</time>
      </trkpt>
      <trkpt lat="47.11854" lon="-1.55908">
        <ele>61</ele>
        <time>2020-12-19T10:22:21.000Z</time>
      </trkpt>
      <trkpt lat="47.11852" lon="-1.55889">
        <ele>62</ele>
        <time>2020-12-19T10:22:23.000Z</time>
      </trkpt>
      <trkpt lat="47.1185" lon="-1.5587">
        <ele>62</ele>
        <time>2020-12-19T10:22:25.000Z</time>
      </trkpt>
      <trkpt lat="47.11849" lon="-1.55851">
        <ele>62</ele>
        <time>2020-12-19T10:22:27.000Z</time>
      </trkpt>
      <trkpt lat="47.11847" lon="-1.55833">
        <ele>63</ele>
        <time>2020-12-19T10:22:29.000Z</time>
      </trkpt>
      <trkpt lat="47.11846" lon="-1.55814">
        <ele>62</ele>
        <time>2020-12-19T10:22:31.000Z</time>
      </trkpt>
      <trkpt lat="47.11844" lon="-1.55794">
        <ele>62</ele>
        <time>2020-12-19T10:22:33.000Z</time>
      </trkpt>
      <trkpt lat="47.11843" lon="-1.55775">
        <ele>62</ele>
        <time>2020-12-19T10:22:35.000Z</time>
      </trkpt>
      <trkpt lat="47.11843" lon="-1.55755">
        <ele>62</ele>
        <time>2020-12-19T10:22:37.000Z</time>
      </trkpt>
      <trkpt lat="47.11841" lon="-1.55735">
        <ele>62</ele>
        <time>2020-12-19T10:22:39.000Z</time>
      </trkpt>
      <trkpt lat="47.11839" lon="-1.55716">
        <ele>62</ele>
        <time>2020-12-19T10:22:41.000Z</time>
      </trkpt>
      <trkpt lat="47.11838" lon="-1.55696">
        <ele>62</ele>
        <time>2020-12-19T10:22:43.000Z</time>
      </trkpt>
      <trkpt lat="47.11836" lon="-1.55677">
        <ele>63</ele>
        <time>2020-12-19T10:22:45.000Z</time>
      </trkpt>
      <trkpt lat="47.11835" lon="-1.55657">
        <ele>63</ele>
        <time>2020-12-19T10:22:47.000Z</time>
      </trkpt>
      <trkpt lat="47.11833" lon="-1.55638">
        <ele>63</ele>
        <time>2020-12-19T10:22:49.000Z</time>
      </trkpt>
      <trkpt lat="47.11832" lon="-1.55618">
        <ele>63</ele>
        <time>2020-12-19T10:22:51.000Z</time>
      </trkpt>
      <trkpt lat="47.1183" lon="-1.55599">
        <ele>63</ele>
        <time>2020-12-19T10:22:53.000Z</time>
      </trkpt>
      <trkpt lat="47.11829" lon="-1.55579">
        <ele>63</ele>
        <time>2020-12-19T10:22:55.000Z</time>
      </trkpt>
      <trkpt lat="47.11827" lon="-1.5556">
        <ele>63</ele>
        <time>2020-12-19T10:22:57.000Z</time>
      </trkpt>
      <trkpt lat="47.11826" lon="-1.55541">
        <ele>63</ele>
        <time>2020-12-19T10:22:59.000Z</time>
      </trkpt>
      <trkpt lat="47.11824" lon="-1.55521">
        <ele>63</ele>
        <time>2020-12-19T10:23:01.000Z</time>
      </trkpt>
      <trkpt lat="47.11823" lon="-1.55501">
        <ele>63</ele>
        <time>2020-12-19T10:23:03.000Z</time>
      </trkpt>
      <trkpt lat="47.11821" lon="-1.55481">
        <ele>63</ele>
        <time>2020-12-19T10:23:05.000Z</time>
      </trkpt>
      <trkpt lat="47.1182" lon="-1.55461">
        <ele>63</ele>
        <time>2020-12-19T10:23:07.000Z</time>
      </trkpt>
      <trkpt lat="47.11819" lon="-1.55442">
        <ele>63</ele>
        <time>2020-12-19T10:23:09.000Z</time>
      </trkpt>
      <trkpt lat="47.11818" lon="-1.55424">
        <ele>64</ele>
        <time>2020-12-19T10:23:11.000Z</time>
      </trkpt>
      <trkpt lat="47.11818" lon="-1.55405">
        <ele>64</ele>
        <time>2020-12-19T10:23:13.000Z</time>
      </trkpt>
      <trkpt lat="47.11818" lon="-1.55385">
        <ele>64</ele>
        <time>2020-12-19T10:23:15.000Z</time>
      </trkpt>
      <trkpt lat="47.11817" lon="-1.55366">
        <ele>64</ele>
        <time>2020-12-19T10:23:17.000Z</time>
      </trkpt>
      <trkpt lat="47.11817" lon="-1.55347">
        <ele>64</ele>
        <time>2020-12-19T10:23:19.000Z</time>
      </trkpt>
      <trkpt lat="47.11817" lon="-1.55328">
        <ele>64</ele>
        <time>2020-12-19T10:23:21.000Z</time>
      </trkpt>
      <trkpt lat="47.11816" lon="-1.55309">
        <ele>64</ele>
        <time>2020-12-19T10:23:23.000Z</time>
      </trkpt>
      <trkpt lat="47.11816" lon="-1.5529">
        <ele>64</ele>
        <time>2020-12-19T10:23:25.000Z</time>
      </trkpt>
      <trkpt lat="47.11816" lon="-1.55271">
        <ele>64</ele>
        <time>2020-12-19T10:23:27.000Z</time>
      </trkpt>
      <trkpt lat="47.11815" lon="-1.55252">
        <ele>64</ele>
        <time>2020-12-19T10:23:29.000Z</time>
      </trkpt>
      <trkpt lat="47.11815" lon="-1.55233">
        <ele>64</ele>
        <time>2020-12-19T10:23:31.000Z</time>
      </trkpt>
      <trkpt lat="47.11814" lon="-1.55213">
        <ele>65</ele>
        <time>2020-12-19T10:23:33.000Z</time>
      </trkpt>
      <trkpt lat="47.11813" lon="-1.55193">
        <ele>65</ele>
        <time>2020-12-19T10:23:35.000Z</time>
      </trkpt>
      <trkpt lat="47.11812" lon="-1.55173">
        <ele>64</ele>
        <time>2020-12-19T10:23:37.000Z</time>
      </trkpt>
      <trkpt lat="47.11811" lon="-1.55154">
        <ele>64</ele>
        <time>2020-12-19T10:23:39.000Z</time>
      </trkpt>
      <trkpt lat="47.1181" lon="-1.55134">
        <ele>65</ele>
        <time>2020-12-19T10:23:41.000Z</time>
      </trkpt>
      <trkpt lat="47.11809" lon="-1.55115">
        <ele>65</ele>
        <time>2020-12-19T10:23:43.000Z</time>
      </trkpt>
      <trkpt lat="47.11807" lon="-1.55096">
        <ele>65</ele>
        <time>2020-12-19T10:23:45.000Z</time>
      </trkpt>
      <trkpt lat="47.11804" lon="-1.55076">
        <ele>65</ele>
        <time>2020-12-19T10:23:47.000Z</time>
      </trkpt>
      <trkpt lat="47.11801" lon="-1.55056">
        <ele>65</ele>
        <time>2020-12-19T10:23:49.000Z</time>
      </trkpt>
      <trkpt lat="47.11798" lon="-1.55037">
        <ele>65</ele>
        <time>2020-12-19T10:23:51.000Z</time>
      </trkpt>
      <trkpt lat="47.11794" lon="-1.55018">
        <ele>65</ele>
        <time>2020-12-19T10:23:53.000Z</time>
      </trkpt>
      <trkpt lat="47.1179" lon="-1.54999">
        <ele>65</ele>
        <time>2020-12-19T10:23:55.000Z</time>
      </trkpt>
      <trkpt lat="47.11786" lon="-1.5498">
        <ele>65</ele>
        <time>2020-12-19T10:23:57.000Z</time>
      </trkpt>
      <trkpt lat="47.11783" lon="-1.54961">
        <ele>65</ele>
        <time>2020-12-19T10:23:59.000Z</time>
      </trkpt>
      <trkpt lat="47.11778" lon="-1.54943">
        <ele>65</ele>
        <time>2020-12-19T10:24:01.000Z</time>
      </trkpt>
      <trkpt lat="47.11774" lon="-1.54924">
        <ele>65</ele>
        <time>2020-12-19T10:24:03.000Z</time>
      </trkpt>
      <trkpt lat="47.11769" lon="-1.54905">
        <ele>65</ele>
        <time>2020-12-19T10:24:05.000Z</time>
      </trkpt>
      <trkpt lat="47.11763" lon="-1.54887">
        <ele>65</ele>
        <time>2020-12-19T10:24:07.000Z</time>
      </trkpt>
      <trkpt lat="47.11758" lon="-1.5487">
        <ele>65</ele>
        <time>2020-12-19T10:24:09.000Z</time>
      </trkpt>
      <trkpt lat="47.11752" lon="-1.54853">
        <ele>65</ele>
        <time>2020-12-19T10:24:11.000Z</time>
      </trkpt>
      <trkpt lat="47.11747" lon="-1.54835">
        <ele>65</ele>
        <time>2020-12-19T10:24:13.000Z</time>
      </trkpt>
      <trkpt lat="47.11742" lon="-1.54818">
        <ele>65</ele>
        <time>2020-12-19T10:24:15.000Z</time>
      </trkpt>
      <trkpt lat="47.11737" lon="-1.548">
        <ele>65</ele>
        <time>2020-12-19T10:24:17.000Z</time>
      </trkpt>
      <trkpt lat="47.11732" lon="-1.54783">
        <ele>65</ele>
        <time>2020-12-19T10:24:19.000Z</time>
      </trkpt>
      <trkpt lat="47.11726" lon="-1.54766">
        <ele>65</ele>
        <time>2020-12-19T10:24:21.000Z</time>
      </trkpt>
      <trkpt lat="47.11721" lon="-1.54748">
        <ele>65</ele>
        <time>2020-12-19T10:24:23.000Z</time>
      </trkpt>
      <trkpt lat="47.11716" lon="-1.54731">
        <ele>65</ele>
        <time>2020-12-19T10:24:25.000Z</time>
      </trkpt>
      <trkpt lat="47.1171" lon="-1.54714">
        <ele>65</ele>
        <time>2020-12-19T10:24:27.000Z</time>
      </trkpt>
      <trkpt lat="47.11705" lon="-1.54697">
        <ele>65</ele>
        <time>2020-12-19T10:24:29.000Z</time>
      </trkpt>
      <trkpt lat="47.117" lon="-1.54681">
        <ele>66</ele>
        <time>2020-12-19T10:24:31.000Z</time>
      </trkpt>
      <trkpt lat="47.11695" lon="-1.54664">
        <ele>66</ele>
        <time>2020-12-19T10:24:33.000Z</time>
      </trkpt>
      <trkpt lat="47.1169" lon="-1.54647">
        <ele>66</ele>
        <time>2020-12-19T10:24:35.000Z</time>
      </trkpt>
      <trkpt lat="47.11685" lon="-1.54629">
        <ele>67</ele>
        <time>2020-12-19T10:24:37.000Z</time>
      </trkpt>
      <trkpt lat="47.1168" lon="-1.54613">
        <ele>67</ele>
        <time>2020-12-19T10:24:39.000Z</time>
      </trkpt>
      <trkpt lat="47.11674" lon="-1.54596">
        <ele>67</ele>
        <time>2020-12-19T10:24:41.000Z</time>
      </trkpt>
      <trkpt lat="47.11669" lon="-1.5458">
        <ele>67</ele>
        <time>2020-12-19T10:24:43.000Z</time>
      </trkpt>
      <trkpt lat="47.11663" lon="-1.54563">
        <ele>67</ele>
        <time>2020-12-19T10:24:45.000Z</time>
      </trkpt>
      <trkpt lat="47.11658" lon="-1.54546">
        <ele>67</ele>
        <time>2020-12-19T10:24:47.000Z</time>
      </trkpt>
      <trkpt lat="47.11652" lon="-1.5453">
        <ele>67</ele>
        <time>2020-12-19T10:24:49.000Z</time>
      </trkpt>
      <trkpt lat="47.11647" lon="-1.54514">
        <ele>67</ele>
        <time>2020-12-19T10:24:51.000Z</time>
      </trkpt>
      <trkpt lat="47.11642" lon="-1.54497">
        <ele>67</ele>
        <time>2020-12-19T10:24:53.000Z</time>
      </trkpt>
      <trkpt lat="47.11636" lon="-1.54481">
        <ele>67</ele>
        <time>2020-12-19T10:24:55.000Z</time>
      </trkpt>
      <trkpt lat="47.1163" lon="-1.54465">
        <ele>67</ele>
        <time>2020-12-19T10:24:57.000Z</time>
      </trkpt>
      <trkpt lat="47.11625" lon="-1.54448">
        <ele>67</ele>
        <time>2020-12-19T10:24:59.000Z</time>
      </trkpt>
      <trkpt lat="47.1162" lon="-1.54431">
        <ele>68</ele>
        <time>2020-12-19T10:25:01.000Z</time>
      </trkpt>
      <trkpt lat="47.11613" lon="-1.54414">
        <ele>68</ele>
        <time>2020-12-19T10:25:03.000Z</time>
      </trkpt>
      <trkpt lat="47.11608" lon="-1.54397">
        <ele>68</ele>
        <time>2020-12-19T10:25:05.000Z</time>
      </trkpt>
      <trkpt lat="47.11602" lon="-1.54381">
        <ele>67</ele>
        <time>2020-12-19T10:25:07.000Z</time>
      </trkpt>
      <trkpt lat="47.11596" lon="-1.54364">
        <ele>67</ele>
        <time>2020-12-19T10:25:09.000Z</time>
      </trkpt>
      <trkpt lat="47.11591" lon="-1.54347">
        <ele>67</ele>
        <time>2020-12-19T10:25:11.000Z</time>
      </trkpt>
      <trkpt lat="47.11585" lon="-1.54331">
        <ele>67</ele>
        <time>2020-12-19T10:25:13.000Z</time>
      </trkpt>
      <trkpt lat="47.1158" lon="-1.54315">
        <ele>67</ele>
        <time>2020-12-19T10:25:15.000Z</time>
      </trkpt>
      <trkpt lat="47.11575" lon="-1.54299">
        <ele>67</ele>
        <time>2020-12-19T10:25:17.000Z</time>
      </trkpt>
      <trkpt lat="47.1157" lon="-1.54285">
        <ele>68</ele>
        <time>2020-12-19T10:25:19.000Z</time>
      </trkpt>
      <trkpt lat="47.11566" lon="-1.54271">
        <ele>68</ele>
        <time>2020-12-19T10:25:21.000Z</time>
      </trkpt>
      <trkpt lat="47.11567" lon="-1.54258">
        <ele>67</ele>
        <time>2020-12-19T10:25:23.000Z</time>
      </trkpt>
      <trkpt lat="47.11576" lon="-1.54247">
        <ele>68</ele>
        <time>2020-12-19T10:25:25.000Z</time>
      </trkpt>
      <trkpt lat="47.11586" lon="-1.54238">
        <ele>69</ele>
        <time>2020-12-19T10:25:27.000Z</time>
      </trkpt>
      <trkpt lat="47.11598" lon="-1.54229">
        <ele>70</ele>
        <time>2020-12-19T10:25:29.000Z</time>
      </trkpt>
      <trkpt lat="47.1161" lon="-1.54222">
        <ele>71</ele>
        <time>2020-12-19T10:25:31.000Z</time>
      </trkpt>
      <trkpt lat="47.11622" lon="-1.54214">
        <ele>71</ele>
        <time>2020-12-19T10:25:33.000Z</time>
      </trkpt>
      <trkpt lat="47.11633" lon="-1.54204">
        <ele>72</ele>
        <time>2020-12-19T10:25:35.000Z</time>
      </trkpt>
      <trkpt lat="47.1164" lon="-1.5419">
        <ele>72</ele>
        <time>2020-12-19T10:25:37.000Z</time>
      </trkpt>
      <trkpt lat="47.11645" lon="-1.54175">
        <ele>73</ele>
        <time>2020-12-19T10:25:39.000Z</time>
      </trkpt>
      <trkpt lat="47.11649" lon="-1.5416">
        <ele>72</ele>
        <time>2020-12-19T10:25:41.000Z</time>
      </trkpt>
      <trkpt lat="47.11659" lon="-1.54149">
        <ele>72</ele>
        <time>2020-12-19T10:25:43.000Z</time>
      </trkpt>
      <trkpt lat="47.11671" lon="-1.54143">
        <ele>73</ele>
        <time>2020-12-19T10:25:45.000Z</time>
      </trkpt>
      <trkpt lat="47.11682" lon="-1.54134">
        <ele>72</ele>
        <time>2020-12-19T10:25:47.000Z</time>
      </trkpt>
      <trkpt lat="47.11692" lon="-1.54121">
        <ele>73</ele>
        <time>2020-12-19T10:25:49.000Z</time>
      </trkpt>
      <trkpt lat="47.117" lon="-1.54108">
        <ele>73</ele>
        <time>2020-12-19T10:25:51.000Z</time>
      </trkpt>
      <trkpt lat="47.11706" lon="-1.54091">
        <ele>73</ele>
        <time>2020-12-19T10:25:53.000Z</time>
      </trkpt>
      <trkpt lat="47.11713" lon="-1.54075">
        <ele>73</ele>
        <time>2020-12-19T10:25:55.000Z</time>
      </trkpt>
      <trkpt lat="47.11719" lon="-1.54059">
        <ele>73</ele>
        <time>2020-12-19T10:25:57.000Z</time>
      </trkpt>
      <trkpt lat="47.11726" lon="-1.54043">
        <ele>73</ele>
        <time>2020-12-19T10:25:59.000Z</time>
      </trkpt>
      <trkpt lat="47.11733" lon="-1.54028">
        <ele>74</ele>
        <time>2020-12-19T10:26:01.000Z</time>
      </trkpt>
      <trkpt lat="47.1174" lon="-1.54012">
        <ele>74</ele>
        <time>2020-12-19T10:26:03.000Z</time>
      </trkpt>
      <trkpt lat="47.11747" lon="-1.53995">
        <ele>74</ele>
        <time>2020-12-19T10:26:05.000Z</time>
      </trkpt>
      <trkpt lat="47.11753" lon="-1.53978">
        <ele>73</ele>
        <time>2020-12-19T10:26:07.000Z</time>
      </trkpt>
      <trkpt lat="47.1176" lon="-1.53961">
        <ele>73</ele>
        <time>2020-12-19T10:26:09.000Z</time>
      </trkpt>
      <trkpt lat="47.11767" lon="-1.53943">
        <ele>73</ele>
        <time>2020-12-19T10:26:11.000Z</time>
      </trkpt>
      <trkpt lat="47.11775" lon="-1.53925">
        <ele>73</ele>
        <time>2020-12-19T10:26:13.000Z</time>
      </trkpt>
      <trkpt lat="47.11784" lon="-1.53907">
        <ele>73</ele>
        <time>2020-12-19T10:26:15.000Z</time>
      </trkpt>
      <trkpt lat="47.11793" lon="-1.53889">
        <ele>72</ele>
        <time>2020-12-19T10:26:17.000Z</time>
      </trkpt>
      <trkpt lat="47.11803" lon="-1.53871">
        <ele>72</ele>
        <time>2020-12-19T10:26:19.000Z</time>
      </trkpt>
      <trkpt lat="47.11813" lon="-1.53854">
        <ele>71</ele>
        <time>2020-12-19T10:26:21.000Z</time>
      </trkpt>
      <trkpt lat="47.11824" lon="-1.53836">
        <ele>71</ele>
        <time>2020-12-19T10:26:23.000Z</time>
      </trkpt>
      <trkpt lat="47.11835" lon="-1.53817">
        <ele>70</ele>
        <time>2020-12-19T10:26:25.000Z</time>
      </trkpt>
      <trkpt lat="47.11845" lon="-1.53796">
        <ele>71</ele>
        <time>2020-12-19T10:26:27.000Z</time>
      </trkpt>
      <trkpt lat="47.11854" lon="-1.53775">
        <ele>70</ele>
        <time>2020-12-19T10:26:29.000Z</time>
      </trkpt>
      <trkpt lat="47.11862" lon="-1.53754">
        <ele>70</ele>
        <time>2020-12-19T10:26:31.000Z</time>
      </trkpt>
      <trkpt lat="47.11869" lon="-1.53732">
        <ele>69</ele>
        <time>2020-12-19T10:26:33.000Z</time>
      </trkpt>
      <trkpt lat="47.11877" lon="-1.53711">
        <ele>68</ele>
        <time>2020-12-19T10:26:35.000Z</time>
      </trkpt>
      <trkpt lat="47.11886" lon="-1.53691">
        <ele>68</ele>
        <time>2020-12-19T10:26:37.000Z</time>
      </trkpt>
      <trkpt lat="47.11896" lon="-1.53672">
        <ele>67</ele>
        <time>2020-12-19T10:26:39.000Z</time>
      </trkpt>
      <trkpt lat="47.11906" lon="-1.53653">
        <ele>67</ele>
        <time>2020-12-19T10:26:41.000Z</time>
      </trkpt>
      <trkpt lat="47.11916" lon="-1.53635">
        <ele>67</ele>
        <time>2020-12-19T10:26:43.000Z</time>
      </trkpt>
      <trkpt lat="47.11926" lon="-1.53618">
        <ele>66</ele>
        <time>2020-12-19T10:26:45.000Z</time>
      </trkpt>
      <trkpt lat="47.11936" lon="-1.53599">
        <ele>66</ele>
        <time>2020-12-19T10:26:47.000Z</time>
      </trkpt>
      <trkpt lat="47.11945" lon="-1.53581">
        <ele>65</ele>
        <time>2020-12-19T10:26:49.000Z</time>
      </trkpt>
      <trkpt lat="47.11955" lon="-1.53562">
        <ele>64</ele>
        <time>2020-12-19T10:26:51.000Z</time>
      </trkpt>
      <trkpt lat="47.11965" lon="-1.53543">
        <ele>64</ele>
        <time>2020-12-19T10:26:53.000Z</time>
      </trkpt>
      <trkpt lat="47.11975" lon="-1.53525">
        <ele>63</ele>
        <time>2020-12-19T10:26:55.000Z</time>
      </trkpt>
      <trkpt lat="47.11984" lon="-1.53507">
        <ele>63</ele>
        <time>2020-12-19T10:26:57.000Z</time>
      </trkpt>
      <trkpt lat="47.11994" lon="-1.53488">
        <ele>63</ele>
        <time>2020-12-19T10:26:59.000Z</time>
      </trkpt>
      <trkpt lat="47.12004" lon="-1.5347">
        <ele>62</ele>
        <time>2020-12-19T10:27:01.000Z</time>
      </trkpt>
      <trkpt lat="47.12014" lon="-1.53452">
        <ele>62</ele>
        <time>2020-12-19T10:27:03.000Z</time>
      </trkpt>
      <trkpt lat="47.12023" lon="-1.53435">
        <ele>62</ele>
        <time>2020-12-19T10:27:05.000Z</time>
      </trkpt>
      <trkpt lat="47.12032" lon="-1.53418">
        <ele>62</ele>
        <time>2020-12-19T10:27:07.000Z</time>
      </trkpt>
      <trkpt lat="47.12041" lon="-1.534">
        <ele>62</ele>
        <time>2020-12-19T10:27:09.000Z</time>
      </trkpt>
      <trkpt lat="47.12051" lon="-1.53382">
        <ele>62</ele>
        <time>2020-12-19T10:27:11.000Z</time>
      </trkpt>
      <trkpt lat="47.1206" lon="-1.53364">
        <ele>62</ele>
        <time>2020-12-19T10:27:13.000Z</time>
      </trkpt>
      <trkpt lat="47.1207" lon="-1.53345">
        <ele>62</ele>
        <time>2020-12-19T10:27:15.000Z</time>
      </trkpt>
      <trkpt lat="47.12079" lon="-1.53327">
        <ele>62</ele>
        <time>2020-12-19T10:27:17.000Z</time>
      </trkpt>
      <trkpt lat="47.12089" lon="-1.5331">
        <ele>62</ele>
        <time>2020-12-19T10:27:19.000Z</time>
      </trkpt>
      <trkpt lat="47.12099" lon="-1.53291">
        <ele>61</ele>
        <time>2020-12-19T10:27:21.000Z</time>
      </trkpt>
      <trkpt lat="47.12109" lon="-1.53274">
        <ele>60</ele>
        <time>2020-12-19T10:27:23.000Z</time>
      </trkpt>
      <trkpt lat="47.12119" lon="-1.53257">
        <ele>60</ele>
        <time>2020-12-19T10:27:25.000Z</time>
      </trkpt>
      <trkpt lat="47.12128" lon="-1.53238">
        <ele>59</ele>
        <time>2020-12-19T10:27:27.000Z</time>
      </trkpt>
      <trkpt lat="47.12138" lon="-1.5322">
        <ele>58</ele>
        <time>2020-12-19T10:27:29.000Z</time>
      </trkpt>
      <trkpt lat="47.12148" lon="-1.53202">
        <ele>58</ele>
        <time>2020-12-19T10:27:31.000Z</time>
      </trkpt>
      <trkpt lat="47.12157" lon="-1.53183">
        <ele>58</ele>
        <time>2020-12-19T10:27:33.000Z</time>
      </trkpt>
      <trkpt lat="47.12166" lon="-1.53166">
        <ele>58</ele>
        <time>2020-12-19T10:27:35.000Z</time>
      </trkpt>
      <trkpt lat="47.12175" lon="-1.53149">
        <ele>58</ele>
        <time>2020-12-19T10:27:37.000Z</time>
      </trkpt>
      <trkpt lat="47.12184" lon="-1.53132">
        <ele>58</ele>
        <time>2020-12-19T10:27:39.000Z</time>
      </trkpt>
      <trkpt lat="47.12192" lon="-1.53116">
        <ele>58</ele>
        <time>2020-12-19T10:27:41.000Z</time>
      </trkpt>
      <trkpt lat="47.122" lon="-1.53099">
        <ele>58</ele>
        <time>2020-12-19T10:27:43.000Z</time>
      </trkpt>
      <trkpt lat="47.12209" lon="-1.53083">
        <ele>58</ele>
        <time>2020-12-19T10:27:45.000Z</time>
      </trkpt>
      <trkpt lat="47.12217" lon="-1.53066">
        <ele>58</ele>
        <time>2020-12-19T10:27:47.000Z</time>
      </trkpt>
      <trkpt lat="47.12226" lon="-1.53051">
        <ele>58</ele>
        <time>2020-12-19T10:27:49.000Z</time>
      </trkpt>
      <trkpt lat="47.12234" lon="-1.53035">
        <ele>58</ele>
        <time>2020-12-19T10:27:51.000Z</time>
      </trkpt>
      <trkpt lat="47.12242" lon="-1.5302">
        <ele>58</ele>
        <time>2020-12-19T10:27:53.000Z</time>
      </trkpt>
      <trkpt lat="47.12249" lon="-1.53005">
        <ele>58</ele>
        <time>2020-12-19T10:27:55.000Z</time>
      </trkpt>
      <trkpt lat="47.12257" lon="-1.5299">
        <ele>58</ele>
        <time>2020-12-19T10:27:57.000Z</time>
      </trkpt>
      <trkpt lat="47.12265" lon="-1.52976">
        <ele>58</ele>
        <time>2020-12-19T10:27:59.000Z</time>
      </trkpt>
      <trkpt lat="47.12273" lon="-1.52962">
        <ele>59</ele>
        <time>2020-12-19T10:28:01.000Z</time>
      </trkpt>
      <trkpt lat="47.12281" lon="-1.52947">
        <ele>59</ele>
        <time>2020-12-19T10:28:03.000Z</time>
      </trkpt>
      <trkpt lat="47.12288" lon="-1.52933">
        <ele>59</ele>
        <time>2020-12-19T10:28:05.000Z</time>
      </trkpt>
      <trkpt lat="47.12296" lon="-1.5292">
        <ele>60</ele>
        <time>2020-12-19T10:28:07.000Z</time>
      </trkpt>
      <trkpt lat="47.12303" lon="-1.52907">
        <ele>60</ele>
        <time>2020-12-19T10:28:09.000Z</time>
      </trkpt>
      <trkpt lat="47.12309" lon="-1.52895">
        <ele>60</ele>
        <time>2020-12-19T10:28:11.000Z</time>
      </trkpt>
      <trkpt lat="47.12317" lon="-1.52883">
        <ele>60</ele>
        <time>2020-12-19T10:28:13.000Z</time>
      </trkpt>
      <trkpt lat="47.12324" lon="-1.52871">
        <ele>60</ele>
        <time>2020-12-19T10:28:15.000Z</time>
      </trkpt>
      <trkpt lat="47.12332" lon="-1.5286">
        <ele>60</ele>
        <time>2020-12-19T10:28:17.000Z</time>
      </trkpt>
      <trkpt lat="47.12341" lon="-1.52848">
        <ele>60</ele>
        <time>2020-12-19T10:28:19.000Z</time>
      </trkpt>
      <trkpt lat="47.12349" lon="-1.52837">
        <ele>61</ele>
        <time>2020-12-19T10:28:21.000Z</time>
      </trkpt>
      <trkpt lat="47.12358" lon="-1.52828">
        <ele>61</ele>
        <time>2020-12-19T10:28:23.000Z</time>
      </trkpt>
      <trkpt lat="47.12367" lon="-1.5282">
        <ele>61</ele>
        <time>2020-12-19T10:28:25.000Z</time>
      </trkpt>
      <trkpt lat="47.12376" lon="-1.52811">
        <ele>61</ele>
        <time>2020-12-19T10:28:27.000Z</time>
      </trkpt>
      <trkpt lat="47.12385" lon="-1.52802">
        <ele>61</ele>
        <time>2020-12-19T10:28:29.000Z</time>
      </trkpt>
      <trkpt lat="47.12394" lon="-1.52794">
        <ele>61</ele>
        <time>2020-12-19T10:28:31.000Z</time>
      </trkpt>
      <trkpt lat="47.12403" lon="-1.52785">
        <ele>62</ele>
        <time>2020-12-19T10:28:33.000Z</time>
      </trkpt>
      <trkpt lat="47.12411" lon="-1.52775">
        <ele>62</ele>
        <time>2020-12-19T10:28:35.000Z</time>
      </trkpt>
      <trkpt lat="47.12421" lon="-1.52766">
        <ele>63</ele>
        <time>2020-12-19T10:28:37.000Z</time>
      </trkpt>
      <trkpt lat="47.12431" lon="-1.52757">
        <ele>64</ele>
        <time>2020-12-19T10:28:39.000Z</time>
      </trkpt>
      <trkpt lat="47.1244" lon="-1.52749">
        <ele>64</ele>
        <time>2020-12-19T10:28:41.000Z</time>
      </trkpt>
      <trkpt lat="47.1245" lon="-1.52742">
        <ele>65</ele>
        <time>2020-12-19T10:28:43.000Z</time>
      </trkpt>
      <trkpt lat="47.12461" lon="-1.52736">
        <ele>65</ele>
        <time>2020-12-19T10:28:45.000Z</time>
      </trkpt>
      <trkpt lat="47.12471" lon="-1.52732">
        <ele>66</ele>
        <time>2020-12-19T10:28:47.000Z</time>
      </trkpt>
      <trkpt lat="47.12481" lon="-1.52728">
        <ele>67</ele>
        <time>2020-12-19T10:28:49.000Z</time>
      </trkpt>
      <trkpt lat="47.12492" lon="-1.52726">
        <ele>67</ele>
        <time>2020-12-19T10:28:51.000Z</time>
      </trkpt>
      <trkpt lat="47.12501" lon="-1.52722">
        <ele>68</ele>
        <time>2020-12-19T10:28:53.000Z</time>
      </trkpt>
      <trkpt lat="47.12508" lon="-1.52712">
        <ele>69</ele>
        <time>2020-12-19T10:28:56.000Z</time>
      </trkpt>
      <trkpt lat="47.125" lon="-1.52699">
        <ele>70</ele>
        <time>2020-12-19T10:29:01.000Z</time>
      </trkpt>
      <trkpt lat="47.12491" lon="-1.52696">
        <ele>71</ele>
        <time>2020-12-19T10:29:03.000Z</time>
      </trkpt>
      <trkpt lat="47.1248" lon="-1.52694">
        <ele>71</ele>
        <time>2020-12-19T10:29:05.000Z</time>
      </trkpt>
      <trkpt lat="47.12471" lon="-1.52693">
        <ele>72</ele>
        <time>2020-12-19T10:29:07.000Z</time>
      </trkpt>
      <trkpt lat="47.12461" lon="-1.52691">
        <ele>72</ele>
        <time>2020-12-19T10:29:09.000Z</time>
      </trkpt>
      <trkpt lat="47.1245" lon="-1.52689">
        <ele>72</ele>
        <time>2020-12-19T10:29:11.000Z</time>
      </trkpt>
      <trkpt lat="47.1244" lon="-1.52687">
        <ele>72</ele>
        <time>2020-12-19T10:29:13.000Z</time>
      </trkpt>
      <trkpt lat="47.1243" lon="-1.52685">
        <ele>72</ele>
        <time>2020-12-19T10:29:15.000Z</time>
      </trkpt>
      <trkpt lat="47.12418" lon="-1.52682">
        <ele>72</ele>
        <time>2020-12-19T10:29:17.000Z</time>
      </trkpt>
      <trkpt lat="47.12406" lon="-1.5268">
        <ele>72</ele>
        <time>2020-12-19T10:29:19.000Z</time>
      </trkpt>
      <trkpt lat="47.12394" lon="-1.52677">
        <ele>71</ele>
        <time>2020-12-19T10:29:21.000Z</time>
      </trkpt>
      <trkpt lat="47.12381" lon="-1.52674">
        <ele>71</ele>
        <time>2020-12-19T10:29:23.000Z</time>
      </trkpt>
      <trkpt lat="47.12367" lon="-1.52671">
        <ele>69</ele>
        <time>2020-12-19T10:29:25.000Z</time>
      </trkpt>
      <trkpt lat="47.12352" lon="-1.52667">
        <ele>68</ele>
        <time>2020-12-19T10:29:27.000Z</time>
      </trkpt>
      <trkpt lat="47.12337" lon="-1.52663">
        <ele>67</ele>
        <time>2020-12-19T10:29:29.000Z</time>
      </trkpt>
      <trkpt lat="47.12321" lon="-1.52657">
        <ele>66</ele>
        <time>2020-12-19T10:29:31.000Z</time>
      </trkpt>
      <trkpt lat="47.12305" lon="-1.5265">
        <ele>65</ele>
        <time>2020-12-19T10:29:33.000Z</time>
      </trkpt>
      <trkpt lat="47.1229" lon="-1.52643">
        <ele>65</ele>
        <time>2020-12-19T10:29:35.000Z</time>
      </trkpt>
      <trkpt lat="47.12275" lon="-1.52634">
        <ele>64</ele>
        <time>2020-12-19T10:29:37.000Z</time>
      </trkpt>
      <trkpt lat="47.1226" lon="-1.52627">
        <ele>64</ele>
        <time>2020-12-19T10:29:39.000Z</time>
      </trkpt>
      <trkpt lat="47.12245" lon="-1.52619">
        <ele>64</ele>
        <time>2020-12-19T10:29:41.000Z</time>
      </trkpt>
      <trkpt lat="47.12231" lon="-1.52611">
        <ele>63</ele>
        <time>2020-12-19T10:29:43.000Z</time>
      </trkpt>
      <trkpt lat="47.12216" lon="-1.52604">
        <ele>63</ele>
        <time>2020-12-19T10:29:45.000Z</time>
      </trkpt>
      <trkpt lat="47.12202" lon="-1.52599">
        <ele>62</ele>
        <time>2020-12-19T10:29:47.000Z</time>
      </trkpt>
      <trkpt lat="47.12188" lon="-1.52594">
        <ele>62</ele>
        <time>2020-12-19T10:29:49.000Z</time>
      </trkpt>
      <trkpt lat="47.12174" lon="-1.52591">
        <ele>62</ele>
        <time>2020-12-19T10:29:51.000Z</time>
      </trkpt>
      <trkpt lat="47.1216" lon="-1.5259">
        <ele>61</ele>
        <time>2020-12-19T10:29:53.000Z</time>
      </trkpt>
      <trkpt lat="47.12146" lon="-1.5259">
        <ele>61</ele>
        <time>2020-12-19T10:29:55.000Z</time>
      </trkpt>
      <trkpt lat="47.12132" lon="-1.5259">
        <ele>61</ele>
        <time>2020-12-19T10:29:57.000Z</time>
      </trkpt>
      <trkpt lat="47.12119" lon="-1.5259">
        <ele>61</ele>
        <time>2020-12-19T10:29:59.000Z</time>
      </trkpt>
      <trkpt lat="47.12105" lon="-1.52589">
        <ele>61</ele>
        <time>2020-12-19T10:30:01.000Z</time>
      </trkpt>
      <trkpt lat="47.12091" lon="-1.5259">
        <ele>61</ele>
        <time>2020-12-19T10:30:03.000Z</time>
      </trkpt>
      <trkpt lat="47.12077" lon="-1.5259">
        <ele>61</ele>
        <time>2020-12-19T10:30:05.000Z</time>
      </trkpt>
      <trkpt lat="47.12062" lon="-1.52591">
        <ele>61</ele>
        <time>2020-12-19T10:30:07.000Z</time>
      </trkpt>
      <trkpt lat="47.12048" lon="-1.52591">
        <ele>61</ele>
        <time>2020-12-19T10:30:09.000Z</time>
      </trkpt>
      <trkpt lat="47.12034" lon="-1.52591">
        <ele>62</ele>
        <time>2020-12-19T10:30:11.000Z</time>
      </trkpt>
      <trkpt lat="47.1202" lon="-1.5259">
        <ele>62</ele>
        <time>2020-12-19T10:30:13.000Z</time>
      </trkpt>
      <trkpt lat="47.12006" lon="-1.52587">
        <ele>62</ele>
        <time>2020-12-19T10:30:15.000Z</time>
      </trkpt>
      <trkpt lat="47.11992" lon="-1.52582">
        <ele>61</ele>
        <time>2020-12-19T10:30:17.000Z</time>
      </trkpt>
      <trkpt lat="47.11978" lon="-1.52576">
        <ele>61</ele>
        <time>2020-12-19T10:30:19.000Z</time>
      </trkpt>
      <trkpt lat="47.11964" lon="-1.52568">
        <ele>61</ele>
        <time>2020-12-19T10:30:21.000Z</time>
      </trkpt>
      <trkpt lat="47.11951" lon="-1.52561">
        <ele>61</ele>
        <time>2020-12-19T10:30:23.000Z</time>
      </trkpt>
      <trkpt lat="47.11937" lon="-1.52553">
        <ele>62</ele>
        <time>2020-12-19T10:30:25.000Z</time>
      </trkpt>
      <trkpt lat="47.11924" lon="-1.52543">
        <ele>62</ele>
        <time>2020-12-19T10:30:27.000Z</time>
      </trkpt>
      <trkpt lat="47.11911" lon="-1.52533">
        <ele>62</ele>
        <time>2020-12-19T10:30:29.000Z</time>
      </trkpt>
      <trkpt lat="47.11898" lon="-1.5252">
        <ele>62</ele>
        <time>2020-12-19T10:30:31.000Z</time>
      </trkpt>
      <trkpt lat="47.11886" lon="-1.52506">
        <ele>61</ele>
        <time>2020-12-19T10:30:33.000Z</time>
      </trkpt>
      <trkpt lat="47.11876" lon="-1.52493">
        <ele>60</ele>
        <time>2020-12-19T10:30:35.000Z</time>
      </trkpt>
      <trkpt lat="47.11867" lon="-1.52482">
        <ele>60</ele>
        <time>2020-12-19T10:30:37.000Z</time>
      </trkpt>
      <trkpt lat="47.11858" lon="-1.52469">
        <ele>61</ele>
        <time>2020-12-19T10:30:39.000Z</time>
      </trkpt>
      <trkpt lat="47.11849" lon="-1.52458">
        <ele>62</ele>
        <time>2020-12-19T10:30:41.000Z</time>
      </trkpt>
      <trkpt lat="47.1184" lon="-1.52448">
        <ele>62</ele>
        <time>2020-12-19T10:30:43.000Z</time>
      </trkpt>
      <trkpt lat="47.11832" lon="-1.52437">
        <ele>62</ele>
        <time>2020-12-19T10:30:45.000Z</time>
      </trkpt>
      <trkpt lat="47.11824" lon="-1.52427">
        <ele>61</ele>
        <time>2020-12-19T10:30:47.000Z</time>
      </trkpt>
      <trkpt lat="47.11816" lon="-1.52416">
        <ele>61</ele>
        <time>2020-12-19T10:30:49.000Z</time>
      </trkpt>
      <trkpt lat="47.11808" lon="-1.52405">
        <ele>61</ele>
        <time>2020-12-19T10:30:51.000Z</time>
      </trkpt>
      <trkpt lat="47.118" lon="-1.52395">
        <ele>61</ele>
        <time>2020-12-19T10:30:53.000Z</time>
      </trkpt>
      <trkpt lat="47.11792" lon="-1.52384">
        <ele>61</ele>
        <time>2020-12-19T10:30:55.000Z</time>
      </trkpt>
      <trkpt lat="47.11784" lon="-1.52374">
        <ele>62</ele>
        <time>2020-12-19T10:30:57.000Z</time>
      </trkpt>
      <trkpt lat="47.11776" lon="-1.52364">
        <ele>61</ele>
        <time>2020-12-19T10:30:59.000Z</time>
      </trkpt>
      <trkpt lat="47.11768" lon="-1.52354">
        <ele>61</ele>
        <time>2020-12-19T10:31:01.000Z</time>
      </trkpt>
      <trkpt lat="47.1176" lon="-1.52343">
        <ele>61</ele>
        <time>2020-12-19T10:31:03.000Z</time>
      </trkpt>
      <trkpt lat="47.11753" lon="-1.52332">
        <ele>61</ele>
        <time>2020-12-19T10:31:05.000Z</time>
      </trkpt>
      <trkpt lat="47.11744" lon="-1.52321">
        <ele>62</ele>
        <time>2020-12-19T10:31:07.000Z</time>
      </trkpt>
      <trkpt lat="47.11736" lon="-1.5231">
        <ele>61</ele>
        <time>2020-12-19T10:31:09.000Z</time>
      </trkpt>
      <trkpt lat="47.11728" lon="-1.52301">
        <ele>62</ele>
        <time>2020-12-19T10:31:11.000Z</time>
      </trkpt>
      <trkpt lat="47.1172" lon="-1.52292">
        <ele>62</ele>
        <time>2020-12-19T10:31:13.000Z</time>
      </trkpt>
      <trkpt lat="47.11711" lon="-1.52286">
        <ele>63</ele>
        <time>2020-12-19T10:31:15.000Z</time>
      </trkpt>
      <trkpt lat="47.11702" lon="-1.5228">
        <ele>62</ele>
        <time>2020-12-19T10:31:17.000Z</time>
      </trkpt>
      <trkpt lat="47.1169" lon="-1.52273">
        <ele>62</ele>
        <time>2020-12-19T10:31:19.000Z</time>
      </trkpt>
      <trkpt lat="47.11678" lon="-1.52266">
        <ele>61</ele>
        <time>2020-12-19T10:31:21.000Z</time>
      </trkpt>
      <trkpt lat="47.11665" lon="-1.52259">
        <ele>61</ele>
        <time>2020-12-19T10:31:23.000Z</time>
      </trkpt>
      <trkpt lat="47.11653" lon="-1.52251">
        <ele>61</ele>
        <time>2020-12-19T10:31:25.000Z</time>
      </trkpt>
      <trkpt lat="47.1164" lon="-1.52244">
        <ele>60</ele>
        <time>2020-12-19T10:31:27.000Z</time>
      </trkpt>
      <trkpt lat="47.11627" lon="-1.52237">
        <ele>60</ele>
        <time>2020-12-19T10:31:29.000Z</time>
      </trkpt>
      <trkpt lat="47.11613" lon="-1.52228">
        <ele>59</ele>
        <time>2020-12-19T10:31:31.000Z</time>
      </trkpt>
      <trkpt lat="47.116" lon="-1.52219">
        <ele>59</ele>
        <time>2020-12-19T10:31:33.000Z</time>
      </trkpt>
      <trkpt lat="47.11588" lon="-1.52207">
        <ele>59</ele>
        <time>2020-12-19T10:31:35.000Z</time>
      </trkpt>
      <trkpt lat="47.11576" lon="-1.52194">
        <ele>59</ele>
        <time>2020-12-19T10:31:37.000Z</time>
      </trkpt>
      <trkpt lat="47.11566" lon="-1.52179">
        <ele>58</ele>
        <time>2020-12-19T10:31:39.000Z</time>
      </trkpt>
      <trkpt lat="47.11557" lon="-1.52162">
        <ele>57</ele>
        <time>2020-12-19T10:31:41.000Z</time>
      </trkpt>
      <trkpt lat="47.11547" lon="-1.52145">
        <ele>57</ele>
        <time>2020-12-19T10:31:43.000Z</time>
      </trkpt>
      <trkpt lat="47.11537" lon="-1.52128">
        <ele>56</ele>
        <time>2020-12-19T10:31:45.000Z</time>
      </trkpt>
      <trkpt lat="47.11528" lon="-1.5211">
        <ele>56</ele>
        <time>2020-12-19T10:31:47.000Z</time>
      </trkpt>
      <trkpt lat="47.1152" lon="-1.52094">
        <ele>55</ele>
        <time>2020-12-19T10:31:49.000Z</time>
      </trkpt>
      <trkpt lat="47.11511" lon="-1.52078">
        <ele>54</ele>
        <time>2020-12-19T10:31:51.000Z</time>
      </trkpt>
      <trkpt lat="47.11502" lon="-1.52062">
        <ele>54</ele>
        <time>2020-12-19T10:31:53.000Z</time>
      </trkpt>
      <trkpt lat="47.11493" lon="-1.52046">
        <ele>54</ele>
        <time>2020-12-19T10:31:55.000Z</time>
      </trkpt>
      <trkpt lat="47.11484" lon="-1.5203">
        <ele>54</ele>
        <time>2020-12-19T10:31:57.000Z</time>
      </trkpt>
      <trkpt lat="47.11475" lon="-1.52014">
        <ele>53</ele>
        <time>2020-12-19T10:31:59.000Z</time>
      </trkpt>
      <trkpt lat="47.11466" lon="-1.51999">
        <ele>54</ele>
        <time>2020-12-19T10:32:01.000Z</time>
      </trkpt>
      <trkpt lat="47.11458" lon="-1.51984">
        <ele>54</ele>
        <time>2020-12-19T10:32:03.000Z</time>
      </trkpt>
      <trkpt lat="47.11449" lon="-1.51969">
        <ele>54</ele>
        <time>2020-12-19T10:32:05.000Z</time>
      </trkpt>
      <trkpt lat="47.11441" lon="-1.51953">
        <ele>54</ele>
        <time>2020-12-19T10:32:07.000Z</time>
      </trkpt>
      <trkpt lat="47.11432" lon="-1.51937">
        <ele>54</ele>
        <time>2020-12-19T10:32:09.000Z</time>
      </trkpt>
      <trkpt lat="47.11423" lon="-1.51922">
        <ele>53</ele>
        <time>2020-12-19T10:32:11.000Z</time>
      </trkpt>
      <trkpt lat="47.11415" lon="-1.51907">
        <ele>53</ele>
        <time>2020-12-19T10:32:13.000Z</time>
      </trkpt>
      <trkpt lat="47.11407" lon="-1.5189">
        <ele>53</ele>
        <time>2020-12-19T10:32:15.000Z</time>
      </trkpt>
      <trkpt lat="47.11398" lon="-1.51875">
        <ele>52</ele>
        <time>2020-12-19T10:32:17.000Z</time>
      </trkpt>
      <trkpt lat="47.1139" lon="-1.51859">
        <ele>52</ele>
        <time>2020-12-19T10:32:19.000Z</time>
      </trkpt>
      <trkpt lat="47.11382" lon="-1.51844">
        <ele>52</ele>
        <time>2020-12-19T10:32:21.000Z</time>
      </trkpt>
      <trkpt lat="47.11373" lon="-1.51829">
        <ele>52</ele>
        <time>2020-12-19T10:32:23.000Z</time>
      </trkpt>
      <trkpt lat="47.11365" lon="-1.51814">
        <ele>51</ele>
        <time>2020-12-19T10:32:25.000Z</time>
      </trkpt>
      <trkpt lat="47.11356" lon="-1.51801">
        <ele>51</ele>
        <time>2020-12-19T10:32:27.000Z</time>
      </trkpt>
      <trkpt lat="47.11346" lon="-1.5179">
        <ele>51</ele>
        <time>2020-12-19T10:32:29.000Z</time>
      </trkpt>
      <trkpt lat="47.11336" lon="-1.5178">
        <ele>52</ele>
        <time>2020-12-19T10:32:31.000Z</time>
      </trkpt>
      <trkpt lat="47.11325" lon="-1.51771">
        <ele>52</ele>
        <time>2020-12-19T10:32:33.000Z</time>
      </trkpt>
      <trkpt lat="47.11314" lon="-1.51761">
        <ele>52</ele>
        <time>2020-12-19T10:32:35.000Z</time>
      </trkpt>
      <trkpt lat="47.11303" lon="-1.51752">
        <ele>53</ele>
        <time>2020-12-19T10:32:37.000Z</time>
      </trkpt>
      <trkpt lat="47.11293" lon="-1.51743">
        <ele>53</ele>
        <time>2020-12-19T10:32:39.000Z</time>
      </trkpt>
      <trkpt lat="47.11282" lon="-1.51734">
        <ele>54</ele>
        <time>2020-12-19T10:32:41.000Z</time>
      </trkpt>
      <trkpt lat="47.11271" lon="-1.51724">
        <ele>54</ele>
        <time>2020-12-19T10:32:43.000Z</time>
      </trkpt>
      <trkpt lat="47.1126" lon="-1.51715">
        <ele>55</ele>
        <time>2020-12-19T10:32:45.000Z</time>
      </trkpt>
      <trkpt lat="47.11249" lon="-1.51706">
        <ele>55</ele>
        <time>2020-12-19T10:32:47.000Z</time>
      </trkpt>
      <trkpt lat="47.11238" lon="-1.51697">
        <ele>56</ele>
        <time>2020-12-19T10:32:49.000Z</time>
      </trkpt>
      <trkpt lat="47.11227" lon="-1.51688">
        <ele>57</ele>
        <time>2020-12-19T10:32:51.000Z</time>
      </trkpt>
      <trkpt lat="47.11217" lon="-1.5168">
        <ele>58</ele>
        <time>2020-12-19T10:32:53.000Z</time>
      </trkpt>
      <trkpt lat="47.11208" lon="-1.51671">
        <ele>58</ele>
        <time>2020-12-19T10:32:55.000Z</time>
      </trkpt>
      <trkpt lat="47.11199" lon="-1.51662">
        <ele>59</ele>
        <time>2020-12-19T10:32:57.000Z</time>
      </trkpt>
      <trkpt lat="47.1119" lon="-1.51652">
        <ele>60</ele>
        <time>2020-12-19T10:32:59.000Z</time>
      </trkpt>
      <trkpt lat="47.11181" lon="-1.51641">
        <ele>60</ele>
        <time>2020-12-19T10:33:01.000Z</time>
      </trkpt>
      <trkpt lat="47.11174" lon="-1.51629">
        <ele>61</ele>
        <time>2020-12-19T10:33:03.000Z</time>
      </trkpt>
      <trkpt lat="47.11167" lon="-1.51617">
        <ele>61</ele>
        <time>2020-12-19T10:33:05.000Z</time>
      </trkpt>
      <trkpt lat="47.1116" lon="-1.51606">
        <ele>62</ele>
        <time>2020-12-19T10:33:07.000Z</time>
      </trkpt>
      <trkpt lat="47.11153" lon="-1.51594">
        <ele>63</ele>
        <time>2020-12-19T10:33:09.000Z</time>
      </trkpt>
      <trkpt lat="47.11146" lon="-1.51583">
        <ele>63</ele>
        <time>2020-12-19T10:33:11.000Z</time>
      </trkpt>
      <trkpt lat="47.11139" lon="-1.51572">
        <ele>64</ele>
        <time>2020-12-19T10:33:13.000Z</time>
      </trkpt>
      <trkpt lat="47.11132" lon="-1.51561">
        <ele>65</ele>
        <time>2020-12-19T10:33:15.000Z</time>
      </trkpt>
      <trkpt lat="47.11125" lon="-1.5155">
        <ele>65</ele>
        <time>2020-12-19T10:33:17.000Z</time>
      </trkpt>
      <trkpt lat="47.11118" lon="-1.51539">
        <ele>66</ele>
        <time>2020-12-19T10:33:19.000Z</time>
      </trkpt>
      <trkpt lat="47.11111" lon="-1.51528">
        <ele>66</ele>
        <time>2020-12-19T10:33:21.000Z</time>
      </trkpt>
      <trkpt lat="47.11104" lon="-1.51517">
        <ele>66</ele>
        <time>2020-12-19T10:33:23.000Z</time>
      </trkpt>
      <trkpt lat="47.11097" lon="-1.51507">
        <ele>67</ele>
        <time>2020-12-19T10:33:25.000Z</time>
      </trkpt>
      <trkpt lat="47.11089" lon="-1.51496">
        <ele>67</ele>
        <time>2020-12-19T10:33:27.000Z</time>
      </trkpt>
      <trkpt lat="47.11081" lon="-1.51486">
        <ele>67</ele>
        <time>2020-12-19T10:33:29.000Z</time>
      </trkpt>
      <trkpt lat="47.11073" lon="-1.51477">
        <ele>67</ele>
        <time>2020-12-19T10:33:31.000Z</time>
      </trkpt>
      <trkpt lat="47.11064" lon="-1.51468">
        <ele>67</ele>
        <time>2020-12-19T10:33:33.000Z</time>
      </trkpt>
      <trkpt lat="47.11056" lon="-1.5146">
        <ele>67</ele>
        <time>2020-12-19T10:33:35.000Z</time>
      </trkpt>
      <trkpt lat="47.11047" lon="-1.51452">
        <ele>67</ele>
        <time>2020-12-19T10:33:37.000Z</time>
      </trkpt>
      <trkpt lat="47.11038" lon="-1.51443">
        <ele>67</ele>
        <time>2020-12-19T10:33:39.000Z</time>
      </trkpt>
      <trkpt lat="47.11029" lon="-1.51435">
        <ele>67</ele>
        <time>2020-12-19T10:33:41.000Z</time>
      </trkpt>
      <trkpt lat="47.1102" lon="-1.51427">
        <ele>67</ele>
        <time>2020-12-19T10:33:43.000Z</time>
      </trkpt>
      <trkpt lat="47.11011" lon="-1.51419">
        <ele>67</ele>
        <time>2020-12-19T10:33:45.000Z</time>
      </trkpt>
      <trkpt lat="47.11002" lon="-1.5141">
        <ele>67</ele>
        <time>2020-12-19T10:33:47.000Z</time>
      </trkpt>
      <trkpt lat="47.10994" lon="-1.51401">
        <ele>68</ele>
        <time>2020-12-19T10:33:49.000Z</time>
      </trkpt>
      <trkpt lat="47.10984" lon="-1.51392">
        <ele>67</ele>
        <time>2020-12-19T10:33:51.000Z</time>
      </trkpt>
      <trkpt lat="47.10975" lon="-1.51384">
        <ele>67</ele>
        <time>2020-12-19T10:33:53.000Z</time>
      </trkpt>
      <trkpt lat="47.10966" lon="-1.51375">
        <ele>68</ele>
        <time>2020-12-19T10:33:55.000Z</time>
      </trkpt>
      <trkpt lat="47.10957" lon="-1.51365">
        <ele>68</ele>
        <time>2020-12-19T10:33:57.000Z</time>
      </trkpt>
      <trkpt lat="47.10947" lon="-1.51357">
        <ele>68</ele>
        <time>2020-12-19T10:33:59.000Z</time>
      </trkpt>
      <trkpt lat="47.10937" lon="-1.51348">
        <ele>68</ele>
        <time>2020-12-19T10:34:01.000Z</time>
      </trkpt>
      <trkpt lat="47.10928" lon="-1.51339">
        <ele>68</ele>
        <time>2020-12-19T10:34:03.000Z</time>
      </trkpt>
      <trkpt lat="47.10918" lon="-1.5133">
        <ele>68</ele>
        <time>2020-12-19T10:34:05.000Z</time>
      </trkpt>
      <trkpt lat="47.10909" lon="-1.51321">
        <ele>68</ele>
        <time>2020-12-19T10:34:07.000Z</time>
      </trkpt>
      <trkpt lat="47.10899" lon="-1.51311">
        <ele>68</ele>
        <time>2020-12-19T10:34:09.000Z</time>
      </trkpt>
      <trkpt lat="47.10889" lon="-1.51302">
        <ele>68</ele>
        <time>2020-12-19T10:34:11.000Z</time>
      </trkpt>
      <trkpt lat="47.1088" lon="-1.51293">
        <ele>68</ele>
        <time>2020-12-19T10:34:13.000Z</time>
      </trkpt>
      <trkpt lat="47.1087" lon="-1.51283">
        <ele>68</ele>
        <time>2020-12-19T10:34:15.000Z</time>
      </trkpt>
      <trkpt lat="47.1086" lon="-1.51274">
        <ele>68</ele>
        <time>2020-12-19T10:34:17.000Z</time>
      </trkpt>
      <trkpt lat="47.1085" lon="-1.51265">
        <ele>68</ele>
        <time>2020-12-19T10:34:19.000Z</time>
      </trkpt>
      <trkpt lat="47.1084" lon="-1.51256">
        <ele>69</ele>
        <time>2020-12-19T10:34:21.000Z</time>
      </trkpt>
      <trkpt lat="47.1083" lon="-1.51247">
        <ele>69</ele>
        <time>2020-12-19T10:34:23.000Z</time>
      </trkpt>
      <trkpt lat="47.1082" lon="-1.51237">
        <ele>69</ele>
        <time>2020-12-19T10:34:25.000Z</time>
      </trkpt>
      <trkpt lat="47.1081" lon="-1.51227">
        <ele>69</ele>
        <time>2020-12-19T10:34:27.000Z</time>
      </trkpt>
      <trkpt lat="47.108" lon="-1.51217">
        <ele>69</ele>
        <time>2020-12-19T10:34:29.000Z</time>
      </trkpt>
      <trkpt lat="47.1079" lon="-1.51207">
        <ele>68</ele>
        <time>2020-12-19T10:34:31.000Z</time>
      </trkpt>
      <trkpt lat="47.10779" lon="-1.51197">
        <ele>68</ele>
        <time>2020-12-19T10:34:33.000Z</time>
      </trkpt>
      <trkpt lat="47.10769" lon="-1.51187">
        <ele>68</ele>
        <time>2020-12-19T10:34:35.000Z</time>
      </trkpt>
      <trkpt lat="47.10759" lon="-1.51177">
        <ele>68</ele>
        <time>2020-12-19T10:34:37.000Z</time>
      </trkpt>
      <trkpt lat="47.10748" lon="-1.51167">
        <ele>68</ele>
        <time>2020-12-19T10:34:39.000Z</time>
      </trkpt>
      <trkpt lat="47.10738" lon="-1.51157">
        <ele>68</ele>
        <time>2020-12-19T10:34:41.000Z</time>
      </trkpt>
      <trkpt lat="47.10727" lon="-1.51146">
        <ele>68</ele>
        <time>2020-12-19T10:34:43.000Z</time>
      </trkpt>
      <trkpt lat="47.10716" lon="-1.51137">
        <ele>68</ele>
        <time>2020-12-19T10:34:45.000Z</time>
      </trkpt>
      <trkpt lat="47.10706" lon="-1.51127">
        <ele>68</ele>
        <time>2020-12-19T10:34:47.000Z</time>
      </trkpt>
      <trkpt lat="47.10696" lon="-1.51116">
        <ele>68</ele>
        <time>2020-12-19T10:34:49.000Z</time>
      </trkpt>
      <trkpt lat="47.10687" lon="-1.51102">
        <ele>67</ele>
        <time>2020-12-19T10:34:51.000Z</time>
      </trkpt>
      <trkpt lat="47.1068" lon="-1.51086">
        <ele>67</ele>
        <time>2020-12-19T10:34:53.000Z</time>
      </trkpt>
      <trkpt lat="47.10674" lon="-1.51068">
        <ele>66</ele>
        <time>2020-12-19T10:34:55.000Z</time>
      </trkpt>
      <trkpt lat="47.10668" lon="-1.51049">
        <ele>66</ele>
        <time>2020-12-19T10:34:57.000Z</time>
      </trkpt>
      <trkpt lat="47.10662" lon="-1.5103">
        <ele>65</ele>
        <time>2020-12-19T10:34:59.000Z</time>
      </trkpt>
      <trkpt lat="47.10655" lon="-1.51012">
        <ele>64</ele>
        <time>2020-12-19T10:35:01.000Z</time>
      </trkpt>
      <trkpt lat="47.10646" lon="-1.50996">
        <ele>63</ele>
        <time>2020-12-19T10:35:03.000Z</time>
      </trkpt>
      <trkpt lat="47.10635" lon="-1.5098">
        <ele>63</ele>
        <time>2020-12-19T10:35:05.000Z</time>
      </trkpt>
      <trkpt lat="47.10623" lon="-1.50968">
        <ele>63</ele>
        <time>2020-12-19T10:35:07.000Z</time>
      </trkpt>
      <trkpt lat="47.10612" lon="-1.50955">
        <ele>62</ele>
        <time>2020-12-19T10:35:09.000Z</time>
      </trkpt>
      <trkpt lat="47.106" lon="-1.50943">
        <ele>62</ele>
        <time>2020-12-19T10:35:11.000Z</time>
      </trkpt>
      <trkpt lat="47.10588" lon="-1.5093">
        <ele>62</ele>
        <time>2020-12-19T10:35:13.000Z</time>
      </trkpt>
      <trkpt lat="47.10577" lon="-1.50916">
        <ele>62</ele>
        <time>2020-12-19T10:35:15.000Z</time>
      </trkpt>
      <trkpt lat="47.10564" lon="-1.50903">
        <ele>62</ele>
        <time>2020-12-19T10:35:17.000Z</time>
      </trkpt>
      <trkpt lat="47.10553" lon="-1.5089">
        <ele>62</ele>
        <time>2020-12-19T10:35:19.000Z</time>
      </trkpt>
      <trkpt lat="47.10542" lon="-1.50877">
        <ele>61</ele>
        <time>2020-12-19T10:35:21.000Z</time>
      </trkpt>
      <trkpt lat="47.10531" lon="-1.50862">
        <ele>62</ele>
        <time>2020-12-19T10:35:23.000Z</time>
      </trkpt>
      <trkpt lat="47.10521" lon="-1.50847">
        <ele>62</ele>
        <time>2020-12-19T10:35:25.000Z</time>
      </trkpt>
      <trkpt lat="47.10511" lon="-1.50831">
        <ele>62</ele>
        <time>2020-12-19T10:35:27.000Z</time>
      </trkpt>
      <trkpt lat="47.10501" lon="-1.50813">
        <ele>61</ele>
        <time>2020-12-19T10:35:29.000Z</time>
      </trkpt>
      <trkpt lat="47.10491" lon="-1.50795">
        <ele>62</ele>
        <time>2020-12-19T10:35:31.000Z</time>
      </trkpt>
      <trkpt lat="47.10482" lon="-1.50777">
        <ele>61</ele>
        <time>2020-12-19T10:35:33.000Z</time>
      </trkpt>
      <trkpt lat="47.10473" lon="-1.50759">
        <ele>61</ele>
        <time>2020-12-19T10:35:35.000Z</time>
      </trkpt>
      <trkpt lat="47.10466" lon="-1.5074">
        <ele>61</ele>
        <time>2020-12-19T10:35:37.000Z</time>
      </trkpt>
      <trkpt lat="47.10461" lon="-1.5072">
        <ele>61</ele>
        <time>2020-12-19T10:35:39.000Z</time>
      </trkpt>
      <trkpt lat="47.10456" lon="-1.50701">
        <ele>60</ele>
        <time>2020-12-19T10:35:41.000Z</time>
      </trkpt>
      <trkpt lat="47.10451" lon="-1.50681">
        <ele>59</ele>
        <time>2020-12-19T10:35:43.000Z</time>
      </trkpt>
      <trkpt lat="47.10445" lon="-1.50664">
        <ele>59</ele>
        <time>2020-12-19T10:35:45.000Z</time>
      </trkpt>
      <trkpt lat="47.10438" lon="-1.50647">
        <ele>59</ele>
        <time>2020-12-19T10:35:47.000Z</time>
      </trkpt>
      <trkpt lat="47.10428" lon="-1.50635">
        <ele>59</ele>
        <time>2020-12-19T10:35:49.000Z</time>
      </trkpt>
      <trkpt lat="47.10418" lon="-1.50624">
        <ele>58</ele>
        <time>2020-12-19T10:35:51.000Z</time>
      </trkpt>
      <trkpt lat="47.10406" lon="-1.50615">
        <ele>59</ele>
        <time>2020-12-19T10:35:53.000Z</time>
      </trkpt>
      <trkpt lat="47.10395" lon="-1.50606">
        <ele>59</ele>
        <time>2020-12-19T10:35:55.000Z</time>
      </trkpt>
      <trkpt lat="47.10384" lon="-1.50594">
        <ele>60</ele>
        <time>2020-12-19T10:35:57.000Z</time>
      </trkpt>
      <trkpt lat="47.10375" lon="-1.50581">
        <ele>60</ele>
        <time>2020-12-19T10:35:59.000Z</time>
      </trkpt>
      <trkpt lat="47.10366" lon="-1.50567">
        <ele>60</ele>
        <time>2020-12-19T10:36:01.000Z</time>
      </trkpt>
      <trkpt lat="47.10357" lon="-1.50553">
        <ele>60</ele>
        <time>2020-12-19T10:36:03.000Z</time>
      </trkpt>
      <trkpt lat="47.10348" lon="-1.50539">
        <ele>60</ele>
        <time>2020-12-19T10:36:05.000Z</time>
      </trkpt>
      <trkpt lat="47.10339" lon="-1.50524">
        <ele>61</ele>
        <time>2020-12-19T10:36:07.000Z</time>
      </trkpt>
      <trkpt lat="47.1033" lon="-1.5051">
        <ele>61</ele>
        <time>2020-12-19T10:36:09.000Z</time>
      </trkpt>
      <trkpt lat="47.10322" lon="-1.50496">
        <ele>61</ele>
        <time>2020-12-19T10:36:11.000Z</time>
      </trkpt>
      <trkpt lat="47.10314" lon="-1.50482">
        <ele>60</ele>
        <time>2020-12-19T10:36:13.000Z</time>
      </trkpt>
      <trkpt lat="47.10306" lon="-1.50469">
        <ele>60</ele>
        <time>2020-12-19T10:36:15.000Z</time>
      </trkpt>
      <trkpt lat="47.10298" lon="-1.50456">
        <ele>61</ele>
        <time>2020-12-19T10:36:17.000Z</time>
      </trkpt>
      <trkpt lat="47.1029" lon="-1.50443">
        <ele>62</ele>
        <time>2020-12-19T10:36:19.000Z</time>
      </trkpt>
      <trkpt lat="47.10282" lon="-1.50429">
        <ele>62</ele>
        <time>2020-12-19T10:36:21.000Z</time>
      </trkpt>
      <trkpt lat="47.10274" lon="-1.50416">
        <ele>62</ele>
        <time>2020-12-19T10:36:23.000Z</time>
      </trkpt>
      <trkpt lat="47.10267" lon="-1.50402">
        <ele>62</ele>
        <time>2020-12-19T10:36:25.000Z</time>
      </trkpt>
      <trkpt lat="47.10258" lon="-1.50388">
        <ele>62</ele>
        <time>2020-12-19T10:36:27.000Z</time>
      </trkpt>
      <trkpt lat="47.10251" lon="-1.50376">
        <ele>62</ele>
        <time>2020-12-19T10:36:29.000Z</time>
      </trkpt>
      <trkpt lat="47.10243" lon="-1.50363">
        <ele>62</ele>
        <time>2020-12-19T10:36:31.000Z</time>
      </trkpt>
      <trkpt lat="47.10236" lon="-1.5035">
        <ele>62</ele>
        <time>2020-12-19T10:36:33.000Z</time>
      </trkpt>
      <trkpt lat="47.1023" lon="-1.50338">
        <ele>62</ele>
        <time>2020-12-19T10:36:35.000Z</time>
      </trkpt>
      <trkpt lat="47.10223" lon="-1.50328">
        <ele>62</ele>
        <time>2020-12-19T10:36:37.000Z</time>
      </trkpt>
      <trkpt lat="47.10216" lon="-1.50316">
        <ele>62</ele>
        <time>2020-12-19T10:36:39.000Z</time>
      </trkpt>
      <trkpt lat="47.10208" lon="-1.50306">
        <ele>62</ele>
        <time>2020-12-19T10:36:41.000Z</time>
      </trkpt>
      <trkpt lat="47.102" lon="-1.50297">
        <ele>62</ele>
        <time>2020-12-19T10:36:43.000Z</time>
      </trkpt>
      <trkpt lat="47.10191" lon="-1.50289">
        <ele>62</ele>
        <time>2020-12-19T10:36:45.000Z</time>
      </trkpt>
      <trkpt lat="47.10182" lon="-1.50282">
        <ele>62</ele>
        <time>2020-12-19T10:36:47.000Z</time>
      </trkpt>
      <trkpt lat="47.10172" lon="-1.50275">
        <ele>63</ele>
        <time>2020-12-19T10:36:49.000Z</time>
      </trkpt>
      <trkpt lat="47.10162" lon="-1.50268">
        <ele>63</ele>
        <time>2020-12-19T10:36:51.000Z</time>
      </trkpt>
      <trkpt lat="47.10153" lon="-1.50262">
        <ele>64</ele>
        <time>2020-12-19T10:36:53.000Z</time>
      </trkpt>
      <trkpt lat="47.10143" lon="-1.50255">
        <ele>64</ele>
        <time>2020-12-19T10:36:55.000Z</time>
      </trkpt>
      <trkpt lat="47.10133" lon="-1.50248">
        <ele>64</ele>
        <time>2020-12-19T10:36:57.000Z</time>
      </trkpt>
      <trkpt lat="47.10124" lon="-1.50241">
        <ele>64</ele>
        <time>2020-12-19T10:36:59.000Z</time>
      </trkpt>
      <trkpt lat="47.10114" lon="-1.50233">
        <ele>65</ele>
        <time>2020-12-19T10:37:01.000Z</time>
      </trkpt>
      <trkpt lat="47.10105" lon="-1.50225">
        <ele>65</ele>
        <time>2020-12-19T10:37:03.000Z</time>
      </trkpt>
      <trkpt lat="47.10097" lon="-1.50216">
        <ele>66</ele>
        <time>2020-12-19T10:37:05.000Z</time>
      </trkpt>
      <trkpt lat="47.1009" lon="-1.50203">
        <ele>66</ele>
        <time>2020-12-19T10:37:07.000Z</time>
      </trkpt>
      <trkpt lat="47.10085" lon="-1.5019">
        <ele>67</ele>
        <time>2020-12-19T10:37:09.000Z</time>
      </trkpt>
      <trkpt lat="47.10082" lon="-1.50175">
        <ele>67</ele>
        <time>2020-12-19T10:37:11.000Z</time>
      </trkpt>
      <trkpt lat="47.10081" lon="-1.50159">
        <ele>67</ele>
        <time>2020-12-19T10:37:13.000Z</time>
      </trkpt>
      <trkpt lat="47.1008" lon="-1.50143">
        <ele>67</ele>
        <time>2020-12-19T10:37:15.000Z</time>
      </trkpt>
      <trkpt lat="47.1008" lon="-1.50127">
        <ele>68</ele>
        <time>2020-12-19T10:37:17.000Z</time>
      </trkpt>
      <trkpt lat="47.1008" lon="-1.50111">
        <ele>68</ele>
        <time>2020-12-19T10:37:19.000Z</time>
      </trkpt>
      <trkpt lat="47.10079" lon="-1.50095">
        <ele>69</ele>
        <time>2020-12-19T10:37:21.000Z</time>
      </trkpt>
      <trkpt lat="47.10079" lon="-1.50078">
        <ele>69</ele>
        <time>2020-12-19T10:37:23.000Z</time>
      </trkpt>
      <trkpt lat="47.10078" lon="-1.50062">
        <ele>69</ele>
        <time>2020-12-19T10:37:25.000Z</time>
      </trkpt>
      <trkpt lat="47.10078" lon="-1.50046">
        <ele>69</ele>
        <time>2020-12-19T10:37:27.000Z</time>
      </trkpt>
      <trkpt lat="47.10077" lon="-1.5003">
        <ele>70</ele>
        <time>2020-12-19T10:37:29.000Z</time>
      </trkpt>
      <trkpt lat="47.10076" lon="-1.50014">
        <ele>70</ele>
        <time>2020-12-19T10:37:31.000Z</time>
      </trkpt>
      <trkpt lat="47.10076" lon="-1.49998">
        <ele>70</ele>
        <time>2020-12-19T10:37:33.000Z</time>
      </trkpt>
      <trkpt lat="47.10075" lon="-1.49982">
        <ele>70</ele>
        <time>2020-12-19T10:37:35.000Z</time>
      </trkpt>
      <trkpt lat="47.10074" lon="-1.49966">
        <ele>70</ele>
        <time>2020-12-19T10:37:37.000Z</time>
      </trkpt>
      <trkpt lat="47.10074" lon="-1.49949">
        <ele>70</ele>
        <time>2020-12-19T10:37:39.000Z</time>
      </trkpt>
      <trkpt lat="47.10073" lon="-1.49932">
        <ele>70</ele>
        <time>2020-12-19T10:37:41.000Z</time>
      </trkpt>
      <trkpt lat="47.10071" lon="-1.49915">
        <ele>70</ele>
        <time>2020-12-19T10:37:43.000Z</time>
      </trkpt>
      <trkpt lat="47.10067" lon="-1.49897">
        <ele>69</ele>
        <time>2020-12-19T10:37:45.000Z</time>
      </trkpt>
      <trkpt lat="47.10063" lon="-1.49879">
        <ele>69</ele>
        <time>2020-12-19T10:37:47.000Z</time>
      </trkpt>
      <trkpt lat="47.10057" lon="-1.49861">
        <ele>68</ele>
        <time>2020-12-19T10:37:49.000Z</time>
      </trkpt>
      <trkpt lat="47.10049" lon="-1.49844">
        <ele>68</ele>
        <time>2020-12-19T10:37:51.000Z</time>
      </trkpt>
      <trkpt lat="47.10043" lon="-1.49827">
        <ele>68</ele>
        <time>2020-12-19T10:37:53.000Z</time>
      </trkpt>
      <trkpt lat="47.10035" lon="-1.49809">
        <ele>68</ele>
        <time>2020-12-19T10:37:55.000Z</time>
      </trkpt>
      <trkpt lat="47.10028" lon="-1.49792">
        <ele>67</ele>
        <time>2020-12-19T10:37:57.000Z</time>
      </trkpt>
      <trkpt lat="47.10021" lon="-1.49776">
        <ele>67</ele>
        <time>2020-12-19T10:37:59.000Z</time>
      </trkpt>
      <trkpt lat="47.10014" lon="-1.49759">
        <ele>67</ele>
        <time>2020-12-19T10:38:01.000Z</time>
      </trkpt>
      <trkpt lat="47.10007" lon="-1.49743">
        <ele>66</ele>
        <time>2020-12-19T10:38:03.000Z</time>
      </trkpt>
      <trkpt lat="47.1" lon="-1.49726">
        <ele>66</ele>
        <time>2020-12-19T10:38:05.000Z</time>
      </trkpt>
      <trkpt lat="47.09993" lon="-1.49711">
        <ele>66</ele>
        <time>2020-12-19T10:38:07.000Z</time>
      </trkpt>
      <trkpt lat="47.09987" lon="-1.49695">
        <ele>66</ele>
        <time>2020-12-19T10:38:09.000Z</time>
      </trkpt>
      <trkpt lat="47.0998" lon="-1.49679">
        <ele>66</ele>
        <time>2020-12-19T10:38:11.000Z</time>
      </trkpt>
      <trkpt lat="47.09972" lon="-1.49664">
        <ele>66</ele>
        <time>2020-12-19T10:38:13.000Z</time>
      </trkpt>
      <trkpt lat="47.09966" lon="-1.49649">
        <ele>66</ele>
        <time>2020-12-19T10:38:15.000Z</time>
      </trkpt>
      <trkpt lat="47.09959" lon="-1.49633">
        <ele>66</ele>
        <time>2020-12-19T10:38:17.000Z</time>
      </trkpt>
      <trkpt lat="47.09952" lon="-1.49617">
        <ele>66</ele>
        <time>2020-12-19T10:38:19.000Z</time>
      </trkpt>
      <trkpt lat="47.09945" lon="-1.49602">
        <ele>65</ele>
        <time>2020-12-19T10:38:21.000Z</time>
      </trkpt>
      <trkpt lat="47.09938" lon="-1.49587">
        <ele>65</ele>
        <time>2020-12-19T10:38:23.000Z</time>
      </trkpt>
      <trkpt lat="47.09932" lon="-1.49571">
        <ele>65</ele>
        <time>2020-12-19T10:38:25.000Z</time>
      </trkpt>
      <trkpt lat="47.09925" lon="-1.49556">
        <ele>66</ele>
        <time>2020-12-19T10:38:27.000Z</time>
      </trkpt>
      <trkpt lat="47.09919" lon="-1.4954">
        <ele>66</ele>
        <time>2020-12-19T10:38:29.000Z</time>
      </trkpt>
      <trkpt lat="47.09912" lon="-1.49525">
        <ele>66</ele>
        <time>2020-12-19T10:38:31.000Z</time>
      </trkpt>
      <trkpt lat="47.09905" lon="-1.49509">
        <ele>67</ele>
        <time>2020-12-19T10:38:33.000Z</time>
      </trkpt>
      <trkpt lat="47.09899" lon="-1.49494">
        <ele>67</ele>
        <time>2020-12-19T10:38:35.000Z</time>
      </trkpt>
      <trkpt lat="47.09893" lon="-1.49479">
        <ele>67</ele>
        <time>2020-12-19T10:38:37.000Z</time>
      </trkpt>
      <trkpt lat="47.09888" lon="-1.49464">
        <ele>67</ele>
        <time>2020-12-19T10:38:39.000Z</time>
      </trkpt>
      <trkpt lat="47.09883" lon="-1.49449">
        <ele>67</ele>
        <time>2020-12-19T10:38:41.000Z</time>
      </trkpt>
      <trkpt lat="47.09878" lon="-1.49434">
        <ele>68</ele>
        <time>2020-12-19T10:38:43.000Z</time>
      </trkpt>
      <trkpt lat="47.09876" lon="-1.49417">
        <ele>68</ele>
        <time>2020-12-19T10:38:45.000Z</time>
      </trkpt>
      <trkpt lat="47.09874" lon="-1.49398">
        <ele>68</ele>
        <time>2020-12-19T10:38:47.000Z</time>
      </trkpt>
      <trkpt lat="47.09871" lon="-1.49381">
        <ele>68</ele>
        <time>2020-12-19T10:38:49.000Z</time>
      </trkpt>
      <trkpt lat="47.09868" lon="-1.49366">
        <ele>68</ele>
        <time>2020-12-19T10:38:51.000Z</time>
      </trkpt>
      <trkpt lat="47.09865" lon="-1.49354">
        <ele>67</ele>
        <time>2020-12-19T10:38:53.000Z</time>
      </trkpt>
      <trkpt lat="47.09863" lon="-1.4934">
        <ele>68</ele>
        <time>2020-12-19T10:38:56.000Z</time>
      </trkpt>
      <trkpt lat="47.09865" lon="-1.49326">
        <ele>70</ele>
        <time>2020-12-19T10:39:45.000Z</time>
      </trkpt>
      <trkpt lat="47.09862" lon="-1.49307">
        <ele>71</ele>
        <time>2020-12-19T10:39:48.000Z</time>
      </trkpt>
      <trkpt lat="47.09861" lon="-1.49293">
        <ele>71</ele>
        <time>2020-12-19T10:39:50.000Z</time>
      </trkpt>
      <trkpt lat="47.0986" lon="-1.49277">
        <ele>71</ele>
        <time>2020-12-19T10:39:52.000Z</time>
      </trkpt>
      <trkpt lat="47.09859" lon="-1.4926">
        <ele>71</ele>
        <time>2020-12-19T10:39:54.000Z</time>
      </trkpt>
      <trkpt lat="47.09858" lon="-1.49242">
        <ele>71</ele>
        <time>2020-12-19T10:39:56.000Z</time>
      </trkpt>
      <trkpt lat="47.09857" lon="-1.49223">
        <ele>71</ele>
        <time>2020-12-19T10:39:58.000Z</time>
      </trkpt>
      <trkpt lat="47.09857" lon="-1.49203">
        <ele>71</ele>
        <time>2020-12-19T10:40:00.000Z</time>
      </trkpt>
      <trkpt lat="47.09856" lon="-1.49184">
        <ele>70</ele>
        <time>2020-12-19T10:40:02.000Z</time>
      </trkpt>
      <trkpt lat="47.09856" lon="-1.49165">
        <ele>70</ele>
        <time>2020-12-19T10:40:04.000Z</time>
      </trkpt>
      <trkpt lat="47.09855" lon="-1.49146">
        <ele>70</ele>
        <time>2020-12-19T10:40:06.000Z</time>
      </trkpt>
      <trkpt lat="47.09855" lon="-1.49128">
        <ele>70</ele>
        <time>2020-12-19T10:40:08.000Z</time>
      </trkpt>
      <trkpt lat="47.09853" lon="-1.49111">
        <ele>71</ele>
        <time>2020-12-19T10:40:10.000Z</time>
      </trkpt>
      <trkpt lat="47.09854" lon="-1.49093">
        <ele>71</ele>
        <time>2020-12-19T10:40:12.000Z</time>
      </trkpt>
      <trkpt lat="47.09857" lon="-1.49074">
        <ele>71</ele>
        <time>2020-12-19T10:40:14.000Z</time>
      </trkpt>
      <trkpt lat="47.09853" lon="-1.49058">
        <ele>72</ele>
        <time>2020-12-19T10:40:16.000Z</time>
      </trkpt>
      <trkpt lat="47.09847" lon="-1.49042">
        <ele>70</ele>
        <time>2020-12-19T10:40:18.000Z</time>
      </trkpt>
      <trkpt lat="47.09841" lon="-1.49027">
        <ele>70</ele>
        <time>2020-12-19T10:40:20.000Z</time>
      </trkpt>
      <trkpt lat="47.09836" lon="-1.49011">
        <ele>70</ele>
        <time>2020-12-19T10:40:22.000Z</time>
      </trkpt>
      <trkpt lat="47.09829" lon="-1.48996">
        <ele>70</ele>
        <time>2020-12-19T10:40:24.000Z</time>
      </trkpt>
      <trkpt lat="47.09825" lon="-1.4898">
        <ele>69</ele>
        <time>2020-12-19T10:40:26.000Z</time>
      </trkpt>
      <trkpt lat="47.09821" lon="-1.48966">
        <ele>69</ele>
        <time>2020-12-19T10:40:28.000Z</time>
      </trkpt>
      <trkpt lat="47.09814" lon="-1.48957">
        <ele>69</ele>
        <time>2020-12-19T10:40:30.000Z</time>
      </trkpt>
      <trkpt lat="47.09803" lon="-1.4896">
        <ele>69</ele>
        <time>2020-12-19T10:40:32.000Z</time>
      </trkpt>
      <trkpt lat="47.09796" lon="-1.48948">
        <ele>68</ele>
        <time>2020-12-19T10:40:35.000Z</time>
      </trkpt>
      <trkpt lat="47.09797" lon="-1.48934">
        <ele>68</ele>
        <time>2020-12-19T10:40:37.000Z</time>
      </trkpt>
      <trkpt lat="47.09801" lon="-1.48918">
        <ele>68</ele>
        <time>2020-12-19T10:40:39.000Z</time>
      </trkpt>
      <trkpt lat="47.09804" lon="-1.48902">
        <ele>68</ele>
        <time>2020-12-19T10:40:41.000Z</time>
      </trkpt>
      <trkpt lat="47.09801" lon="-1.48883">
        <ele>69</ele>
        <time>2020-12-19T10:40:43.000Z</time>
      </trkpt>
      <trkpt lat="47.09794" lon="-1.48866">
        <ele>69</ele>
        <time>2020-12-19T10:40:45.000Z</time>
      </trkpt>
      <trkpt lat="47.09787" lon="-1.48848">
        <ele>69</ele>
        <time>2020-12-19T10:40:47.000Z</time>
      </trkpt>
      <trkpt lat="47.09779" lon="-1.4883">
        <ele>69</ele>
        <time>2020-12-19T10:40:49.000Z</time>
      </trkpt>
      <trkpt lat="47.09773" lon="-1.48813">
        <ele>69</ele>
        <time>2020-12-19T10:40:51.000Z</time>
      </trkpt>
      <trkpt lat="47.09768" lon="-1.48795">
        <ele>69</ele>
        <time>2020-12-19T10:40:53.000Z</time>
      </trkpt>
      <trkpt lat="47.09767" lon="-1.48777">
        <ele>69</ele>
        <time>2020-12-19T10:40:55.000Z</time>
      </trkpt>
      <trkpt lat="47.09768" lon="-1.48759">
        <ele>70</ele>
        <time>2020-12-19T10:40:57.000Z</time>
      </trkpt>
      <trkpt lat="47.09775" lon="-1.48746">
        <ele>70</ele>
        <time>2020-12-19T10:40:59.000Z</time>
      </trkpt>
      <trkpt lat="47.09784" lon="-1.48733">
        <ele>70</ele>
        <time>2020-12-19T10:41:01.000Z</time>
      </trkpt>
      <trkpt lat="47.09793" lon="-1.4872">
        <ele>70</ele>
        <time>2020-12-19T10:41:03.000Z</time>
      </trkpt>
      <trkpt lat="47.09802" lon="-1.48705">
        <ele>70</ele>
        <time>2020-12-19T10:41:05.000Z</time>
      </trkpt>
      <trkpt lat="47.09811" lon="-1.48689">
        <ele>70</ele>
        <time>2020-12-19T10:41:07.000Z</time>
      </trkpt>
      <trkpt lat="47.09818" lon="-1.48674">
        <ele>70</ele>
        <time>2020-12-19T10:41:09.000Z</time>
      </trkpt>
      <trkpt lat="47.09827" lon="-1.48659">
        <ele>70</ele>
        <time>2020-12-19T10:41:11.000Z</time>
      </trkpt>
      <trkpt lat="47.09836" lon="-1.48643">
        <ele>70</ele>
        <time>2020-12-19T10:41:13.000Z</time>
      </trkpt>
      <trkpt lat="47.09843" lon="-1.48628">
        <ele>69</ele>
        <time>2020-12-19T10:41:15.000Z</time>
      </trkpt>
      <trkpt lat="47.09851" lon="-1.48613">
        <ele>69</ele>
        <time>2020-12-19T10:41:17.000Z</time>
      </trkpt>
      <trkpt lat="47.09858" lon="-1.48597">
        <ele>69</ele>
        <time>2020-12-19T10:41:19.000Z</time>
      </trkpt>
      <trkpt lat="47.09864" lon="-1.4858">
        <ele>69</ele>
        <time>2020-12-19T10:41:21.000Z</time>
      </trkpt>
      <trkpt lat="47.09867" lon="-1.4856">
        <ele>69</ele>
        <time>2020-12-19T10:41:23.000Z</time>
      </trkpt>
      <trkpt lat="47.09868" lon="-1.48541">
        <ele>69</ele>
        <time>2020-12-19T10:41:25.000Z</time>
      </trkpt>
      <trkpt lat="47.09869" lon="-1.48521">
        <ele>69</ele>
        <time>2020-12-19T10:41:27.000Z</time>
      </trkpt>
      <trkpt lat="47.09869" lon="-1.48502">
        <ele>69</ele>
        <time>2020-12-19T10:41:29.000Z</time>
      </trkpt>
      <trkpt lat="47.09867" lon="-1.48483">
        <ele>68</ele>
        <time>2020-12-19T10:41:31.000Z</time>
      </trkpt>
      <trkpt lat="47.09865" lon="-1.48464">
        <ele>68</ele>
        <time>2020-12-19T10:41:33.000Z</time>
      </trkpt>
      <trkpt lat="47.09863" lon="-1.48444">
        <ele>68</ele>
        <time>2020-12-19T10:41:35.000Z</time>
      </trkpt>
      <trkpt lat="47.0986" lon="-1.48425">
        <ele>68</ele>
        <time>2020-12-19T10:41:37.000Z</time>
      </trkpt>
      <trkpt lat="47.09858" lon="-1.48407">
        <ele>68</ele>
        <time>2020-12-19T10:41:39.000Z</time>
      </trkpt>
      <trkpt lat="47.09856" lon="-1.48389">
        <ele>68</ele>
        <time>2020-12-19T10:41:41.000Z</time>
      </trkpt>
      <trkpt lat="47.09855" lon="-1.4837">
        <ele>67</ele>
        <time>2020-12-19T10:41:43.000Z</time>
      </trkpt>
      <trkpt lat="47.09853" lon="-1.48351">
        <ele>67</ele>
        <time>2020-12-19T10:41:45.000Z</time>
      </trkpt>
      <trkpt lat="47.09851" lon="-1.48332">
        <ele>67</ele>
        <time>2020-12-19T10:41:47.000Z</time>
      </trkpt>
      <trkpt lat="47.0985" lon="-1.48312">
        <ele>67</ele>
        <time>2020-12-19T10:41:49.000Z</time>
      </trkpt>
      <trkpt lat="47.09848" lon="-1.48293">
        <ele>68</ele>
        <time>2020-12-19T10:41:51.000Z</time>
      </trkpt>
      <trkpt lat="47.09846" lon="-1.48274">
        <ele>67</ele>
        <time>2020-12-19T10:41:53.000Z</time>
      </trkpt>
      <trkpt lat="47.09844" lon="-1.48255">
        <ele>67</ele>
        <time>2020-12-19T10:41:55.000Z</time>
      </trkpt>
      <trkpt lat="47.09841" lon="-1.48236">
        <ele>67</ele>
        <time>2020-12-19T10:41:57.000Z</time>
      </trkpt>
      <trkpt lat="47.09839" lon="-1.48218">
        <ele>67</ele>
        <time>2020-12-19T10:41:59.000Z</time>
      </trkpt>
      <trkpt lat="47.09839" lon="-1.482">
        <ele>67</ele>
        <time>2020-12-19T10:42:01.000Z</time>
      </trkpt>
      <trkpt lat="47.09839" lon="-1.48181">
        <ele>67</ele>
        <time>2020-12-19T10:42:03.000Z</time>
      </trkpt>
      <trkpt lat="47.0984" lon="-1.48162">
        <ele>67</ele>
        <time>2020-12-19T10:42:05.000Z</time>
      </trkpt>
      <trkpt lat="47.09841" lon="-1.48143">
        <ele>67</ele>
        <time>2020-12-19T10:42:07.000Z</time>
      </trkpt>
      <trkpt lat="47.09842" lon="-1.48124">
        <ele>67</ele>
        <time>2020-12-19T10:42:09.000Z</time>
      </trkpt>
      <trkpt lat="47.09842" lon="-1.48106">
        <ele>68</ele>
        <time>2020-12-19T10:42:11.000Z</time>
      </trkpt>
      <trkpt lat="47.09842" lon="-1.48088">
        <ele>68</ele>
        <time>2020-12-19T10:42:13.000Z</time>
      </trkpt>
      <trkpt lat="47.09841" lon="-1.4807">
        <ele>68</ele>
        <time>2020-12-19T10:42:15.000Z</time>
      </trkpt>
      <trkpt lat="47.09839" lon="-1.4805">
        <ele>68</ele>
        <time>2020-12-19T10:42:17.000Z</time>
      </trkpt>
      <trkpt lat="47.09837" lon="-1.48031">
        <ele>69</ele>
        <time>2020-12-19T10:42:19.000Z</time>
      </trkpt>
      <trkpt lat="47.09835" lon="-1.48011">
        <ele>69</ele>
        <time>2020-12-19T10:42:21.000Z</time>
      </trkpt>
      <trkpt lat="47.09834" lon="-1.47994">
        <ele>69</ele>
        <time>2020-12-19T10:42:23.000Z</time>
      </trkpt>
      <trkpt lat="47.09832" lon="-1.47975">
        <ele>69</ele>
        <time>2020-12-19T10:42:25.000Z</time>
      </trkpt>
      <trkpt lat="47.09831" lon="-1.47955">
        <ele>69</ele>
        <time>2020-12-19T10:42:27.000Z</time>
      </trkpt>
      <trkpt lat="47.09829" lon="-1.47936">
        <ele>69</ele>
        <time>2020-12-19T10:42:29.000Z</time>
      </trkpt>
      <trkpt lat="47.09828" lon="-1.47916">
        <ele>69</ele>
        <time>2020-12-19T10:42:31.000Z</time>
      </trkpt>
      <trkpt lat="47.09826" lon="-1.47898">
        <ele>70</ele>
        <time>2020-12-19T10:42:33.000Z</time>
      </trkpt>
      <trkpt lat="47.09824" lon="-1.47879">
        <ele>70</ele>
        <time>2020-12-19T10:42:35.000Z</time>
      </trkpt>
      <trkpt lat="47.09823" lon="-1.47859">
        <ele>70</ele>
        <time>2020-12-19T10:42:37.000Z</time>
      </trkpt>
      <trkpt lat="47.09822" lon="-1.47841">
        <ele>71</ele>
        <time>2020-12-19T10:42:39.000Z</time>
      </trkpt>
      <trkpt lat="47.0982" lon="-1.47821">
        <ele>71</ele>
        <time>2020-12-19T10:42:41.000Z</time>
      </trkpt>
      <trkpt lat="47.09819" lon="-1.47801">
        <ele>70</ele>
        <time>2020-12-19T10:42:43.000Z</time>
      </trkpt>
      <trkpt lat="47.09817" lon="-1.47783">
        <ele>71</ele>
        <time>2020-12-19T10:42:45.000Z</time>
      </trkpt>
      <trkpt lat="47.09816" lon="-1.47764">
        <ele>71</ele>
        <time>2020-12-19T10:42:47.000Z</time>
      </trkpt>
      <trkpt lat="47.09816" lon="-1.47744">
        <ele>71</ele>
        <time>2020-12-19T10:42:49.000Z</time>
      </trkpt>
      <trkpt lat="47.09816" lon="-1.47725">
        <ele>71</ele>
        <time>2020-12-19T10:42:51.000Z</time>
      </trkpt>
      <trkpt lat="47.09816" lon="-1.47706">
        <ele>71</ele>
        <time>2020-12-19T10:42:53.000Z</time>
      </trkpt>
      <trkpt lat="47.09817" lon="-1.47688">
        <ele>70</ele>
        <time>2020-12-19T10:42:55.000Z</time>
      </trkpt>
      <trkpt lat="47.09818" lon="-1.47668">
        <ele>71</ele>
        <time>2020-12-19T10:42:57.000Z</time>
      </trkpt>
      <trkpt lat="47.09821" lon="-1.4765">
        <ele>71</ele>
        <time>2020-12-19T10:42:59.000Z</time>
      </trkpt>
      <trkpt lat="47.09823" lon="-1.47631">
        <ele>71</ele>
        <time>2020-12-19T10:43:01.000Z</time>
      </trkpt>
      <trkpt lat="47.09827" lon="-1.47614">
        <ele>71</ele>
        <time>2020-12-19T10:43:03.000Z</time>
      </trkpt>
      <trkpt lat="47.09831" lon="-1.47597">
        <ele>72</ele>
        <time>2020-12-19T10:43:05.000Z</time>
      </trkpt>
      <trkpt lat="47.09836" lon="-1.47581">
        <ele>72</ele>
        <time>2020-12-19T10:43:07.000Z</time>
      </trkpt>
      <trkpt lat="47.09841" lon="-1.47565">
        <ele>73</ele>
        <time>2020-12-19T10:43:09.000Z</time>
      </trkpt>
      <trkpt lat="47.09847" lon="-1.47551">
        <ele>73</ele>
        <time>2020-12-19T10:43:11.000Z</time>
      </trkpt>
      <trkpt lat="47.09852" lon="-1.47537">
        <ele>74</ele>
        <time>2020-12-19T10:43:13.000Z</time>
      </trkpt>
      <trkpt lat="47.09858" lon="-1.47524">
        <ele>75</ele>
        <time>2020-12-19T10:43:15.000Z</time>
      </trkpt>
      <trkpt lat="47.09865" lon="-1.47511">
        <ele>76</ele>
        <time>2020-12-19T10:43:17.000Z</time>
      </trkpt>
      <trkpt lat="47.09871" lon="-1.47498">
        <ele>76</ele>
        <time>2020-12-19T10:43:19.000Z</time>
      </trkpt>
      <trkpt lat="47.09878" lon="-1.47485">
        <ele>76</ele>
        <time>2020-12-19T10:43:21.000Z</time>
      </trkpt>
      <trkpt lat="47.09885" lon="-1.47473">
        <ele>77</ele>
        <time>2020-12-19T10:43:23.000Z</time>
      </trkpt>
      <trkpt lat="47.09892" lon="-1.4746">
        <ele>78</ele>
        <time>2020-12-19T10:43:25.000Z</time>
      </trkpt>
      <trkpt lat="47.09899" lon="-1.47448">
        <ele>78</ele>
        <time>2020-12-19T10:43:27.000Z</time>
      </trkpt>
      <trkpt lat="47.09905" lon="-1.47436">
        <ele>79</ele>
        <time>2020-12-19T10:43:29.000Z</time>
      </trkpt>
      <trkpt lat="47.09912" lon="-1.47423">
        <ele>79</ele>
        <time>2020-12-19T10:43:31.000Z</time>
      </trkpt>
      <trkpt lat="47.09918" lon="-1.4741">
        <ele>80</ele>
        <time>2020-12-19T10:43:33.000Z</time>
      </trkpt>
      <trkpt lat="47.09925" lon="-1.47397">
        <ele>80</ele>
        <time>2020-12-19T10:43:35.000Z</time>
      </trkpt>
      <trkpt lat="47.09932" lon="-1.47385">
        <ele>81</ele>
        <time>2020-12-19T10:43:37.000Z</time>
      </trkpt>
      <trkpt lat="47.09939" lon="-1.47371">
        <ele>82</ele>
        <time>2020-12-19T10:43:39.000Z</time>
      </trkpt>
      <trkpt lat="47.09945" lon="-1.47359">
        <ele>82</ele>
        <time>2020-12-19T10:43:41.000Z</time>
      </trkpt>
      <trkpt lat="47.09952" lon="-1.47347">
        <ele>83</ele>
        <time>2020-12-19T10:43:43.000Z</time>
      </trkpt>
      <trkpt lat="47.09959" lon="-1.47335">
        <ele>83</ele>
        <time>2020-12-19T10:43:45.000Z</time>
      </trkpt>
      <trkpt lat="47.09965" lon="-1.47323">
        <ele>84</ele>
        <time>2020-12-19T10:43:47.000Z</time>
      </trkpt>
      <trkpt lat="47.09972" lon="-1.47311">
        <ele>84</ele>
        <time>2020-12-19T10:43:49.000Z</time>
      </trkpt>
      <trkpt lat="47.09979" lon="-1.47299">
        <ele>84</ele>
        <time>2020-12-19T10:43:51.000Z</time>
      </trkpt>
      <trkpt lat="47.09985" lon="-1.47287">
        <ele>84</ele>
        <time>2020-12-19T10:43:53.000Z</time>
      </trkpt>
      <trkpt lat="47.09991" lon="-1.47274">
        <ele>84</ele>
        <time>2020-12-19T10:43:55.000Z</time>
      </trkpt>
      <trkpt lat="47.09999" lon="-1.47261">
        <ele>84</ele>
        <time>2020-12-19T10:43:57.000Z</time>
      </trkpt>
      <trkpt lat="47.10006" lon="-1.47248">
        <ele>84</ele>
        <time>2020-12-19T10:43:59.000Z</time>
      </trkpt>
      <trkpt lat="47.10013" lon="-1.47234">
        <ele>84</ele>
        <time>2020-12-19T10:44:01.000Z</time>
      </trkpt>
      <trkpt lat="47.1002" lon="-1.4722">
        <ele>84</ele>
        <time>2020-12-19T10:44:03.000Z</time>
      </trkpt>
      <trkpt lat="47.10028" lon="-1.47206">
        <ele>84</ele>
        <time>2020-12-19T10:44:05.000Z</time>
      </trkpt>
      <trkpt lat="47.10036" lon="-1.47191">
        <ele>83</ele>
        <time>2020-12-19T10:44:07.000Z</time>
      </trkpt>
      <trkpt lat="47.10044" lon="-1.47176">
        <ele>83</ele>
        <time>2020-12-19T10:44:09.000Z</time>
      </trkpt>
      <trkpt lat="47.10052" lon="-1.4716">
        <ele>83</ele>
        <time>2020-12-19T10:44:11.000Z</time>
      </trkpt>
      <trkpt lat="47.10059" lon="-1.47143">
        <ele>83</ele>
        <time>2020-12-19T10:44:13.000Z</time>
      </trkpt>
      <trkpt lat="47.10066" lon="-1.47126">
        <ele>83</ele>
        <time>2020-12-19T10:44:15.000Z</time>
      </trkpt>
      <trkpt lat="47.10072" lon="-1.47108">
        <ele>82</ele>
        <time>2020-12-19T10:44:17.000Z</time>
      </trkpt>
      <trkpt lat="47.10079" lon="-1.47089">
        <ele>82</ele>
        <time>2020-12-19T10:44:19.000Z</time>
      </trkpt>
      <trkpt lat="47.10084" lon="-1.47071">
        <ele>82</ele>
        <time>2020-12-19T10:44:21.000Z</time>
      </trkpt>
      <trkpt lat="47.10089" lon="-1.47052">
        <ele>82</ele>
        <time>2020-12-19T10:44:23.000Z</time>
      </trkpt>
      <trkpt lat="47.10094" lon="-1.47034">
        <ele>82</ele>
        <time>2020-12-19T10:44:25.000Z</time>
      </trkpt>
      <trkpt lat="47.10098" lon="-1.47016">
        <ele>82</ele>
        <time>2020-12-19T10:44:27.000Z</time>
      </trkpt>
      <trkpt lat="47.10103" lon="-1.46998">
        <ele>83</ele>
        <time>2020-12-19T10:44:29.000Z</time>
      </trkpt>
      <trkpt lat="47.10107" lon="-1.46981">
        <ele>83</ele>
        <time>2020-12-19T10:44:31.000Z</time>
      </trkpt>
      <trkpt lat="47.10112" lon="-1.46965">
        <ele>83</ele>
        <time>2020-12-19T10:44:33.000Z</time>
      </trkpt>
      <trkpt lat="47.10116" lon="-1.46949">
        <ele>84</ele>
        <time>2020-12-19T10:44:35.000Z</time>
      </trkpt>
      <trkpt lat="47.1012" lon="-1.46933">
        <ele>84</ele>
        <time>2020-12-19T10:44:37.000Z</time>
      </trkpt>
      <trkpt lat="47.10124" lon="-1.46917">
        <ele>84</ele>
        <time>2020-12-19T10:44:39.000Z</time>
      </trkpt>
      <trkpt lat="47.10129" lon="-1.46901">
        <ele>84</ele>
        <time>2020-12-19T10:44:41.000Z</time>
      </trkpt>
      <trkpt lat="47.10133" lon="-1.46885">
        <ele>85</ele>
        <time>2020-12-19T10:44:43.000Z</time>
      </trkpt>
      <trkpt lat="47.10137" lon="-1.46869">
        <ele>84</ele>
        <time>2020-12-19T10:44:45.000Z</time>
      </trkpt>
      <trkpt lat="47.10142" lon="-1.46853">
        <ele>85</ele>
        <time>2020-12-19T10:44:47.000Z</time>
      </trkpt>
      <trkpt lat="47.10146" lon="-1.46836">
        <ele>85</ele>
        <time>2020-12-19T10:44:49.000Z</time>
      </trkpt>
      <trkpt lat="47.10149" lon="-1.4682">
        <ele>85</ele>
        <time>2020-12-19T10:44:51.000Z</time>
      </trkpt>
      <trkpt lat="47.10153" lon="-1.46804">
        <ele>85</ele>
        <time>2020-12-19T10:44:53.000Z</time>
      </trkpt>
      <trkpt lat="47.10157" lon="-1.46788">
        <ele>85</ele>
        <time>2020-12-19T10:44:55.000Z</time>
      </trkpt>
      <trkpt lat="47.1016" lon="-1.46772">
        <ele>86</ele>
        <time>2020-12-19T10:44:57.000Z</time>
      </trkpt>
      <trkpt lat="47.10163" lon="-1.46756">
        <ele>86</ele>
        <time>2020-12-19T10:44:59.000Z</time>
      </trkpt>
      <trkpt lat="47.10165" lon="-1.4674">
        <ele>87</ele>
        <time>2020-12-19T10:45:01.000Z</time>
      </trkpt>
      <trkpt lat="47.10167" lon="-1.46724">
        <ele>87</ele>
        <time>2020-12-19T10:45:03.000Z</time>
      </trkpt>
      <trkpt lat="47.1017" lon="-1.46709">
        <ele>87</ele>
        <time>2020-12-19T10:45:05.000Z</time>
      </trkpt>
      <trkpt lat="47.10172" lon="-1.46693">
        <ele>87</ele>
        <time>2020-12-19T10:45:07.000Z</time>
      </trkpt>
      <trkpt lat="47.10175" lon="-1.46677">
        <ele>87</ele>
        <time>2020-12-19T10:45:09.000Z</time>
      </trkpt>
      <trkpt lat="47.10177" lon="-1.46662">
        <ele>88</ele>
        <time>2020-12-19T10:45:11.000Z</time>
      </trkpt>
      <trkpt lat="47.10179" lon="-1.46647">
        <ele>88</ele>
        <time>2020-12-19T10:45:13.000Z</time>
      </trkpt>
      <trkpt lat="47.10182" lon="-1.46631">
        <ele>88</ele>
        <time>2020-12-19T10:45:15.000Z</time>
      </trkpt>
      <trkpt lat="47.10184" lon="-1.46616">
        <ele>88</ele>
        <time>2020-12-19T10:45:17.000Z</time>
      </trkpt>
      <trkpt lat="47.10187" lon="-1.466">
        <ele>88</ele>
        <time>2020-12-19T10:45:19.000Z</time>
      </trkpt>
      <trkpt lat="47.10189" lon="-1.46585">
        <ele>88</ele>
        <time>2020-12-19T10:45:21.000Z</time>
      </trkpt>
      <trkpt lat="47.10191" lon="-1.46569">
        <ele>89</ele>
        <time>2020-12-19T10:45:23.000Z</time>
      </trkpt>
      <trkpt lat="47.10193" lon="-1.46553">
        <ele>89</ele>
        <time>2020-12-19T10:45:25.000Z</time>
      </trkpt>
      <trkpt lat="47.10194" lon="-1.46537">
        <ele>89</ele>
        <time>2020-12-19T10:45:27.000Z</time>
      </trkpt>
      <trkpt lat="47.10194" lon="-1.46522">
        <ele>89</ele>
        <time>2020-12-19T10:45:29.000Z</time>
      </trkpt>
      <trkpt lat="47.10195" lon="-1.46506">
        <ele>89</ele>
        <time>2020-12-19T10:45:31.000Z</time>
      </trkpt>
      <trkpt lat="47.10196" lon="-1.46491">
        <ele>89</ele>
        <time>2020-12-19T10:45:33.000Z</time>
      </trkpt>
      <trkpt lat="47.10197" lon="-1.46474">
        <ele>90</ele>
        <time>2020-12-19T10:45:35.000Z</time>
      </trkpt>
      <trkpt lat="47.10198" lon="-1.46459">
        <ele>91</ele>
        <time>2020-12-19T10:45:37.000Z</time>
      </trkpt>
      <trkpt lat="47.10199" lon="-1.46443">
        <ele>91</ele>
        <time>2020-12-19T10:45:39.000Z</time>
      </trkpt>
      <trkpt lat="47.10199" lon="-1.46428">
        <ele>92</ele>
        <time>2020-12-19T10:45:41.000Z</time>
      </trkpt>
      <trkpt lat="47.102" lon="-1.46412">
        <ele>92</ele>
        <time>2020-12-19T10:45:43.000Z</time>
      </trkpt>
      <trkpt lat="47.10201" lon="-1.46397">
        <ele>93</ele>
        <time>2020-12-19T10:45:45.000Z</time>
      </trkpt>
      <trkpt lat="47.10203" lon="-1.46382">
        <ele>93</ele>
        <time>2020-12-19T10:45:47.000Z</time>
      </trkpt>
      <trkpt lat="47.10206" lon="-1.46368">
        <ele>93</ele>
        <time>2020-12-19T10:45:49.000Z</time>
      </trkpt>
      <trkpt lat="47.1021" lon="-1.46354">
        <ele>94</ele>
        <time>2020-12-19T10:45:51.000Z</time>
      </trkpt>
      <trkpt lat="47.10215" lon="-1.46341">
        <ele>94</ele>
        <time>2020-12-19T10:45:53.000Z</time>
      </trkpt>
      <trkpt lat="47.10222" lon="-1.46329">
        <ele>95</ele>
        <time>2020-12-19T10:45:55.000Z</time>
      </trkpt>
      <trkpt lat="47.10229" lon="-1.46318">
        <ele>95</ele>
        <time>2020-12-19T10:45:57.000Z</time>
      </trkpt>
      <trkpt lat="47.10236" lon="-1.46306">
        <ele>96</ele>
        <time>2020-12-19T10:45:59.000Z</time>
      </trkpt>
      <trkpt lat="47.10244" lon="-1.46295">
        <ele>96</ele>
        <time>2020-12-19T10:46:01.000Z</time>
      </trkpt>
      <trkpt lat="47.1025" lon="-1.46284">
        <ele>97</ele>
        <time>2020-12-19T10:46:03.000Z</time>
      </trkpt>
      <trkpt lat="47.10258" lon="-1.46273">
        <ele>97</ele>
        <time>2020-12-19T10:46:05.000Z</time>
      </trkpt>
      <trkpt lat="47.10265" lon="-1.46262">
        <ele>98</ele>
        <time>2020-12-19T10:46:07.000Z</time>
      </trkpt>
      <trkpt lat="47.10272" lon="-1.46251">
        <ele>98</ele>
        <time>2020-12-19T10:46:09.000Z</time>
      </trkpt>
      <trkpt lat="47.10279" lon="-1.46241">
        <ele>99</ele>
        <time>2020-12-19T10:46:11.000Z</time>
      </trkpt>
      <trkpt lat="47.10287" lon="-1.46227">
        <ele>99</ele>
        <time>2020-12-19T10:46:14.000Z</time>
      </trkpt>
      <trkpt lat="47.10289" lon="-1.46213">
        <ele>100</ele>
        <time>2020-12-19T10:46:17.000Z</time>
      </trkpt>
      <trkpt lat="47.10281" lon="-1.46196">
        <ele>100</ele>
        <time>2020-12-19T10:46:20.000Z</time>
      </trkpt>
      <trkpt lat="47.10274" lon="-1.46183">
        <ele>100</ele>
        <time>2020-12-19T10:46:22.000Z</time>
      </trkpt>
      <trkpt lat="47.10267" lon="-1.46171">
        <ele>99</ele>
        <time>2020-12-19T10:46:24.000Z</time>
      </trkpt>
      <trkpt lat="47.10259" lon="-1.46158">
        <ele>99</ele>
        <time>2020-12-19T10:46:26.000Z</time>
      </trkpt>
      <trkpt lat="47.10252" lon="-1.46145">
        <ele>99</ele>
        <time>2020-12-19T10:46:28.000Z</time>
      </trkpt>
      <trkpt lat="47.10245" lon="-1.46133">
        <ele>98</ele>
        <time>2020-12-19T10:46:30.000Z</time>
      </trkpt>
      <trkpt lat="47.10238" lon="-1.4612">
        <ele>98</ele>
        <time>2020-12-19T10:46:32.000Z</time>
      </trkpt>
      <trkpt lat="47.1023" lon="-1.46107">
        <ele>98</ele>
        <time>2020-12-19T10:46:34.000Z</time>
      </trkpt>
      <trkpt lat="47.10223" lon="-1.46094">
        <ele>98</ele>
        <time>2020-12-19T10:46:36.000Z</time>
      </trkpt>
      <trkpt lat="47.10216" lon="-1.46082">
        <ele>98</ele>
        <time>2020-12-19T10:46:38.000Z</time>
      </trkpt>
      <trkpt lat="47.10209" lon="-1.46069">
        <ele>97</ele>
        <time>2020-12-19T10:46:40.000Z</time>
      </trkpt>
      <trkpt lat="47.10201" lon="-1.46057">
        <ele>97</ele>
        <time>2020-12-19T10:46:42.000Z</time>
      </trkpt>
      <trkpt lat="47.10194" lon="-1.46045">
        <ele>97</ele>
        <time>2020-12-19T10:46:44.000Z</time>
      </trkpt>
      <trkpt lat="47.10188" lon="-1.46033">
        <ele>97</ele>
        <time>2020-12-19T10:46:46.000Z</time>
      </trkpt>
      <trkpt lat="47.10181" lon="-1.46019">
        <ele>97</ele>
        <time>2020-12-19T10:46:48.000Z</time>
      </trkpt>
      <trkpt lat="47.10175" lon="-1.46006">
        <ele>97</ele>
        <time>2020-12-19T10:46:50.000Z</time>
      </trkpt>
      <trkpt lat="47.10168" lon="-1.45993">
        <ele>97</ele>
        <time>2020-12-19T10:46:52.000Z</time>
      </trkpt>
      <trkpt lat="47.10161" lon="-1.4598">
        <ele>97</ele>
        <time>2020-12-19T10:46:54.000Z</time>
      </trkpt>
      <trkpt lat="47.10154" lon="-1.45966">
        <ele>96</ele>
        <time>2020-12-19T10:46:56.000Z</time>
      </trkpt>
      <trkpt lat="47.10147" lon="-1.45953">
        <ele>96</ele>
        <time>2020-12-19T10:46:58.000Z</time>
      </trkpt>
      <trkpt lat="47.10139" lon="-1.4594">
        <ele>96</ele>
        <time>2020-12-19T10:47:00.000Z</time>
      </trkpt>
      <trkpt lat="47.10132" lon="-1.45926">
        <ele>96</ele>
        <time>2020-12-19T10:47:02.000Z</time>
      </trkpt>
      <trkpt lat="47.10124" lon="-1.45914">
        <ele>96</ele>
        <time>2020-12-19T10:47:04.000Z</time>
      </trkpt>
      <trkpt lat="47.10116" lon="-1.45901">
        <ele>96</ele>
        <time>2020-12-19T10:47:06.000Z</time>
      </trkpt>
      <trkpt lat="47.10109" lon="-1.45887">
        <ele>96</ele>
        <time>2020-12-19T10:47:08.000Z</time>
      </trkpt>
      <trkpt lat="47.10101" lon="-1.45872">
        <ele>97</ele>
        <time>2020-12-19T10:47:10.000Z</time>
      </trkpt>
      <trkpt lat="47.10093" lon="-1.45857">
        <ele>97</ele>
        <time>2020-12-19T10:47:12.000Z</time>
      </trkpt>
      <trkpt lat="47.10085" lon="-1.45842">
        <ele>97</ele>
        <time>2020-12-19T10:47:14.000Z</time>
      </trkpt>
      <trkpt lat="47.10077" lon="-1.45828">
        <ele>96</ele>
        <time>2020-12-19T10:47:16.000Z</time>
      </trkpt>
      <trkpt lat="47.10069" lon="-1.45813">
        <ele>96</ele>
        <time>2020-12-19T10:47:18.000Z</time>
      </trkpt>
      <trkpt lat="47.10062" lon="-1.45797">
        <ele>96</ele>
        <time>2020-12-19T10:47:20.000Z</time>
      </trkpt>
      <trkpt lat="47.10054" lon="-1.45781">
        <ele>96</ele>
        <time>2020-12-19T10:47:22.000Z</time>
      </trkpt>
      <trkpt lat="47.10046" lon="-1.45766">
        <ele>95</ele>
        <time>2020-12-19T10:47:24.000Z</time>
      </trkpt>
      <trkpt lat="47.10038" lon="-1.45751">
        <ele>95</ele>
        <time>2020-12-19T10:47:26.000Z</time>
      </trkpt>
      <trkpt lat="47.1003" lon="-1.45735">
        <ele>95</ele>
        <time>2020-12-19T10:47:28.000Z</time>
      </trkpt>
      <trkpt lat="47.10022" lon="-1.45719">
        <ele>95</ele>
        <time>2020-12-19T10:47:30.000Z</time>
      </trkpt>
      <trkpt lat="47.10014" lon="-1.45703">
        <ele>95</ele>
        <time>2020-12-19T10:47:32.000Z</time>
      </trkpt>
      <trkpt lat="47.10005" lon="-1.45688">
        <ele>96</ele>
        <time>2020-12-19T10:47:34.000Z</time>
      </trkpt>
      <trkpt lat="47.09993" lon="-1.45664">
        <ele>96</ele>
        <time>2020-12-19T10:47:37.000Z</time>
      </trkpt>
      <trkpt lat="47.09985" lon="-1.45649">
        <ele>96</ele>
        <time>2020-12-19T10:47:39.000Z</time>
      </trkpt>
      <trkpt lat="47.09977" lon="-1.45633">
        <ele>97</ele>
        <time>2020-12-19T10:47:41.000Z</time>
      </trkpt>
      <trkpt lat="47.09968" lon="-1.45618">
        <ele>96</ele>
        <time>2020-12-19T10:47:43.000Z</time>
      </trkpt>
      <trkpt lat="47.09961" lon="-1.45602">
        <ele>96</ele>
        <time>2020-12-19T10:47:45.000Z</time>
      </trkpt>
      <trkpt lat="47.09953" lon="-1.45586">
        <ele>96</ele>
        <time>2020-12-19T10:47:47.000Z</time>
      </trkpt>
      <trkpt lat="47.09945" lon="-1.4557">
        <ele>96</ele>
        <time>2020-12-19T10:47:49.000Z</time>
      </trkpt>
      <trkpt lat="47.09937" lon="-1.45554">
        <ele>96</ele>
        <time>2020-12-19T10:47:51.000Z</time>
      </trkpt>
      <trkpt lat="47.09929" lon="-1.45538">
        <ele>97</ele>
        <time>2020-12-19T10:47:53.000Z</time>
      </trkpt>
      <trkpt lat="47.09921" lon="-1.45521">
        <ele>97</ele>
        <time>2020-12-19T10:47:55.000Z</time>
      </trkpt>
      <trkpt lat="47.09913" lon="-1.45504">
        <ele>97</ele>
        <time>2020-12-19T10:47:57.000Z</time>
      </trkpt>
      <trkpt lat="47.09905" lon="-1.45487">
        <ele>97</ele>
        <time>2020-12-19T10:47:59.000Z</time>
      </trkpt>
      <trkpt lat="47.09897" lon="-1.45468">
        <ele>97</ele>
        <time>2020-12-19T10:48:01.000Z</time>
      </trkpt>
      <trkpt lat="47.09889" lon="-1.45451">
        <ele>97</ele>
        <time>2020-12-19T10:48:03.000Z</time>
      </trkpt>
      <trkpt lat="47.09881" lon="-1.45433">
        <ele>97</ele>
        <time>2020-12-19T10:48:05.000Z</time>
      </trkpt>
      <trkpt lat="47.09873" lon="-1.45415">
        <ele>97</ele>
        <time>2020-12-19T10:48:07.000Z</time>
      </trkpt>
      <trkpt lat="47.09861" lon="-1.45387">
        <ele>97</ele>
        <time>2020-12-19T10:48:10.000Z</time>
      </trkpt>
      <trkpt lat="47.09849" lon="-1.4536">
        <ele>97</ele>
        <time>2020-12-19T10:48:13.000Z</time>
      </trkpt>
      <trkpt lat="47.09841" lon="-1.45341">
        <ele>97</ele>
        <time>2020-12-19T10:48:15.000Z</time>
      </trkpt>
      <trkpt lat="47.09833" lon="-1.45322">
        <ele>96</ele>
        <time>2020-12-19T10:48:17.000Z</time>
      </trkpt>
      <trkpt lat="47.09825" lon="-1.45302">
        <ele>96</ele>
        <time>2020-12-19T10:48:19.000Z</time>
      </trkpt>
      <trkpt lat="47.09816" lon="-1.45284">
        <ele>96</ele>
        <time>2020-12-19T10:48:21.000Z</time>
      </trkpt>
      <trkpt lat="47.09808" lon="-1.45265">
        <ele>95</ele>
        <time>2020-12-19T10:48:23.000Z</time>
      </trkpt>
      <trkpt lat="47.098" lon="-1.45246">
        <ele>95</ele>
        <time>2020-12-19T10:48:25.000Z</time>
      </trkpt>
      <trkpt lat="47.09792" lon="-1.45228">
        <ele>95</ele>
        <time>2020-12-19T10:48:27.000Z</time>
      </trkpt>
      <trkpt lat="47.09784" lon="-1.4521">
        <ele>95</ele>
        <time>2020-12-19T10:48:29.000Z</time>
      </trkpt>
      <trkpt lat="47.09776" lon="-1.45192">
        <ele>95</ele>
        <time>2020-12-19T10:48:31.000Z</time>
      </trkpt>
      <trkpt lat="47.09768" lon="-1.45174">
        <ele>94</ele>
        <time>2020-12-19T10:48:33.000Z</time>
      </trkpt>
      <trkpt lat="47.0976" lon="-1.45157">
        <ele>94</ele>
        <time>2020-12-19T10:48:35.000Z</time>
      </trkpt>
      <trkpt lat="47.09752" lon="-1.45139">
        <ele>94</ele>
        <time>2020-12-19T10:48:37.000Z</time>
      </trkpt>
      <trkpt lat="47.09744" lon="-1.45122">
        <ele>93</ele>
        <time>2020-12-19T10:48:39.000Z</time>
      </trkpt>
      <trkpt lat="47.09736" lon="-1.45105">
        <ele>93</ele>
        <time>2020-12-19T10:48:41.000Z</time>
      </trkpt>
      <trkpt lat="47.09728" lon="-1.45088">
        <ele>94</ele>
        <time>2020-12-19T10:48:43.000Z</time>
      </trkpt>
      <trkpt lat="47.0972" lon="-1.45071">
        <ele>93</ele>
        <time>2020-12-19T10:48:45.000Z</time>
      </trkpt>
      <trkpt lat="47.09712" lon="-1.45054">
        <ele>93</ele>
        <time>2020-12-19T10:48:47.000Z</time>
      </trkpt>
      <trkpt lat="47.09705" lon="-1.45038">
        <ele>93</ele>
        <time>2020-12-19T10:48:49.000Z</time>
      </trkpt>
      <trkpt lat="47.09697" lon="-1.45021">
        <ele>94</ele>
        <time>2020-12-19T10:48:51.000Z</time>
      </trkpt>
      <trkpt lat="47.09689" lon="-1.45004">
        <ele>94</ele>
        <time>2020-12-19T10:48:53.000Z</time>
      </trkpt>
      <trkpt lat="47.0968" lon="-1.44989">
        <ele>94</ele>
        <time>2020-12-19T10:48:55.000Z</time>
      </trkpt>
      <trkpt lat="47.09666" lon="-1.44969">
        <ele>94</ele>
        <time>2020-12-19T10:48:58.000Z</time>
      </trkpt>
      <trkpt lat="47.09656" lon="-1.44958">
        <ele>94</ele>
        <time>2020-12-19T10:49:00.000Z</time>
      </trkpt>
      <trkpt lat="47.09643" lon="-1.4495">
        <ele>94</ele>
        <time>2020-12-19T10:49:02.000Z</time>
      </trkpt>
      <trkpt lat="47.09635" lon="-1.44937">
        <ele>95</ele>
        <time>2020-12-19T10:49:04.000Z</time>
      </trkpt>
      <trkpt lat="47.09632" lon="-1.4492">
        <ele>95</ele>
        <time>2020-12-19T10:49:06.000Z</time>
      </trkpt>
      <trkpt lat="47.0964" lon="-1.44893">
        <ele>95</ele>
        <time>2020-12-19T10:49:09.000Z</time>
      </trkpt>
      <trkpt lat="47.09653" lon="-1.44881">
        <ele>96</ele>
        <time>2020-12-19T10:49:11.000Z</time>
      </trkpt>
      <trkpt lat="47.0967" lon="-1.44862">
        <ele>97</ele>
        <time>2020-12-19T10:49:14.000Z</time>
      </trkpt>
      <trkpt lat="47.0968" lon="-1.44842">
        <ele>98</ele>
        <time>2020-12-19T10:49:16.000Z</time>
      </trkpt>
      <trkpt lat="47.09686" lon="-1.44821">
        <ele>97</ele>
        <time>2020-12-19T10:49:18.000Z</time>
      </trkpt>
      <trkpt lat="47.09684" lon="-1.44787">
        <ele>97</ele>
        <time>2020-12-19T10:49:21.000Z</time>
      </trkpt>
      <trkpt lat="47.09676" lon="-1.44768">
        <ele>97</ele>
        <time>2020-12-19T10:49:23.000Z</time>
      </trkpt>
      <trkpt lat="47.09666" lon="-1.44752">
        <ele>97</ele>
        <time>2020-12-19T10:49:25.000Z</time>
      </trkpt>
      <trkpt lat="47.09657" lon="-1.44736">
        <ele>97</ele>
        <time>2020-12-19T10:49:27.000Z</time>
      </trkpt>
      <trkpt lat="47.09649" lon="-1.44717">
        <ele>97</ele>
        <time>2020-12-19T10:49:29.000Z</time>
      </trkpt>
      <trkpt lat="47.09646" lon="-1.44697">
        <ele>98</ele>
        <time>2020-12-19T10:49:31.000Z</time>
      </trkpt>
      <trkpt lat="47.09646" lon="-1.44676">
        <ele>98</ele>
        <time>2020-12-19T10:49:33.000Z</time>
      </trkpt>
      <trkpt lat="47.09651" lon="-1.44647">
        <ele>97</ele>
        <time>2020-12-19T10:49:36.000Z</time>
      </trkpt>
      <trkpt lat="47.09658" lon="-1.4463">
        <ele>97</ele>
        <time>2020-12-19T10:49:38.000Z</time>
      </trkpt>
      <trkpt lat="47.09668" lon="-1.44616">
        <ele>96</ele>
        <time>2020-12-19T10:49:40.000Z</time>
      </trkpt>
      <trkpt lat="47.09681" lon="-1.44605">
        <ele>97</ele>
        <time>2020-12-19T10:49:42.000Z</time>
      </trkpt>
      <trkpt lat="47.09694" lon="-1.44595">
        <ele>97</ele>
        <time>2020-12-19T10:49:44.000Z</time>
      </trkpt>
      <trkpt lat="47.09715" lon="-1.44581">
        <ele>98</ele>
        <time>2020-12-19T10:49:47.000Z</time>
      </trkpt>
      <trkpt lat="47.09729" lon="-1.44573">
        <ele>98</ele>
        <time>2020-12-19T10:49:49.000Z</time>
      </trkpt>
      <trkpt lat="47.09744" lon="-1.44565">
        <ele>98</ele>
        <time>2020-12-19T10:49:51.000Z</time>
      </trkpt>
      <trkpt lat="47.0976" lon="-1.44557">
        <ele>98</ele>
        <time>2020-12-19T10:49:53.000Z</time>
      </trkpt>
      <trkpt lat="47.09775" lon="-1.44551">
        <ele>98</ele>
        <time>2020-12-19T10:49:55.000Z</time>
      </trkpt>
      <trkpt lat="47.09791" lon="-1.44544">
        <ele>97</ele>
        <time>2020-12-19T10:49:57.000Z</time>
      </trkpt>
      <trkpt lat="47.09808" lon="-1.44538">
        <ele>97</ele>
        <time>2020-12-19T10:49:59.000Z</time>
      </trkpt>
      <trkpt lat="47.09824" lon="-1.44531">
        <ele>96</ele>
        <time>2020-12-19T10:50:01.000Z</time>
      </trkpt>
      <trkpt lat="47.09841" lon="-1.44525">
        <ele>96</ele>
        <time>2020-12-19T10:50:03.000Z</time>
      </trkpt>
      <trkpt lat="47.09858" lon="-1.44518">
        <ele>95</ele>
        <time>2020-12-19T10:50:05.000Z</time>
      </trkpt>
      <trkpt lat="47.09876" lon="-1.44512">
        <ele>94</ele>
        <time>2020-12-19T10:50:07.000Z</time>
      </trkpt>
      <trkpt lat="47.09885" lon="-1.44509">
        <ele>94</ele>
        <time>2020-12-19T10:50:08.000Z</time>
      </trkpt>
      <trkpt lat="47.09895" lon="-1.44505">
        <ele>94</ele>
        <time>2020-12-19T10:50:09.000Z</time>
      </trkpt>
      <trkpt lat="47.09904" lon="-1.44502">
        <ele>93</ele>
        <time>2020-12-19T10:50:10.000Z</time>
      </trkpt>
      <trkpt lat="47.09914" lon="-1.44498">
        <ele>93</ele>
        <time>2020-12-19T10:50:11.000Z</time>
      </trkpt>
      <trkpt lat="47.09923" lon="-1.44494">
        <ele>93</ele>
        <time>2020-12-19T10:50:12.000Z</time>
      </trkpt>
      <trkpt lat="47.09943" lon="-1.44487">
        <ele>92</ele>
        <time>2020-12-19T10:50:14.000Z</time>
      </trkpt>
      <trkpt lat="47.09953" lon="-1.44483">
        <ele>91</ele>
        <time>2020-12-19T10:50:15.000Z</time>
      </trkpt>
      <trkpt lat="47.09973" lon="-1.44476">
        <ele>91</ele>
        <time>2020-12-19T10:50:17.000Z</time>
      </trkpt>
      <trkpt lat="47.09983" lon="-1.44472">
        <ele>90</ele>
        <time>2020-12-19T10:50:18.000Z</time>
      </trkpt>
      <trkpt lat="47.09994" lon="-1.44468">
        <ele>90</ele>
        <time>2020-12-19T10:50:19.000Z</time>
      </trkpt>
      <trkpt lat="47.10004" lon="-1.44464">
        <ele>89</ele>
        <time>2020-12-19T10:50:20.000Z</time>
      </trkpt>
      <trkpt lat="47.10014" lon="-1.4446">
        <ele>89</ele>
        <time>2020-12-19T10:50:21.000Z</time>
      </trkpt>
      <trkpt lat="47.10035" lon="-1.44452">
        <ele>88</ele>
        <time>2020-12-19T10:50:23.000Z</time>
      </trkpt>
      <trkpt lat="47.10045" lon="-1.44448">
        <ele>87</ele>
        <time>2020-12-19T10:50:24.000Z</time>
      </trkpt>
      <trkpt lat="47.10055" lon="-1.44445">
        <ele>87</ele>
        <time>2020-12-19T10:50:25.000Z</time>
      </trkpt>
      <trkpt lat="47.10065" lon="-1.44441">
        <ele>87</ele>
        <time>2020-12-19T10:50:26.000Z</time>
      </trkpt>
      <trkpt lat="47.10075" lon="-1.44437">
        <ele>86</ele>
        <time>2020-12-19T10:50:27.000Z</time>
      </trkpt>
      <trkpt lat="47.10084" lon="-1.44434">
        <ele>86</ele>
        <time>2020-12-19T10:50:28.000Z</time>
      </trkpt>
      <trkpt lat="47.10094" lon="-1.4443">
        <ele>86</ele>
        <time>2020-12-19T10:50:29.000Z</time>
      </trkpt>
      <trkpt lat="47.10104" lon="-1.44426">
        <ele>86</ele>
        <time>2020-12-19T10:50:30.000Z</time>
      </trkpt>
      <trkpt lat="47.10113" lon="-1.44422">
        <ele>86</ele>
        <time>2020-12-19T10:50:31.000Z</time>
      </trkpt>
      <trkpt lat="47.10122" lon="-1.44418">
        <ele>86</ele>
        <time>2020-12-19T10:50:32.000Z</time>
      </trkpt>
      <trkpt lat="47.10131" lon="-1.44412">
        <ele>86</ele>
        <time>2020-12-19T10:50:33.000Z</time>
      </trkpt>
      <trkpt lat="47.10139" lon="-1.44405">
        <ele>85</ele>
        <time>2020-12-19T10:50:34.000Z</time>
      </trkpt>
      <trkpt lat="47.10146" lon="-1.44396">
        <ele>86</ele>
        <time>2020-12-19T10:50:35.000Z</time>
      </trkpt>
      <trkpt lat="47.10153" lon="-1.44388">
        <ele>86</ele>
        <time>2020-12-19T10:50:36.000Z</time>
      </trkpt>
      <trkpt lat="47.10161" lon="-1.4438">
        <ele>85</ele>
        <time>2020-12-19T10:50:37.000Z</time>
      </trkpt>
      <trkpt lat="47.10168" lon="-1.44372">
        <ele>84</ele>
        <time>2020-12-19T10:50:38.000Z</time>
      </trkpt>
      <trkpt lat="47.10188" lon="-1.44348">
        <ele>83</ele>
        <time>2020-12-19T10:50:41.000Z</time>
      </trkpt>
      <trkpt lat="47.10202" lon="-1.44333">
        <ele>82</ele>
        <time>2020-12-19T10:50:43.000Z</time>
      </trkpt>
      <trkpt lat="47.10215" lon="-1.44318">
        <ele>82</ele>
        <time>2020-12-19T10:50:45.000Z</time>
      </trkpt>
      <trkpt lat="47.10228" lon="-1.44302">
        <ele>82</ele>
        <time>2020-12-19T10:50:47.000Z</time>
      </trkpt>
      <trkpt lat="47.1024" lon="-1.44288">
        <ele>81</ele>
        <time>2020-12-19T10:50:49.000Z</time>
      </trkpt>
      <trkpt lat="47.10253" lon="-1.44274">
        <ele>82</ele>
        <time>2020-12-19T10:50:51.000Z</time>
      </trkpt>
      <trkpt lat="47.10265" lon="-1.4426">
        <ele>82</ele>
        <time>2020-12-19T10:50:53.000Z</time>
      </trkpt>
      <trkpt lat="47.10278" lon="-1.44247">
        <ele>82</ele>
        <time>2020-12-19T10:50:55.000Z</time>
      </trkpt>
      <trkpt lat="47.10292" lon="-1.44236">
        <ele>81</ele>
        <time>2020-12-19T10:50:57.000Z</time>
      </trkpt>
      <trkpt lat="47.10306" lon="-1.44226">
        <ele>82</ele>
        <time>2020-12-19T10:50:59.000Z</time>
      </trkpt>
      <trkpt lat="47.10319" lon="-1.44217">
        <ele>82</ele>
        <time>2020-12-19T10:51:01.000Z</time>
      </trkpt>
      <trkpt lat="47.10334" lon="-1.44208">
        <ele>81</ele>
        <time>2020-12-19T10:51:03.000Z</time>
      </trkpt>
      <trkpt lat="47.10348" lon="-1.44202">
        <ele>82</ele>
        <time>2020-12-19T10:51:05.000Z</time>
      </trkpt>
      <trkpt lat="47.10362" lon="-1.44195">
        <ele>82</ele>
        <time>2020-12-19T10:51:07.000Z</time>
      </trkpt>
      <trkpt lat="47.10377" lon="-1.44189">
        <ele>82</ele>
        <time>2020-12-19T10:51:09.000Z</time>
      </trkpt>
      <trkpt lat="47.10391" lon="-1.44183">
        <ele>82</ele>
        <time>2020-12-19T10:51:11.000Z</time>
      </trkpt>
      <trkpt lat="47.10405" lon="-1.44177">
        <ele>83</ele>
        <time>2020-12-19T10:51:13.000Z</time>
      </trkpt>
      <trkpt lat="47.10419" lon="-1.44172">
        <ele>83</ele>
        <time>2020-12-19T10:51:15.000Z</time>
      </trkpt>
      <trkpt lat="47.10433" lon="-1.44166">
        <ele>83</ele>
        <time>2020-12-19T10:51:17.000Z</time>
      </trkpt>
      <trkpt lat="47.10447" lon="-1.44159">
        <ele>83</ele>
        <time>2020-12-19T10:51:19.000Z</time>
      </trkpt>
      <trkpt lat="47.1046" lon="-1.44152">
        <ele>84</ele>
        <time>2020-12-19T10:51:21.000Z</time>
      </trkpt>
      <trkpt lat="47.10473" lon="-1.44146">
        <ele>84</ele>
        <time>2020-12-19T10:51:23.000Z</time>
      </trkpt>
      <trkpt lat="47.10486" lon="-1.4414">
        <ele>85</ele>
        <time>2020-12-19T10:51:25.000Z</time>
      </trkpt>
      <trkpt lat="47.10498" lon="-1.44133">
        <ele>85</ele>
        <time>2020-12-19T10:51:27.000Z</time>
      </trkpt>
      <trkpt lat="47.10509" lon="-1.44125">
        <ele>85</ele>
        <time>2020-12-19T10:51:29.000Z</time>
      </trkpt>
      <trkpt lat="47.10521" lon="-1.44116">
        <ele>85</ele>
        <time>2020-12-19T10:51:31.000Z</time>
      </trkpt>
      <trkpt lat="47.10532" lon="-1.44107">
        <ele>85</ele>
        <time>2020-12-19T10:51:33.000Z</time>
      </trkpt>
      <trkpt lat="47.10543" lon="-1.44098">
        <ele>85</ele>
        <time>2020-12-19T10:51:35.000Z</time>
      </trkpt>
      <trkpt lat="47.10554" lon="-1.44089">
        <ele>85</ele>
        <time>2020-12-19T10:51:37.000Z</time>
      </trkpt>
      <trkpt lat="47.10565" lon="-1.44078">
        <ele>86</ele>
        <time>2020-12-19T10:51:39.000Z</time>
      </trkpt>
      <trkpt lat="47.10575" lon="-1.44067">
        <ele>85</ele>
        <time>2020-12-19T10:51:41.000Z</time>
      </trkpt>
      <trkpt lat="47.10585" lon="-1.44056">
        <ele>85</ele>
        <time>2020-12-19T10:51:43.000Z</time>
      </trkpt>
      <trkpt lat="47.10596" lon="-1.44046">
        <ele>85</ele>
        <time>2020-12-19T10:51:45.000Z</time>
      </trkpt>
      <trkpt lat="47.10607" lon="-1.44037">
        <ele>85</ele>
        <time>2020-12-19T10:51:47.000Z</time>
      </trkpt>
      <trkpt lat="47.10618" lon="-1.4403">
        <ele>85</ele>
        <time>2020-12-19T10:51:49.000Z</time>
      </trkpt>
      <trkpt lat="47.1063" lon="-1.44023">
        <ele>85</ele>
        <time>2020-12-19T10:51:51.000Z</time>
      </trkpt>
      <trkpt lat="47.10641" lon="-1.44016">
        <ele>84</ele>
        <time>2020-12-19T10:51:53.000Z</time>
      </trkpt>
      <trkpt lat="47.10652" lon="-1.44009">
        <ele>84</ele>
        <time>2020-12-19T10:51:55.000Z</time>
      </trkpt>
      <trkpt lat="47.10664" lon="-1.44003">
        <ele>84</ele>
        <time>2020-12-19T10:51:57.000Z</time>
      </trkpt>
      <trkpt lat="47.10675" lon="-1.43997">
        <ele>84</ele>
        <time>2020-12-19T10:51:59.000Z</time>
      </trkpt>
      <trkpt lat="47.10687" lon="-1.43991">
        <ele>85</ele>
        <time>2020-12-19T10:52:01.000Z</time>
      </trkpt>
      <trkpt lat="47.10697" lon="-1.43985">
        <ele>86</ele>
        <time>2020-12-19T10:52:03.000Z</time>
      </trkpt>
      <trkpt lat="47.10707" lon="-1.43978">
        <ele>87</ele>
        <time>2020-12-19T10:52:05.000Z</time>
      </trkpt>
      <trkpt lat="47.10716" lon="-1.43971">
        <ele>87</ele>
        <time>2020-12-19T10:52:07.000Z</time>
      </trkpt>
      <trkpt lat="47.10726" lon="-1.43963">
        <ele>88</ele>
        <time>2020-12-19T10:52:09.000Z</time>
      </trkpt>
      <trkpt lat="47.10734" lon="-1.43953">
        <ele>87</ele>
        <time>2020-12-19T10:52:11.000Z</time>
      </trkpt>
      <trkpt lat="47.10743" lon="-1.43943">
        <ele>88</ele>
        <time>2020-12-19T10:52:13.000Z</time>
      </trkpt>
      <trkpt lat="47.10752" lon="-1.43934">
        <ele>88</ele>
        <time>2020-12-19T10:52:15.000Z</time>
      </trkpt>
      <trkpt lat="47.10761" lon="-1.43926">
        <ele>88</ele>
        <time>2020-12-19T10:52:17.000Z</time>
      </trkpt>
      <trkpt lat="47.1077" lon="-1.43918">
        <ele>88</ele>
        <time>2020-12-19T10:52:19.000Z</time>
      </trkpt>
      <trkpt lat="47.1078" lon="-1.43909">
        <ele>87</ele>
        <time>2020-12-19T10:52:21.000Z</time>
      </trkpt>
      <trkpt lat="47.10789" lon="-1.43901">
        <ele>88</ele>
        <time>2020-12-19T10:52:23.000Z</time>
      </trkpt>
      <trkpt lat="47.10798" lon="-1.43893">
        <ele>88</ele>
        <time>2020-12-19T10:52:25.000Z</time>
      </trkpt>
      <trkpt lat="47.10807" lon="-1.43885">
        <ele>88</ele>
        <time>2020-12-19T10:52:27.000Z</time>
      </trkpt>
      <trkpt lat="47.10815" lon="-1.43878">
        <ele>89</ele>
        <time>2020-12-19T10:52:29.000Z</time>
      </trkpt>
      <trkpt lat="47.10825" lon="-1.43871">
        <ele>89</ele>
        <time>2020-12-19T10:52:31.000Z</time>
      </trkpt>
      <trkpt lat="47.10834" lon="-1.43863">
        <ele>89</ele>
        <time>2020-12-19T10:52:33.000Z</time>
      </trkpt>
      <trkpt lat="47.10843" lon="-1.43853">
        <ele>89</ele>
        <time>2020-12-19T10:52:35.000Z</time>
      </trkpt>
      <trkpt lat="47.10852" lon="-1.43844">
        <ele>90</ele>
        <time>2020-12-19T10:52:37.000Z</time>
      </trkpt>
      <trkpt lat="47.10861" lon="-1.43835">
        <ele>90</ele>
        <time>2020-12-19T10:52:39.000Z</time>
      </trkpt>
      <trkpt lat="47.10871" lon="-1.43827">
        <ele>90</ele>
        <time>2020-12-19T10:52:41.000Z</time>
      </trkpt>
      <trkpt lat="47.10881" lon="-1.43819">
        <ele>90</ele>
        <time>2020-12-19T10:52:43.000Z</time>
      </trkpt>
      <trkpt lat="47.1089" lon="-1.4381">
        <ele>90</ele>
        <time>2020-12-19T10:52:45.000Z</time>
      </trkpt>
      <trkpt lat="47.109" lon="-1.43801">
        <ele>90</ele>
        <time>2020-12-19T10:52:47.000Z</time>
      </trkpt>
      <trkpt lat="47.10909" lon="-1.43791">
        <ele>90</ele>
        <time>2020-12-19T10:52:49.000Z</time>
      </trkpt>
      <trkpt lat="47.10917" lon="-1.43782">
        <ele>90</ele>
        <time>2020-12-19T10:52:51.000Z</time>
      </trkpt>
      <trkpt lat="47.10926" lon="-1.43772">
        <ele>91</ele>
        <time>2020-12-19T10:52:53.000Z</time>
      </trkpt>
      <trkpt lat="47.10935" lon="-1.43763">
        <ele>91</ele>
        <time>2020-12-19T10:52:55.000Z</time>
      </trkpt>
      <trkpt lat="47.10944" lon="-1.43754">
        <ele>91</ele>
        <time>2020-12-19T10:52:57.000Z</time>
      </trkpt>
      <trkpt lat="47.10953" lon="-1.43744">
        <ele>91</ele>
        <time>2020-12-19T10:52:59.000Z</time>
      </trkpt>
      <trkpt lat="47.10962" lon="-1.43735">
        <ele>92</ele>
        <time>2020-12-19T10:53:01.000Z</time>
      </trkpt>
      <trkpt lat="47.10971" lon="-1.43726">
        <ele>93</ele>
        <time>2020-12-19T10:53:03.000Z</time>
      </trkpt>
      <trkpt lat="47.1098" lon="-1.43716">
        <ele>92</ele>
        <time>2020-12-19T10:53:05.000Z</time>
      </trkpt>
      <trkpt lat="47.10989" lon="-1.43707">
        <ele>92</ele>
        <time>2020-12-19T10:53:07.000Z</time>
      </trkpt>
      <trkpt lat="47.10998" lon="-1.43697">
        <ele>92</ele>
        <time>2020-12-19T10:53:09.000Z</time>
      </trkpt>
      <trkpt lat="47.11006" lon="-1.43686">
        <ele>91</ele>
        <time>2020-12-19T10:53:11.000Z</time>
      </trkpt>
      <trkpt lat="47.11015" lon="-1.43676">
        <ele>92</ele>
        <time>2020-12-19T10:53:13.000Z</time>
      </trkpt>
      <trkpt lat="47.11023" lon="-1.43666">
        <ele>92</ele>
        <time>2020-12-19T10:53:15.000Z</time>
      </trkpt>
      <trkpt lat="47.11032" lon="-1.43656">
        <ele>93</ele>
        <time>2020-12-19T10:53:17.000Z</time>
      </trkpt>
      <trkpt lat="47.11039" lon="-1.43644">
        <ele>93</ele>
        <time>2020-12-19T10:53:19.000Z</time>
      </trkpt>
      <trkpt lat="47.11046" lon="-1.43634">
        <ele>93</ele>
        <time>2020-12-19T10:53:21.000Z</time>
      </trkpt>
      <trkpt lat="47.11055" lon="-1.43624">
        <ele>93</ele>
        <time>2020-12-19T10:53:23.000Z</time>
      </trkpt>
      <trkpt lat="47.11064" lon="-1.43614">
        <ele>93</ele>
        <time>2020-12-19T10:53:25.000Z</time>
      </trkpt>
      <trkpt lat="47.11073" lon="-1.43604">
        <ele>94</ele>
        <time>2020-12-19T10:53:27.000Z</time>
      </trkpt>
      <trkpt lat="47.11082" lon="-1.43595">
        <ele>94</ele>
        <time>2020-12-19T10:53:29.000Z</time>
      </trkpt>
      <trkpt lat="47.11091" lon="-1.43588">
        <ele>94</ele>
        <time>2020-12-19T10:53:31.000Z</time>
      </trkpt>
      <trkpt lat="47.111" lon="-1.43578">
        <ele>94</ele>
        <time>2020-12-19T10:53:33.000Z</time>
      </trkpt>
      <trkpt lat="47.11108" lon="-1.43567">
        <ele>95</ele>
        <time>2020-12-19T10:53:35.000Z</time>
      </trkpt>
      <trkpt lat="47.11115" lon="-1.43556">
        <ele>94</ele>
        <time>2020-12-19T10:53:37.000Z</time>
      </trkpt>
      <trkpt lat="47.11122" lon="-1.43544">
        <ele>95</ele>
        <time>2020-12-19T10:53:39.000Z</time>
      </trkpt>
      <trkpt lat="47.1113" lon="-1.43531">
        <ele>95</ele>
        <time>2020-12-19T10:53:41.000Z</time>
      </trkpt>
      <trkpt lat="47.11137" lon="-1.43518">
        <ele>95</ele>
        <time>2020-12-19T10:53:43.000Z</time>
      </trkpt>
      <trkpt lat="47.11145" lon="-1.43505">
        <ele>95</ele>
        <time>2020-12-19T10:53:45.000Z</time>
      </trkpt>
      <trkpt lat="47.11152" lon="-1.43491">
        <ele>95</ele>
        <time>2020-12-19T10:53:47.000Z</time>
      </trkpt>
      <trkpt lat="47.1116" lon="-1.43478">
        <ele>95</ele>
        <time>2020-12-19T10:53:49.000Z</time>
      </trkpt>
      <trkpt lat="47.11168" lon="-1.43465">
        <ele>95</ele>
        <time>2020-12-19T10:53:51.000Z</time>
      </trkpt>
      <trkpt lat="47.11176" lon="-1.43451">
        <ele>95</ele>
        <time>2020-12-19T10:53:53.000Z</time>
      </trkpt>
      <trkpt lat="47.11183" lon="-1.43437">
        <ele>95</ele>
        <time>2020-12-19T10:53:55.000Z</time>
      </trkpt>
      <trkpt lat="47.11191" lon="-1.43423">
        <ele>95</ele>
        <time>2020-12-19T10:53:57.000Z</time>
      </trkpt>
      <trkpt lat="47.112" lon="-1.43409">
        <ele>94</ele>
        <time>2020-12-19T10:53:59.000Z</time>
      </trkpt>
      <trkpt lat="47.11208" lon="-1.43395">
        <ele>94</ele>
        <time>2020-12-19T10:54:01.000Z</time>
      </trkpt>
      <trkpt lat="47.11217" lon="-1.4338">
        <ele>94</ele>
        <time>2020-12-19T10:54:03.000Z</time>
      </trkpt>
      <trkpt lat="47.11225" lon="-1.43365">
        <ele>94</ele>
        <time>2020-12-19T10:54:05.000Z</time>
      </trkpt>
      <trkpt lat="47.11234" lon="-1.43351">
        <ele>94</ele>
        <time>2020-12-19T10:54:07.000Z</time>
      </trkpt>
      <trkpt lat="47.11243" lon="-1.43336">
        <ele>94</ele>
        <time>2020-12-19T10:54:09.000Z</time>
      </trkpt>
      <trkpt lat="47.11252" lon="-1.43323">
        <ele>94</ele>
        <time>2020-12-19T10:54:11.000Z</time>
      </trkpt>
      <trkpt lat="47.11262" lon="-1.43309">
        <ele>94</ele>
        <time>2020-12-19T10:54:13.000Z</time>
      </trkpt>
      <trkpt lat="47.11272" lon="-1.43296">
        <ele>93</ele>
        <time>2020-12-19T10:54:15.000Z</time>
      </trkpt>
      <trkpt lat="47.11283" lon="-1.43282">
        <ele>93</ele>
        <time>2020-12-19T10:54:17.000Z</time>
      </trkpt>
      <trkpt lat="47.11294" lon="-1.43269">
        <ele>93</ele>
        <time>2020-12-19T10:54:19.000Z</time>
      </trkpt>
      <trkpt lat="47.11305" lon="-1.43256">
        <ele>93</ele>
        <time>2020-12-19T10:54:21.000Z</time>
      </trkpt>
      <trkpt lat="47.11316" lon="-1.43243">
        <ele>93</ele>
        <time>2020-12-19T10:54:23.000Z</time>
      </trkpt>
      <trkpt lat="47.11327" lon="-1.4323">
        <ele>93</ele>
        <time>2020-12-19T10:54:25.000Z</time>
      </trkpt>
      <trkpt lat="47.11339" lon="-1.43216">
        <ele>93</ele>
        <time>2020-12-19T10:54:27.000Z</time>
      </trkpt>
      <trkpt lat="47.1135" lon="-1.43202">
        <ele>93</ele>
        <time>2020-12-19T10:54:29.000Z</time>
      </trkpt>
      <trkpt lat="47.11362" lon="-1.43187">
        <ele>92</ele>
        <time>2020-12-19T10:54:31.000Z</time>
      </trkpt>
      <trkpt lat="47.11374" lon="-1.43173">
        <ele>92</ele>
        <time>2020-12-19T10:54:33.000Z</time>
      </trkpt>
      <trkpt lat="47.11386" lon="-1.43158">
        <ele>92</ele>
        <time>2020-12-19T10:54:35.000Z</time>
      </trkpt>
      <trkpt lat="47.11397" lon="-1.43144">
        <ele>92</ele>
        <time>2020-12-19T10:54:37.000Z</time>
      </trkpt>
      <trkpt lat="47.11409" lon="-1.43128">
        <ele>92</ele>
        <time>2020-12-19T10:54:39.000Z</time>
      </trkpt>
      <trkpt lat="47.11421" lon="-1.43113">
        <ele>91</ele>
        <time>2020-12-19T10:54:41.000Z</time>
      </trkpt>
      <trkpt lat="47.11433" lon="-1.431">
        <ele>91</ele>
        <time>2020-12-19T10:54:43.000Z</time>
      </trkpt>
      <trkpt lat="47.11446" lon="-1.43087">
        <ele>91</ele>
        <time>2020-12-19T10:54:45.000Z</time>
      </trkpt>
      <trkpt lat="47.11459" lon="-1.43074">
        <ele>91</ele>
        <time>2020-12-19T10:54:47.000Z</time>
      </trkpt>
      <trkpt lat="47.11473" lon="-1.4306">
        <ele>91</ele>
        <time>2020-12-19T10:54:49.000Z</time>
      </trkpt>
      <trkpt lat="47.11487" lon="-1.43048">
        <ele>91</ele>
        <time>2020-12-19T10:54:51.000Z</time>
      </trkpt>
      <trkpt lat="47.115" lon="-1.43036">
        <ele>90</ele>
        <time>2020-12-19T10:54:53.000Z</time>
      </trkpt>
      <trkpt lat="47.11514" lon="-1.43023">
        <ele>90</ele>
        <time>2020-12-19T10:54:55.000Z</time>
      </trkpt>
      <trkpt lat="47.11527" lon="-1.43011">
        <ele>90</ele>
        <time>2020-12-19T10:54:57.000Z</time>
      </trkpt>
      <trkpt lat="47.11539" lon="-1.43">
        <ele>90</ele>
        <time>2020-12-19T10:54:59.000Z</time>
      </trkpt>
      <trkpt lat="47.11547" lon="-1.42982">
        <ele>89</ele>
        <time>2020-12-19T10:55:01.000Z</time>
      </trkpt>
      <trkpt lat="47.11544" lon="-1.4296">
        <ele>88</ele>
        <time>2020-12-19T10:55:03.000Z</time>
      </trkpt>
      <trkpt lat="47.11536" lon="-1.42943">
        <ele>87</ele>
        <time>2020-12-19T10:55:05.000Z</time>
      </trkpt>
      <trkpt lat="47.11528" lon="-1.42928">
        <ele>86</ele>
        <time>2020-12-19T10:55:07.000Z</time>
      </trkpt>
      <trkpt lat="47.11521" lon="-1.42914">
        <ele>86</ele>
        <time>2020-12-19T10:55:09.000Z</time>
      </trkpt>
      <trkpt lat="47.11513" lon="-1.42898">
        <ele>86</ele>
        <time>2020-12-19T10:55:11.000Z</time>
      </trkpt>
      <trkpt lat="47.11506" lon="-1.42883">
        <ele>86</ele>
        <time>2020-12-19T10:55:13.000Z</time>
      </trkpt>
      <trkpt lat="47.11498" lon="-1.42868">
        <ele>86</ele>
        <time>2020-12-19T10:55:15.000Z</time>
      </trkpt>
      <trkpt lat="47.1149" lon="-1.42853">
        <ele>86</ele>
        <time>2020-12-19T10:55:17.000Z</time>
      </trkpt>
      <trkpt lat="47.11483" lon="-1.42838">
        <ele>87</ele>
        <time>2020-12-19T10:55:19.000Z</time>
      </trkpt>
      <trkpt lat="47.11475" lon="-1.42822">
        <ele>87</ele>
        <time>2020-12-19T10:55:21.000Z</time>
      </trkpt>
      <trkpt lat="47.11467" lon="-1.42807">
        <ele>87</ele>
        <time>2020-12-19T10:55:23.000Z</time>
      </trkpt>
      <trkpt lat="47.11459" lon="-1.42792">
        <ele>87</ele>
        <time>2020-12-19T10:55:25.000Z</time>
      </trkpt>
      <trkpt lat="47.11451" lon="-1.42776">
        <ele>87</ele>
        <time>2020-12-19T10:55:27.000Z</time>
      </trkpt>
      <trkpt lat="47.11444" lon="-1.42761">
        <ele>87</ele>
        <time>2020-12-19T10:55:29.000Z</time>
      </trkpt>
      <trkpt lat="47.11436" lon="-1.42745">
        <ele>87</ele>
        <time>2020-12-19T10:55:31.000Z</time>
      </trkpt>
      <trkpt lat="47.11428" lon="-1.4273">
        <ele>87</ele>
        <time>2020-12-19T10:55:33.000Z</time>
      </trkpt>
      <trkpt lat="47.1142" lon="-1.42714">
        <ele>87</ele>
        <time>2020-12-19T10:55:35.000Z</time>
      </trkpt>
      <trkpt lat="47.11413" lon="-1.42698">
        <ele>86</ele>
        <time>2020-12-19T10:55:37.000Z</time>
      </trkpt>
      <trkpt lat="47.11405" lon="-1.42682">
        <ele>86</ele>
        <time>2020-12-19T10:55:39.000Z</time>
      </trkpt>
      <trkpt lat="47.11397" lon="-1.42667">
        <ele>86</ele>
        <time>2020-12-19T10:55:41.000Z</time>
      </trkpt>
      <trkpt lat="47.11389" lon="-1.4265">
        <ele>86</ele>
        <time>2020-12-19T10:55:43.000Z</time>
      </trkpt>
      <trkpt lat="47.11381" lon="-1.42633">
        <ele>85</ele>
        <time>2020-12-19T10:55:45.000Z</time>
      </trkpt>
      <trkpt lat="47.11372" lon="-1.42617">
        <ele>85</ele>
        <time>2020-12-19T10:55:47.000Z</time>
      </trkpt>
      <trkpt lat="47.11364" lon="-1.426">
        <ele>85</ele>
        <time>2020-12-19T10:55:49.000Z</time>
      </trkpt>
      <trkpt lat="47.11355" lon="-1.42582">
        <ele>84</ele>
        <time>2020-12-19T10:55:51.000Z</time>
      </trkpt>
      <trkpt lat="47.11346" lon="-1.42563">
        <ele>83</ele>
        <time>2020-12-19T10:55:53.000Z</time>
      </trkpt>
      <trkpt lat="47.11337" lon="-1.42544">
        <ele>82</ele>
        <time>2020-12-19T10:55:55.000Z</time>
      </trkpt>
      <trkpt lat="47.11328" lon="-1.42526">
        <ele>82</ele>
        <time>2020-12-19T10:55:57.000Z</time>
      </trkpt>
      <trkpt lat="47.11318" lon="-1.42507">
        <ele>82</ele>
        <time>2020-12-19T10:55:59.000Z</time>
      </trkpt>
      <trkpt lat="47.11308" lon="-1.42488">
        <ele>81</ele>
        <time>2020-12-19T10:56:01.000Z</time>
      </trkpt>
      <trkpt lat="47.11298" lon="-1.42468">
        <ele>81</ele>
        <time>2020-12-19T10:56:03.000Z</time>
      </trkpt>
      <trkpt lat="47.11289" lon="-1.42449">
        <ele>81</ele>
        <time>2020-12-19T10:56:05.000Z</time>
      </trkpt>
      <trkpt lat="47.11279" lon="-1.42431">
        <ele>81</ele>
        <time>2020-12-19T10:56:07.000Z</time>
      </trkpt>
      <trkpt lat="47.1127" lon="-1.42412">
        <ele>81</ele>
        <time>2020-12-19T10:56:09.000Z</time>
      </trkpt>
      <trkpt lat="47.11262" lon="-1.42395">
        <ele>81</ele>
        <time>2020-12-19T10:56:11.000Z</time>
      </trkpt>
      <trkpt lat="47.11254" lon="-1.42377">
        <ele>80</ele>
        <time>2020-12-19T10:56:13.000Z</time>
      </trkpt>
      <trkpt lat="47.11246" lon="-1.42359">
        <ele>81</ele>
        <time>2020-12-19T10:56:15.000Z</time>
      </trkpt>
      <trkpt lat="47.11239" lon="-1.42341">
        <ele>80</ele>
        <time>2020-12-19T10:56:17.000Z</time>
      </trkpt>
      <trkpt lat="47.11234" lon="-1.42322">
        <ele>80</ele>
        <time>2020-12-19T10:56:19.000Z</time>
      </trkpt>
      <trkpt lat="47.11228" lon="-1.42303">
        <ele>81</ele>
        <time>2020-12-19T10:56:21.000Z</time>
      </trkpt>
      <trkpt lat="47.11223" lon="-1.42285">
        <ele>81</ele>
        <time>2020-12-19T10:56:23.000Z</time>
      </trkpt>
      <trkpt lat="47.11219" lon="-1.42267">
        <ele>82</ele>
        <time>2020-12-19T10:56:25.000Z</time>
      </trkpt>
      <trkpt lat="47.11214" lon="-1.4225">
        <ele>83</ele>
        <time>2020-12-19T10:56:27.000Z</time>
      </trkpt>
      <trkpt lat="47.1121" lon="-1.42233">
        <ele>83</ele>
        <time>2020-12-19T10:56:29.000Z</time>
      </trkpt>
      <trkpt lat="47.11206" lon="-1.42216">
        <ele>83</ele>
        <time>2020-12-19T10:56:31.000Z</time>
      </trkpt>
      <trkpt lat="47.11202" lon="-1.42199">
        <ele>83</ele>
        <time>2020-12-19T10:56:33.000Z</time>
      </trkpt>
      <trkpt lat="47.11198" lon="-1.42181">
        <ele>84</ele>
        <time>2020-12-19T10:56:35.000Z</time>
      </trkpt>
      <trkpt lat="47.11194" lon="-1.42164">
        <ele>84</ele>
        <time>2020-12-19T10:56:37.000Z</time>
      </trkpt>
      <trkpt lat="47.1119" lon="-1.42146">
        <ele>84</ele>
        <time>2020-12-19T10:56:39.000Z</time>
      </trkpt>
      <trkpt lat="47.11185" lon="-1.42129">
        <ele>84</ele>
        <time>2020-12-19T10:56:41.000Z</time>
      </trkpt>
      <trkpt lat="47.11181" lon="-1.42111">
        <ele>83</ele>
        <time>2020-12-19T10:56:43.000Z</time>
      </trkpt>
      <trkpt lat="47.11176" lon="-1.42092">
        <ele>83</ele>
        <time>2020-12-19T10:56:45.000Z</time>
      </trkpt>
      <trkpt lat="47.11171" lon="-1.42072">
        <ele>83</ele>
        <time>2020-12-19T10:56:47.000Z</time>
      </trkpt>
      <trkpt lat="47.11166" lon="-1.42052">
        <ele>82</ele>
        <time>2020-12-19T10:56:49.000Z</time>
      </trkpt>
      <trkpt lat="47.11161" lon="-1.42032">
        <ele>81</ele>
        <time>2020-12-19T10:56:51.000Z</time>
      </trkpt>
      <trkpt lat="47.11156" lon="-1.42011">
        <ele>81</ele>
        <time>2020-12-19T10:56:53.000Z</time>
      </trkpt>
      <trkpt lat="47.11151" lon="-1.41989">
        <ele>80</ele>
        <time>2020-12-19T10:56:55.000Z</time>
      </trkpt>
      <trkpt lat="47.11146" lon="-1.41969">
        <ele>80</ele>
        <time>2020-12-19T10:56:57.000Z</time>
      </trkpt>
      <trkpt lat="47.11141" lon="-1.41947">
        <ele>80</ele>
        <time>2020-12-19T10:56:59.000Z</time>
      </trkpt>
      <trkpt lat="47.11136" lon="-1.41926">
        <ele>79</ele>
        <time>2020-12-19T10:57:01.000Z</time>
      </trkpt>
      <trkpt lat="47.11131" lon="-1.41904">
        <ele>78</ele>
        <time>2020-12-19T10:57:03.000Z</time>
      </trkpt>
      <trkpt lat="47.11125" lon="-1.41881">
        <ele>78</ele>
        <time>2020-12-19T10:57:05.000Z</time>
      </trkpt>
      <trkpt lat="47.1112" lon="-1.41859">
        <ele>77</ele>
        <time>2020-12-19T10:57:07.000Z</time>
      </trkpt>
      <trkpt lat="47.11114" lon="-1.41835">
        <ele>77</ele>
        <time>2020-12-19T10:57:09.000Z</time>
      </trkpt>
      <trkpt lat="47.11109" lon="-1.41811">
        <ele>76</ele>
        <time>2020-12-19T10:57:11.000Z</time>
      </trkpt>
      <trkpt lat="47.11103" lon="-1.41787">
        <ele>75</ele>
        <time>2020-12-19T10:57:13.000Z</time>
      </trkpt>
      <trkpt lat="47.11096" lon="-1.41762">
        <ele>75</ele>
        <time>2020-12-19T10:57:15.000Z</time>
      </trkpt>
      <trkpt lat="47.11093" lon="-1.4175">
        <ele>74</ele>
        <time>2020-12-19T10:57:16.000Z</time>
      </trkpt>
      <trkpt lat="47.1109" lon="-1.41737">
        <ele>73</ele>
        <time>2020-12-19T10:57:17.000Z</time>
      </trkpt>
      <trkpt lat="47.11086" lon="-1.41724">
        <ele>73</ele>
        <time>2020-12-19T10:57:18.000Z</time>
      </trkpt>
      <trkpt lat="47.11083" lon="-1.41711">
        <ele>72</ele>
        <time>2020-12-19T10:57:19.000Z</time>
      </trkpt>
      <trkpt lat="47.1108" lon="-1.41697">
        <ele>72</ele>
        <time>2020-12-19T10:57:20.000Z</time>
      </trkpt>
      <trkpt lat="47.11076" lon="-1.41683">
        <ele>71</ele>
        <time>2020-12-19T10:57:21.000Z</time>
      </trkpt>
      <trkpt lat="47.11073" lon="-1.4167">
        <ele>70</ele>
        <time>2020-12-19T10:57:22.000Z</time>
      </trkpt>
      <trkpt lat="47.11068" lon="-1.41655">
        <ele>70</ele>
        <time>2020-12-19T10:57:23.000Z</time>
      </trkpt>
      <trkpt lat="47.11063" lon="-1.41642">
        <ele>70</ele>
        <time>2020-12-19T10:57:24.000Z</time>
      </trkpt>
      <trkpt lat="47.11058" lon="-1.41628">
        <ele>69</ele>
        <time>2020-12-19T10:57:25.000Z</time>
      </trkpt>
      <trkpt lat="47.11052" lon="-1.41615">
        <ele>69</ele>
        <time>2020-12-19T10:57:26.000Z</time>
      </trkpt>
      <trkpt lat="47.11046" lon="-1.41602">
        <ele>68</ele>
        <time>2020-12-19T10:57:27.000Z</time>
      </trkpt>
      <trkpt lat="47.11038" lon="-1.4159">
        <ele>68</ele>
        <time>2020-12-19T10:57:28.000Z</time>
      </trkpt>
      <trkpt lat="47.1103" lon="-1.41579">
        <ele>68</ele>
        <time>2020-12-19T10:57:29.000Z</time>
      </trkpt>
      <trkpt lat="47.11021" lon="-1.41569">
        <ele>67</ele>
        <time>2020-12-19T10:57:30.000Z</time>
      </trkpt>
      <trkpt lat="47.11012" lon="-1.4156">
        <ele>67</ele>
        <time>2020-12-19T10:57:31.000Z</time>
      </trkpt>
      <trkpt lat="47.11003" lon="-1.41552">
        <ele>66</ele>
        <time>2020-12-19T10:57:32.000Z</time>
      </trkpt>
      <trkpt lat="47.10994" lon="-1.41544">
        <ele>65</ele>
        <time>2020-12-19T10:57:33.000Z</time>
      </trkpt>
      <trkpt lat="47.10984" lon="-1.41538">
        <ele>64</ele>
        <time>2020-12-19T10:57:34.000Z</time>
      </trkpt>
      <trkpt lat="47.10974" lon="-1.41533">
        <ele>63</ele>
        <time>2020-12-19T10:57:35.000Z</time>
      </trkpt>
      <trkpt lat="47.10964" lon="-1.41529">
        <ele>63</ele>
        <time>2020-12-19T10:57:36.000Z</time>
      </trkpt>
      <trkpt lat="47.10954" lon="-1.41526">
        <ele>63</ele>
        <time>2020-12-19T10:57:37.000Z</time>
      </trkpt>
      <trkpt lat="47.10944" lon="-1.41524">
        <ele>62</ele>
        <time>2020-12-19T10:57:38.000Z</time>
      </trkpt>
      <trkpt lat="47.10935" lon="-1.41524">
        <ele>62</ele>
        <time>2020-12-19T10:57:39.000Z</time>
      </trkpt>
      <trkpt lat="47.10925" lon="-1.41524">
        <ele>62</ele>
        <time>2020-12-19T10:57:40.000Z</time>
      </trkpt>
      <trkpt lat="47.10915" lon="-1.41526">
        <ele>61</ele>
        <time>2020-12-19T10:57:41.000Z</time>
      </trkpt>
      <trkpt lat="47.10905" lon="-1.41527">
        <ele>61</ele>
        <time>2020-12-19T10:57:42.000Z</time>
      </trkpt>
      <trkpt lat="47.10896" lon="-1.41529">
        <ele>61</ele>
        <time>2020-12-19T10:57:43.000Z</time>
      </trkpt>
      <trkpt lat="47.10878" lon="-1.41533">
        <ele>60</ele>
        <time>2020-12-19T10:57:45.000Z</time>
      </trkpt>
      <trkpt lat="47.10861" lon="-1.41526">
        <ele>59</ele>
        <time>2020-12-19T10:57:47.000Z</time>
      </trkpt>
      <trkpt lat="47.10852" lon="-1.4152">
        <ele>59</ele>
        <time>2020-12-19T10:57:48.000Z</time>
      </trkpt>
      <trkpt lat="47.10845" lon="-1.41512">
        <ele>58</ele>
        <time>2020-12-19T10:57:49.000Z</time>
      </trkpt>
      <trkpt lat="47.10837" lon="-1.41501">
        <ele>58</ele>
        <time>2020-12-19T10:57:50.000Z</time>
      </trkpt>
      <trkpt lat="47.1083" lon="-1.41486">
        <ele>58</ele>
        <time>2020-12-19T10:57:51.000Z</time>
      </trkpt>
      <trkpt lat="47.10824" lon="-1.41473">
        <ele>59</ele>
        <time>2020-12-19T10:57:52.000Z</time>
      </trkpt>
      <trkpt lat="47.10817" lon="-1.41463">
        <ele>59</ele>
        <time>2020-12-19T10:57:53.000Z</time>
      </trkpt>
      <trkpt lat="47.1081" lon="-1.41452">
        <ele>59</ele>
        <time>2020-12-19T10:57:54.000Z</time>
      </trkpt>
      <trkpt lat="47.10798" lon="-1.41435">
        <ele>59</ele>
        <time>2020-12-19T10:57:56.000Z</time>
      </trkpt>
      <trkpt lat="47.10785" lon="-1.41418">
        <ele>58</ele>
        <time>2020-12-19T10:57:58.000Z</time>
      </trkpt>
      <trkpt lat="47.10775" lon="-1.41401">
        <ele>58</ele>
        <time>2020-12-19T10:58:00.000Z</time>
      </trkpt>
      <trkpt lat="47.10767" lon="-1.41384">
        <ele>58</ele>
        <time>2020-12-19T10:58:02.000Z</time>
      </trkpt>
      <trkpt lat="47.10759" lon="-1.41366">
        <ele>57</ele>
        <time>2020-12-19T10:58:04.000Z</time>
      </trkpt>
      <trkpt lat="47.10752" lon="-1.41349">
        <ele>57</ele>
        <time>2020-12-19T10:58:06.000Z</time>
      </trkpt>
      <trkpt lat="47.10745" lon="-1.41333">
        <ele>57</ele>
        <time>2020-12-19T10:58:08.000Z</time>
      </trkpt>
      <trkpt lat="47.10738" lon="-1.41319">
        <ele>56</ele>
        <time>2020-12-19T10:58:10.000Z</time>
      </trkpt>
      <trkpt lat="47.10732" lon="-1.41305">
        <ele>56</ele>
        <time>2020-12-19T10:58:12.000Z</time>
      </trkpt>
      <trkpt lat="47.10726" lon="-1.4129">
        <ele>56</ele>
        <time>2020-12-19T10:58:14.000Z</time>
      </trkpt>
      <trkpt lat="47.10719" lon="-1.41277">
        <ele>56</ele>
        <time>2020-12-19T10:58:16.000Z</time>
      </trkpt>
      <trkpt lat="47.10712" lon="-1.41265">
        <ele>56</ele>
        <time>2020-12-19T10:58:18.000Z</time>
      </trkpt>
      <trkpt lat="47.10703" lon="-1.41254">
        <ele>56</ele>
        <time>2020-12-19T10:58:20.000Z</time>
      </trkpt>
      <trkpt lat="47.10695" lon="-1.41246">
        <ele>55</ele>
        <time>2020-12-19T10:58:22.000Z</time>
      </trkpt>
      <trkpt lat="47.10686" lon="-1.41238">
        <ele>55</ele>
        <time>2020-12-19T10:58:24.000Z</time>
      </trkpt>
      <trkpt lat="47.10677" lon="-1.41233">
        <ele>55</ele>
        <time>2020-12-19T10:58:26.000Z</time>
      </trkpt>
      <trkpt lat="47.10664" lon="-1.41229">
        <ele>55</ele>
        <time>2020-12-19T10:58:29.000Z</time>
      </trkpt>
      <trkpt lat="47.10653" lon="-1.41225">
        <ele>56</ele>
        <time>2020-12-19T10:58:32.000Z</time>
      </trkpt>
      <trkpt lat="47.10645" lon="-1.4122">
        <ele>56</ele>
        <time>2020-12-19T10:58:34.000Z</time>
      </trkpt>
      <trkpt lat="47.10636" lon="-1.41213">
        <ele>56</ele>
        <time>2020-12-19T10:58:36.000Z</time>
      </trkpt>
      <trkpt lat="47.10626" lon="-1.41203">
        <ele>56</ele>
        <time>2020-12-19T10:58:38.000Z</time>
      </trkpt>
      <trkpt lat="47.10617" lon="-1.41193">
        <ele>57</ele>
        <time>2020-12-19T10:58:40.000Z</time>
      </trkpt>
      <trkpt lat="47.1061" lon="-1.4118">
        <ele>57</ele>
        <time>2020-12-19T10:58:42.000Z</time>
      </trkpt>
      <trkpt lat="47.10603" lon="-1.41167">
        <ele>58</ele>
        <time>2020-12-19T10:58:44.000Z</time>
      </trkpt>
      <trkpt lat="47.106" lon="-1.41152">
        <ele>58</ele>
        <time>2020-12-19T10:58:46.000Z</time>
      </trkpt>
      <trkpt lat="47.10595" lon="-1.41138">
        <ele>59</ele>
        <time>2020-12-19T10:58:48.000Z</time>
      </trkpt>
      <trkpt lat="47.10591" lon="-1.41125">
        <ele>60</ele>
        <time>2020-12-19T10:58:50.000Z</time>
      </trkpt>
      <trkpt lat="47.10587" lon="-1.41112">
        <ele>61</ele>
        <time>2020-12-19T10:58:52.000Z</time>
      </trkpt>
      <trkpt lat="47.10581" lon="-1.41099">
        <ele>61</ele>
        <time>2020-12-19T10:58:54.000Z</time>
      </trkpt>
      <trkpt lat="47.10575" lon="-1.41086">
        <ele>62</ele>
        <time>2020-12-19T10:58:56.000Z</time>
      </trkpt>
      <trkpt lat="47.10571" lon="-1.41074">
        <ele>64</ele>
        <time>2020-12-19T10:58:58.000Z</time>
      </trkpt>
      <trkpt lat="47.10568" lon="-1.41059">
        <ele>65</ele>
        <time>2020-12-19T10:59:00.000Z</time>
      </trkpt>
      <trkpt lat="47.10565" lon="-1.41046">
        <ele>66</ele>
        <time>2020-12-19T10:59:02.000Z</time>
      </trkpt>
      <trkpt lat="47.10563" lon="-1.41033">
        <ele>66</ele>
        <time>2020-12-19T10:59:04.000Z</time>
      </trkpt>
      <trkpt lat="47.10558" lon="-1.41016">
        <ele>67</ele>
        <time>2020-12-19T10:59:07.000Z</time>
      </trkpt>
      <trkpt lat="47.10555" lon="-1.40998">
        <ele>69</ele>
        <time>2020-12-19T10:59:10.000Z</time>
      </trkpt>
      <trkpt lat="47.10554" lon="-1.40978">
        <ele>69</ele>
        <time>2020-12-19T10:59:13.000Z</time>
      </trkpt>
      <trkpt lat="47.10556" lon="-1.40959">
        <ele>69</ele>
        <time>2020-12-19T10:59:16.000Z</time>
      </trkpt>
      <trkpt lat="47.10557" lon="-1.40939">
        <ele>71</ele>
        <time>2020-12-19T10:59:19.000Z</time>
      </trkpt>
      <trkpt lat="47.1056" lon="-1.40921">
        <ele>71</ele>
        <time>2020-12-19T10:59:22.000Z</time>
      </trkpt>
      <trkpt lat="47.10566" lon="-1.40903">
        <ele>74</ele>
        <time>2020-12-19T10:59:25.000Z</time>
      </trkpt>
      <trkpt lat="47.1057" lon="-1.40885">
        <ele>75</ele>
        <time>2020-12-19T10:59:28.000Z</time>
      </trkpt>
      <trkpt lat="47.10572" lon="-1.40871">
        <ele>76</ele>
        <time>2020-12-19T10:59:30.000Z</time>
      </trkpt>
      <trkpt lat="47.10574" lon="-1.40858">
        <ele>76</ele>
        <time>2020-12-19T10:59:32.000Z</time>
      </trkpt>
      <trkpt lat="47.10576" lon="-1.40838">
        <ele>76</ele>
        <time>2020-12-19T10:59:35.000Z</time>
      </trkpt>
      <trkpt lat="47.10577" lon="-1.40825">
        <ele>76</ele>
        <time>2020-12-19T10:59:37.000Z</time>
      </trkpt>
      <trkpt lat="47.10577" lon="-1.40805">
        <ele>76</ele>
        <time>2020-12-19T10:59:40.000Z</time>
      </trkpt>
      <trkpt lat="47.10577" lon="-1.40786">
        <ele>77</ele>
        <time>2020-12-19T10:59:43.000Z</time>
      </trkpt>
      <trkpt lat="47.10577" lon="-1.40766">
        <ele>77</ele>
        <time>2020-12-19T10:59:46.000Z</time>
      </trkpt>
      <trkpt lat="47.10576" lon="-1.40753">
        <ele>77</ele>
        <time>2020-12-19T10:59:48.000Z</time>
      </trkpt>
      <trkpt lat="47.10575" lon="-1.40734">
        <ele>77</ele>
        <time>2020-12-19T10:59:51.000Z</time>
      </trkpt>
      <trkpt lat="47.10574" lon="-1.40715">
        <ele>77</ele>
        <time>2020-12-19T10:59:54.000Z</time>
      </trkpt>
      <trkpt lat="47.10573" lon="-1.40696">
        <ele>78</ele>
        <time>2020-12-19T10:59:57.000Z</time>
      </trkpt>
      <trkpt lat="47.10573" lon="-1.40682">
        <ele>78</ele>
        <time>2020-12-19T10:59:59.000Z</time>
      </trkpt>
      <trkpt lat="47.10573" lon="-1.40662">
        <ele>80</ele>
        <time>2020-12-19T11:00:02.000Z</time>
      </trkpt>
      <trkpt lat="47.10574" lon="-1.40648">
        <ele>80</ele>
        <time>2020-12-19T11:00:04.000Z</time>
      </trkpt>
      <trkpt lat="47.10573" lon="-1.40629">
        <ele>80</ele>
        <time>2020-12-19T11:00:07.000Z</time>
      </trkpt>
      <trkpt lat="47.10573" lon="-1.40615">
        <ele>80</ele>
        <time>2020-12-19T11:00:09.000Z</time>
      </trkpt>
      <trkpt lat="47.10571" lon="-1.40597">
        <ele>80</ele>
        <time>2020-12-19T11:00:12.000Z</time>
      </trkpt>
      <trkpt lat="47.10567" lon="-1.40578">
        <ele>80</ele>
        <time>2020-12-19T11:00:15.000Z</time>
      </trkpt>
      <trkpt lat="47.10564" lon="-1.40566">
        <ele>80</ele>
        <time>2020-12-19T11:00:17.000Z</time>
      </trkpt>
      <trkpt lat="47.1056" lon="-1.40553">
        <ele>80</ele>
        <time>2020-12-19T11:00:19.000Z</time>
      </trkpt>
      <trkpt lat="47.10557" lon="-1.40541">
        <ele>81</ele>
        <time>2020-12-19T11:00:21.000Z</time>
      </trkpt>
      <trkpt lat="47.10553" lon="-1.40522">
        <ele>83</ele>
        <time>2020-12-19T11:00:24.000Z</time>
      </trkpt>
      <trkpt lat="47.10549" lon="-1.4051">
        <ele>83</ele>
        <time>2020-12-19T11:00:26.000Z</time>
      </trkpt>
      <trkpt lat="47.10546" lon="-1.40497">
        <ele>84</ele>
        <time>2020-12-19T11:00:28.000Z</time>
      </trkpt>
      <trkpt lat="47.10543" lon="-1.40484">
        <ele>84</ele>
        <time>2020-12-19T11:00:30.000Z</time>
      </trkpt>
      <trkpt lat="47.10541" lon="-1.40471">
        <ele>85</ele>
        <time>2020-12-19T11:00:32.000Z</time>
      </trkpt>
      <trkpt lat="47.10538" lon="-1.40452">
        <ele>86</ele>
        <time>2020-12-19T11:00:35.000Z</time>
      </trkpt>
      <trkpt lat="47.10536" lon="-1.40438">
        <ele>86</ele>
        <time>2020-12-19T11:00:37.000Z</time>
      </trkpt>
      <trkpt lat="47.10535" lon="-1.40425">
        <ele>86</ele>
        <time>2020-12-19T11:00:39.000Z</time>
      </trkpt>
      <trkpt lat="47.10533" lon="-1.40411">
        <ele>86</ele>
        <time>2020-12-19T11:00:41.000Z</time>
      </trkpt>
      <trkpt lat="47.10531" lon="-1.40396">
        <ele>86</ele>
        <time>2020-12-19T11:00:43.000Z</time>
      </trkpt>
      <trkpt lat="47.1053" lon="-1.40382">
        <ele>86</ele>
        <time>2020-12-19T11:00:45.000Z</time>
      </trkpt>
      <trkpt lat="47.10528" lon="-1.40368">
        <ele>86</ele>
        <time>2020-12-19T11:00:47.000Z</time>
      </trkpt>
      <trkpt lat="47.10525" lon="-1.40354">
        <ele>86</ele>
        <time>2020-12-19T11:00:49.000Z</time>
      </trkpt>
      <trkpt lat="47.10522" lon="-1.40339">
        <ele>87</ele>
        <time>2020-12-19T11:00:51.000Z</time>
      </trkpt>
      <trkpt lat="47.10518" lon="-1.40324">
        <ele>87</ele>
        <time>2020-12-19T11:00:53.000Z</time>
      </trkpt>
      <trkpt lat="47.10514" lon="-1.4031">
        <ele>87</ele>
        <time>2020-12-19T11:00:55.000Z</time>
      </trkpt>
      <trkpt lat="47.10511" lon="-1.40297">
        <ele>86</ele>
        <time>2020-12-19T11:00:57.000Z</time>
      </trkpt>
      <trkpt lat="47.10508" lon="-1.40282">
        <ele>87</ele>
        <time>2020-12-19T11:00:59.000Z</time>
      </trkpt>
      <trkpt lat="47.10505" lon="-1.40267">
        <ele>88</ele>
        <time>2020-12-19T11:01:01.000Z</time>
      </trkpt>
      <trkpt lat="47.10501" lon="-1.40253">
        <ele>88</ele>
        <time>2020-12-19T11:01:03.000Z</time>
      </trkpt>
      <trkpt lat="47.10498" lon="-1.40239">
        <ele>89</ele>
        <time>2020-12-19T11:01:05.000Z</time>
      </trkpt>
      <trkpt lat="47.10493" lon="-1.40226">
        <ele>89</ele>
        <time>2020-12-19T11:01:07.000Z</time>
      </trkpt>
      <trkpt lat="47.10488" lon="-1.40214">
        <ele>89</ele>
        <time>2020-12-19T11:01:09.000Z</time>
      </trkpt>
      <trkpt lat="47.10483" lon="-1.40201">
        <ele>89</ele>
        <time>2020-12-19T11:01:11.000Z</time>
      </trkpt>
      <trkpt lat="47.10477" lon="-1.40189">
        <ele>89</ele>
        <time>2020-12-19T11:01:13.000Z</time>
      </trkpt>
      <trkpt lat="47.10469" lon="-1.40177">
        <ele>89</ele>
        <time>2020-12-19T11:01:15.000Z</time>
      </trkpt>
      <trkpt lat="47.10461" lon="-1.40167">
        <ele>89</ele>
        <time>2020-12-19T11:01:17.000Z</time>
      </trkpt>
      <trkpt lat="47.10454" lon="-1.40157">
        <ele>89</ele>
        <time>2020-12-19T11:01:19.000Z</time>
      </trkpt>
      <trkpt lat="47.10446" lon="-1.40147">
        <ele>89</ele>
        <time>2020-12-19T11:01:21.000Z</time>
      </trkpt>
      <trkpt lat="47.10439" lon="-1.40138">
        <ele>89</ele>
        <time>2020-12-19T11:01:23.000Z</time>
      </trkpt>
      <trkpt lat="47.10432" lon="-1.40129">
        <ele>89</ele>
        <time>2020-12-19T11:01:25.000Z</time>
      </trkpt>
      <trkpt lat="47.10426" lon="-1.40119">
        <ele>88</ele>
        <time>2020-12-19T11:01:27.000Z</time>
      </trkpt>
      <trkpt lat="47.10419" lon="-1.40109">
        <ele>88</ele>
        <time>2020-12-19T11:01:29.000Z</time>
      </trkpt>
      <trkpt lat="47.1041" lon="-1.40096">
        <ele>88</ele>
        <time>2020-12-19T11:01:32.000Z</time>
      </trkpt>
      <trkpt lat="47.104" lon="-1.40083">
        <ele>87</ele>
        <time>2020-12-19T11:01:35.000Z</time>
      </trkpt>
      <trkpt lat="47.1039" lon="-1.4007">
        <ele>87</ele>
        <time>2020-12-19T11:01:38.000Z</time>
      </trkpt>
      <trkpt lat="47.10384" lon="-1.40061">
        <ele>87</ele>
        <time>2020-12-19T11:01:40.000Z</time>
      </trkpt>
      <trkpt lat="47.10378" lon="-1.4005">
        <ele>87</ele>
        <time>2020-12-19T11:01:42.000Z</time>
      </trkpt>
      <trkpt lat="47.10371" lon="-1.40041">
        <ele>88</ele>
        <time>2020-12-19T11:01:44.000Z</time>
      </trkpt>
      <trkpt lat="47.10363" lon="-1.40027">
        <ele>88</ele>
        <time>2020-12-19T11:01:47.000Z</time>
      </trkpt>
      <trkpt lat="47.10355" lon="-1.40018">
        <ele>89</ele>
        <time>2020-12-19T11:01:49.000Z</time>
      </trkpt>
      <trkpt lat="47.10348" lon="-1.40009">
        <ele>90</ele>
        <time>2020-12-19T11:01:51.000Z</time>
      </trkpt>
      <trkpt lat="47.10338" lon="-1.39995">
        <ele>92</ele>
        <time>2020-12-19T11:01:54.000Z</time>
      </trkpt>
      <trkpt lat="47.10332" lon="-1.39984">
        <ele>93</ele>
        <time>2020-12-19T11:01:56.000Z</time>
      </trkpt>
      <trkpt lat="47.10325" lon="-1.39974">
        <ele>94</ele>
        <time>2020-12-19T11:01:58.000Z</time>
      </trkpt>
      <trkpt lat="47.1032" lon="-1.39963">
        <ele>94</ele>
        <time>2020-12-19T11:02:00.000Z</time>
      </trkpt>
      <trkpt lat="47.10314" lon="-1.39952">
        <ele>95</ele>
        <time>2020-12-19T11:02:02.000Z</time>
      </trkpt>
      <trkpt lat="47.10307" lon="-1.39936">
        <ele>97</ele>
        <time>2020-12-19T11:02:05.000Z</time>
      </trkpt>
      <trkpt lat="47.103" lon="-1.39918">
        <ele>98</ele>
        <time>2020-12-19T11:02:08.000Z</time>
      </trkpt>
      <trkpt lat="47.10296" lon="-1.39906">
        <ele>99</ele>
        <time>2020-12-19T11:02:10.000Z</time>
      </trkpt>
      <trkpt lat="47.1029" lon="-1.39893">
        <ele>99</ele>
        <time>2020-12-19T11:02:12.000Z</time>
      </trkpt>
      <trkpt lat="47.10285" lon="-1.39882">
        <ele>100</ele>
        <time>2020-12-19T11:02:14.000Z</time>
      </trkpt>
      <trkpt lat="47.1028" lon="-1.3987">
        <ele>100</ele>
        <time>2020-12-19T11:02:16.000Z</time>
      </trkpt>
      <trkpt lat="47.10275" lon="-1.39858">
        <ele>101</ele>
        <time>2020-12-19T11:02:18.000Z</time>
      </trkpt>
      <trkpt lat="47.1027" lon="-1.39847">
        <ele>101</ele>
        <time>2020-12-19T11:02:20.000Z</time>
      </trkpt>
      <trkpt lat="47.10264" lon="-1.39829">
        <ele>101</ele>
        <time>2020-12-19T11:02:23.000Z</time>
      </trkpt>
      <trkpt lat="47.1026" lon="-1.39815">
        <ele>102</ele>
        <time>2020-12-19T11:02:25.000Z</time>
      </trkpt>
      <trkpt lat="47.10255" lon="-1.39802">
        <ele>102</ele>
        <time>2020-12-19T11:02:27.000Z</time>
      </trkpt>
      <trkpt lat="47.1025" lon="-1.39787">
        <ele>102</ele>
        <time>2020-12-19T11:02:29.000Z</time>
      </trkpt>
      <trkpt lat="47.10246" lon="-1.39772">
        <ele>103</ele>
        <time>2020-12-19T11:02:31.000Z</time>
      </trkpt>
      <trkpt lat="47.1024" lon="-1.39756">
        <ele>103</ele>
        <time>2020-12-19T11:02:33.000Z</time>
      </trkpt>
      <trkpt lat="47.10234" lon="-1.3974">
        <ele>103</ele>
        <time>2020-12-19T11:02:35.000Z</time>
      </trkpt>
      <trkpt lat="47.10227" lon="-1.39725">
        <ele>103</ele>
        <time>2020-12-19T11:02:37.000Z</time>
      </trkpt>
      <trkpt lat="47.10218" lon="-1.39712">
        <ele>103</ele>
        <time>2020-12-19T11:02:39.000Z</time>
      </trkpt>
      <trkpt lat="47.10208" lon="-1.397">
        <ele>103</ele>
        <time>2020-12-19T11:02:41.000Z</time>
      </trkpt>
      <trkpt lat="47.10198" lon="-1.3969">
        <ele>103</ele>
        <time>2020-12-19T11:02:43.000Z</time>
      </trkpt>
      <trkpt lat="47.10189" lon="-1.39681">
        <ele>102</ele>
        <time>2020-12-19T11:02:45.000Z</time>
      </trkpt>
      <trkpt lat="47.1018" lon="-1.39673">
        <ele>102</ele>
        <time>2020-12-19T11:02:47.000Z</time>
      </trkpt>
      <trkpt lat="47.1017" lon="-1.39665">
        <ele>102</ele>
        <time>2020-12-19T11:02:49.000Z</time>
      </trkpt>
      <trkpt lat="47.1016" lon="-1.39656">
        <ele>102</ele>
        <time>2020-12-19T11:02:51.000Z</time>
      </trkpt>
      <trkpt lat="47.1015" lon="-1.39647">
        <ele>101</ele>
        <time>2020-12-19T11:02:53.000Z</time>
      </trkpt>
      <trkpt lat="47.10139" lon="-1.39638">
        <ele>101</ele>
        <time>2020-12-19T11:02:55.000Z</time>
      </trkpt>
      <trkpt lat="47.1013" lon="-1.39629">
        <ele>101</ele>
        <time>2020-12-19T11:02:57.000Z</time>
      </trkpt>
      <trkpt lat="47.10119" lon="-1.3962">
        <ele>101</ele>
        <time>2020-12-19T11:02:59.000Z</time>
      </trkpt>
      <trkpt lat="47.10109" lon="-1.39611">
        <ele>100</ele>
        <time>2020-12-19T11:03:01.000Z</time>
      </trkpt>
      <trkpt lat="47.10098" lon="-1.39602">
        <ele>100</ele>
        <time>2020-12-19T11:03:03.000Z</time>
      </trkpt>
      <trkpt lat="47.10087" lon="-1.39593">
        <ele>100</ele>
        <time>2020-12-19T11:03:05.000Z</time>
      </trkpt>
      <trkpt lat="47.10077" lon="-1.39583">
        <ele>100</ele>
        <time>2020-12-19T11:03:07.000Z</time>
      </trkpt>
      <trkpt lat="47.10067" lon="-1.39574">
        <ele>100</ele>
        <time>2020-12-19T11:03:09.000Z</time>
      </trkpt>
      <trkpt lat="47.10057" lon="-1.39565">
        <ele>100</ele>
        <time>2020-12-19T11:03:11.000Z</time>
      </trkpt>
      <trkpt lat="47.10046" lon="-1.39555">
        <ele>100</ele>
        <time>2020-12-19T11:03:13.000Z</time>
      </trkpt>
      <trkpt lat="47.10036" lon="-1.39546">
        <ele>99</ele>
        <time>2020-12-19T11:03:15.000Z</time>
      </trkpt>
      <trkpt lat="47.10026" lon="-1.39537">
        <ele>99</ele>
        <time>2020-12-19T11:03:17.000Z</time>
      </trkpt>
      <trkpt lat="47.10016" lon="-1.39529">
        <ele>99</ele>
        <time>2020-12-19T11:03:19.000Z</time>
      </trkpt>
      <trkpt lat="47.10006" lon="-1.39519">
        <ele>99</ele>
        <time>2020-12-19T11:03:21.000Z</time>
      </trkpt>
      <trkpt lat="47.09995" lon="-1.3951">
        <ele>99</ele>
        <time>2020-12-19T11:03:23.000Z</time>
      </trkpt>
      <trkpt lat="47.09985" lon="-1.39501">
        <ele>99</ele>
        <time>2020-12-19T11:03:25.000Z</time>
      </trkpt>
      <trkpt lat="47.09974" lon="-1.39491">
        <ele>99</ele>
        <time>2020-12-19T11:03:27.000Z</time>
      </trkpt>
      <trkpt lat="47.09963" lon="-1.39482">
        <ele>99</ele>
        <time>2020-12-19T11:03:29.000Z</time>
      </trkpt>
      <trkpt lat="47.09953" lon="-1.39472">
        <ele>100</ele>
        <time>2020-12-19T11:03:31.000Z</time>
      </trkpt>
      <trkpt lat="47.09942" lon="-1.39463">
        <ele>99</ele>
        <time>2020-12-19T11:03:33.000Z</time>
      </trkpt>
      <trkpt lat="47.09932" lon="-1.39454">
        <ele>99</ele>
        <time>2020-12-19T11:03:35.000Z</time>
      </trkpt>
      <trkpt lat="47.09922" lon="-1.39446">
        <ele>98</ele>
        <time>2020-12-19T11:03:37.000Z</time>
      </trkpt>
      <trkpt lat="47.09911" lon="-1.39437">
        <ele>98</ele>
        <time>2020-12-19T11:03:39.000Z</time>
      </trkpt>
      <trkpt lat="47.09901" lon="-1.39428">
        <ele>98</ele>
        <time>2020-12-19T11:03:41.000Z</time>
      </trkpt>
      <trkpt lat="47.0989" lon="-1.39419">
        <ele>98</ele>
        <time>2020-12-19T11:03:43.000Z</time>
      </trkpt>
      <trkpt lat="47.09879" lon="-1.39409">
        <ele>97</ele>
        <time>2020-12-19T11:03:45.000Z</time>
      </trkpt>
      <trkpt lat="47.09868" lon="-1.394">
        <ele>97</ele>
        <time>2020-12-19T11:03:47.000Z</time>
      </trkpt>
      <trkpt lat="47.09856" lon="-1.3939">
        <ele>97</ele>
        <time>2020-12-19T11:03:49.000Z</time>
      </trkpt>
      <trkpt lat="47.09845" lon="-1.3938">
        <ele>96</ele>
        <time>2020-12-19T11:03:51.000Z</time>
      </trkpt>
      <trkpt lat="47.09834" lon="-1.39368">
        <ele>96</ele>
        <time>2020-12-19T11:03:53.000Z</time>
      </trkpt>
      <trkpt lat="47.09824" lon="-1.39356">
        <ele>96</ele>
        <time>2020-12-19T11:03:55.000Z</time>
      </trkpt>
      <trkpt lat="47.09814" lon="-1.39342">
        <ele>95</ele>
        <time>2020-12-19T11:03:57.000Z</time>
      </trkpt>
      <trkpt lat="47.09805" lon="-1.39325">
        <ele>94</ele>
        <time>2020-12-19T11:03:59.000Z</time>
      </trkpt>
      <trkpt lat="47.09798" lon="-1.39308">
        <ele>94</ele>
        <time>2020-12-19T11:04:01.000Z</time>
      </trkpt>
      <trkpt lat="47.09791" lon="-1.39289">
        <ele>93</ele>
        <time>2020-12-19T11:04:03.000Z</time>
      </trkpt>
      <trkpt lat="47.09786" lon="-1.39269">
        <ele>92</ele>
        <time>2020-12-19T11:04:05.000Z</time>
      </trkpt>
      <trkpt lat="47.09781" lon="-1.39248">
        <ele>91</ele>
        <time>2020-12-19T11:04:07.000Z</time>
      </trkpt>
      <trkpt lat="47.09778" lon="-1.39225">
        <ele>90</ele>
        <time>2020-12-19T11:04:09.000Z</time>
      </trkpt>
      <trkpt lat="47.09775" lon="-1.39202">
        <ele>90</ele>
        <time>2020-12-19T11:04:11.000Z</time>
      </trkpt>
      <trkpt lat="47.09772" lon="-1.39179">
        <ele>90</ele>
        <time>2020-12-19T11:04:13.000Z</time>
      </trkpt>
      <trkpt lat="47.09768" lon="-1.39154">
        <ele>89</ele>
        <time>2020-12-19T11:04:15.000Z</time>
      </trkpt>
      <trkpt lat="47.09766" lon="-1.39141">
        <ele>87</ele>
        <time>2020-12-19T11:04:16.000Z</time>
      </trkpt>
      <trkpt lat="47.09761" lon="-1.39116">
        <ele>86</ele>
        <time>2020-12-19T11:04:18.000Z</time>
      </trkpt>
      <trkpt lat="47.09757" lon="-1.39104">
        <ele>86</ele>
        <time>2020-12-19T11:04:19.000Z</time>
      </trkpt>
      <trkpt lat="47.09749" lon="-1.39082">
        <ele>86</ele>
        <time>2020-12-19T11:04:21.000Z</time>
      </trkpt>
      <trkpt lat="47.09742" lon="-1.39063">
        <ele>86</ele>
        <time>2020-12-19T11:04:23.000Z</time>
      </trkpt>
      <trkpt lat="47.09735" lon="-1.39046">
        <ele>87</ele>
        <time>2020-12-19T11:04:25.000Z</time>
      </trkpt>
      <trkpt lat="47.09728" lon="-1.3903">
        <ele>88</ele>
        <time>2020-12-19T11:04:27.000Z</time>
      </trkpt>
      <trkpt lat="47.09722" lon="-1.39015">
        <ele>89</ele>
        <time>2020-12-19T11:04:29.000Z</time>
      </trkpt>
      <trkpt lat="47.09716" lon="-1.39001">
        <ele>89</ele>
        <time>2020-12-19T11:04:31.000Z</time>
      </trkpt>
      <trkpt lat="47.0971" lon="-1.38986">
        <ele>89</ele>
        <time>2020-12-19T11:04:33.000Z</time>
      </trkpt>
      <trkpt lat="47.09705" lon="-1.38973">
        <ele>89</ele>
        <time>2020-12-19T11:04:35.000Z</time>
      </trkpt>
      <trkpt lat="47.09699" lon="-1.38961">
        <ele>90</ele>
        <time>2020-12-19T11:04:37.000Z</time>
      </trkpt>
      <trkpt lat="47.09694" lon="-1.38949">
        <ele>90</ele>
        <time>2020-12-19T11:04:39.000Z</time>
      </trkpt>
      <trkpt lat="47.0969" lon="-1.38937">
        <ele>90</ele>
        <time>2020-12-19T11:04:41.000Z</time>
      </trkpt>
      <trkpt lat="47.09685" lon="-1.38924">
        <ele>91</ele>
        <time>2020-12-19T11:04:43.000Z</time>
      </trkpt>
      <trkpt lat="47.0968" lon="-1.38912">
        <ele>91</ele>
        <time>2020-12-19T11:04:45.000Z</time>
      </trkpt>
      <trkpt lat="47.09675" lon="-1.389">
        <ele>91</ele>
        <time>2020-12-19T11:04:47.000Z</time>
      </trkpt>
      <trkpt lat="47.09669" lon="-1.38883">
        <ele>91</ele>
        <time>2020-12-19T11:04:50.000Z</time>
      </trkpt>
      <trkpt lat="47.09665" lon="-1.3887">
        <ele>92</ele>
        <time>2020-12-19T11:04:52.000Z</time>
      </trkpt>
      <trkpt lat="47.09662" lon="-1.38857">
        <ele>92</ele>
        <time>2020-12-19T11:04:54.000Z</time>
      </trkpt>
      <trkpt lat="47.09659" lon="-1.38843">
        <ele>92</ele>
        <time>2020-12-19T11:04:56.000Z</time>
      </trkpt>
      <trkpt lat="47.09656" lon="-1.38829">
        <ele>93</ele>
        <time>2020-12-19T11:04:58.000Z</time>
      </trkpt>
      <trkpt lat="47.09654" lon="-1.38816">
        <ele>93</ele>
        <time>2020-12-19T11:05:00.000Z</time>
      </trkpt>
      <trkpt lat="47.09653" lon="-1.38801">
        <ele>93</ele>
        <time>2020-12-19T11:05:02.000Z</time>
      </trkpt>
      <trkpt lat="47.09653" lon="-1.38782">
        <ele>94</ele>
        <time>2020-12-19T11:05:05.000Z</time>
      </trkpt>
      <trkpt lat="47.09655" lon="-1.38762">
        <ele>95</ele>
        <time>2020-12-19T11:05:08.000Z</time>
      </trkpt>
      <trkpt lat="47.09658" lon="-1.38743">
        <ele>96</ele>
        <time>2020-12-19T11:05:11.000Z</time>
      </trkpt>
      <trkpt lat="47.09661" lon="-1.38725">
        <ele>97</ele>
        <time>2020-12-19T11:05:14.000Z</time>
      </trkpt>
      <trkpt lat="47.09665" lon="-1.38707">
        <ele>97</ele>
        <time>2020-12-19T11:05:17.000Z</time>
      </trkpt>
      <trkpt lat="47.09671" lon="-1.3869">
        <ele>98</ele>
        <time>2020-12-19T11:05:20.000Z</time>
      </trkpt>
      <trkpt lat="47.09677" lon="-1.38673">
        <ele>100</ele>
        <time>2020-12-19T11:05:23.000Z</time>
      </trkpt>
      <trkpt lat="47.09683" lon="-1.38656">
        <ele>101</ele>
        <time>2020-12-19T11:05:26.000Z</time>
      </trkpt>
      <trkpt lat="47.09688" lon="-1.38644">
        <ele>101</ele>
        <time>2020-12-19T11:05:28.000Z</time>
      </trkpt>
      <trkpt lat="47.09695" lon="-1.38628">
        <ele>102</ele>
        <time>2020-12-19T11:05:31.000Z</time>
      </trkpt>
      <trkpt lat="47.09702" lon="-1.38611">
        <ele>102</ele>
        <time>2020-12-19T11:05:34.000Z</time>
      </trkpt>
      <trkpt lat="47.09708" lon="-1.38594">
        <ele>102</ele>
        <time>2020-12-19T11:05:37.000Z</time>
      </trkpt>
      <trkpt lat="47.09712" lon="-1.38582">
        <ele>102</ele>
        <time>2020-12-19T11:05:39.000Z</time>
      </trkpt>
      <trkpt lat="47.09714" lon="-1.38569">
        <ele>102</ele>
        <time>2020-12-19T11:05:41.000Z</time>
      </trkpt>
      <trkpt lat="47.09717" lon="-1.38551">
        <ele>103</ele>
        <time>2020-12-19T11:05:44.000Z</time>
      </trkpt>
      <trkpt lat="47.09718" lon="-1.38533">
        <ele>103</ele>
        <time>2020-12-19T11:05:47.000Z</time>
      </trkpt>
      <trkpt lat="47.09717" lon="-1.38517">
        <ele>103</ele>
        <time>2020-12-19T11:05:50.000Z</time>
      </trkpt>
      <trkpt lat="47.09715" lon="-1.38504">
        <ele>103</ele>
        <time>2020-12-19T11:05:52.000Z</time>
      </trkpt>
      <trkpt lat="47.09715" lon="-1.3849">
        <ele>103</ele>
        <time>2020-12-19T11:05:54.000Z</time>
      </trkpt>
      <trkpt lat="47.09713" lon="-1.38477">
        <ele>103</ele>
        <time>2020-12-19T11:05:56.000Z</time>
      </trkpt>
      <trkpt lat="47.09711" lon="-1.38463">
        <ele>104</ele>
        <time>2020-12-19T11:05:58.000Z</time>
      </trkpt>
      <trkpt lat="47.0971" lon="-1.38449">
        <ele>104</ele>
        <time>2020-12-19T11:06:00.000Z</time>
      </trkpt>
      <trkpt lat="47.09709" lon="-1.38434">
        <ele>104</ele>
        <time>2020-12-19T11:06:02.000Z</time>
      </trkpt>
      <trkpt lat="47.09709" lon="-1.38418">
        <ele>104</ele>
        <time>2020-12-19T11:06:04.000Z</time>
      </trkpt>
      <trkpt lat="47.0971" lon="-1.38403">
        <ele>103</ele>
        <time>2020-12-19T11:06:06.000Z</time>
      </trkpt>
      <trkpt lat="47.09718" lon="-1.38393">
        <ele>104</ele>
        <time>2020-12-19T11:06:08.000Z</time>
      </trkpt>
      <trkpt lat="47.09728" lon="-1.38391">
        <ele>104</ele>
        <time>2020-12-19T11:06:10.000Z</time>
      </trkpt>
      <trkpt lat="47.09739" lon="-1.38385">
        <ele>104</ele>
        <time>2020-12-19T11:06:12.000Z</time>
      </trkpt>
      <trkpt lat="47.09743" lon="-1.38371">
        <ele>104</ele>
        <time>2020-12-19T11:06:14.000Z</time>
      </trkpt>
      <trkpt lat="47.09746" lon="-1.38357">
        <ele>104</ele>
        <time>2020-12-19T11:06:16.000Z</time>
      </trkpt>
      <trkpt lat="47.09754" lon="-1.38347">
        <ele>104</ele>
        <time>2020-12-19T11:06:18.000Z</time>
      </trkpt>
      <trkpt lat="47.09765" lon="-1.38342">
        <ele>104</ele>
        <time>2020-12-19T11:06:20.000Z</time>
      </trkpt>
      <trkpt lat="47.09775" lon="-1.38336">
        <ele>104</ele>
        <time>2020-12-19T11:06:22.000Z</time>
      </trkpt>
      <trkpt lat="47.09786" lon="-1.3833">
        <ele>103</ele>
        <time>2020-12-19T11:06:24.000Z</time>
      </trkpt>
      <trkpt lat="47.09797" lon="-1.38323">
        <ele>103</ele>
        <time>2020-12-19T11:06:26.000Z</time>
      </trkpt>
      <trkpt lat="47.09808" lon="-1.38314">
        <ele>103</ele>
        <time>2020-12-19T11:06:28.000Z</time>
      </trkpt>
      <trkpt lat="47.0982" lon="-1.38307">
        <ele>103</ele>
        <time>2020-12-19T11:06:30.000Z</time>
      </trkpt>
      <trkpt lat="47.09832" lon="-1.38299">
        <ele>104</ele>
        <time>2020-12-19T11:06:32.000Z</time>
      </trkpt>
      <trkpt lat="47.09843" lon="-1.3829">
        <ele>104</ele>
        <time>2020-12-19T11:06:34.000Z</time>
      </trkpt>
      <trkpt lat="47.09856" lon="-1.3828">
        <ele>104</ele>
        <time>2020-12-19T11:06:36.000Z</time>
      </trkpt>
      <trkpt lat="47.09868" lon="-1.38272">
        <ele>103</ele>
        <time>2020-12-19T11:06:38.000Z</time>
      </trkpt>
      <trkpt lat="47.09881" lon="-1.38268">
        <ele>104</ele>
        <time>2020-12-19T11:06:40.000Z</time>
      </trkpt>
      <trkpt lat="47.09893" lon="-1.38264">
        <ele>104</ele>
        <time>2020-12-19T11:06:42.000Z</time>
      </trkpt>
      <trkpt lat="47.09906" lon="-1.38261">
        <ele>104</ele>
        <time>2020-12-19T11:06:44.000Z</time>
      </trkpt>
      <trkpt lat="47.09918" lon="-1.38256">
        <ele>104</ele>
        <time>2020-12-19T11:06:46.000Z</time>
      </trkpt>
      <trkpt lat="47.09931" lon="-1.38251">
        <ele>104</ele>
        <time>2020-12-19T11:06:48.000Z</time>
      </trkpt>
      <trkpt lat="47.09943" lon="-1.38246">
        <ele>104</ele>
        <time>2020-12-19T11:06:50.000Z</time>
      </trkpt>
      <trkpt lat="47.09954" lon="-1.38237">
        <ele>105</ele>
        <time>2020-12-19T11:06:52.000Z</time>
      </trkpt>
      <trkpt lat="47.09966" lon="-1.38224">
        <ele>105</ele>
        <time>2020-12-19T11:06:54.000Z</time>
      </trkpt>
      <trkpt lat="47.09977" lon="-1.3821">
        <ele>105</ele>
        <time>2020-12-19T11:06:56.000Z</time>
      </trkpt>
      <trkpt lat="47.09987" lon="-1.38197">
        <ele>105</ele>
        <time>2020-12-19T11:06:58.000Z</time>
      </trkpt>
      <trkpt lat="47.09997" lon="-1.38184">
        <ele>104</ele>
        <time>2020-12-19T11:07:00.000Z</time>
      </trkpt>
      <trkpt lat="47.10008" lon="-1.38171">
        <ele>104</ele>
        <time>2020-12-19T11:07:02.000Z</time>
      </trkpt>
      <trkpt lat="47.10018" lon="-1.38158">
        <ele>104</ele>
        <time>2020-12-19T11:07:04.000Z</time>
      </trkpt>
      <trkpt lat="47.10029" lon="-1.38145">
        <ele>103</ele>
        <time>2020-12-19T11:07:06.000Z</time>
      </trkpt>
      <trkpt lat="47.10039" lon="-1.38133">
        <ele>103</ele>
        <time>2020-12-19T11:07:08.000Z</time>
      </trkpt>
      <trkpt lat="47.10052" lon="-1.38122">
        <ele>102</ele>
        <time>2020-12-19T11:07:10.000Z</time>
      </trkpt>
      <trkpt lat="47.10064" lon="-1.38114">
        <ele>102</ele>
        <time>2020-12-19T11:07:12.000Z</time>
      </trkpt>
      <trkpt lat="47.10078" lon="-1.38108">
        <ele>102</ele>
        <time>2020-12-19T11:07:14.000Z</time>
      </trkpt>
      <trkpt lat="47.10093" lon="-1.38103">
        <ele>103</ele>
        <time>2020-12-19T11:07:16.000Z</time>
      </trkpt>
      <trkpt lat="47.10107" lon="-1.38098">
        <ele>102</ele>
        <time>2020-12-19T11:07:18.000Z</time>
      </trkpt>
      <trkpt lat="47.10122" lon="-1.38092">
        <ele>102</ele>
        <time>2020-12-19T11:07:20.000Z</time>
      </trkpt>
      <trkpt lat="47.10137" lon="-1.38084">
        <ele>102</ele>
        <time>2020-12-19T11:07:22.000Z</time>
      </trkpt>
      <trkpt lat="47.10151" lon="-1.38075">
        <ele>102</ele>
        <time>2020-12-19T11:07:24.000Z</time>
      </trkpt>
      <trkpt lat="47.10165" lon="-1.38063">
        <ele>102</ele>
        <time>2020-12-19T11:07:26.000Z</time>
      </trkpt>
      <trkpt lat="47.10177" lon="-1.3805">
        <ele>103</ele>
        <time>2020-12-19T11:07:28.000Z</time>
      </trkpt>
      <trkpt lat="47.1019" lon="-1.38037">
        <ele>102</ele>
        <time>2020-12-19T11:07:30.000Z</time>
      </trkpt>
      <trkpt lat="47.10204" lon="-1.38024">
        <ele>102</ele>
        <time>2020-12-19T11:07:32.000Z</time>
      </trkpt>
      <trkpt lat="47.10217" lon="-1.38011">
        <ele>102</ele>
        <time>2020-12-19T11:07:34.000Z</time>
      </trkpt>
      <trkpt lat="47.10231" lon="-1.37999">
        <ele>102</ele>
        <time>2020-12-19T11:07:36.000Z</time>
      </trkpt>
      <trkpt lat="47.10246" lon="-1.3799">
        <ele>101</ele>
        <time>2020-12-19T11:07:38.000Z</time>
      </trkpt>
      <trkpt lat="47.10261" lon="-1.37982">
        <ele>101</ele>
        <time>2020-12-19T11:07:40.000Z</time>
      </trkpt>
      <trkpt lat="47.10277" lon="-1.37976">
        <ele>102</ele>
        <time>2020-12-19T11:07:42.000Z</time>
      </trkpt>
      <trkpt lat="47.10293" lon="-1.37968">
        <ele>102</ele>
        <time>2020-12-19T11:07:44.000Z</time>
      </trkpt>
      <trkpt lat="47.10309" lon="-1.37962">
        <ele>102</ele>
        <time>2020-12-19T11:07:46.000Z</time>
      </trkpt>
      <trkpt lat="47.10324" lon="-1.37956">
        <ele>102</ele>
        <time>2020-12-19T11:07:48.000Z</time>
      </trkpt>
      <trkpt lat="47.10339" lon="-1.37949">
        <ele>102</ele>
        <time>2020-12-19T11:07:50.000Z</time>
      </trkpt>
      <trkpt lat="47.10354" lon="-1.37943">
        <ele>102</ele>
        <time>2020-12-19T11:07:52.000Z</time>
      </trkpt>
      <trkpt lat="47.10369" lon="-1.37937">
        <ele>102</ele>
        <time>2020-12-19T11:07:54.000Z</time>
      </trkpt>
      <trkpt lat="47.10383" lon="-1.37931">
        <ele>102</ele>
        <time>2020-12-19T11:07:56.000Z</time>
      </trkpt>
      <trkpt lat="47.10397" lon="-1.37924">
        <ele>102</ele>
        <time>2020-12-19T11:07:58.000Z</time>
      </trkpt>
      <trkpt lat="47.10412" lon="-1.37917">
        <ele>102</ele>
        <time>2020-12-19T11:08:00.000Z</time>
      </trkpt>
      <trkpt lat="47.10426" lon="-1.3791">
        <ele>102</ele>
        <time>2020-12-19T11:08:02.000Z</time>
      </trkpt>
      <trkpt lat="47.10441" lon="-1.37903">
        <ele>102</ele>
        <time>2020-12-19T11:08:04.000Z</time>
      </trkpt>
      <trkpt lat="47.10455" lon="-1.37895">
        <ele>102</ele>
        <time>2020-12-19T11:08:06.000Z</time>
      </trkpt>
      <trkpt lat="47.10468" lon="-1.37884">
        <ele>103</ele>
        <time>2020-12-19T11:08:08.000Z</time>
      </trkpt>
      <trkpt lat="47.10481" lon="-1.37873">
        <ele>103</ele>
        <time>2020-12-19T11:08:10.000Z</time>
      </trkpt>
      <trkpt lat="47.10493" lon="-1.37861">
        <ele>103</ele>
        <time>2020-12-19T11:08:12.000Z</time>
      </trkpt>
      <trkpt lat="47.10505" lon="-1.37849">
        <ele>103</ele>
        <time>2020-12-19T11:08:14.000Z</time>
      </trkpt>
      <trkpt lat="47.10516" lon="-1.37836">
        <ele>103</ele>
        <time>2020-12-19T11:08:16.000Z</time>
      </trkpt>
      <trkpt lat="47.10529" lon="-1.37823">
        <ele>102</ele>
        <time>2020-12-19T11:08:18.000Z</time>
      </trkpt>
      <trkpt lat="47.10543" lon="-1.37808">
        <ele>103</ele>
        <time>2020-12-19T11:08:20.000Z</time>
      </trkpt>
      <trkpt lat="47.10556" lon="-1.37793">
        <ele>104</ele>
        <time>2020-12-19T11:08:22.000Z</time>
      </trkpt>
      <trkpt lat="47.10569" lon="-1.37778">
        <ele>104</ele>
        <time>2020-12-19T11:08:24.000Z</time>
      </trkpt>
      <trkpt lat="47.10582" lon="-1.37764">
        <ele>104</ele>
        <time>2020-12-19T11:08:26.000Z</time>
      </trkpt>
      <trkpt lat="47.10594" lon="-1.37751">
        <ele>105</ele>
        <time>2020-12-19T11:08:28.000Z</time>
      </trkpt>
      <trkpt lat="47.10606" lon="-1.37737">
        <ele>105</ele>
        <time>2020-12-19T11:08:30.000Z</time>
      </trkpt>
      <trkpt lat="47.10618" lon="-1.37724">
        <ele>105</ele>
        <time>2020-12-19T11:08:32.000Z</time>
      </trkpt>
      <trkpt lat="47.10629" lon="-1.37711">
        <ele>105</ele>
        <time>2020-12-19T11:08:34.000Z</time>
      </trkpt>
      <trkpt lat="47.10641" lon="-1.37699">
        <ele>105</ele>
        <time>2020-12-19T11:08:36.000Z</time>
      </trkpt>
      <trkpt lat="47.10653" lon="-1.37686">
        <ele>105</ele>
        <time>2020-12-19T11:08:38.000Z</time>
      </trkpt>
      <trkpt lat="47.10665" lon="-1.37673">
        <ele>105</ele>
        <time>2020-12-19T11:08:40.000Z</time>
      </trkpt>
      <trkpt lat="47.10677" lon="-1.37659">
        <ele>106</ele>
        <time>2020-12-19T11:08:42.000Z</time>
      </trkpt>
      <trkpt lat="47.10689" lon="-1.37647">
        <ele>106</ele>
        <time>2020-12-19T11:08:44.000Z</time>
      </trkpt>
      <trkpt lat="47.10701" lon="-1.37634">
        <ele>106</ele>
        <time>2020-12-19T11:08:46.000Z</time>
      </trkpt>
      <trkpt lat="47.10713" lon="-1.37621">
        <ele>106</ele>
        <time>2020-12-19T11:08:48.000Z</time>
      </trkpt>
      <trkpt lat="47.10725" lon="-1.37608">
        <ele>106</ele>
        <time>2020-12-19T11:08:50.000Z</time>
      </trkpt>
      <trkpt lat="47.10737" lon="-1.37595">
        <ele>105</ele>
        <time>2020-12-19T11:08:52.000Z</time>
      </trkpt>
      <trkpt lat="47.10749" lon="-1.37582">
        <ele>106</ele>
        <time>2020-12-19T11:08:54.000Z</time>
      </trkpt>
      <trkpt lat="47.10761" lon="-1.37569">
        <ele>105</ele>
        <time>2020-12-19T11:08:56.000Z</time>
      </trkpt>
      <trkpt lat="47.10774" lon="-1.37556">
        <ele>105</ele>
        <time>2020-12-19T11:08:58.000Z</time>
      </trkpt>
      <trkpt lat="47.10785" lon="-1.37543">
        <ele>105</ele>
        <time>2020-12-19T11:09:00.000Z</time>
      </trkpt>
      <trkpt lat="47.10797" lon="-1.3753">
        <ele>105</ele>
        <time>2020-12-19T11:09:02.000Z</time>
      </trkpt>
      <trkpt lat="47.10809" lon="-1.37516">
        <ele>105</ele>
        <time>2020-12-19T11:09:04.000Z</time>
      </trkpt>
      <trkpt lat="47.10821" lon="-1.37502">
        <ele>105</ele>
        <time>2020-12-19T11:09:06.000Z</time>
      </trkpt>
      <trkpt lat="47.10833" lon="-1.37488">
        <ele>105</ele>
        <time>2020-12-19T11:09:08.000Z</time>
      </trkpt>
      <trkpt lat="47.10845" lon="-1.37475">
        <ele>105</ele>
        <time>2020-12-19T11:09:10.000Z</time>
      </trkpt>
      <trkpt lat="47.10857" lon="-1.3746">
        <ele>105</ele>
        <time>2020-12-19T11:09:12.000Z</time>
      </trkpt>
      <trkpt lat="47.1087" lon="-1.37447">
        <ele>105</ele>
        <time>2020-12-19T11:09:14.000Z</time>
      </trkpt>
      <trkpt lat="47.10882" lon="-1.37434">
        <ele>106</ele>
        <time>2020-12-19T11:09:16.000Z</time>
      </trkpt>
      <trkpt lat="47.10894" lon="-1.3742">
        <ele>105</ele>
        <time>2020-12-19T11:09:18.000Z</time>
      </trkpt>
      <trkpt lat="47.10906" lon="-1.37407">
        <ele>106</ele>
        <time>2020-12-19T11:09:20.000Z</time>
      </trkpt>
      <trkpt lat="47.10919" lon="-1.37393">
        <ele>106</ele>
        <time>2020-12-19T11:09:22.000Z</time>
      </trkpt>
      <trkpt lat="47.10931" lon="-1.37379">
        <ele>106</ele>
        <time>2020-12-19T11:09:24.000Z</time>
      </trkpt>
      <trkpt lat="47.10944" lon="-1.37366">
        <ele>106</ele>
        <time>2020-12-19T11:09:26.000Z</time>
      </trkpt>
      <trkpt lat="47.10956" lon="-1.37352">
        <ele>106</ele>
        <time>2020-12-19T11:09:28.000Z</time>
      </trkpt>
      <trkpt lat="47.10969" lon="-1.37339">
        <ele>106</ele>
        <time>2020-12-19T11:09:30.000Z</time>
      </trkpt>
      <trkpt lat="47.10981" lon="-1.37325">
        <ele>106</ele>
        <time>2020-12-19T11:09:32.000Z</time>
      </trkpt>
      <trkpt lat="47.10994" lon="-1.37312">
        <ele>106</ele>
        <time>2020-12-19T11:09:34.000Z</time>
      </trkpt>
      <trkpt lat="47.11006" lon="-1.37298">
        <ele>106</ele>
        <time>2020-12-19T11:09:36.000Z</time>
      </trkpt>
      <trkpt lat="47.11018" lon="-1.37285">
        <ele>106</ele>
        <time>2020-12-19T11:09:38.000Z</time>
      </trkpt>
      <trkpt lat="47.1103" lon="-1.37272">
        <ele>106</ele>
        <time>2020-12-19T11:09:40.000Z</time>
      </trkpt>
      <trkpt lat="47.11042" lon="-1.37259">
        <ele>106</ele>
        <time>2020-12-19T11:09:42.000Z</time>
      </trkpt>
      <trkpt lat="47.11054" lon="-1.37245">
        <ele>106</ele>
        <time>2020-12-19T11:09:44.000Z</time>
      </trkpt>
      <trkpt lat="47.11066" lon="-1.37232">
        <ele>106</ele>
        <time>2020-12-19T11:09:46.000Z</time>
      </trkpt>
      <trkpt lat="47.11078" lon="-1.37219">
        <ele>107</ele>
        <time>2020-12-19T11:09:48.000Z</time>
      </trkpt>
      <trkpt lat="47.1109" lon="-1.37206">
        <ele>107</ele>
        <time>2020-12-19T11:09:50.000Z</time>
      </trkpt>
      <trkpt lat="47.11102" lon="-1.37192">
        <ele>107</ele>
        <time>2020-12-19T11:09:52.000Z</time>
      </trkpt>
      <trkpt lat="47.11114" lon="-1.37179">
        <ele>107</ele>
        <time>2020-12-19T11:09:54.000Z</time>
      </trkpt>
      <trkpt lat="47.11127" lon="-1.37166">
        <ele>107</ele>
        <time>2020-12-19T11:09:56.000Z</time>
      </trkpt>
      <trkpt lat="47.11139" lon="-1.37153">
        <ele>107</ele>
        <time>2020-12-19T11:09:58.000Z</time>
      </trkpt>
      <trkpt lat="47.11151" lon="-1.37142">
        <ele>107</ele>
        <time>2020-12-19T11:10:00.000Z</time>
      </trkpt>
      <trkpt lat="47.11164" lon="-1.37131">
        <ele>107</ele>
        <time>2020-12-19T11:10:02.000Z</time>
      </trkpt>
      <trkpt lat="47.11177" lon="-1.3712">
        <ele>107</ele>
        <time>2020-12-19T11:10:04.000Z</time>
      </trkpt>
      <trkpt lat="47.11191" lon="-1.3711">
        <ele>107</ele>
        <time>2020-12-19T11:10:06.000Z</time>
      </trkpt>
      <trkpt lat="47.11205" lon="-1.371">
        <ele>106</ele>
        <time>2020-12-19T11:10:08.000Z</time>
      </trkpt>
      <trkpt lat="47.1122" lon="-1.37089">
        <ele>106</ele>
        <time>2020-12-19T11:10:10.000Z</time>
      </trkpt>
      <trkpt lat="47.11234" lon="-1.37078">
        <ele>105</ele>
        <time>2020-12-19T11:10:12.000Z</time>
      </trkpt>
      <trkpt lat="47.11249" lon="-1.37066">
        <ele>105</ele>
        <time>2020-12-19T11:10:14.000Z</time>
      </trkpt>
      <trkpt lat="47.11265" lon="-1.37055">
        <ele>105</ele>
        <time>2020-12-19T11:10:16.000Z</time>
      </trkpt>
      <trkpt lat="47.11281" lon="-1.37044">
        <ele>104</ele>
        <time>2020-12-19T11:10:18.000Z</time>
      </trkpt>
      <trkpt lat="47.11296" lon="-1.37033">
        <ele>104</ele>
        <time>2020-12-19T11:10:20.000Z</time>
      </trkpt>
      <trkpt lat="47.11312" lon="-1.37021">
        <ele>103</ele>
        <time>2020-12-19T11:10:22.000Z</time>
      </trkpt>
      <trkpt lat="47.11328" lon="-1.37009">
        <ele>103</ele>
        <time>2020-12-19T11:10:24.000Z</time>
      </trkpt>
      <trkpt lat="47.11336" lon="-1.37004">
        <ele>103</ele>
        <time>2020-12-19T11:10:25.000Z</time>
      </trkpt>
      <trkpt lat="47.11352" lon="-1.36992">
        <ele>102</ele>
        <time>2020-12-19T11:10:27.000Z</time>
      </trkpt>
      <trkpt lat="47.11361" lon="-1.36987">
        <ele>102</ele>
        <time>2020-12-19T11:10:28.000Z</time>
      </trkpt>
      <trkpt lat="47.11369" lon="-1.3698">
        <ele>102</ele>
        <time>2020-12-19T11:10:29.000Z</time>
      </trkpt>
      <trkpt lat="47.11377" lon="-1.36973">
        <ele>102</ele>
        <time>2020-12-19T11:10:30.000Z</time>
      </trkpt>
      <trkpt lat="47.11385" lon="-1.36966">
        <ele>101</ele>
        <time>2020-12-19T11:10:31.000Z</time>
      </trkpt>
      <trkpt lat="47.11393" lon="-1.36958">
        <ele>101</ele>
        <time>2020-12-19T11:10:32.000Z</time>
      </trkpt>
      <trkpt lat="47.114" lon="-1.36948">
        <ele>101</ele>
        <time>2020-12-19T11:10:33.000Z</time>
      </trkpt>
      <trkpt lat="47.11407" lon="-1.36938">
        <ele>101</ele>
        <time>2020-12-19T11:10:34.000Z</time>
      </trkpt>
      <trkpt lat="47.11413" lon="-1.36927">
        <ele>101</ele>
        <time>2020-12-19T11:10:35.000Z</time>
      </trkpt>
      <trkpt lat="47.11418" lon="-1.36915">
        <ele>101</ele>
        <time>2020-12-19T11:10:36.000Z</time>
      </trkpt>
      <trkpt lat="47.11423" lon="-1.36902">
        <ele>101</ele>
        <time>2020-12-19T11:10:37.000Z</time>
      </trkpt>
      <trkpt lat="47.11427" lon="-1.3689">
        <ele>101</ele>
        <time>2020-12-19T11:10:38.000Z</time>
      </trkpt>
      <trkpt lat="47.11432" lon="-1.36877">
        <ele>100</ele>
        <time>2020-12-19T11:10:39.000Z</time>
      </trkpt>
      <trkpt lat="47.11436" lon="-1.36865">
        <ele>100</ele>
        <time>2020-12-19T11:10:40.000Z</time>
      </trkpt>
      <trkpt lat="47.11441" lon="-1.36853">
        <ele>100</ele>
        <time>2020-12-19T11:10:41.000Z</time>
      </trkpt>
      <trkpt lat="47.11446" lon="-1.36841">
        <ele>100</ele>
        <time>2020-12-19T11:10:42.000Z</time>
      </trkpt>
      <trkpt lat="47.11452" lon="-1.3683">
        <ele>100</ele>
        <time>2020-12-19T11:10:43.000Z</time>
      </trkpt>
      <trkpt lat="47.11458" lon="-1.36818">
        <ele>99</ele>
        <time>2020-12-19T11:10:44.000Z</time>
      </trkpt>
      <trkpt lat="47.11464" lon="-1.36808">
        <ele>99</ele>
        <time>2020-12-19T11:10:45.000Z</time>
      </trkpt>
      <trkpt lat="47.11471" lon="-1.36798">
        <ele>99</ele>
        <time>2020-12-19T11:10:46.000Z</time>
      </trkpt>
      <trkpt lat="47.11478" lon="-1.36789">
        <ele>98</ele>
        <time>2020-12-19T11:10:47.000Z</time>
      </trkpt>
      <trkpt lat="47.11486" lon="-1.3678">
        <ele>98</ele>
        <time>2020-12-19T11:10:48.000Z</time>
      </trkpt>
      <trkpt lat="47.11494" lon="-1.36771">
        <ele>98</ele>
        <time>2020-12-19T11:10:49.000Z</time>
      </trkpt>
      <trkpt lat="47.11502" lon="-1.36763">
        <ele>98</ele>
        <time>2020-12-19T11:10:50.000Z</time>
      </trkpt>
      <trkpt lat="47.1151" lon="-1.36755">
        <ele>98</ele>
        <time>2020-12-19T11:10:51.000Z</time>
      </trkpt>
      <trkpt lat="47.11518" lon="-1.36747">
        <ele>98</ele>
        <time>2020-12-19T11:10:52.000Z</time>
      </trkpt>
      <trkpt lat="47.11526" lon="-1.3674">
        <ele>98</ele>
        <time>2020-12-19T11:10:53.000Z</time>
      </trkpt>
      <trkpt lat="47.11534" lon="-1.36731">
        <ele>98</ele>
        <time>2020-12-19T11:10:54.000Z</time>
      </trkpt>
      <trkpt lat="47.11543" lon="-1.36723">
        <ele>98</ele>
        <time>2020-12-19T11:10:55.000Z</time>
      </trkpt>
      <trkpt lat="47.11551" lon="-1.36715">
        <ele>98</ele>
        <time>2020-12-19T11:10:56.000Z</time>
      </trkpt>
      <trkpt lat="47.1156" lon="-1.36707">
        <ele>98</ele>
        <time>2020-12-19T11:10:57.000Z</time>
      </trkpt>
      <trkpt lat="47.11568" lon="-1.367">
        <ele>98</ele>
        <time>2020-12-19T11:10:58.000Z</time>
      </trkpt>
      <trkpt lat="47.11575" lon="-1.36692">
        <ele>98</ele>
        <time>2020-12-19T11:10:59.000Z</time>
      </trkpt>
      <trkpt lat="47.11583" lon="-1.36684">
        <ele>98</ele>
        <time>2020-12-19T11:11:00.000Z</time>
      </trkpt>
      <trkpt lat="47.11592" lon="-1.36676">
        <ele>98</ele>
        <time>2020-12-19T11:11:01.000Z</time>
      </trkpt>
      <trkpt lat="47.11599" lon="-1.36669">
        <ele>98</ele>
        <time>2020-12-19T11:11:02.000Z</time>
      </trkpt>
      <trkpt lat="47.11614" lon="-1.36654">
        <ele>98</ele>
        <time>2020-12-19T11:11:04.000Z</time>
      </trkpt>
      <trkpt lat="47.11629" lon="-1.3664">
        <ele>99</ele>
        <time>2020-12-19T11:11:06.000Z</time>
      </trkpt>
      <trkpt lat="47.11643" lon="-1.36627">
        <ele>99</ele>
        <time>2020-12-19T11:11:08.000Z</time>
      </trkpt>
      <trkpt lat="47.11658" lon="-1.36614">
        <ele>99</ele>
        <time>2020-12-19T11:11:10.000Z</time>
      </trkpt>
      <trkpt lat="47.11671" lon="-1.36601">
        <ele>99</ele>
        <time>2020-12-19T11:11:12.000Z</time>
      </trkpt>
      <trkpt lat="47.11685" lon="-1.36587">
        <ele>100</ele>
        <time>2020-12-19T11:11:14.000Z</time>
      </trkpt>
      <trkpt lat="47.11698" lon="-1.36574">
        <ele>101</ele>
        <time>2020-12-19T11:11:16.000Z</time>
      </trkpt>
      <trkpt lat="47.11712" lon="-1.36561">
        <ele>100</ele>
        <time>2020-12-19T11:11:18.000Z</time>
      </trkpt>
      <trkpt lat="47.11724" lon="-1.36549">
        <ele>100</ele>
        <time>2020-12-19T11:11:20.000Z</time>
      </trkpt>
      <trkpt lat="47.11737" lon="-1.36536">
        <ele>100</ele>
        <time>2020-12-19T11:11:22.000Z</time>
      </trkpt>
      <trkpt lat="47.1175" lon="-1.36525">
        <ele>99</ele>
        <time>2020-12-19T11:11:24.000Z</time>
      </trkpt>
      <trkpt lat="47.11764" lon="-1.36515">
        <ele>99</ele>
        <time>2020-12-19T11:11:26.000Z</time>
      </trkpt>
      <trkpt lat="47.11777" lon="-1.36506">
        <ele>98</ele>
        <time>2020-12-19T11:11:28.000Z</time>
      </trkpt>
      <trkpt lat="47.11791" lon="-1.36498">
        <ele>98</ele>
        <time>2020-12-19T11:11:30.000Z</time>
      </trkpt>
      <trkpt lat="47.11806" lon="-1.36491">
        <ele>98</ele>
        <time>2020-12-19T11:11:32.000Z</time>
      </trkpt>
      <trkpt lat="47.1182" lon="-1.36482">
        <ele>98</ele>
        <time>2020-12-19T11:11:34.000Z</time>
      </trkpt>
      <trkpt lat="47.11834" lon="-1.36474">
        <ele>98</ele>
        <time>2020-12-19T11:11:36.000Z</time>
      </trkpt>
      <trkpt lat="47.11847" lon="-1.36466">
        <ele>98</ele>
        <time>2020-12-19T11:11:38.000Z</time>
      </trkpt>
      <trkpt lat="47.11857" lon="-1.3646">
        <ele>98</ele>
        <time>2020-12-19T11:11:40.000Z</time>
      </trkpt>
      <trkpt lat="47.11865" lon="-1.36453">
        <ele>98</ele>
        <time>2020-12-19T11:11:42.000Z</time>
      </trkpt>
      <trkpt lat="47.11872" lon="-1.36446">
        <ele>98</ele>
        <time>2020-12-19T11:11:44.000Z</time>
      </trkpt>
      <trkpt lat="47.11881" lon="-1.3644">
        <ele>98</ele>
        <time>2020-12-19T11:11:46.000Z</time>
      </trkpt>
      <trkpt lat="47.11893" lon="-1.36436">
        <ele>98</ele>
        <time>2020-12-19T11:11:48.000Z</time>
      </trkpt>
      <trkpt lat="47.11906" lon="-1.36428">
        <ele>98</ele>
        <time>2020-12-19T11:11:50.000Z</time>
      </trkpt>
      <trkpt lat="47.1192" lon="-1.36419">
        <ele>97</ele>
        <time>2020-12-19T11:11:52.000Z</time>
      </trkpt>
      <trkpt lat="47.11934" lon="-1.36411">
        <ele>97</ele>
        <time>2020-12-19T11:11:54.000Z</time>
      </trkpt>
      <trkpt lat="47.11949" lon="-1.36402">
        <ele>96</ele>
        <time>2020-12-19T11:11:56.000Z</time>
      </trkpt>
      <trkpt lat="47.11964" lon="-1.36394">
        <ele>96</ele>
        <time>2020-12-19T11:11:58.000Z</time>
      </trkpt>
      <trkpt lat="47.11979" lon="-1.36384">
        <ele>96</ele>
        <time>2020-12-19T11:12:00.000Z</time>
      </trkpt>
      <trkpt lat="47.11994" lon="-1.36375">
        <ele>95</ele>
        <time>2020-12-19T11:12:02.000Z</time>
      </trkpt>
      <trkpt lat="47.1201" lon="-1.36365">
        <ele>95</ele>
        <time>2020-12-19T11:12:04.000Z</time>
      </trkpt>
      <trkpt lat="47.12026" lon="-1.36356">
        <ele>94</ele>
        <time>2020-12-19T11:12:06.000Z</time>
      </trkpt>
      <trkpt lat="47.12041" lon="-1.36347">
        <ele>93</ele>
        <time>2020-12-19T11:12:08.000Z</time>
      </trkpt>
      <trkpt lat="47.12057" lon="-1.36338">
        <ele>93</ele>
        <time>2020-12-19T11:12:10.000Z</time>
      </trkpt>
      <trkpt lat="47.12073" lon="-1.36328">
        <ele>93</ele>
        <time>2020-12-19T11:12:12.000Z</time>
      </trkpt>
      <trkpt lat="47.12089" lon="-1.36318">
        <ele>93</ele>
        <time>2020-12-19T11:12:14.000Z</time>
      </trkpt>
      <trkpt lat="47.12105" lon="-1.36308">
        <ele>92</ele>
        <time>2020-12-19T11:12:16.000Z</time>
      </trkpt>
      <trkpt lat="47.12121" lon="-1.36298">
        <ele>92</ele>
        <time>2020-12-19T11:12:18.000Z</time>
      </trkpt>
      <trkpt lat="47.12137" lon="-1.36288">
        <ele>92</ele>
        <time>2020-12-19T11:12:20.000Z</time>
      </trkpt>
      <trkpt lat="47.12152" lon="-1.36278">
        <ele>92</ele>
        <time>2020-12-19T11:12:22.000Z</time>
      </trkpt>
      <trkpt lat="47.12167" lon="-1.36268">
        <ele>92</ele>
        <time>2020-12-19T11:12:24.000Z</time>
      </trkpt>
      <trkpt lat="47.12183" lon="-1.36258">
        <ele>92</ele>
        <time>2020-12-19T11:12:26.000Z</time>
      </trkpt>
      <trkpt lat="47.12198" lon="-1.36249">
        <ele>92</ele>
        <time>2020-12-19T11:12:28.000Z</time>
      </trkpt>
      <trkpt lat="47.12213" lon="-1.3624">
        <ele>92</ele>
        <time>2020-12-19T11:12:30.000Z</time>
      </trkpt>
      <trkpt lat="47.12228" lon="-1.36231">
        <ele>92</ele>
        <time>2020-12-19T11:12:32.000Z</time>
      </trkpt>
      <trkpt lat="47.12243" lon="-1.36222">
        <ele>93</ele>
        <time>2020-12-19T11:12:34.000Z</time>
      </trkpt>
      <trkpt lat="47.12258" lon="-1.36212">
        <ele>93</ele>
        <time>2020-12-19T11:12:36.000Z</time>
      </trkpt>
      <trkpt lat="47.12273" lon="-1.36203">
        <ele>93</ele>
        <time>2020-12-19T11:12:38.000Z</time>
      </trkpt>
      <trkpt lat="47.12287" lon="-1.36193">
        <ele>93</ele>
        <time>2020-12-19T11:12:40.000Z</time>
      </trkpt>
      <trkpt lat="47.12302" lon="-1.36184">
        <ele>92</ele>
        <time>2020-12-19T11:12:42.000Z</time>
      </trkpt>
      <trkpt lat="47.12317" lon="-1.36175">
        <ele>92</ele>
        <time>2020-12-19T11:12:44.000Z</time>
      </trkpt>
      <trkpt lat="47.12331" lon="-1.36165">
        <ele>92</ele>
        <time>2020-12-19T11:12:46.000Z</time>
      </trkpt>
      <trkpt lat="47.12345" lon="-1.36156">
        <ele>92</ele>
        <time>2020-12-19T11:12:48.000Z</time>
      </trkpt>
      <trkpt lat="47.12359" lon="-1.36147">
        <ele>92</ele>
        <time>2020-12-19T11:12:50.000Z</time>
      </trkpt>
      <trkpt lat="47.12372" lon="-1.36138">
        <ele>93</ele>
        <time>2020-12-19T11:12:52.000Z</time>
      </trkpt>
      <trkpt lat="47.12386" lon="-1.3613">
        <ele>94</ele>
        <time>2020-12-19T11:12:54.000Z</time>
      </trkpt>
      <trkpt lat="47.12399" lon="-1.36121">
        <ele>94</ele>
        <time>2020-12-19T11:12:56.000Z</time>
      </trkpt>
      <trkpt lat="47.12412" lon="-1.36111">
        <ele>94</ele>
        <time>2020-12-19T11:12:58.000Z</time>
      </trkpt>
      <trkpt lat="47.12425" lon="-1.36099">
        <ele>94</ele>
        <time>2020-12-19T11:13:00.000Z</time>
      </trkpt>
      <trkpt lat="47.12438" lon="-1.36087">
        <ele>94</ele>
        <time>2020-12-19T11:13:02.000Z</time>
      </trkpt>
      <trkpt lat="47.12451" lon="-1.36076">
        <ele>94</ele>
        <time>2020-12-19T11:13:04.000Z</time>
      </trkpt>
      <trkpt lat="47.12464" lon="-1.36065">
        <ele>94</ele>
        <time>2020-12-19T11:13:06.000Z</time>
      </trkpt>
      <trkpt lat="47.12477" lon="-1.36053">
        <ele>94</ele>
        <time>2020-12-19T11:13:08.000Z</time>
      </trkpt>
      <trkpt lat="47.1249" lon="-1.36041">
        <ele>93</ele>
        <time>2020-12-19T11:13:10.000Z</time>
      </trkpt>
      <trkpt lat="47.12504" lon="-1.36028">
        <ele>93</ele>
        <time>2020-12-19T11:13:12.000Z</time>
      </trkpt>
      <trkpt lat="47.12518" lon="-1.36015">
        <ele>93</ele>
        <time>2020-12-19T11:13:14.000Z</time>
      </trkpt>
      <trkpt lat="47.12532" lon="-1.36003">
        <ele>92</ele>
        <time>2020-12-19T11:13:16.000Z</time>
      </trkpt>
      <trkpt lat="47.12546" lon="-1.3599">
        <ele>92</ele>
        <time>2020-12-19T11:13:18.000Z</time>
      </trkpt>
      <trkpt lat="47.12561" lon="-1.35977">
        <ele>91</ele>
        <time>2020-12-19T11:13:20.000Z</time>
      </trkpt>
      <trkpt lat="47.12576" lon="-1.35964">
        <ele>91</ele>
        <time>2020-12-19T11:13:22.000Z</time>
      </trkpt>
      <trkpt lat="47.12591" lon="-1.3595">
        <ele>90</ele>
        <time>2020-12-19T11:13:24.000Z</time>
      </trkpt>
      <trkpt lat="47.12607" lon="-1.35937">
        <ele>89</ele>
        <time>2020-12-19T11:13:26.000Z</time>
      </trkpt>
      <trkpt lat="47.12622" lon="-1.35922">
        <ele>89</ele>
        <time>2020-12-19T11:13:28.000Z</time>
      </trkpt>
      <trkpt lat="47.1263" lon="-1.35915">
        <ele>89</ele>
        <time>2020-12-19T11:13:29.000Z</time>
      </trkpt>
      <trkpt lat="47.12638" lon="-1.35908">
        <ele>89</ele>
        <time>2020-12-19T11:13:30.000Z</time>
      </trkpt>
      <trkpt lat="47.12646" lon="-1.35901">
        <ele>88</ele>
        <time>2020-12-19T11:13:31.000Z</time>
      </trkpt>
      <trkpt lat="47.12654" lon="-1.35894">
        <ele>88</ele>
        <time>2020-12-19T11:13:32.000Z</time>
      </trkpt>
      <trkpt lat="47.12662" lon="-1.35886">
        <ele>88</ele>
        <time>2020-12-19T11:13:33.000Z</time>
      </trkpt>
      <trkpt lat="47.1267" lon="-1.3588">
        <ele>88</ele>
        <time>2020-12-19T11:13:34.000Z</time>
      </trkpt>
      <trkpt lat="47.12679" lon="-1.35872">
        <ele>87</ele>
        <time>2020-12-19T11:13:35.000Z</time>
      </trkpt>
      <trkpt lat="47.12687" lon="-1.35864">
        <ele>87</ele>
        <time>2020-12-19T11:13:36.000Z</time>
      </trkpt>
      <trkpt lat="47.12695" lon="-1.35857">
        <ele>87</ele>
        <time>2020-12-19T11:13:37.000Z</time>
      </trkpt>
      <trkpt lat="47.12704" lon="-1.35849">
        <ele>86</ele>
        <time>2020-12-19T11:13:38.000Z</time>
      </trkpt>
      <trkpt lat="47.12711" lon="-1.3584">
        <ele>86</ele>
        <time>2020-12-19T11:13:39.000Z</time>
      </trkpt>
      <trkpt lat="47.1272" lon="-1.35831">
        <ele>86</ele>
        <time>2020-12-19T11:13:40.000Z</time>
      </trkpt>
      <trkpt lat="47.12728" lon="-1.35823">
        <ele>86</ele>
        <time>2020-12-19T11:13:41.000Z</time>
      </trkpt>
      <trkpt lat="47.12736" lon="-1.35816">
        <ele>85</ele>
        <time>2020-12-19T11:13:42.000Z</time>
      </trkpt>
      <trkpt lat="47.12744" lon="-1.35809">
        <ele>85</ele>
        <time>2020-12-19T11:13:43.000Z</time>
      </trkpt>
      <trkpt lat="47.12753" lon="-1.35803">
        <ele>85</ele>
        <time>2020-12-19T11:13:44.000Z</time>
      </trkpt>
      <trkpt lat="47.12761" lon="-1.35797">
        <ele>84</ele>
        <time>2020-12-19T11:13:45.000Z</time>
      </trkpt>
      <trkpt lat="47.1277" lon="-1.35791">
        <ele>84</ele>
        <time>2020-12-19T11:13:46.000Z</time>
      </trkpt>
      <trkpt lat="47.12778" lon="-1.35786">
        <ele>84</ele>
        <time>2020-12-19T11:13:47.000Z</time>
      </trkpt>
      <trkpt lat="47.12795" lon="-1.35777">
        <ele>83</ele>
        <time>2020-12-19T11:13:49.000Z</time>
      </trkpt>
      <trkpt lat="47.12803" lon="-1.35773">
        <ele>83</ele>
        <time>2020-12-19T11:13:50.000Z</time>
      </trkpt>
      <trkpt lat="47.12813" lon="-1.3577">
        <ele>83</ele>
        <time>2020-12-19T11:13:51.000Z</time>
      </trkpt>
      <trkpt lat="47.1283" lon="-1.35764">
        <ele>83</ele>
        <time>2020-12-19T11:13:53.000Z</time>
      </trkpt>
      <trkpt lat="47.12847" lon="-1.35757">
        <ele>82</ele>
        <time>2020-12-19T11:13:55.000Z</time>
      </trkpt>
      <trkpt lat="47.12864" lon="-1.35751">
        <ele>82</ele>
        <time>2020-12-19T11:13:57.000Z</time>
      </trkpt>
      <trkpt lat="47.1288" lon="-1.35745">
        <ele>82</ele>
        <time>2020-12-19T11:13:59.000Z</time>
      </trkpt>
      <trkpt lat="47.12896" lon="-1.3574">
        <ele>82</ele>
        <time>2020-12-19T11:14:01.000Z</time>
      </trkpt>
      <trkpt lat="47.12913" lon="-1.35734">
        <ele>83</ele>
        <time>2020-12-19T11:14:03.000Z</time>
      </trkpt>
      <trkpt lat="47.12929" lon="-1.35728">
        <ele>83</ele>
        <time>2020-12-19T11:14:05.000Z</time>
      </trkpt>
      <trkpt lat="47.12944" lon="-1.35722">
        <ele>83</ele>
        <time>2020-12-19T11:14:07.000Z</time>
      </trkpt>
      <trkpt lat="47.12958" lon="-1.35717">
        <ele>84</ele>
        <time>2020-12-19T11:14:09.000Z</time>
      </trkpt>
      <trkpt lat="47.12973" lon="-1.35711">
        <ele>84</ele>
        <time>2020-12-19T11:14:11.000Z</time>
      </trkpt>
      <trkpt lat="47.12988" lon="-1.35705">
        <ele>84</ele>
        <time>2020-12-19T11:14:13.000Z</time>
      </trkpt>
      <trkpt lat="47.13003" lon="-1.35698">
        <ele>84</ele>
        <time>2020-12-19T11:14:15.000Z</time>
      </trkpt>
      <trkpt lat="47.13017" lon="-1.35691">
        <ele>83</ele>
        <time>2020-12-19T11:14:17.000Z</time>
      </trkpt>
      <trkpt lat="47.13032" lon="-1.35685">
        <ele>83</ele>
        <time>2020-12-19T11:14:19.000Z</time>
      </trkpt>
      <trkpt lat="47.13047" lon="-1.3568">
        <ele>83</ele>
        <time>2020-12-19T11:14:21.000Z</time>
      </trkpt>
      <trkpt lat="47.13062" lon="-1.35675">
        <ele>82</ele>
        <time>2020-12-19T11:14:23.000Z</time>
      </trkpt>
      <trkpt lat="47.13078" lon="-1.35669">
        <ele>82</ele>
        <time>2020-12-19T11:14:25.000Z</time>
      </trkpt>
      <trkpt lat="47.13092" lon="-1.3566">
        <ele>81</ele>
        <time>2020-12-19T11:14:27.000Z</time>
      </trkpt>
      <trkpt lat="47.13108" lon="-1.3565">
        <ele>80</ele>
        <time>2020-12-19T11:14:29.000Z</time>
      </trkpt>
      <trkpt lat="47.13123" lon="-1.35639">
        <ele>80</ele>
        <time>2020-12-19T11:14:31.000Z</time>
      </trkpt>
      <trkpt lat="47.13135" lon="-1.35623">
        <ele>80</ele>
        <time>2020-12-19T11:14:33.000Z</time>
      </trkpt>
      <trkpt lat="47.13144" lon="-1.35603">
        <ele>80</ele>
        <time>2020-12-19T11:14:35.000Z</time>
      </trkpt>
      <trkpt lat="47.13148" lon="-1.35581">
        <ele>79</ele>
        <time>2020-12-19T11:14:37.000Z</time>
      </trkpt>
      <trkpt lat="47.13151" lon="-1.35564">
        <ele>79</ele>
        <time>2020-12-19T11:14:39.000Z</time>
      </trkpt>
      <trkpt lat="47.13158" lon="-1.35547">
        <ele>78</ele>
        <time>2020-12-19T11:14:42.000Z</time>
      </trkpt>
      <trkpt lat="47.13171" lon="-1.35538">
        <ele>79</ele>
        <time>2020-12-19T11:14:44.000Z</time>
      </trkpt>
      <trkpt lat="47.13184" lon="-1.35526">
        <ele>78</ele>
        <time>2020-12-19T11:14:46.000Z</time>
      </trkpt>
      <trkpt lat="47.13194" lon="-1.35511">
        <ele>78</ele>
        <time>2020-12-19T11:14:48.000Z</time>
      </trkpt>
      <trkpt lat="47.13207" lon="-1.35496">
        <ele>77</ele>
        <time>2020-12-19T11:14:50.000Z</time>
      </trkpt>
      <trkpt lat="47.1322" lon="-1.35481">
        <ele>76</ele>
        <time>2020-12-19T11:14:52.000Z</time>
      </trkpt>
      <trkpt lat="47.13233" lon="-1.35466">
        <ele>75</ele>
        <time>2020-12-19T11:14:54.000Z</time>
      </trkpt>
      <trkpt lat="47.13246" lon="-1.3545">
        <ele>75</ele>
        <time>2020-12-19T11:14:56.000Z</time>
      </trkpt>
      <trkpt lat="47.13258" lon="-1.35433">
        <ele>75</ele>
        <time>2020-12-19T11:14:58.000Z</time>
      </trkpt>
      <trkpt lat="47.13271" lon="-1.35417">
        <ele>75</ele>
        <time>2020-12-19T11:15:00.000Z</time>
      </trkpt>
      <trkpt lat="47.13283" lon="-1.35401">
        <ele>75</ele>
        <time>2020-12-19T11:15:02.000Z</time>
      </trkpt>
      <trkpt lat="47.13296" lon="-1.35385">
        <ele>74</ele>
        <time>2020-12-19T11:15:04.000Z</time>
      </trkpt>
      <trkpt lat="47.13311" lon="-1.35372">
        <ele>73</ele>
        <time>2020-12-19T11:15:06.000Z</time>
      </trkpt>
      <trkpt lat="47.1332" lon="-1.35367">
        <ele>72</ele>
        <time>2020-12-19T11:15:07.000Z</time>
      </trkpt>
      <trkpt lat="47.13336" lon="-1.35356">
        <ele>72</ele>
        <time>2020-12-19T11:15:09.000Z</time>
      </trkpt>
      <trkpt lat="47.13353" lon="-1.35349">
        <ele>71</ele>
        <time>2020-12-19T11:15:11.000Z</time>
      </trkpt>
      <trkpt lat="47.1337" lon="-1.35342">
        <ele>71</ele>
        <time>2020-12-19T11:15:13.000Z</time>
      </trkpt>
      <trkpt lat="47.13379" lon="-1.3534">
        <ele>70</ele>
        <time>2020-12-19T11:15:14.000Z</time>
      </trkpt>
      <trkpt lat="47.13397" lon="-1.35336">
        <ele>70</ele>
        <time>2020-12-19T11:15:16.000Z</time>
      </trkpt>
      <trkpt lat="47.13406" lon="-1.35336">
        <ele>70</ele>
        <time>2020-12-19T11:15:17.000Z</time>
      </trkpt>
      <trkpt lat="47.13415" lon="-1.35335">
        <ele>70</ele>
        <time>2020-12-19T11:15:18.000Z</time>
      </trkpt>
      <trkpt lat="47.13425" lon="-1.35334">
        <ele>70</ele>
        <time>2020-12-19T11:15:19.000Z</time>
      </trkpt>
      <trkpt lat="47.13443" lon="-1.35332">
        <ele>69</ele>
        <time>2020-12-19T11:15:21.000Z</time>
      </trkpt>
      <trkpt lat="47.13453" lon="-1.35332">
        <ele>69</ele>
        <time>2020-12-19T11:15:22.000Z</time>
      </trkpt>
      <trkpt lat="47.13462" lon="-1.35331">
        <ele>69</ele>
        <time>2020-12-19T11:15:23.000Z</time>
      </trkpt>
      <trkpt lat="47.13472" lon="-1.35331">
        <ele>68</ele>
        <time>2020-12-19T11:15:24.000Z</time>
      </trkpt>
      <trkpt lat="47.13482" lon="-1.35332">
        <ele>68</ele>
        <time>2020-12-19T11:15:25.000Z</time>
      </trkpt>
      <trkpt lat="47.13491" lon="-1.35333">
        <ele>68</ele>
        <time>2020-12-19T11:15:26.000Z</time>
      </trkpt>
      <trkpt lat="47.13501" lon="-1.35335">
        <ele>68</ele>
        <time>2020-12-19T11:15:27.000Z</time>
      </trkpt>
      <trkpt lat="47.1351" lon="-1.35337">
        <ele>67</ele>
        <time>2020-12-19T11:15:28.000Z</time>
      </trkpt>
      <trkpt lat="47.13519" lon="-1.3534">
        <ele>67</ele>
        <time>2020-12-19T11:15:29.000Z</time>
      </trkpt>
      <trkpt lat="47.13537" lon="-1.35347">
        <ele>65</ele>
        <time>2020-12-19T11:15:31.000Z</time>
      </trkpt>
      <trkpt lat="47.13546" lon="-1.3535">
        <ele>65</ele>
        <time>2020-12-19T11:15:32.000Z</time>
      </trkpt>
      <trkpt lat="47.13554" lon="-1.35353">
        <ele>65</ele>
        <time>2020-12-19T11:15:33.000Z</time>
      </trkpt>
      <trkpt lat="47.13571" lon="-1.35359">
        <ele>64</ele>
        <time>2020-12-19T11:15:35.000Z</time>
      </trkpt>
      <trkpt lat="47.13589" lon="-1.35364">
        <ele>64</ele>
        <time>2020-12-19T11:15:37.000Z</time>
      </trkpt>
      <trkpt lat="47.13606" lon="-1.35368">
        <ele>63</ele>
        <time>2020-12-19T11:15:39.000Z</time>
      </trkpt>
      <trkpt lat="47.13624" lon="-1.35369">
        <ele>63</ele>
        <time>2020-12-19T11:15:41.000Z</time>
      </trkpt>
      <trkpt lat="47.13641" lon="-1.35368">
        <ele>63</ele>
        <time>2020-12-19T11:15:43.000Z</time>
      </trkpt>
      <trkpt lat="47.13659" lon="-1.35367">
        <ele>63</ele>
        <time>2020-12-19T11:15:45.000Z</time>
      </trkpt>
      <trkpt lat="47.13675" lon="-1.35365">
        <ele>62</ele>
        <time>2020-12-19T11:15:47.000Z</time>
      </trkpt>
      <trkpt lat="47.13692" lon="-1.35362">
        <ele>62</ele>
        <time>2020-12-19T11:15:49.000Z</time>
      </trkpt>
      <trkpt lat="47.13708" lon="-1.35362">
        <ele>62</ele>
        <time>2020-12-19T11:15:51.000Z</time>
      </trkpt>
      <trkpt lat="47.13724" lon="-1.35361">
        <ele>63</ele>
        <time>2020-12-19T11:15:53.000Z</time>
      </trkpt>
      <trkpt lat="47.13738" lon="-1.3536">
        <ele>63</ele>
        <time>2020-12-19T11:15:55.000Z</time>
      </trkpt>
      <trkpt lat="47.13752" lon="-1.3536">
        <ele>62</ele>
        <time>2020-12-19T11:15:57.000Z</time>
      </trkpt>
      <trkpt lat="47.13766" lon="-1.35359">
        <ele>62</ele>
        <time>2020-12-19T11:15:59.000Z</time>
      </trkpt>
      <trkpt lat="47.1378" lon="-1.35359">
        <ele>62</ele>
        <time>2020-12-19T11:16:01.000Z</time>
      </trkpt>
      <trkpt lat="47.13793" lon="-1.35358">
        <ele>62</ele>
        <time>2020-12-19T11:16:03.000Z</time>
      </trkpt>
      <trkpt lat="47.13806" lon="-1.35357">
        <ele>61</ele>
        <time>2020-12-19T11:16:05.000Z</time>
      </trkpt>
      <trkpt lat="47.1382" lon="-1.35356">
        <ele>60</ele>
        <time>2020-12-19T11:16:07.000Z</time>
      </trkpt>
      <trkpt lat="47.13835" lon="-1.35356">
        <ele>60</ele>
        <time>2020-12-19T11:16:09.000Z</time>
      </trkpt>
      <trkpt lat="47.1385" lon="-1.35365">
        <ele>60</ele>
        <time>2020-12-19T11:16:11.000Z</time>
      </trkpt>
      <trkpt lat="47.13862" lon="-1.35378">
        <ele>60</ele>
        <time>2020-12-19T11:16:13.000Z</time>
      </trkpt>
      <trkpt lat="47.13874" lon="-1.35393">
        <ele>60</ele>
        <time>2020-12-19T11:16:15.000Z</time>
      </trkpt>
      <trkpt lat="47.13885" lon="-1.35406">
        <ele>60</ele>
        <time>2020-12-19T11:16:17.000Z</time>
      </trkpt>
      <trkpt lat="47.13896" lon="-1.3542">
        <ele>60</ele>
        <time>2020-12-19T11:16:19.000Z</time>
      </trkpt>
      <trkpt lat="47.13907" lon="-1.35432">
        <ele>61</ele>
        <time>2020-12-19T11:16:21.000Z</time>
      </trkpt>
      <trkpt lat="47.1392" lon="-1.35444">
        <ele>60</ele>
        <time>2020-12-19T11:16:23.000Z</time>
      </trkpt>
      <trkpt lat="47.13932" lon="-1.35454">
        <ele>60</ele>
        <time>2020-12-19T11:16:25.000Z</time>
      </trkpt>
      <trkpt lat="47.13946" lon="-1.35463">
        <ele>60</ele>
        <time>2020-12-19T11:16:27.000Z</time>
      </trkpt>
      <trkpt lat="47.1396" lon="-1.35466">
        <ele>60</ele>
        <time>2020-12-19T11:16:29.000Z</time>
      </trkpt>
      <trkpt lat="47.13973" lon="-1.35467">
        <ele>60</ele>
        <time>2020-12-19T11:16:31.000Z</time>
      </trkpt>
      <trkpt lat="47.13986" lon="-1.35468">
        <ele>60</ele>
        <time>2020-12-19T11:16:33.000Z</time>
      </trkpt>
      <trkpt lat="47.13998" lon="-1.35468">
        <ele>60</ele>
        <time>2020-12-19T11:16:35.000Z</time>
      </trkpt>
      <trkpt lat="47.14009" lon="-1.35468">
        <ele>60</ele>
        <time>2020-12-19T11:16:37.000Z</time>
      </trkpt>
      <trkpt lat="47.1402" lon="-1.35469">
        <ele>61</ele>
        <time>2020-12-19T11:16:39.000Z</time>
      </trkpt>
      <trkpt lat="47.14031" lon="-1.35469">
        <ele>61</ele>
        <time>2020-12-19T11:16:41.000Z</time>
      </trkpt>
      <trkpt lat="47.14041" lon="-1.3547">
        <ele>61</ele>
        <time>2020-12-19T11:16:43.000Z</time>
      </trkpt>
      <trkpt lat="47.14052" lon="-1.3547">
        <ele>62</ele>
        <time>2020-12-19T11:16:45.000Z</time>
      </trkpt>
      <trkpt lat="47.14063" lon="-1.35471">
        <ele>62</ele>
        <time>2020-12-19T11:16:47.000Z</time>
      </trkpt>
      <trkpt lat="47.14074" lon="-1.35472">
        <ele>63</ele>
        <time>2020-12-19T11:16:49.000Z</time>
      </trkpt>
      <trkpt lat="47.14084" lon="-1.35472">
        <ele>63</ele>
        <time>2020-12-19T11:16:51.000Z</time>
      </trkpt>
      <trkpt lat="47.14094" lon="-1.35471">
        <ele>63</ele>
        <time>2020-12-19T11:16:53.000Z</time>
      </trkpt>
      <trkpt lat="47.14104" lon="-1.35472">
        <ele>64</ele>
        <time>2020-12-19T11:16:55.000Z</time>
      </trkpt>
      <trkpt lat="47.14114" lon="-1.35471">
        <ele>64</ele>
        <time>2020-12-19T11:16:57.000Z</time>
      </trkpt>
      <trkpt lat="47.14124" lon="-1.35472">
        <ele>64</ele>
        <time>2020-12-19T11:16:59.000Z</time>
      </trkpt>
      <trkpt lat="47.14134" lon="-1.35472">
        <ele>65</ele>
        <time>2020-12-19T11:17:01.000Z</time>
      </trkpt>
      <trkpt lat="47.14144" lon="-1.35472">
        <ele>66</ele>
        <time>2020-12-19T11:17:03.000Z</time>
      </trkpt>
      <trkpt lat="47.14154" lon="-1.35472">
        <ele>66</ele>
        <time>2020-12-19T11:17:05.000Z</time>
      </trkpt>
      <trkpt lat="47.14164" lon="-1.35473">
        <ele>67</ele>
        <time>2020-12-19T11:17:07.000Z</time>
      </trkpt>
      <trkpt lat="47.14174" lon="-1.35473">
        <ele>67</ele>
        <time>2020-12-19T11:17:09.000Z</time>
      </trkpt>
      <trkpt lat="47.14184" lon="-1.35474">
        <ele>68</ele>
        <time>2020-12-19T11:17:11.000Z</time>
      </trkpt>
      <trkpt lat="47.14195" lon="-1.35473">
        <ele>68</ele>
        <time>2020-12-19T11:17:13.000Z</time>
      </trkpt>
      <trkpt lat="47.14204" lon="-1.35474">
        <ele>68</ele>
        <time>2020-12-19T11:17:15.000Z</time>
      </trkpt>
      <trkpt lat="47.14213" lon="-1.35474">
        <ele>68</ele>
        <time>2020-12-19T11:17:17.000Z</time>
      </trkpt>
      <trkpt lat="47.14223" lon="-1.35474">
        <ele>69</ele>
        <time>2020-12-19T11:17:19.000Z</time>
      </trkpt>
      <trkpt lat="47.14233" lon="-1.35473">
        <ele>70</ele>
        <time>2020-12-19T11:17:21.000Z</time>
      </trkpt>
      <trkpt lat="47.14242" lon="-1.3547">
        <ele>71</ele>
        <time>2020-12-19T11:17:23.000Z</time>
      </trkpt>
      <trkpt lat="47.14252" lon="-1.35466">
        <ele>72</ele>
        <time>2020-12-19T11:17:25.000Z</time>
      </trkpt>
      <trkpt lat="47.14261" lon="-1.35463">
        <ele>72</ele>
        <time>2020-12-19T11:17:27.000Z</time>
      </trkpt>
      <trkpt lat="47.14271" lon="-1.35458">
        <ele>73</ele>
        <time>2020-12-19T11:17:29.000Z</time>
      </trkpt>
      <trkpt lat="47.1428" lon="-1.35453">
        <ele>74</ele>
        <time>2020-12-19T11:17:31.000Z</time>
      </trkpt>
      <trkpt lat="47.14289" lon="-1.35448">
        <ele>75</ele>
        <time>2020-12-19T11:17:33.000Z</time>
      </trkpt>
      <trkpt lat="47.14298" lon="-1.35442">
        <ele>76</ele>
        <time>2020-12-19T11:17:35.000Z</time>
      </trkpt>
      <trkpt lat="47.14307" lon="-1.35436">
        <ele>76</ele>
        <time>2020-12-19T11:17:37.000Z</time>
      </trkpt>
      <trkpt lat="47.14316" lon="-1.35431">
        <ele>76</ele>
        <time>2020-12-19T11:17:39.000Z</time>
      </trkpt>
      <trkpt lat="47.14325" lon="-1.35425">
        <ele>77</ele>
        <time>2020-12-19T11:17:41.000Z</time>
      </trkpt>
      <trkpt lat="47.14334" lon="-1.3542">
        <ele>77</ele>
        <time>2020-12-19T11:17:43.000Z</time>
      </trkpt>
      <trkpt lat="47.14344" lon="-1.35415">
        <ele>78</ele>
        <time>2020-12-19T11:17:45.000Z</time>
      </trkpt>
      <trkpt lat="47.14353" lon="-1.35409">
        <ele>78</ele>
        <time>2020-12-19T11:17:47.000Z</time>
      </trkpt>
      <trkpt lat="47.14363" lon="-1.35403">
        <ele>78</ele>
        <time>2020-12-19T11:17:49.000Z</time>
      </trkpt>
      <trkpt lat="47.14373" lon="-1.35398">
        <ele>78</ele>
        <time>2020-12-19T11:17:51.000Z</time>
      </trkpt>
      <trkpt lat="47.14383" lon="-1.35393">
        <ele>79</ele>
        <time>2020-12-19T11:17:53.000Z</time>
      </trkpt>
      <trkpt lat="47.14393" lon="-1.35388">
        <ele>79</ele>
        <time>2020-12-19T11:17:55.000Z</time>
      </trkpt>
      <trkpt lat="47.14402" lon="-1.35382">
        <ele>79</ele>
        <time>2020-12-19T11:17:57.000Z</time>
      </trkpt>
      <trkpt lat="47.14412" lon="-1.35376">
        <ele>79</ele>
        <time>2020-12-19T11:17:59.000Z</time>
      </trkpt>
      <trkpt lat="47.14422" lon="-1.35371">
        <ele>79</ele>
        <time>2020-12-19T11:18:01.000Z</time>
      </trkpt>
      <trkpt lat="47.14432" lon="-1.35365">
        <ele>79</ele>
        <time>2020-12-19T11:18:03.000Z</time>
      </trkpt>
      <trkpt lat="47.14443" lon="-1.35359">
        <ele>80</ele>
        <time>2020-12-19T11:18:05.000Z</time>
      </trkpt>
      <trkpt lat="47.14453" lon="-1.35353">
        <ele>79</ele>
        <time>2020-12-19T11:18:07.000Z</time>
      </trkpt>
      <trkpt lat="47.14464" lon="-1.35346">
        <ele>80</ele>
        <time>2020-12-19T11:18:09.000Z</time>
      </trkpt>
      <trkpt lat="47.14475" lon="-1.3534">
        <ele>80</ele>
        <time>2020-12-19T11:18:11.000Z</time>
      </trkpt>
      <trkpt lat="47.14486" lon="-1.35334">
        <ele>80</ele>
        <time>2020-12-19T11:18:13.000Z</time>
      </trkpt>
      <trkpt lat="47.14498" lon="-1.35327">
        <ele>81</ele>
        <time>2020-12-19T11:18:15.000Z</time>
      </trkpt>
      <trkpt lat="47.1451" lon="-1.35321">
        <ele>81</ele>
        <time>2020-12-19T11:18:17.000Z</time>
      </trkpt>
      <trkpt lat="47.14522" lon="-1.35315">
        <ele>81</ele>
        <time>2020-12-19T11:18:19.000Z</time>
      </trkpt>
      <trkpt lat="47.14534" lon="-1.35308">
        <ele>81</ele>
        <time>2020-12-19T11:18:21.000Z</time>
      </trkpt>
      <trkpt lat="47.14546" lon="-1.35301">
        <ele>81</ele>
        <time>2020-12-19T11:18:23.000Z</time>
      </trkpt>
      <trkpt lat="47.14557" lon="-1.35294">
        <ele>81</ele>
        <time>2020-12-19T11:18:25.000Z</time>
      </trkpt>
      <trkpt lat="47.14569" lon="-1.35288">
        <ele>81</ele>
        <time>2020-12-19T11:18:27.000Z</time>
      </trkpt>
      <trkpt lat="47.1458" lon="-1.35281">
        <ele>81</ele>
        <time>2020-12-19T11:18:29.000Z</time>
      </trkpt>
      <trkpt lat="47.1459" lon="-1.35271">
        <ele>81</ele>
        <time>2020-12-19T11:18:31.000Z</time>
      </trkpt>
      <trkpt lat="47.14598" lon="-1.3526">
        <ele>81</ele>
        <time>2020-12-19T11:18:33.000Z</time>
      </trkpt>
      <trkpt lat="47.14606" lon="-1.35252">
        <ele>81</ele>
        <time>2020-12-19T11:18:35.000Z</time>
      </trkpt>
      <trkpt lat="47.14617" lon="-1.35249">
        <ele>81</ele>
        <time>2020-12-19T11:18:37.000Z</time>
      </trkpt>
      <trkpt lat="47.14627" lon="-1.35243">
        <ele>81</ele>
        <time>2020-12-19T11:18:39.000Z</time>
      </trkpt>
      <trkpt lat="47.14635" lon="-1.35238">
        <ele>81</ele>
        <time>2020-12-19T11:18:41.000Z</time>
      </trkpt>
      <trkpt lat="47.14644" lon="-1.35231">
        <ele>82</ele>
        <time>2020-12-19T11:18:44.000Z</time>
      </trkpt>
      <trkpt lat="47.14652" lon="-1.35224">
        <ele>82</ele>
        <time>2020-12-19T11:18:50.000Z</time>
      </trkpt>
      <trkpt lat="47.14661" lon="-1.35215">
        <ele>82</ele>
        <time>2020-12-19T11:19:15.000Z</time>
      </trkpt>
      <trkpt lat="47.14669" lon="-1.35207">
        <ele>81</ele>
        <time>2020-12-19T11:19:17.000Z</time>
      </trkpt>
      <trkpt lat="47.14679" lon="-1.35198">
        <ele>81</ele>
        <time>2020-12-19T11:19:19.000Z</time>
      </trkpt>
      <trkpt lat="47.1469" lon="-1.35188">
        <ele>81</ele>
        <time>2020-12-19T11:19:21.000Z</time>
      </trkpt>
      <trkpt lat="47.14702" lon="-1.35178">
        <ele>80</ele>
        <time>2020-12-19T11:19:23.000Z</time>
      </trkpt>
      <trkpt lat="47.14714" lon="-1.35167">
        <ele>79</ele>
        <time>2020-12-19T11:19:25.000Z</time>
      </trkpt>
      <trkpt lat="47.14726" lon="-1.35155">
        <ele>79</ele>
        <time>2020-12-19T11:19:27.000Z</time>
      </trkpt>
      <trkpt lat="47.14739" lon="-1.35143">
        <ele>79</ele>
        <time>2020-12-19T11:19:29.000Z</time>
      </trkpt>
      <trkpt lat="47.14753" lon="-1.35128">
        <ele>78</ele>
        <time>2020-12-19T11:19:31.000Z</time>
      </trkpt>
      <trkpt lat="47.14768" lon="-1.35115">
        <ele>77</ele>
        <time>2020-12-19T11:19:33.000Z</time>
      </trkpt>
      <trkpt lat="47.14782" lon="-1.35102">
        <ele>77</ele>
        <time>2020-12-19T11:19:35.000Z</time>
      </trkpt>
      <trkpt lat="47.14797" lon="-1.35088">
        <ele>77</ele>
        <time>2020-12-19T11:19:37.000Z</time>
      </trkpt>
      <trkpt lat="47.14811" lon="-1.35075">
        <ele>76</ele>
        <time>2020-12-19T11:19:39.000Z</time>
      </trkpt>
      <trkpt lat="47.14825" lon="-1.35061">
        <ele>75</ele>
        <time>2020-12-19T11:19:41.000Z</time>
      </trkpt>
      <trkpt lat="47.14839" lon="-1.35047">
        <ele>75</ele>
        <time>2020-12-19T11:19:43.000Z</time>
      </trkpt>
      <trkpt lat="47.14853" lon="-1.35034">
        <ele>75</ele>
        <time>2020-12-19T11:19:45.000Z</time>
      </trkpt>
      <trkpt lat="47.14867" lon="-1.35021">
        <ele>75</ele>
        <time>2020-12-19T11:19:47.000Z</time>
      </trkpt>
      <trkpt lat="47.1488" lon="-1.35008">
        <ele>75</ele>
        <time>2020-12-19T11:19:49.000Z</time>
      </trkpt>
      <trkpt lat="47.14894" lon="-1.34995">
        <ele>75</ele>
        <time>2020-12-19T11:19:51.000Z</time>
      </trkpt>
      <trkpt lat="47.14906" lon="-1.34982">
        <ele>74</ele>
        <time>2020-12-19T11:19:53.000Z</time>
      </trkpt>
      <trkpt lat="47.14919" lon="-1.34969">
        <ele>74</ele>
        <time>2020-12-19T11:19:55.000Z</time>
      </trkpt>
      <trkpt lat="47.14931" lon="-1.34955">
        <ele>74</ele>
        <time>2020-12-19T11:19:57.000Z</time>
      </trkpt>
      <trkpt lat="47.14943" lon="-1.34943">
        <ele>74</ele>
        <time>2020-12-19T11:19:59.000Z</time>
      </trkpt>
      <trkpt lat="47.14955" lon="-1.3493">
        <ele>74</ele>
        <time>2020-12-19T11:20:01.000Z</time>
      </trkpt>
      <trkpt lat="47.14967" lon="-1.34915">
        <ele>74</ele>
        <time>2020-12-19T11:20:03.000Z</time>
      </trkpt>
      <trkpt lat="47.14977" lon="-1.34902">
        <ele>74</ele>
        <time>2020-12-19T11:20:05.000Z</time>
      </trkpt>
      <trkpt lat="47.14988" lon="-1.34887">
        <ele>74</ele>
        <time>2020-12-19T11:20:07.000Z</time>
      </trkpt>
      <trkpt lat="47.14999" lon="-1.34874">
        <ele>74</ele>
        <time>2020-12-19T11:20:09.000Z</time>
      </trkpt>
      <trkpt lat="47.1501" lon="-1.3486">
        <ele>74</ele>
        <time>2020-12-19T11:20:11.000Z</time>
      </trkpt>
      <trkpt lat="47.15021" lon="-1.34846">
        <ele>74</ele>
        <time>2020-12-19T11:20:13.000Z</time>
      </trkpt>
      <trkpt lat="47.15032" lon="-1.34832">
        <ele>74</ele>
        <time>2020-12-19T11:20:15.000Z</time>
      </trkpt>
      <trkpt lat="47.15042" lon="-1.34819">
        <ele>74</ele>
        <time>2020-12-19T11:20:17.000Z</time>
      </trkpt>
      <trkpt lat="47.15053" lon="-1.34805">
        <ele>74</ele>
        <time>2020-12-19T11:20:19.000Z</time>
      </trkpt>
      <trkpt lat="47.15064" lon="-1.34792">
        <ele>74</ele>
        <time>2020-12-19T11:20:21.000Z</time>
      </trkpt>
      <trkpt lat="47.15074" lon="-1.34778">
        <ele>74</ele>
        <time>2020-12-19T11:20:23.000Z</time>
      </trkpt>
      <trkpt lat="47.15085" lon="-1.34765">
        <ele>75</ele>
        <time>2020-12-19T11:20:25.000Z</time>
      </trkpt>
      <trkpt lat="47.15095" lon="-1.34752">
        <ele>75</ele>
        <time>2020-12-19T11:20:27.000Z</time>
      </trkpt>
      <trkpt lat="47.15106" lon="-1.34739">
        <ele>75</ele>
        <time>2020-12-19T11:20:29.000Z</time>
      </trkpt>
      <trkpt lat="47.15117" lon="-1.34725">
        <ele>75</ele>
        <time>2020-12-19T11:20:31.000Z</time>
      </trkpt>
      <trkpt lat="47.15127" lon="-1.34712">
        <ele>74</ele>
        <time>2020-12-19T11:20:33.000Z</time>
      </trkpt>
      <trkpt lat="47.15137" lon="-1.34698">
        <ele>74</ele>
        <time>2020-12-19T11:20:35.000Z</time>
      </trkpt>
      <trkpt lat="47.15149" lon="-1.34684">
        <ele>75</ele>
        <time>2020-12-19T11:20:37.000Z</time>
      </trkpt>
      <trkpt lat="47.15159" lon="-1.3467">
        <ele>75</ele>
        <time>2020-12-19T11:20:39.000Z</time>
      </trkpt>
      <trkpt lat="47.15169" lon="-1.34657">
        <ele>75</ele>
        <time>2020-12-19T11:20:41.000Z</time>
      </trkpt>
      <trkpt lat="47.1518" lon="-1.34644">
        <ele>75</ele>
        <time>2020-12-19T11:20:43.000Z</time>
      </trkpt>
      <trkpt lat="47.1519" lon="-1.3463">
        <ele>75</ele>
        <time>2020-12-19T11:20:45.000Z</time>
      </trkpt>
      <trkpt lat="47.15202" lon="-1.34617">
        <ele>76</ele>
        <time>2020-12-19T11:20:47.000Z</time>
      </trkpt>
      <trkpt lat="47.15212" lon="-1.34603">
        <ele>76</ele>
        <time>2020-12-19T11:20:49.000Z</time>
      </trkpt>
      <trkpt lat="47.15223" lon="-1.3459">
        <ele>76</ele>
        <time>2020-12-19T11:20:51.000Z</time>
      </trkpt>
      <trkpt lat="47.15233" lon="-1.34576">
        <ele>76</ele>
        <time>2020-12-19T11:20:53.000Z</time>
      </trkpt>
      <trkpt lat="47.15243" lon="-1.34563">
        <ele>77</ele>
        <time>2020-12-19T11:20:55.000Z</time>
      </trkpt>
      <trkpt lat="47.15254" lon="-1.34549">
        <ele>77</ele>
        <time>2020-12-19T11:20:57.000Z</time>
      </trkpt>
      <trkpt lat="47.15264" lon="-1.34536">
        <ele>77</ele>
        <time>2020-12-19T11:20:59.000Z</time>
      </trkpt>
      <trkpt lat="47.15274" lon="-1.34523">
        <ele>77</ele>
        <time>2020-12-19T11:21:01.000Z</time>
      </trkpt>
      <trkpt lat="47.15285" lon="-1.3451">
        <ele>77</ele>
        <time>2020-12-19T11:21:03.000Z</time>
      </trkpt>
      <trkpt lat="47.15296" lon="-1.34496">
        <ele>77</ele>
        <time>2020-12-19T11:21:05.000Z</time>
      </trkpt>
      <trkpt lat="47.15307" lon="-1.34483">
        <ele>77</ele>
        <time>2020-12-19T11:21:07.000Z</time>
      </trkpt>
      <trkpt lat="47.15318" lon="-1.34469">
        <ele>77</ele>
        <time>2020-12-19T11:21:09.000Z</time>
      </trkpt>
      <trkpt lat="47.15331" lon="-1.34457">
        <ele>77</ele>
        <time>2020-12-19T11:21:11.000Z</time>
      </trkpt>
      <trkpt lat="47.15342" lon="-1.34446">
        <ele>78</ele>
        <time>2020-12-19T11:21:13.000Z</time>
      </trkpt>
      <trkpt lat="47.15355" lon="-1.34436">
        <ele>78</ele>
        <time>2020-12-19T11:21:15.000Z</time>
      </trkpt>
      <trkpt lat="47.15367" lon="-1.34428">
        <ele>78</ele>
        <time>2020-12-19T11:21:17.000Z</time>
      </trkpt>
      <trkpt lat="47.15381" lon="-1.34422">
        <ele>78</ele>
        <time>2020-12-19T11:21:19.000Z</time>
      </trkpt>
      <trkpt lat="47.15396" lon="-1.34417">
        <ele>78</ele>
        <time>2020-12-19T11:21:21.000Z</time>
      </trkpt>
      <trkpt lat="47.15411" lon="-1.34416">
        <ele>78</ele>
        <time>2020-12-19T11:21:23.000Z</time>
      </trkpt>
      <trkpt lat="47.15425" lon="-1.34416">
        <ele>78</ele>
        <time>2020-12-19T11:21:25.000Z</time>
      </trkpt>
      <trkpt lat="47.1544" lon="-1.34418">
        <ele>78</ele>
        <time>2020-12-19T11:21:27.000Z</time>
      </trkpt>
      <trkpt lat="47.15454" lon="-1.3442">
        <ele>77</ele>
        <time>2020-12-19T11:21:29.000Z</time>
      </trkpt>
      <trkpt lat="47.15468" lon="-1.34423">
        <ele>78</ele>
        <time>2020-12-19T11:21:31.000Z</time>
      </trkpt>
      <trkpt lat="47.15483" lon="-1.34428">
        <ele>77</ele>
        <time>2020-12-19T11:21:33.000Z</time>
      </trkpt>
      <trkpt lat="47.15496" lon="-1.34432">
        <ele>77</ele>
        <time>2020-12-19T11:21:35.000Z</time>
      </trkpt>
      <trkpt lat="47.1551" lon="-1.34435">
        <ele>78</ele>
        <time>2020-12-19T11:21:37.000Z</time>
      </trkpt>
      <trkpt lat="47.15524" lon="-1.34439">
        <ele>77</ele>
        <time>2020-12-19T11:21:39.000Z</time>
      </trkpt>
      <trkpt lat="47.15538" lon="-1.34442">
        <ele>78</ele>
        <time>2020-12-19T11:21:41.000Z</time>
      </trkpt>
      <trkpt lat="47.15552" lon="-1.34446">
        <ele>78</ele>
        <time>2020-12-19T11:21:43.000Z</time>
      </trkpt>
      <trkpt lat="47.15565" lon="-1.3445">
        <ele>79</ele>
        <time>2020-12-19T11:21:45.000Z</time>
      </trkpt>
      <trkpt lat="47.15578" lon="-1.34453">
        <ele>79</ele>
        <time>2020-12-19T11:21:47.000Z</time>
      </trkpt>
      <trkpt lat="47.15591" lon="-1.34456">
        <ele>79</ele>
        <time>2020-12-19T11:21:49.000Z</time>
      </trkpt>
      <trkpt lat="47.15605" lon="-1.34459">
        <ele>80</ele>
        <time>2020-12-19T11:21:51.000Z</time>
      </trkpt>
      <trkpt lat="47.15618" lon="-1.34461">
        <ele>80</ele>
        <time>2020-12-19T11:21:53.000Z</time>
      </trkpt>
      <trkpt lat="47.15631" lon="-1.34459">
        <ele>80</ele>
        <time>2020-12-19T11:21:55.000Z</time>
      </trkpt>
      <trkpt lat="47.15644" lon="-1.34454">
        <ele>80</ele>
        <time>2020-12-19T11:21:57.000Z</time>
      </trkpt>
      <trkpt lat="47.15656" lon="-1.34447">
        <ele>80</ele>
        <time>2020-12-19T11:21:59.000Z</time>
      </trkpt>
      <trkpt lat="47.15668" lon="-1.34439">
        <ele>81</ele>
        <time>2020-12-19T11:22:01.000Z</time>
      </trkpt>
      <trkpt lat="47.15679" lon="-1.34427">
        <ele>81</ele>
        <time>2020-12-19T11:22:03.000Z</time>
      </trkpt>
      <trkpt lat="47.15689" lon="-1.34413">
        <ele>81</ele>
        <time>2020-12-19T11:22:05.000Z</time>
      </trkpt>
      <trkpt lat="47.15698" lon="-1.344">
        <ele>81</ele>
        <time>2020-12-19T11:22:07.000Z</time>
      </trkpt>
      <trkpt lat="47.15709" lon="-1.34385">
        <ele>81</ele>
        <time>2020-12-19T11:22:09.000Z</time>
      </trkpt>
      <trkpt lat="47.15719" lon="-1.34372">
        <ele>81</ele>
        <time>2020-12-19T11:22:11.000Z</time>
      </trkpt>
      <trkpt lat="47.15729" lon="-1.3436">
        <ele>82</ele>
        <time>2020-12-19T11:22:13.000Z</time>
      </trkpt>
      <trkpt lat="47.15739" lon="-1.34348">
        <ele>82</ele>
        <time>2020-12-19T11:22:15.000Z</time>
      </trkpt>
      <trkpt lat="47.15749" lon="-1.34338">
        <ele>82</ele>
        <time>2020-12-19T11:22:17.000Z</time>
      </trkpt>
      <trkpt lat="47.15759" lon="-1.34327">
        <ele>83</ele>
        <time>2020-12-19T11:22:19.000Z</time>
      </trkpt>
      <trkpt lat="47.15769" lon="-1.34317">
        <ele>83</ele>
        <time>2020-12-19T11:22:21.000Z</time>
      </trkpt>
      <trkpt lat="47.1578" lon="-1.34307">
        <ele>83</ele>
        <time>2020-12-19T11:22:23.000Z</time>
      </trkpt>
      <trkpt lat="47.1579" lon="-1.34299">
        <ele>84</ele>
        <time>2020-12-19T11:22:25.000Z</time>
      </trkpt>
      <trkpt lat="47.15801" lon="-1.34291">
        <ele>84</ele>
        <time>2020-12-19T11:22:27.000Z</time>
      </trkpt>
      <trkpt lat="47.15811" lon="-1.34283">
        <ele>85</ele>
        <time>2020-12-19T11:22:29.000Z</time>
      </trkpt>
      <trkpt lat="47.15822" lon="-1.34275">
        <ele>85</ele>
        <time>2020-12-19T11:22:31.000Z</time>
      </trkpt>
      <trkpt lat="47.15833" lon="-1.34268">
        <ele>85</ele>
        <time>2020-12-19T11:22:33.000Z</time>
      </trkpt>
      <trkpt lat="47.15844" lon="-1.34261">
        <ele>85</ele>
        <time>2020-12-19T11:22:35.000Z</time>
      </trkpt>
      <trkpt lat="47.15855" lon="-1.34254">
        <ele>86</ele>
        <time>2020-12-19T11:22:37.000Z</time>
      </trkpt>
      <trkpt lat="47.15866" lon="-1.34247">
        <ele>86</ele>
        <time>2020-12-19T11:22:39.000Z</time>
      </trkpt>
      <trkpt lat="47.15877" lon="-1.34241">
        <ele>86</ele>
        <time>2020-12-19T11:22:41.000Z</time>
      </trkpt>
      <trkpt lat="47.15888" lon="-1.34235">
        <ele>86</ele>
        <time>2020-12-19T11:22:43.000Z</time>
      </trkpt>
      <trkpt lat="47.15899" lon="-1.34229">
        <ele>86</ele>
        <time>2020-12-19T11:22:45.000Z</time>
      </trkpt>
      <trkpt lat="47.1591" lon="-1.34222">
        <ele>86</ele>
        <time>2020-12-19T11:22:47.000Z</time>
      </trkpt>
      <trkpt lat="47.15922" lon="-1.34215">
        <ele>86</ele>
        <time>2020-12-19T11:22:49.000Z</time>
      </trkpt>
      <trkpt lat="47.15935" lon="-1.34209">
        <ele>86</ele>
        <time>2020-12-19T11:22:51.000Z</time>
      </trkpt>
      <trkpt lat="47.15948" lon="-1.342">
        <ele>86</ele>
        <time>2020-12-19T11:22:53.000Z</time>
      </trkpt>
      <trkpt lat="47.15961" lon="-1.34193">
        <ele>85</ele>
        <time>2020-12-19T11:22:55.000Z</time>
      </trkpt>
      <trkpt lat="47.15975" lon="-1.34186">
        <ele>85</ele>
        <time>2020-12-19T11:22:57.000Z</time>
      </trkpt>
      <trkpt lat="47.15988" lon="-1.34179">
        <ele>84</ele>
        <time>2020-12-19T11:22:59.000Z</time>
      </trkpt>
      <trkpt lat="47.16002" lon="-1.34172">
        <ele>84</ele>
        <time>2020-12-19T11:23:01.000Z</time>
      </trkpt>
      <trkpt lat="47.16017" lon="-1.34165">
        <ele>84</ele>
        <time>2020-12-19T11:23:03.000Z</time>
      </trkpt>
      <trkpt lat="47.16031" lon="-1.34159">
        <ele>83</ele>
        <time>2020-12-19T11:23:05.000Z</time>
      </trkpt>
      <trkpt lat="47.16046" lon="-1.34154">
        <ele>83</ele>
        <time>2020-12-19T11:23:07.000Z</time>
      </trkpt>
      <trkpt lat="47.16061" lon="-1.34149">
        <ele>82</ele>
        <time>2020-12-19T11:23:09.000Z</time>
      </trkpt>
      <trkpt lat="47.16077" lon="-1.34144">
        <ele>82</ele>
        <time>2020-12-19T11:23:11.000Z</time>
      </trkpt>
      <trkpt lat="47.16092" lon="-1.3414">
        <ele>82</ele>
        <time>2020-12-19T11:23:13.000Z</time>
      </trkpt>
      <trkpt lat="47.16108" lon="-1.34138">
        <ele>82</ele>
        <time>2020-12-19T11:23:15.000Z</time>
      </trkpt>
      <trkpt lat="47.16124" lon="-1.34135">
        <ele>82</ele>
        <time>2020-12-19T11:23:17.000Z</time>
      </trkpt>
      <trkpt lat="47.1614" lon="-1.34133">
        <ele>81</ele>
        <time>2020-12-19T11:23:19.000Z</time>
      </trkpt>
      <trkpt lat="47.16155" lon="-1.34132">
        <ele>81</ele>
        <time>2020-12-19T11:23:21.000Z</time>
      </trkpt>
      <trkpt lat="47.16171" lon="-1.34132">
        <ele>81</ele>
        <time>2020-12-19T11:23:23.000Z</time>
      </trkpt>
      <trkpt lat="47.16187" lon="-1.34132">
        <ele>80</ele>
        <time>2020-12-19T11:23:25.000Z</time>
      </trkpt>
      <trkpt lat="47.16202" lon="-1.34133">
        <ele>79</ele>
        <time>2020-12-19T11:23:27.000Z</time>
      </trkpt>
      <trkpt lat="47.16218" lon="-1.34134">
        <ele>79</ele>
        <time>2020-12-19T11:23:29.000Z</time>
      </trkpt>
      <trkpt lat="47.16234" lon="-1.34135">
        <ele>79</ele>
        <time>2020-12-19T11:23:31.000Z</time>
      </trkpt>
      <trkpt lat="47.1625" lon="-1.34136">
        <ele>79</ele>
        <time>2020-12-19T11:23:33.000Z</time>
      </trkpt>
      <trkpt lat="47.16266" lon="-1.34137">
        <ele>79</ele>
        <time>2020-12-19T11:23:35.000Z</time>
      </trkpt>
      <trkpt lat="47.16281" lon="-1.34138">
        <ele>78</ele>
        <time>2020-12-19T11:23:37.000Z</time>
      </trkpt>
      <trkpt lat="47.16297" lon="-1.3414">
        <ele>78</ele>
        <time>2020-12-19T11:23:39.000Z</time>
      </trkpt>
      <trkpt lat="47.16313" lon="-1.34141">
        <ele>77</ele>
        <time>2020-12-19T11:23:41.000Z</time>
      </trkpt>
      <trkpt lat="47.16329" lon="-1.34143">
        <ele>77</ele>
        <time>2020-12-19T11:23:43.000Z</time>
      </trkpt>
      <trkpt lat="47.16345" lon="-1.34142">
        <ele>76</ele>
        <time>2020-12-19T11:23:45.000Z</time>
      </trkpt>
      <trkpt lat="47.16361" lon="-1.34141">
        <ele>76</ele>
        <time>2020-12-19T11:23:47.000Z</time>
      </trkpt>
      <trkpt lat="47.16377" lon="-1.34139">
        <ele>76</ele>
        <time>2020-12-19T11:23:49.000Z</time>
      </trkpt>
      <trkpt lat="47.16393" lon="-1.34136">
        <ele>76</ele>
        <time>2020-12-19T11:23:51.000Z</time>
      </trkpt>
      <trkpt lat="47.16409" lon="-1.34133">
        <ele>76</ele>
        <time>2020-12-19T11:23:53.000Z</time>
      </trkpt>
      <trkpt lat="47.16425" lon="-1.34131">
        <ele>76</ele>
        <time>2020-12-19T11:23:55.000Z</time>
      </trkpt>
      <trkpt lat="47.16441" lon="-1.34131">
        <ele>75</ele>
        <time>2020-12-19T11:23:57.000Z</time>
      </trkpt>
      <trkpt lat="47.16457" lon="-1.34132">
        <ele>75</ele>
        <time>2020-12-19T11:23:59.000Z</time>
      </trkpt>
      <trkpt lat="47.16474" lon="-1.34133">
        <ele>75</ele>
        <time>2020-12-19T11:24:01.000Z</time>
      </trkpt>
      <trkpt lat="47.1649" lon="-1.34135">
        <ele>74</ele>
        <time>2020-12-19T11:24:03.000Z</time>
      </trkpt>
      <trkpt lat="47.16507" lon="-1.34136">
        <ele>74</ele>
        <time>2020-12-19T11:24:05.000Z</time>
      </trkpt>
      <trkpt lat="47.16523" lon="-1.34137">
        <ele>74</ele>
        <time>2020-12-19T11:24:07.000Z</time>
      </trkpt>
      <trkpt lat="47.1654" lon="-1.34139">
        <ele>73</ele>
        <time>2020-12-19T11:24:09.000Z</time>
      </trkpt>
      <trkpt lat="47.16557" lon="-1.34141">
        <ele>73</ele>
        <time>2020-12-19T11:24:11.000Z</time>
      </trkpt>
      <trkpt lat="47.16574" lon="-1.34142">
        <ele>73</ele>
        <time>2020-12-19T11:24:13.000Z</time>
      </trkpt>
      <trkpt lat="47.16591" lon="-1.34144">
        <ele>72</ele>
        <time>2020-12-19T11:24:15.000Z</time>
      </trkpt>
      <trkpt lat="47.16608" lon="-1.34145">
        <ele>72</ele>
        <time>2020-12-19T11:24:17.000Z</time>
      </trkpt>
      <trkpt lat="47.16625" lon="-1.34147">
        <ele>72</ele>
        <time>2020-12-19T11:24:19.000Z</time>
      </trkpt>
      <trkpt lat="47.16642" lon="-1.34148">
        <ele>72</ele>
        <time>2020-12-19T11:24:21.000Z</time>
      </trkpt>
      <trkpt lat="47.16659" lon="-1.34149">
        <ele>71</ele>
        <time>2020-12-19T11:24:23.000Z</time>
      </trkpt>
      <trkpt lat="47.16676" lon="-1.34151">
        <ele>71</ele>
        <time>2020-12-19T11:24:25.000Z</time>
      </trkpt>
      <trkpt lat="47.16693" lon="-1.34152">
        <ele>71</ele>
        <time>2020-12-19T11:24:27.000Z</time>
      </trkpt>
      <trkpt lat="47.16711" lon="-1.34154">
        <ele>71</ele>
        <time>2020-12-19T11:24:29.000Z</time>
      </trkpt>
      <trkpt lat="47.16728" lon="-1.34155">
        <ele>71</ele>
        <time>2020-12-19T11:24:31.000Z</time>
      </trkpt>
      <trkpt lat="47.16745" lon="-1.34157">
        <ele>70</ele>
        <time>2020-12-19T11:24:33.000Z</time>
      </trkpt>
      <trkpt lat="47.16763" lon="-1.34158">
        <ele>70</ele>
        <time>2020-12-19T11:24:35.000Z</time>
      </trkpt>
      <trkpt lat="47.16781" lon="-1.3416">
        <ele>70</ele>
        <time>2020-12-19T11:24:37.000Z</time>
      </trkpt>
      <trkpt lat="47.16798" lon="-1.34161">
        <ele>70</ele>
        <time>2020-12-19T11:24:39.000Z</time>
      </trkpt>
      <trkpt lat="47.16816" lon="-1.34163">
        <ele>70</ele>
        <time>2020-12-19T11:24:41.000Z</time>
      </trkpt>
      <trkpt lat="47.16833" lon="-1.34164">
        <ele>70</ele>
        <time>2020-12-19T11:24:43.000Z</time>
      </trkpt>
      <trkpt lat="47.1685" lon="-1.34166">
        <ele>70</ele>
        <time>2020-12-19T11:24:45.000Z</time>
      </trkpt>
      <trkpt lat="47.16868" lon="-1.34168">
        <ele>70</ele>
        <time>2020-12-19T11:24:47.000Z</time>
      </trkpt>
      <trkpt lat="47.16885" lon="-1.34169">
        <ele>70</ele>
        <time>2020-12-19T11:24:49.000Z</time>
      </trkpt>
      <trkpt lat="47.16902" lon="-1.3417">
        <ele>69</ele>
        <time>2020-12-19T11:24:51.000Z</time>
      </trkpt>
      <trkpt lat="47.16918" lon="-1.34171">
        <ele>69</ele>
        <time>2020-12-19T11:24:53.000Z</time>
      </trkpt>
      <trkpt lat="47.16935" lon="-1.34173">
        <ele>69</ele>
        <time>2020-12-19T11:24:55.000Z</time>
      </trkpt>
      <trkpt lat="47.16951" lon="-1.34175">
        <ele>69</ele>
        <time>2020-12-19T11:24:57.000Z</time>
      </trkpt>
      <trkpt lat="47.16968" lon="-1.34176">
        <ele>69</ele>
        <time>2020-12-19T11:24:59.000Z</time>
      </trkpt>
      <trkpt lat="47.16985" lon="-1.34177">
        <ele>68</ele>
        <time>2020-12-19T11:25:01.000Z</time>
      </trkpt>
      <trkpt lat="47.17001" lon="-1.34178">
        <ele>68</ele>
        <time>2020-12-19T11:25:03.000Z</time>
      </trkpt>
      <trkpt lat="47.17018" lon="-1.34179">
        <ele>68</ele>
        <time>2020-12-19T11:25:05.000Z</time>
      </trkpt>
      <trkpt lat="47.17034" lon="-1.34181">
        <ele>68</ele>
        <time>2020-12-19T11:25:07.000Z</time>
      </trkpt>
      <trkpt lat="47.1705" lon="-1.34182">
        <ele>68</ele>
        <time>2020-12-19T11:25:09.000Z</time>
      </trkpt>
      <trkpt lat="47.17066" lon="-1.34183">
        <ele>68</ele>
        <time>2020-12-19T11:25:11.000Z</time>
      </trkpt>
      <trkpt lat="47.17082" lon="-1.34185">
        <ele>68</ele>
        <time>2020-12-19T11:25:13.000Z</time>
      </trkpt>
      <trkpt lat="47.17098" lon="-1.34186">
        <ele>68</ele>
        <time>2020-12-19T11:25:15.000Z</time>
      </trkpt>
      <trkpt lat="47.17114" lon="-1.34187">
        <ele>67</ele>
        <time>2020-12-19T11:25:17.000Z</time>
      </trkpt>
      <trkpt lat="47.1713" lon="-1.34188">
        <ele>67</ele>
        <time>2020-12-19T11:25:19.000Z</time>
      </trkpt>
      <trkpt lat="47.17146" lon="-1.3419">
        <ele>67</ele>
        <time>2020-12-19T11:25:21.000Z</time>
      </trkpt>
      <trkpt lat="47.17161" lon="-1.3419">
        <ele>67</ele>
        <time>2020-12-19T11:25:23.000Z</time>
      </trkpt>
      <trkpt lat="47.17177" lon="-1.34191">
        <ele>66</ele>
        <time>2020-12-19T11:25:25.000Z</time>
      </trkpt>
      <trkpt lat="47.17193" lon="-1.34192">
        <ele>66</ele>
        <time>2020-12-19T11:25:27.000Z</time>
      </trkpt>
      <trkpt lat="47.17208" lon="-1.34194">
        <ele>66</ele>
        <time>2020-12-19T11:25:29.000Z</time>
      </trkpt>
      <trkpt lat="47.17223" lon="-1.34196">
        <ele>67</ele>
        <time>2020-12-19T11:25:31.000Z</time>
      </trkpt>
      <trkpt lat="47.17239" lon="-1.34198">
        <ele>67</ele>
        <time>2020-12-19T11:25:33.000Z</time>
      </trkpt>
      <trkpt lat="47.17254" lon="-1.342">
        <ele>66</ele>
        <time>2020-12-19T11:25:35.000Z</time>
      </trkpt>
      <trkpt lat="47.17269" lon="-1.34203">
        <ele>66</ele>
        <time>2020-12-19T11:25:37.000Z</time>
      </trkpt>
      <trkpt lat="47.17285" lon="-1.34205">
        <ele>66</ele>
        <time>2020-12-19T11:25:39.000Z</time>
      </trkpt>
      <trkpt lat="47.17299" lon="-1.34207">
        <ele>66</ele>
        <time>2020-12-19T11:25:41.000Z</time>
      </trkpt>
      <trkpt lat="47.17313" lon="-1.34209">
        <ele>66</ele>
        <time>2020-12-19T11:25:43.000Z</time>
      </trkpt>
      <trkpt lat="47.17326" lon="-1.34211">
        <ele>66</ele>
        <time>2020-12-19T11:25:45.000Z</time>
      </trkpt>
      <trkpt lat="47.17338" lon="-1.34212">
        <ele>66</ele>
        <time>2020-12-19T11:25:47.000Z</time>
      </trkpt>
      <trkpt lat="47.1735" lon="-1.34208">
        <ele>66</ele>
        <time>2020-12-19T11:25:49.000Z</time>
      </trkpt>
      <trkpt lat="47.17361" lon="-1.34206">
        <ele>66</ele>
        <time>2020-12-19T11:25:51.000Z</time>
      </trkpt>
      <trkpt lat="47.17374" lon="-1.34213">
        <ele>66</ele>
        <time>2020-12-19T11:25:53.000Z</time>
      </trkpt>
      <trkpt lat="47.17385" lon="-1.3422">
        <ele>65</ele>
        <time>2020-12-19T11:25:55.000Z</time>
      </trkpt>
      <trkpt lat="47.17399" lon="-1.34223">
        <ele>65</ele>
        <time>2020-12-19T11:25:57.000Z</time>
      </trkpt>
      <trkpt lat="47.17413" lon="-1.34224">
        <ele>65</ele>
        <time>2020-12-19T11:25:59.000Z</time>
      </trkpt>
      <trkpt lat="47.17427" lon="-1.34227">
        <ele>65</ele>
        <time>2020-12-19T11:26:01.000Z</time>
      </trkpt>
      <trkpt lat="47.17441" lon="-1.34228">
        <ele>64</ele>
        <time>2020-12-19T11:26:03.000Z</time>
      </trkpt>
      <trkpt lat="47.17456" lon="-1.34227">
        <ele>63</ele>
        <time>2020-12-19T11:26:05.000Z</time>
      </trkpt>
      <trkpt lat="47.17469" lon="-1.34224">
        <ele>63</ele>
        <time>2020-12-19T11:26:07.000Z</time>
      </trkpt>
      <trkpt lat="47.17482" lon="-1.34221">
        <ele>63</ele>
        <time>2020-12-19T11:26:09.000Z</time>
      </trkpt>
      <trkpt lat="47.17495" lon="-1.34218">
        <ele>64</ele>
        <time>2020-12-19T11:26:11.000Z</time>
      </trkpt>
      <trkpt lat="47.17506" lon="-1.34214">
        <ele>63</ele>
        <time>2020-12-19T11:26:13.000Z</time>
      </trkpt>
      <trkpt lat="47.17514" lon="-1.3421">
        <ele>63</ele>
        <time>2020-12-19T11:26:15.000Z</time>
      </trkpt>
      <trkpt lat="47.17521" lon="-1.34197">
        <ele>62</ele>
        <time>2020-12-19T11:26:17.000Z</time>
      </trkpt>
      <trkpt lat="47.17526" lon="-1.34179">
        <ele>61</ele>
        <time>2020-12-19T11:26:19.000Z</time>
      </trkpt>
      <trkpt lat="47.1753" lon="-1.34161">
        <ele>62</ele>
        <time>2020-12-19T11:26:21.000Z</time>
      </trkpt>
      <trkpt lat="47.17536" lon="-1.34146">
        <ele>62</ele>
        <time>2020-12-19T11:26:23.000Z</time>
      </trkpt>
      <trkpt lat="47.17546" lon="-1.34138">
        <ele>62</ele>
        <time>2020-12-19T11:26:25.000Z</time>
      </trkpt>
      <trkpt lat="47.1756" lon="-1.34137">
        <ele>62</ele>
        <time>2020-12-19T11:26:27.000Z</time>
      </trkpt>
      <trkpt lat="47.17572" lon="-1.34128">
        <ele>62</ele>
        <time>2020-12-19T11:26:29.000Z</time>
      </trkpt>
      <trkpt lat="47.17584" lon="-1.34116">
        <ele>62</ele>
        <time>2020-12-19T11:26:31.000Z</time>
      </trkpt>
      <trkpt lat="47.17596" lon="-1.34106">
        <ele>62</ele>
        <time>2020-12-19T11:26:33.000Z</time>
      </trkpt>
      <trkpt lat="47.17608" lon="-1.34096">
        <ele>61</ele>
        <time>2020-12-19T11:26:35.000Z</time>
      </trkpt>
      <trkpt lat="47.17619" lon="-1.34085">
        <ele>61</ele>
        <time>2020-12-19T11:26:37.000Z</time>
      </trkpt>
      <trkpt lat="47.17629" lon="-1.34077">
        <ele>60</ele>
        <time>2020-12-19T11:26:39.000Z</time>
      </trkpt>
      <trkpt lat="47.17639" lon="-1.34068">
        <ele>60</ele>
        <time>2020-12-19T11:26:42.000Z</time>
      </trkpt>
      <trkpt lat="47.1765" lon="-1.34066">
        <ele>61</ele>
        <time>2020-12-19T11:26:45.000Z</time>
      </trkpt>
      <trkpt lat="47.17661" lon="-1.34065">
        <ele>60</ele>
        <time>2020-12-19T11:26:47.000Z</time>
      </trkpt>
      <trkpt lat="47.17672" lon="-1.34065">
        <ele>60</ele>
        <time>2020-12-19T11:26:49.000Z</time>
      </trkpt>
      <trkpt lat="47.17685" lon="-1.34065">
        <ele>60</ele>
        <time>2020-12-19T11:26:51.000Z</time>
      </trkpt>
      <trkpt lat="47.17698" lon="-1.34065">
        <ele>60</ele>
        <time>2020-12-19T11:26:53.000Z</time>
      </trkpt>
      <trkpt lat="47.17712" lon="-1.34065">
        <ele>60</ele>
        <time>2020-12-19T11:26:55.000Z</time>
      </trkpt>
      <trkpt lat="47.17726" lon="-1.34066">
        <ele>59</ele>
        <time>2020-12-19T11:26:57.000Z</time>
      </trkpt>
      <trkpt lat="47.17739" lon="-1.34067">
        <ele>60</ele>
        <time>2020-12-19T11:26:59.000Z</time>
      </trkpt>
      <trkpt lat="47.17752" lon="-1.3407">
        <ele>60</ele>
        <time>2020-12-19T11:27:01.000Z</time>
      </trkpt>
      <trkpt lat="47.17764" lon="-1.34076">
        <ele>61</ele>
        <time>2020-12-19T11:27:03.000Z</time>
      </trkpt>
      <trkpt lat="47.17775" lon="-1.34082">
        <ele>61</ele>
        <time>2020-12-19T11:27:05.000Z</time>
      </trkpt>
      <trkpt lat="47.17787" lon="-1.34089">
        <ele>61</ele>
        <time>2020-12-19T11:27:07.000Z</time>
      </trkpt>
      <trkpt lat="47.17799" lon="-1.34096">
        <ele>61</ele>
        <time>2020-12-19T11:27:09.000Z</time>
      </trkpt>
      <trkpt lat="47.17812" lon="-1.34105">
        <ele>60</ele>
        <time>2020-12-19T11:27:11.000Z</time>
      </trkpt>
      <trkpt lat="47.17825" lon="-1.34114">
        <ele>60</ele>
        <time>2020-12-19T11:27:13.000Z</time>
      </trkpt>
      <trkpt lat="47.17839" lon="-1.3412">
        <ele>59</ele>
        <time>2020-12-19T11:27:15.000Z</time>
      </trkpt>
      <trkpt lat="47.17853" lon="-1.34126">
        <ele>58</ele>
        <time>2020-12-19T11:27:17.000Z</time>
      </trkpt>
      <trkpt lat="47.17868" lon="-1.3413">
        <ele>58</ele>
        <time>2020-12-19T11:27:19.000Z</time>
      </trkpt>
      <trkpt lat="47.17883" lon="-1.34132">
        <ele>58</ele>
        <time>2020-12-19T11:27:21.000Z</time>
      </trkpt>
      <trkpt lat="47.17897" lon="-1.34131">
        <ele>57</ele>
        <time>2020-12-19T11:27:23.000Z</time>
      </trkpt>
      <trkpt lat="47.17911" lon="-1.34129">
        <ele>57</ele>
        <time>2020-12-19T11:27:25.000Z</time>
      </trkpt>
      <trkpt lat="47.17925" lon="-1.34125">
        <ele>56</ele>
        <time>2020-12-19T11:27:27.000Z</time>
      </trkpt>
      <trkpt lat="47.17938" lon="-1.34118">
        <ele>56</ele>
        <time>2020-12-19T11:27:29.000Z</time>
      </trkpt>
      <trkpt lat="47.17951" lon="-1.34108">
        <ele>56</ele>
        <time>2020-12-19T11:27:31.000Z</time>
      </trkpt>
      <trkpt lat="47.17962" lon="-1.34096">
        <ele>56</ele>
        <time>2020-12-19T11:27:33.000Z</time>
      </trkpt>
      <trkpt lat="47.17973" lon="-1.34082">
        <ele>56</ele>
        <time>2020-12-19T11:27:35.000Z</time>
      </trkpt>
      <trkpt lat="47.17983" lon="-1.34069">
        <ele>56</ele>
        <time>2020-12-19T11:27:37.000Z</time>
      </trkpt>
      <trkpt lat="47.17992" lon="-1.34055">
        <ele>56</ele>
        <time>2020-12-19T11:27:39.000Z</time>
      </trkpt>
      <trkpt lat="47.18" lon="-1.34042">
        <ele>56</ele>
        <time>2020-12-19T11:27:41.000Z</time>
      </trkpt>
      <trkpt lat="47.1801" lon="-1.34037">
        <ele>56</ele>
        <time>2020-12-19T11:27:43.000Z</time>
      </trkpt>
      <trkpt lat="47.1802" lon="-1.34045">
        <ele>56</ele>
        <time>2020-12-19T11:27:45.000Z</time>
      </trkpt>
      <trkpt lat="47.18029" lon="-1.34055">
        <ele>56</ele>
        <time>2020-12-19T11:27:47.000Z</time>
      </trkpt>
      <trkpt lat="47.18041" lon="-1.34059">
        <ele>56</ele>
        <time>2020-12-19T11:27:49.000Z</time>
      </trkpt>
      <trkpt lat="47.18054" lon="-1.34063">
        <ele>56</ele>
        <time>2020-12-19T11:27:51.000Z</time>
      </trkpt>
      <trkpt lat="47.18068" lon="-1.34068">
        <ele>56</ele>
        <time>2020-12-19T11:27:53.000Z</time>
      </trkpt>
      <trkpt lat="47.18082" lon="-1.34074">
        <ele>56</ele>
        <time>2020-12-19T11:27:55.000Z</time>
      </trkpt>
      <trkpt lat="47.18095" lon="-1.34078">
        <ele>57</ele>
        <time>2020-12-19T11:27:57.000Z</time>
      </trkpt>
      <trkpt lat="47.18109" lon="-1.34083">
        <ele>56</ele>
        <time>2020-12-19T11:27:59.000Z</time>
      </trkpt>
      <trkpt lat="47.18123" lon="-1.34087">
        <ele>56</ele>
        <time>2020-12-19T11:28:01.000Z</time>
      </trkpt>
      <trkpt lat="47.18137" lon="-1.34089">
        <ele>56</ele>
        <time>2020-12-19T11:28:03.000Z</time>
      </trkpt>
      <trkpt lat="47.18151" lon="-1.34091">
        <ele>56</ele>
        <time>2020-12-19T11:28:05.000Z</time>
      </trkpt>
      <trkpt lat="47.18165" lon="-1.34092">
        <ele>56</ele>
        <time>2020-12-19T11:28:07.000Z</time>
      </trkpt>
      <trkpt lat="47.18179" lon="-1.34093">
        <ele>56</ele>
        <time>2020-12-19T11:28:09.000Z</time>
      </trkpt>
      <trkpt lat="47.18193" lon="-1.34093">
        <ele>55</ele>
        <time>2020-12-19T11:28:11.000Z</time>
      </trkpt>
      <trkpt lat="47.18207" lon="-1.34094">
        <ele>55</ele>
        <time>2020-12-19T11:28:13.000Z</time>
      </trkpt>
      <trkpt lat="47.18222" lon="-1.34094">
        <ele>55</ele>
        <time>2020-12-19T11:28:15.000Z</time>
      </trkpt>
      <trkpt lat="47.18236" lon="-1.34095">
        <ele>55</ele>
        <time>2020-12-19T11:28:17.000Z</time>
      </trkpt>
      <trkpt lat="47.1825" lon="-1.34096">
        <ele>56</ele>
        <time>2020-12-19T11:28:19.000Z</time>
      </trkpt>
      <trkpt lat="47.18265" lon="-1.34096">
        <ele>55</ele>
        <time>2020-12-19T11:28:21.000Z</time>
      </trkpt>
      <trkpt lat="47.18279" lon="-1.34097">
        <ele>56</ele>
        <time>2020-12-19T11:28:23.000Z</time>
      </trkpt>
      <trkpt lat="47.18294" lon="-1.34097">
        <ele>56</ele>
        <time>2020-12-19T11:28:25.000Z</time>
      </trkpt>
      <trkpt lat="47.18308" lon="-1.34098">
        <ele>56</ele>
        <time>2020-12-19T11:28:27.000Z</time>
      </trkpt>
      <trkpt lat="47.18322" lon="-1.34099">
        <ele>55</ele>
        <time>2020-12-19T11:28:29.000Z</time>
      </trkpt>
      <trkpt lat="47.18337" lon="-1.34099">
        <ele>56</ele>
        <time>2020-12-19T11:28:31.000Z</time>
      </trkpt>
      <trkpt lat="47.18351" lon="-1.341">
        <ele>56</ele>
        <time>2020-12-19T11:28:33.000Z</time>
      </trkpt>
      <trkpt lat="47.18366" lon="-1.34101">
        <ele>55</ele>
        <time>2020-12-19T11:28:35.000Z</time>
      </trkpt>
      <trkpt lat="47.18381" lon="-1.34102">
        <ele>56</ele>
        <time>2020-12-19T11:28:37.000Z</time>
      </trkpt>
      <trkpt lat="47.18395" lon="-1.34105">
        <ele>56</ele>
        <time>2020-12-19T11:28:39.000Z</time>
      </trkpt>
      <trkpt lat="47.18409" lon="-1.3411">
        <ele>55</ele>
        <time>2020-12-19T11:28:41.000Z</time>
      </trkpt>
      <trkpt lat="47.18422" lon="-1.34118">
        <ele>55</ele>
        <time>2020-12-19T11:28:43.000Z</time>
      </trkpt>
      <trkpt lat="47.18435" lon="-1.34128">
        <ele>55</ele>
        <time>2020-12-19T11:28:45.000Z</time>
      </trkpt>
      <trkpt lat="47.18448" lon="-1.34137">
        <ele>55</ele>
        <time>2020-12-19T11:28:47.000Z</time>
      </trkpt>
      <trkpt lat="47.18461" lon="-1.34147">
        <ele>55</ele>
        <time>2020-12-19T11:28:49.000Z</time>
      </trkpt>
      <trkpt lat="47.18474" lon="-1.34156">
        <ele>55</ele>
        <time>2020-12-19T11:28:51.000Z</time>
      </trkpt>
      <trkpt lat="47.18487" lon="-1.34166">
        <ele>54</ele>
        <time>2020-12-19T11:28:53.000Z</time>
      </trkpt>
      <trkpt lat="47.185" lon="-1.34175">
        <ele>54</ele>
        <time>2020-12-19T11:28:55.000Z</time>
      </trkpt>
      <trkpt lat="47.18513" lon="-1.34183">
        <ele>54</ele>
        <time>2020-12-19T11:28:57.000Z</time>
      </trkpt>
      <trkpt lat="47.18526" lon="-1.34191">
        <ele>54</ele>
        <time>2020-12-19T11:28:59.000Z</time>
      </trkpt>
      <trkpt lat="47.18547" lon="-1.34196">
        <ele>53</ele>
        <time>2020-12-19T11:29:02.000Z</time>
      </trkpt>
      <trkpt lat="47.18568" lon="-1.34191">
        <ele>53</ele>
        <time>2020-12-19T11:29:05.000Z</time>
      </trkpt>
      <trkpt lat="47.18582" lon="-1.34184">
        <ele>53</ele>
        <time>2020-12-19T11:29:07.000Z</time>
      </trkpt>
      <trkpt lat="47.18595" lon="-1.34177">
        <ele>53</ele>
        <time>2020-12-19T11:29:09.000Z</time>
      </trkpt>
      <trkpt lat="47.18608" lon="-1.34171">
        <ele>54</ele>
        <time>2020-12-19T11:29:11.000Z</time>
      </trkpt>
      <trkpt lat="47.18621" lon="-1.34164">
        <ele>54</ele>
        <time>2020-12-19T11:29:13.000Z</time>
      </trkpt>
      <trkpt lat="47.18634" lon="-1.34159">
        <ele>54</ele>
        <time>2020-12-19T11:29:15.000Z</time>
      </trkpt>
      <trkpt lat="47.18647" lon="-1.34153">
        <ele>53</ele>
        <time>2020-12-19T11:29:17.000Z</time>
      </trkpt>
      <trkpt lat="47.18661" lon="-1.34145">
        <ele>53</ele>
        <time>2020-12-19T11:29:19.000Z</time>
      </trkpt>
      <trkpt lat="47.18675" lon="-1.34137">
        <ele>53</ele>
        <time>2020-12-19T11:29:21.000Z</time>
      </trkpt>
      <trkpt lat="47.18689" lon="-1.3413">
        <ele>53</ele>
        <time>2020-12-19T11:29:23.000Z</time>
      </trkpt>
      <trkpt lat="47.18708" lon="-1.34121">
        <ele>53</ele>
        <time>2020-12-19T11:29:26.000Z</time>
      </trkpt>
      <trkpt lat="47.18729" lon="-1.34118">
        <ele>53</ele>
        <time>2020-12-19T11:29:29.000Z</time>
      </trkpt>
      <trkpt lat="47.18743" lon="-1.34121">
        <ele>53</ele>
        <time>2020-12-19T11:29:31.000Z</time>
      </trkpt>
      <trkpt lat="47.18763" lon="-1.34126">
        <ele>54</ele>
        <time>2020-12-19T11:29:34.000Z</time>
      </trkpt>
      <trkpt lat="47.18782" lon="-1.34132">
        <ele>54</ele>
        <time>2020-12-19T11:29:37.000Z</time>
      </trkpt>
      <trkpt lat="47.18796" lon="-1.34136">
        <ele>54</ele>
        <time>2020-12-19T11:29:39.000Z</time>
      </trkpt>
      <trkpt lat="47.18809" lon="-1.3414">
        <ele>54</ele>
        <time>2020-12-19T11:29:41.000Z</time>
      </trkpt>
      <trkpt lat="47.18822" lon="-1.34143">
        <ele>54</ele>
        <time>2020-12-19T11:29:43.000Z</time>
      </trkpt>
      <trkpt lat="47.1884" lon="-1.34149">
        <ele>56</ele>
        <time>2020-12-19T11:29:46.000Z</time>
      </trkpt>
      <trkpt lat="47.18859" lon="-1.34157">
        <ele>56</ele>
        <time>2020-12-19T11:29:49.000Z</time>
      </trkpt>
      <trkpt lat="47.18877" lon="-1.34164">
        <ele>56</ele>
        <time>2020-12-19T11:29:52.000Z</time>
      </trkpt>
      <trkpt lat="47.18889" lon="-1.34169">
        <ele>56</ele>
        <time>2020-12-19T11:29:54.000Z</time>
      </trkpt>
      <trkpt lat="47.18906" lon="-1.34176">
        <ele>57</ele>
        <time>2020-12-19T11:29:57.000Z</time>
      </trkpt>
      <trkpt lat="47.18918" lon="-1.34181">
        <ele>57</ele>
        <time>2020-12-19T11:29:59.000Z</time>
      </trkpt>
      <trkpt lat="47.18929" lon="-1.34185">
        <ele>57</ele>
        <time>2020-12-19T11:30:01.000Z</time>
      </trkpt>
      <trkpt lat="47.18941" lon="-1.3419">
        <ele>57</ele>
        <time>2020-12-19T11:30:03.000Z</time>
      </trkpt>
      <trkpt lat="47.18952" lon="-1.34195">
        <ele>57</ele>
        <time>2020-12-19T11:30:05.000Z</time>
      </trkpt>
      <trkpt lat="47.18964" lon="-1.342">
        <ele>58</ele>
        <time>2020-12-19T11:30:07.000Z</time>
      </trkpt>
      <trkpt lat="47.18975" lon="-1.34206">
        <ele>58</ele>
        <time>2020-12-19T11:30:09.000Z</time>
      </trkpt>
      <trkpt lat="47.18987" lon="-1.3421">
        <ele>58</ele>
        <time>2020-12-19T11:30:11.000Z</time>
      </trkpt>
      <trkpt lat="47.18998" lon="-1.34215">
        <ele>59</ele>
        <time>2020-12-19T11:30:13.000Z</time>
      </trkpt>
      <trkpt lat="47.19009" lon="-1.34219">
        <ele>59</ele>
        <time>2020-12-19T11:30:15.000Z</time>
      </trkpt>
      <trkpt lat="47.1902" lon="-1.34225">
        <ele>59</ele>
        <time>2020-12-19T11:30:17.000Z</time>
      </trkpt>
      <trkpt lat="47.19032" lon="-1.34229">
        <ele>59</ele>
        <time>2020-12-19T11:30:19.000Z</time>
      </trkpt>
      <trkpt lat="47.19043" lon="-1.34234">
        <ele>59</ele>
        <time>2020-12-19T11:30:21.000Z</time>
      </trkpt>
      <trkpt lat="47.19055" lon="-1.3424">
        <ele>59</ele>
        <time>2020-12-19T11:30:23.000Z</time>
      </trkpt>
      <trkpt lat="47.19067" lon="-1.34245">
        <ele>59</ele>
        <time>2020-12-19T11:30:25.000Z</time>
      </trkpt>
      <trkpt lat="47.19079" lon="-1.3425">
        <ele>59</ele>
        <time>2020-12-19T11:30:27.000Z</time>
      </trkpt>
      <trkpt lat="47.19091" lon="-1.34256">
        <ele>58</ele>
        <time>2020-12-19T11:30:29.000Z</time>
      </trkpt>
      <trkpt lat="47.1911" lon="-1.34263">
        <ele>58</ele>
        <time>2020-12-19T11:30:32.000Z</time>
      </trkpt>
      <trkpt lat="47.1913" lon="-1.34271">
        <ele>57</ele>
        <time>2020-12-19T11:30:35.000Z</time>
      </trkpt>
      <trkpt lat="47.19149" lon="-1.34279">
        <ele>57</ele>
        <time>2020-12-19T11:30:38.000Z</time>
      </trkpt>
      <trkpt lat="47.19162" lon="-1.34285">
        <ele>57</ele>
        <time>2020-12-19T11:30:40.000Z</time>
      </trkpt>
      <trkpt lat="47.19175" lon="-1.3429">
        <ele>57</ele>
        <time>2020-12-19T11:30:42.000Z</time>
      </trkpt>
      <trkpt lat="47.19188" lon="-1.34296">
        <ele>57</ele>
        <time>2020-12-19T11:30:44.000Z</time>
      </trkpt>
      <trkpt lat="47.192" lon="-1.34301">
        <ele>57</ele>
        <time>2020-12-19T11:30:46.000Z</time>
      </trkpt>
      <trkpt lat="47.19213" lon="-1.34307">
        <ele>56</ele>
        <time>2020-12-19T11:30:48.000Z</time>
      </trkpt>
      <trkpt lat="47.19226" lon="-1.34313">
        <ele>56</ele>
        <time>2020-12-19T11:30:50.000Z</time>
      </trkpt>
      <trkpt lat="47.19239" lon="-1.34319">
        <ele>56</ele>
        <time>2020-12-19T11:30:52.000Z</time>
      </trkpt>
      <trkpt lat="47.19252" lon="-1.34324">
        <ele>57</ele>
        <time>2020-12-19T11:30:54.000Z</time>
      </trkpt>
      <trkpt lat="47.19265" lon="-1.34331">
        <ele>57</ele>
        <time>2020-12-19T11:30:56.000Z</time>
      </trkpt>
      <trkpt lat="47.19278" lon="-1.34338">
        <ele>56</ele>
        <time>2020-12-19T11:30:58.000Z</time>
      </trkpt>
      <trkpt lat="47.1929" lon="-1.34347">
        <ele>56</ele>
        <time>2020-12-19T11:31:00.000Z</time>
      </trkpt>
      <trkpt lat="47.19302" lon="-1.34358">
        <ele>56</ele>
        <time>2020-12-19T11:31:02.000Z</time>
      </trkpt>
      <trkpt lat="47.19313" lon="-1.34368">
        <ele>56</ele>
        <time>2020-12-19T11:31:04.000Z</time>
      </trkpt>
      <trkpt lat="47.19324" lon="-1.34379">
        <ele>56</ele>
        <time>2020-12-19T11:31:06.000Z</time>
      </trkpt>
      <trkpt lat="47.19334" lon="-1.3439">
        <ele>56</ele>
        <time>2020-12-19T11:31:08.000Z</time>
      </trkpt>
      <trkpt lat="47.19344" lon="-1.34401">
        <ele>56</ele>
        <time>2020-12-19T11:31:10.000Z</time>
      </trkpt>
      <trkpt lat="47.19354" lon="-1.34412">
        <ele>55</ele>
        <time>2020-12-19T11:31:12.000Z</time>
      </trkpt>
      <trkpt lat="47.19365" lon="-1.34423">
        <ele>55</ele>
        <time>2020-12-19T11:31:14.000Z</time>
      </trkpt>
      <trkpt lat="47.19375" lon="-1.34435">
        <ele>54</ele>
        <time>2020-12-19T11:31:16.000Z</time>
      </trkpt>
      <trkpt lat="47.19385" lon="-1.34446">
        <ele>53</ele>
        <time>2020-12-19T11:31:18.000Z</time>
      </trkpt>
      <trkpt lat="47.19396" lon="-1.34457">
        <ele>53</ele>
        <time>2020-12-19T11:31:20.000Z</time>
      </trkpt>
      <trkpt lat="47.19406" lon="-1.34468">
        <ele>53</ele>
        <time>2020-12-19T11:31:22.000Z</time>
      </trkpt>
      <trkpt lat="47.19417" lon="-1.34481">
        <ele>53</ele>
        <time>2020-12-19T11:31:24.000Z</time>
      </trkpt>
      <trkpt lat="47.19429" lon="-1.34492">
        <ele>52</ele>
        <time>2020-12-19T11:31:26.000Z</time>
      </trkpt>
      <trkpt lat="47.1944" lon="-1.34504">
        <ele>52</ele>
        <time>2020-12-19T11:31:28.000Z</time>
      </trkpt>
      <trkpt lat="47.19451" lon="-1.34517">
        <ele>52</ele>
        <time>2020-12-19T11:31:30.000Z</time>
      </trkpt>
      <trkpt lat="47.19462" lon="-1.34529">
        <ele>52</ele>
        <time>2020-12-19T11:31:32.000Z</time>
      </trkpt>
      <trkpt lat="47.19473" lon="-1.34541">
        <ele>51</ele>
        <time>2020-12-19T11:31:34.000Z</time>
      </trkpt>
      <trkpt lat="47.19483" lon="-1.34553">
        <ele>51</ele>
        <time>2020-12-19T11:31:36.000Z</time>
      </trkpt>
      <trkpt lat="47.19495" lon="-1.34564">
        <ele>50</ele>
        <time>2020-12-19T11:31:38.000Z</time>
      </trkpt>
      <trkpt lat="47.19506" lon="-1.34575">
        <ele>51</ele>
        <time>2020-12-19T11:31:40.000Z</time>
      </trkpt>
      <trkpt lat="47.19516" lon="-1.34587">
        <ele>50</ele>
        <time>2020-12-19T11:31:42.000Z</time>
      </trkpt>
      <trkpt lat="47.19528" lon="-1.34597">
        <ele>50</ele>
        <time>2020-12-19T11:31:44.000Z</time>
      </trkpt>
      <trkpt lat="47.1954" lon="-1.34605">
        <ele>51</ele>
        <time>2020-12-19T11:31:46.000Z</time>
      </trkpt>
      <trkpt lat="47.19551" lon="-1.34613">
        <ele>51</ele>
        <time>2020-12-19T11:31:48.000Z</time>
      </trkpt>
      <trkpt lat="47.19563" lon="-1.3462">
        <ele>51</ele>
        <time>2020-12-19T11:31:50.000Z</time>
      </trkpt>
      <trkpt lat="47.19574" lon="-1.34629">
        <ele>52</ele>
        <time>2020-12-19T11:31:52.000Z</time>
      </trkpt>
      <trkpt lat="47.19586" lon="-1.34638">
        <ele>52</ele>
        <time>2020-12-19T11:31:54.000Z</time>
      </trkpt>
      <trkpt lat="47.19598" lon="-1.34646">
        <ele>53</ele>
        <time>2020-12-19T11:31:56.000Z</time>
      </trkpt>
      <trkpt lat="47.19609" lon="-1.34653">
        <ele>52</ele>
        <time>2020-12-19T11:31:58.000Z</time>
      </trkpt>
      <trkpt lat="47.19627" lon="-1.34665">
        <ele>53</ele>
        <time>2020-12-19T11:32:01.000Z</time>
      </trkpt>
      <trkpt lat="47.19638" lon="-1.34674">
        <ele>53</ele>
        <time>2020-12-19T11:32:03.000Z</time>
      </trkpt>
      <trkpt lat="47.19651" lon="-1.34683">
        <ele>52</ele>
        <time>2020-12-19T11:32:05.000Z</time>
      </trkpt>
      <trkpt lat="47.19663" lon="-1.34692">
        <ele>52</ele>
        <time>2020-12-19T11:32:07.000Z</time>
      </trkpt>
      <trkpt lat="47.19676" lon="-1.34701">
        <ele>52</ele>
        <time>2020-12-19T11:32:09.000Z</time>
      </trkpt>
      <trkpt lat="47.19689" lon="-1.34711">
        <ele>52</ele>
        <time>2020-12-19T11:32:11.000Z</time>
      </trkpt>
      <trkpt lat="47.19702" lon="-1.34721">
        <ele>52</ele>
        <time>2020-12-19T11:32:13.000Z</time>
      </trkpt>
      <trkpt lat="47.19716" lon="-1.34731">
        <ele>52</ele>
        <time>2020-12-19T11:32:15.000Z</time>
      </trkpt>
      <trkpt lat="47.1973" lon="-1.34739">
        <ele>52</ele>
        <time>2020-12-19T11:32:17.000Z</time>
      </trkpt>
      <trkpt lat="47.19745" lon="-1.34745">
        <ele>52</ele>
        <time>2020-12-19T11:32:19.000Z</time>
      </trkpt>
      <trkpt lat="47.1976" lon="-1.34751">
        <ele>51</ele>
        <time>2020-12-19T11:32:21.000Z</time>
      </trkpt>
      <trkpt lat="47.19782" lon="-1.34756">
        <ele>52</ele>
        <time>2020-12-19T11:32:24.000Z</time>
      </trkpt>
      <trkpt lat="47.19796" lon="-1.34758">
        <ele>52</ele>
        <time>2020-12-19T11:32:26.000Z</time>
      </trkpt>
      <trkpt lat="47.1981" lon="-1.34757">
        <ele>52</ele>
        <time>2020-12-19T11:32:28.000Z</time>
      </trkpt>
      <trkpt lat="47.19825" lon="-1.34757">
        <ele>52</ele>
        <time>2020-12-19T11:32:30.000Z</time>
      </trkpt>
      <trkpt lat="47.1984" lon="-1.34756">
        <ele>52</ele>
        <time>2020-12-19T11:32:32.000Z</time>
      </trkpt>
      <trkpt lat="47.19854" lon="-1.34756">
        <ele>52</ele>
        <time>2020-12-19T11:32:34.000Z</time>
      </trkpt>
      <trkpt lat="47.19869" lon="-1.34755">
        <ele>52</ele>
        <time>2020-12-19T11:32:36.000Z</time>
      </trkpt>
      <trkpt lat="47.19883" lon="-1.34755">
        <ele>51</ele>
        <time>2020-12-19T11:32:38.000Z</time>
      </trkpt>
      <trkpt lat="47.19898" lon="-1.34754">
        <ele>51</ele>
        <time>2020-12-19T11:32:40.000Z</time>
      </trkpt>
      <trkpt lat="47.19912" lon="-1.34754">
        <ele>51</ele>
        <time>2020-12-19T11:32:42.000Z</time>
      </trkpt>
      <trkpt lat="47.19925" lon="-1.34755">
        <ele>51</ele>
        <time>2020-12-19T11:32:44.000Z</time>
      </trkpt>
      <trkpt lat="47.19939" lon="-1.34757">
        <ele>50</ele>
        <time>2020-12-19T11:32:46.000Z</time>
      </trkpt>
      <trkpt lat="47.19953" lon="-1.34761">
        <ele>50</ele>
        <time>2020-12-19T11:32:48.000Z</time>
      </trkpt>
      <trkpt lat="47.19967" lon="-1.34767">
        <ele>51</ele>
        <time>2020-12-19T11:32:50.000Z</time>
      </trkpt>
      <trkpt lat="47.1998" lon="-1.34774">
        <ele>52</ele>
        <time>2020-12-19T11:32:52.000Z</time>
      </trkpt>
      <trkpt lat="47.19993" lon="-1.34783">
        <ele>52</ele>
        <time>2020-12-19T11:32:54.000Z</time>
      </trkpt>
      <trkpt lat="47.20006" lon="-1.3479">
        <ele>52</ele>
        <time>2020-12-19T11:32:56.000Z</time>
      </trkpt>
      <trkpt lat="47.20018" lon="-1.34798">
        <ele>52</ele>
        <time>2020-12-19T11:32:58.000Z</time>
      </trkpt>
      <trkpt lat="47.20031" lon="-1.34807">
        <ele>52</ele>
        <time>2020-12-19T11:33:00.000Z</time>
      </trkpt>
      <trkpt lat="47.20044" lon="-1.34815">
        <ele>52</ele>
        <time>2020-12-19T11:33:02.000Z</time>
      </trkpt>
      <trkpt lat="47.20057" lon="-1.34824">
        <ele>52</ele>
        <time>2020-12-19T11:33:04.000Z</time>
      </trkpt>
      <trkpt lat="47.2007" lon="-1.34831">
        <ele>52</ele>
        <time>2020-12-19T11:33:06.000Z</time>
      </trkpt>
      <trkpt lat="47.20083" lon="-1.34839">
        <ele>52</ele>
        <time>2020-12-19T11:33:08.000Z</time>
      </trkpt>
      <trkpt lat="47.20096" lon="-1.34845">
        <ele>51</ele>
        <time>2020-12-19T11:33:10.000Z</time>
      </trkpt>
      <trkpt lat="47.2011" lon="-1.34849">
        <ele>52</ele>
        <time>2020-12-19T11:33:12.000Z</time>
      </trkpt>
      <trkpt lat="47.20124" lon="-1.34852">
        <ele>52</ele>
        <time>2020-12-19T11:33:14.000Z</time>
      </trkpt>
      <trkpt lat="47.20138" lon="-1.34854">
        <ele>52</ele>
        <time>2020-12-19T11:33:16.000Z</time>
      </trkpt>
      <trkpt lat="47.20153" lon="-1.34854">
        <ele>52</ele>
        <time>2020-12-19T11:33:18.000Z</time>
      </trkpt>
      <trkpt lat="47.20167" lon="-1.34853">
        <ele>52</ele>
        <time>2020-12-19T11:33:20.000Z</time>
      </trkpt>
      <trkpt lat="47.20181" lon="-1.3485">
        <ele>52</ele>
        <time>2020-12-19T11:33:22.000Z</time>
      </trkpt>
      <trkpt lat="47.20195" lon="-1.34845">
        <ele>52</ele>
        <time>2020-12-19T11:33:24.000Z</time>
      </trkpt>
      <trkpt lat="47.20208" lon="-1.3484">
        <ele>52</ele>
        <time>2020-12-19T11:33:26.000Z</time>
      </trkpt>
      <trkpt lat="47.20222" lon="-1.34835">
        <ele>52</ele>
        <time>2020-12-19T11:33:28.000Z</time>
      </trkpt>
      <trkpt lat="47.20236" lon="-1.3483">
        <ele>52</ele>
        <time>2020-12-19T11:33:30.000Z</time>
      </trkpt>
      <trkpt lat="47.20249" lon="-1.34823">
        <ele>52</ele>
        <time>2020-12-19T11:33:32.000Z</time>
      </trkpt>
      <trkpt lat="47.20263" lon="-1.34818">
        <ele>51</ele>
        <time>2020-12-19T11:33:34.000Z</time>
      </trkpt>
      <trkpt lat="47.20276" lon="-1.34812">
        <ele>52</ele>
        <time>2020-12-19T11:33:36.000Z</time>
      </trkpt>
      <trkpt lat="47.20289" lon="-1.34807">
        <ele>52</ele>
        <time>2020-12-19T11:33:38.000Z</time>
      </trkpt>
      <trkpt lat="47.20302" lon="-1.34801">
        <ele>52</ele>
        <time>2020-12-19T11:33:40.000Z</time>
      </trkpt>
      <trkpt lat="47.20314" lon="-1.34797">
        <ele>51</ele>
        <time>2020-12-19T11:33:42.000Z</time>
      </trkpt>
      <trkpt lat="47.20326" lon="-1.3479">
        <ele>51</ele>
        <time>2020-12-19T11:33:44.000Z</time>
      </trkpt>
      <trkpt lat="47.20339" lon="-1.34786">
        <ele>52</ele>
        <time>2020-12-19T11:33:46.000Z</time>
      </trkpt>
      <trkpt lat="47.20352" lon="-1.34781">
        <ele>52</ele>
        <time>2020-12-19T11:33:48.000Z</time>
      </trkpt>
      <trkpt lat="47.20365" lon="-1.34779">
        <ele>52</ele>
        <time>2020-12-19T11:33:50.000Z</time>
      </trkpt>
      <trkpt lat="47.20379" lon="-1.34777">
        <ele>52</ele>
        <time>2020-12-19T11:33:52.000Z</time>
      </trkpt>
      <trkpt lat="47.20392" lon="-1.34776">
        <ele>53</ele>
        <time>2020-12-19T11:33:54.000Z</time>
      </trkpt>
      <trkpt lat="47.20406" lon="-1.34776">
        <ele>52</ele>
        <time>2020-12-19T11:33:56.000Z</time>
      </trkpt>
      <trkpt lat="47.20419" lon="-1.34777">
        <ele>53</ele>
        <time>2020-12-19T11:33:58.000Z</time>
      </trkpt>
      <trkpt lat="47.20432" lon="-1.34778">
        <ele>53</ele>
        <time>2020-12-19T11:34:00.000Z</time>
      </trkpt>
      <trkpt lat="47.20446" lon="-1.34779">
        <ele>52</ele>
        <time>2020-12-19T11:34:02.000Z</time>
      </trkpt>
      <trkpt lat="47.2046" lon="-1.3478">
        <ele>53</ele>
        <time>2020-12-19T11:34:04.000Z</time>
      </trkpt>
      <trkpt lat="47.20473" lon="-1.34781">
        <ele>53</ele>
        <time>2020-12-19T11:34:06.000Z</time>
      </trkpt>
      <trkpt lat="47.20487" lon="-1.34781">
        <ele>54</ele>
        <time>2020-12-19T11:34:08.000Z</time>
      </trkpt>
      <trkpt lat="47.205" lon="-1.34782">
        <ele>54</ele>
        <time>2020-12-19T11:34:10.000Z</time>
      </trkpt>
      <trkpt lat="47.20514" lon="-1.34782">
        <ele>54</ele>
        <time>2020-12-19T11:34:12.000Z</time>
      </trkpt>
      <trkpt lat="47.20527" lon="-1.34783">
        <ele>54</ele>
        <time>2020-12-19T11:34:14.000Z</time>
      </trkpt>
      <trkpt lat="47.20542" lon="-1.34784">
        <ele>55</ele>
        <time>2020-12-19T11:34:16.000Z</time>
      </trkpt>
      <trkpt lat="47.20557" lon="-1.34785">
        <ele>56</ele>
        <time>2020-12-19T11:34:18.000Z</time>
      </trkpt>
      <trkpt lat="47.20571" lon="-1.34788">
        <ele>55</ele>
        <time>2020-12-19T11:34:20.000Z</time>
      </trkpt>
      <trkpt lat="47.20585" lon="-1.3479">
        <ele>55</ele>
        <time>2020-12-19T11:34:22.000Z</time>
      </trkpt>
      <trkpt lat="47.20599" lon="-1.34795">
        <ele>56</ele>
        <time>2020-12-19T11:34:24.000Z</time>
      </trkpt>
      <trkpt lat="47.20612" lon="-1.34802">
        <ele>55</ele>
        <time>2020-12-19T11:34:26.000Z</time>
      </trkpt>
      <trkpt lat="47.20625" lon="-1.34809">
        <ele>55</ele>
        <time>2020-12-19T11:34:28.000Z</time>
      </trkpt>
      <trkpt lat="47.20637" lon="-1.34817">
        <ele>55</ele>
        <time>2020-12-19T11:34:30.000Z</time>
      </trkpt>
      <trkpt lat="47.20649" lon="-1.34826">
        <ele>55</ele>
        <time>2020-12-19T11:34:32.000Z</time>
      </trkpt>
      <trkpt lat="47.20661" lon="-1.34837">
        <ele>55</ele>
        <time>2020-12-19T11:34:34.000Z</time>
      </trkpt>
      <trkpt lat="47.20673" lon="-1.34848">
        <ele>54</ele>
        <time>2020-12-19T11:34:36.000Z</time>
      </trkpt>
      <trkpt lat="47.20684" lon="-1.34859">
        <ele>54</ele>
        <time>2020-12-19T11:34:38.000Z</time>
      </trkpt>
      <trkpt lat="47.20696" lon="-1.3487">
        <ele>54</ele>
        <time>2020-12-19T11:34:40.000Z</time>
      </trkpt>
      <trkpt lat="47.20707" lon="-1.34881">
        <ele>54</ele>
        <time>2020-12-19T11:34:42.000Z</time>
      </trkpt>
      <trkpt lat="47.20718" lon="-1.34892">
        <ele>53</ele>
        <time>2020-12-19T11:34:44.000Z</time>
      </trkpt>
      <trkpt lat="47.20729" lon="-1.34903">
        <ele>53</ele>
        <time>2020-12-19T11:34:46.000Z</time>
      </trkpt>
      <trkpt lat="47.20741" lon="-1.34912">
        <ele>53</ele>
        <time>2020-12-19T11:34:48.000Z</time>
      </trkpt>
      <trkpt lat="47.20752" lon="-1.34922">
        <ele>54</ele>
        <time>2020-12-19T11:34:50.000Z</time>
      </trkpt>
      <trkpt lat="47.20762" lon="-1.34932">
        <ele>54</ele>
        <time>2020-12-19T11:34:52.000Z</time>
      </trkpt>
      <trkpt lat="47.20771" lon="-1.34942">
        <ele>54</ele>
        <time>2020-12-19T11:34:54.000Z</time>
      </trkpt>
      <trkpt lat="47.20781" lon="-1.34951">
        <ele>54</ele>
        <time>2020-12-19T11:34:56.000Z</time>
      </trkpt>
      <trkpt lat="47.20791" lon="-1.34961">
        <ele>54</ele>
        <time>2020-12-19T11:34:58.000Z</time>
      </trkpt>
      <trkpt lat="47.20801" lon="-1.3497">
        <ele>54</ele>
        <time>2020-12-19T11:35:00.000Z</time>
      </trkpt>
      <trkpt lat="47.20812" lon="-1.34979">
        <ele>55</ele>
        <time>2020-12-19T11:35:02.000Z</time>
      </trkpt>
      <trkpt lat="47.20822" lon="-1.34989">
        <ele>55</ele>
        <time>2020-12-19T11:35:04.000Z</time>
      </trkpt>
      <trkpt lat="47.20832" lon="-1.34999">
        <ele>55</ele>
        <time>2020-12-19T11:35:06.000Z</time>
      </trkpt>
      <trkpt lat="47.20842" lon="-1.35009">
        <ele>55</ele>
        <time>2020-12-19T11:35:08.000Z</time>
      </trkpt>
      <trkpt lat="47.20851" lon="-1.3502">
        <ele>56</ele>
        <time>2020-12-19T11:35:10.000Z</time>
      </trkpt>
      <trkpt lat="47.20861" lon="-1.35031">
        <ele>56</ele>
        <time>2020-12-19T11:35:12.000Z</time>
      </trkpt>
      <trkpt lat="47.2087" lon="-1.35043">
        <ele>56</ele>
        <time>2020-12-19T11:35:14.000Z</time>
      </trkpt>
      <trkpt lat="47.20878" lon="-1.35056">
        <ele>56</ele>
        <time>2020-12-19T11:35:16.000Z</time>
      </trkpt>
      <trkpt lat="47.20886" lon="-1.35071">
        <ele>56</ele>
        <time>2020-12-19T11:35:18.000Z</time>
      </trkpt>
      <trkpt lat="47.20893" lon="-1.35085">
        <ele>56</ele>
        <time>2020-12-19T11:35:20.000Z</time>
      </trkpt>
      <trkpt lat="47.209" lon="-1.351">
        <ele>56</ele>
        <time>2020-12-19T11:35:22.000Z</time>
      </trkpt>
      <trkpt lat="47.20907" lon="-1.35115">
        <ele>56</ele>
        <time>2020-12-19T11:35:24.000Z</time>
      </trkpt>
      <trkpt lat="47.20913" lon="-1.3513">
        <ele>56</ele>
        <time>2020-12-19T11:35:26.000Z</time>
      </trkpt>
      <trkpt lat="47.2092" lon="-1.35146">
        <ele>56</ele>
        <time>2020-12-19T11:35:28.000Z</time>
      </trkpt>
      <trkpt lat="47.20926" lon="-1.35161">
        <ele>56</ele>
        <time>2020-12-19T11:35:30.000Z</time>
      </trkpt>
      <trkpt lat="47.20932" lon="-1.35176">
        <ele>56</ele>
        <time>2020-12-19T11:35:32.000Z</time>
      </trkpt>
      <trkpt lat="47.20939" lon="-1.35191">
        <ele>56</ele>
        <time>2020-12-19T11:35:34.000Z</time>
      </trkpt>
      <trkpt lat="47.20945" lon="-1.35206">
        <ele>56</ele>
        <time>2020-12-19T11:35:36.000Z</time>
      </trkpt>
      <trkpt lat="47.20952" lon="-1.3522">
        <ele>55</ele>
        <time>2020-12-19T11:35:38.000Z</time>
      </trkpt>
      <trkpt lat="47.20959" lon="-1.35236">
        <ele>56</ele>
        <time>2020-12-19T11:35:40.000Z</time>
      </trkpt>
      <trkpt lat="47.20966" lon="-1.35251">
        <ele>55</ele>
        <time>2020-12-19T11:35:42.000Z</time>
      </trkpt>
      <trkpt lat="47.20972" lon="-1.35265">
        <ele>55</ele>
        <time>2020-12-19T11:35:44.000Z</time>
      </trkpt>
      <trkpt lat="47.2098" lon="-1.35279">
        <ele>56</ele>
        <time>2020-12-19T11:35:46.000Z</time>
      </trkpt>
      <trkpt lat="47.20988" lon="-1.35293">
        <ele>55</ele>
        <time>2020-12-19T11:35:48.000Z</time>
      </trkpt>
      <trkpt lat="47.20997" lon="-1.35306">
        <ele>55</ele>
        <time>2020-12-19T11:35:50.000Z</time>
      </trkpt>
      <trkpt lat="47.21007" lon="-1.35317">
        <ele>55</ele>
        <time>2020-12-19T11:35:52.000Z</time>
      </trkpt>
      <trkpt lat="47.21018" lon="-1.35327">
        <ele>54</ele>
        <time>2020-12-19T11:35:54.000Z</time>
      </trkpt>
      <trkpt lat="47.2103" lon="-1.35337">
        <ele>54</ele>
        <time>2020-12-19T11:35:56.000Z</time>
      </trkpt>
      <trkpt lat="47.21043" lon="-1.35344">
        <ele>54</ele>
        <time>2020-12-19T11:35:58.000Z</time>
      </trkpt>
      <trkpt lat="47.21056" lon="-1.35351">
        <ele>54</ele>
        <time>2020-12-19T11:36:00.000Z</time>
      </trkpt>
      <trkpt lat="47.21069" lon="-1.35355">
        <ele>54</ele>
        <time>2020-12-19T11:36:02.000Z</time>
      </trkpt>
      <trkpt lat="47.21081" lon="-1.35358">
        <ele>54</ele>
        <time>2020-12-19T11:36:04.000Z</time>
      </trkpt>
      <trkpt lat="47.21094" lon="-1.35361">
        <ele>55</ele>
        <time>2020-12-19T11:36:06.000Z</time>
      </trkpt>
      <trkpt lat="47.21107" lon="-1.35364">
        <ele>55</ele>
        <time>2020-12-19T11:36:08.000Z</time>
      </trkpt>
      <trkpt lat="47.2112" lon="-1.35366">
        <ele>55</ele>
        <time>2020-12-19T11:36:10.000Z</time>
      </trkpt>
      <trkpt lat="47.21134" lon="-1.35368">
        <ele>55</ele>
        <time>2020-12-19T11:36:12.000Z</time>
      </trkpt>
      <trkpt lat="47.21148" lon="-1.35371">
        <ele>55</ele>
        <time>2020-12-19T11:36:14.000Z</time>
      </trkpt>
      <trkpt lat="47.2116" lon="-1.35374">
        <ele>55</ele>
        <time>2020-12-19T11:36:16.000Z</time>
      </trkpt>
      <trkpt lat="47.21173" lon="-1.35377">
        <ele>54</ele>
        <time>2020-12-19T11:36:18.000Z</time>
      </trkpt>
      <trkpt lat="47.21185" lon="-1.3538">
        <ele>54</ele>
        <time>2020-12-19T11:36:20.000Z</time>
      </trkpt>
      <trkpt lat="47.21199" lon="-1.35383">
        <ele>54</ele>
        <time>2020-12-19T11:36:22.000Z</time>
      </trkpt>
      <trkpt lat="47.21212" lon="-1.35388">
        <ele>53</ele>
        <time>2020-12-19T11:36:24.000Z</time>
      </trkpt>
      <trkpt lat="47.21225" lon="-1.35393">
        <ele>53</ele>
        <time>2020-12-19T11:36:26.000Z</time>
      </trkpt>
      <trkpt lat="47.21238" lon="-1.35401">
        <ele>54</ele>
        <time>2020-12-19T11:36:28.000Z</time>
      </trkpt>
      <trkpt lat="47.2125" lon="-1.3541">
        <ele>54</ele>
        <time>2020-12-19T11:36:30.000Z</time>
      </trkpt>
      <trkpt lat="47.21262" lon="-1.35421">
        <ele>54</ele>
        <time>2020-12-19T11:36:32.000Z</time>
      </trkpt>
      <trkpt lat="47.21272" lon="-1.35432">
        <ele>54</ele>
        <time>2020-12-19T11:36:34.000Z</time>
      </trkpt>
      <trkpt lat="47.2128" lon="-1.35443">
        <ele>55</ele>
        <time>2020-12-19T11:36:36.000Z</time>
      </trkpt>
      <trkpt lat="47.21289" lon="-1.35453">
        <ele>56</ele>
        <time>2020-12-19T11:36:38.000Z</time>
      </trkpt>
      <trkpt lat="47.21296" lon="-1.35462">
        <ele>57</ele>
        <time>2020-12-19T11:36:40.000Z</time>
      </trkpt>
      <trkpt lat="47.21304" lon="-1.35471">
        <ele>57</ele>
        <time>2020-12-19T11:36:42.000Z</time>
      </trkpt>
      <trkpt lat="47.21312" lon="-1.3548">
        <ele>58</ele>
        <time>2020-12-19T11:36:44.000Z</time>
      </trkpt>
      <trkpt lat="47.21319" lon="-1.3549">
        <ele>58</ele>
        <time>2020-12-19T11:36:46.000Z</time>
      </trkpt>
      <trkpt lat="47.21327" lon="-1.35499">
        <ele>59</ele>
        <time>2020-12-19T11:36:48.000Z</time>
      </trkpt>
      <trkpt lat="47.21334" lon="-1.35507">
        <ele>60</ele>
        <time>2020-12-19T11:36:50.000Z</time>
      </trkpt>
      <trkpt lat="47.21344" lon="-1.35519">
        <ele>61</ele>
        <time>2020-12-19T11:36:53.000Z</time>
      </trkpt>
      <trkpt lat="47.21354" lon="-1.35531">
        <ele>62</ele>
        <time>2020-12-19T11:36:56.000Z</time>
      </trkpt>
      <trkpt lat="47.21363" lon="-1.35542">
        <ele>63</ele>
        <time>2020-12-19T11:36:59.000Z</time>
      </trkpt>
      <trkpt lat="47.21372" lon="-1.35553">
        <ele>63</ele>
        <time>2020-12-19T11:37:02.000Z</time>
      </trkpt>
      <trkpt lat="47.21381" lon="-1.35564">
        <ele>64</ele>
        <time>2020-12-19T11:37:05.000Z</time>
      </trkpt>
      <trkpt lat="47.2139" lon="-1.35574">
        <ele>65</ele>
        <time>2020-12-19T11:37:08.000Z</time>
      </trkpt>
      <trkpt lat="47.21398" lon="-1.35584">
        <ele>65</ele>
        <time>2020-12-19T11:37:11.000Z</time>
      </trkpt>
      <trkpt lat="47.21407" lon="-1.35593">
        <ele>66</ele>
        <time>2020-12-19T11:37:14.000Z</time>
      </trkpt>
      <trkpt lat="47.21415" lon="-1.35603">
        <ele>66</ele>
        <time>2020-12-19T11:37:17.000Z</time>
      </trkpt>
      <trkpt lat="47.21423" lon="-1.35612">
        <ele>67</ele>
        <time>2020-12-19T11:37:20.000Z</time>
      </trkpt>
      <trkpt lat="47.21432" lon="-1.35621">
        <ele>67</ele>
        <time>2020-12-19T11:37:23.000Z</time>
      </trkpt>
      <trkpt lat="47.2144" lon="-1.35631">
        <ele>68</ele>
        <time>2020-12-19T11:37:26.000Z</time>
      </trkpt>
      <trkpt lat="47.21448" lon="-1.35641">
        <ele>69</ele>
        <time>2020-12-19T11:37:29.000Z</time>
      </trkpt>
      <trkpt lat="47.21456" lon="-1.35651">
        <ele>70</ele>
        <time>2020-12-19T11:37:32.000Z</time>
      </trkpt>
      <trkpt lat="47.21464" lon="-1.3566">
        <ele>70</ele>
        <time>2020-12-19T11:37:35.000Z</time>
      </trkpt>
      <trkpt lat="47.21472" lon="-1.3567">
        <ele>71</ele>
        <time>2020-12-19T11:37:38.000Z</time>
      </trkpt>
      <trkpt lat="47.21481" lon="-1.3568">
        <ele>72</ele>
        <time>2020-12-19T11:37:41.000Z</time>
      </trkpt>
      <trkpt lat="47.21489" lon="-1.3569">
        <ele>72</ele>
        <time>2020-12-19T11:37:44.000Z</time>
      </trkpt>
      <trkpt lat="47.21497" lon="-1.35699">
        <ele>73</ele>
        <time>2020-12-19T11:37:47.000Z</time>
      </trkpt>
      <trkpt lat="47.21505" lon="-1.35708">
        <ele>73</ele>
        <time>2020-12-19T11:37:50.000Z</time>
      </trkpt>
      <trkpt lat="47.21514" lon="-1.35717">
        <ele>74</ele>
        <time>2020-12-19T11:37:53.000Z</time>
      </trkpt>
      <trkpt lat="47.21522" lon="-1.35727">
        <ele>75</ele>
        <time>2020-12-19T11:37:56.000Z</time>
      </trkpt>
      <trkpt lat="47.2153" lon="-1.35738">
        <ele>76</ele>
        <time>2020-12-19T11:37:59.000Z</time>
      </trkpt>
      <trkpt lat="47.21539" lon="-1.35747">
        <ele>77</ele>
        <time>2020-12-19T11:38:02.000Z</time>
      </trkpt>
      <trkpt lat="47.21548" lon="-1.35755">
        <ele>77</ele>
        <time>2020-12-19T11:38:05.000Z</time>
      </trkpt>
      <trkpt lat="47.21558" lon="-1.35764">
        <ele>79</ele>
        <time>2020-12-19T11:38:08.000Z</time>
      </trkpt>
      <trkpt lat="47.21567" lon="-1.35772">
        <ele>80</ele>
        <time>2020-12-19T11:38:11.000Z</time>
      </trkpt>
      <trkpt lat="47.21577" lon="-1.3578">
        <ele>81</ele>
        <time>2020-12-19T11:38:14.000Z</time>
      </trkpt>
      <trkpt lat="47.21591" lon="-1.35787">
        <ele>81</ele>
        <time>2020-12-19T11:38:17.000Z</time>
      </trkpt>
      <trkpt lat="47.216" lon="-1.35791">
        <ele>81</ele>
        <time>2020-12-19T11:38:19.000Z</time>
      </trkpt>
      <trkpt lat="47.2161" lon="-1.35795">
        <ele>82</ele>
        <time>2020-12-19T11:38:21.000Z</time>
      </trkpt>
      <trkpt lat="47.21618" lon="-1.35802">
        <ele>82</ele>
        <time>2020-12-19T11:38:23.000Z</time>
      </trkpt>
      <trkpt lat="47.21626" lon="-1.3581">
        <ele>82</ele>
        <time>2020-12-19T11:38:25.000Z</time>
      </trkpt>
      <trkpt lat="47.21634" lon="-1.35818">
        <ele>83</ele>
        <time>2020-12-19T11:38:27.000Z</time>
      </trkpt>
      <trkpt lat="47.21642" lon="-1.35825">
        <ele>82</ele>
        <time>2020-12-19T11:38:29.000Z</time>
      </trkpt>
      <trkpt lat="47.21651" lon="-1.35833">
        <ele>82</ele>
        <time>2020-12-19T11:38:31.000Z</time>
      </trkpt>
      <trkpt lat="47.21661" lon="-1.35842">
        <ele>81</ele>
        <time>2020-12-19T11:38:33.000Z</time>
      </trkpt>
      <trkpt lat="47.2167" lon="-1.35851">
        <ele>81</ele>
        <time>2020-12-19T11:38:35.000Z</time>
      </trkpt>
      <trkpt lat="47.21681" lon="-1.3586">
        <ele>80</ele>
        <time>2020-12-19T11:38:37.000Z</time>
      </trkpt>
      <trkpt lat="47.21693" lon="-1.35869">
        <ele>79</ele>
        <time>2020-12-19T11:38:39.000Z</time>
      </trkpt>
      <trkpt lat="47.21706" lon="-1.3588">
        <ele>78</ele>
        <time>2020-12-19T11:38:41.000Z</time>
      </trkpt>
      <trkpt lat="47.2172" lon="-1.35889">
        <ele>77</ele>
        <time>2020-12-19T11:38:43.000Z</time>
      </trkpt>
      <trkpt lat="47.21735" lon="-1.35898">
        <ele>76</ele>
        <time>2020-12-19T11:38:45.000Z</time>
      </trkpt>
      <trkpt lat="47.21751" lon="-1.35906">
        <ele>74</ele>
        <time>2020-12-19T11:38:47.000Z</time>
      </trkpt>
      <trkpt lat="47.2176" lon="-1.3591">
        <ele>74</ele>
        <time>2020-12-19T11:38:48.000Z</time>
      </trkpt>
      <trkpt lat="47.21769" lon="-1.35914">
        <ele>73</ele>
        <time>2020-12-19T11:38:49.000Z</time>
      </trkpt>
      <trkpt lat="47.21778" lon="-1.35917">
        <ele>73</ele>
        <time>2020-12-19T11:38:50.000Z</time>
      </trkpt>
      <trkpt lat="47.21788" lon="-1.35921">
        <ele>72</ele>
        <time>2020-12-19T11:38:51.000Z</time>
      </trkpt>
      <trkpt lat="47.21797" lon="-1.35923">
        <ele>72</ele>
        <time>2020-12-19T11:38:52.000Z</time>
      </trkpt>
      <trkpt lat="47.21807" lon="-1.35926">
        <ele>71</ele>
        <time>2020-12-19T11:38:53.000Z</time>
      </trkpt>
      <trkpt lat="47.21817" lon="-1.35929">
        <ele>71</ele>
        <time>2020-12-19T11:38:54.000Z</time>
      </trkpt>
      <trkpt lat="47.21827" lon="-1.35932">
        <ele>70</ele>
        <time>2020-12-19T11:38:55.000Z</time>
      </trkpt>
      <trkpt lat="47.21837" lon="-1.35934">
        <ele>69</ele>
        <time>2020-12-19T11:38:56.000Z</time>
      </trkpt>
      <trkpt lat="47.21847" lon="-1.35937">
        <ele>68</ele>
        <time>2020-12-19T11:38:57.000Z</time>
      </trkpt>
      <trkpt lat="47.21858" lon="-1.3594">
        <ele>68</ele>
        <time>2020-12-19T11:38:58.000Z</time>
      </trkpt>
      <trkpt lat="47.21868" lon="-1.35943">
        <ele>68</ele>
        <time>2020-12-19T11:38:59.000Z</time>
      </trkpt>
      <trkpt lat="47.21878" lon="-1.35947">
        <ele>68</ele>
        <time>2020-12-19T11:39:00.000Z</time>
      </trkpt>
      <trkpt lat="47.21887" lon="-1.35953">
        <ele>68</ele>
        <time>2020-12-19T11:39:01.000Z</time>
      </trkpt>
      <trkpt lat="47.21895" lon="-1.3596">
        <ele>67</ele>
        <time>2020-12-19T11:39:02.000Z</time>
      </trkpt>
      <trkpt lat="47.21903" lon="-1.35969">
        <ele>67</ele>
        <time>2020-12-19T11:39:03.000Z</time>
      </trkpt>
      <trkpt lat="47.21909" lon="-1.3598">
        <ele>67</ele>
        <time>2020-12-19T11:39:04.000Z</time>
      </trkpt>
      <trkpt lat="47.21914" lon="-1.35993">
        <ele>67</ele>
        <time>2020-12-19T11:39:05.000Z</time>
      </trkpt>
      <trkpt lat="47.21917" lon="-1.36005">
        <ele>66</ele>
        <time>2020-12-19T11:39:06.000Z</time>
      </trkpt>
      <trkpt lat="47.2192" lon="-1.36018">
        <ele>66</ele>
        <time>2020-12-19T11:39:07.000Z</time>
      </trkpt>
      <trkpt lat="47.21922" lon="-1.36031">
        <ele>66</ele>
        <time>2020-12-19T11:39:08.000Z</time>
      </trkpt>
      <trkpt lat="47.21926" lon="-1.36056">
        <ele>65</ele>
        <time>2020-12-19T11:39:10.000Z</time>
      </trkpt>
      <trkpt lat="47.21932" lon="-1.36079">
        <ele>64</ele>
        <time>2020-12-19T11:39:12.000Z</time>
      </trkpt>
      <trkpt lat="47.21939" lon="-1.36101">
        <ele>64</ele>
        <time>2020-12-19T11:39:14.000Z</time>
      </trkpt>
      <trkpt lat="47.21948" lon="-1.36122">
        <ele>63</ele>
        <time>2020-12-19T11:39:16.000Z</time>
      </trkpt>
      <trkpt lat="47.21958" lon="-1.3614">
        <ele>62</ele>
        <time>2020-12-19T11:39:18.000Z</time>
      </trkpt>
      <trkpt lat="47.2197" lon="-1.36156">
        <ele>62</ele>
        <time>2020-12-19T11:39:20.000Z</time>
      </trkpt>
      <trkpt lat="47.21981" lon="-1.3617">
        <ele>62</ele>
        <time>2020-12-19T11:39:22.000Z</time>
      </trkpt>
      <trkpt lat="47.21993" lon="-1.36182">
        <ele>61</ele>
        <time>2020-12-19T11:39:24.000Z</time>
      </trkpt>
      <trkpt lat="47.22005" lon="-1.36196">
        <ele>61</ele>
        <time>2020-12-19T11:39:26.000Z</time>
      </trkpt>
      <trkpt lat="47.22016" lon="-1.3621">
        <ele>61</ele>
        <time>2020-12-19T11:39:28.000Z</time>
      </trkpt>
      <trkpt lat="47.22028" lon="-1.36224">
        <ele>61</ele>
        <time>2020-12-19T11:39:30.000Z</time>
      </trkpt>
      <trkpt lat="47.22039" lon="-1.36237">
        <ele>60</ele>
        <time>2020-12-19T11:39:32.000Z</time>
      </trkpt>
      <trkpt lat="47.22051" lon="-1.36251">
        <ele>60</ele>
        <time>2020-12-19T11:39:34.000Z</time>
      </trkpt>
      <trkpt lat="47.22063" lon="-1.36264">
        <ele>61</ele>
        <time>2020-12-19T11:39:36.000Z</time>
      </trkpt>
      <trkpt lat="47.22075" lon="-1.36277">
        <ele>61</ele>
        <time>2020-12-19T11:39:38.000Z</time>
      </trkpt>
      <trkpt lat="47.22086" lon="-1.36291">
        <ele>61</ele>
        <time>2020-12-19T11:39:40.000Z</time>
      </trkpt>
      <trkpt lat="47.22097" lon="-1.36304">
        <ele>61</ele>
        <time>2020-12-19T11:39:42.000Z</time>
      </trkpt>
      <trkpt lat="47.22108" lon="-1.36317">
        <ele>61</ele>
        <time>2020-12-19T11:39:44.000Z</time>
      </trkpt>
      <trkpt lat="47.22118" lon="-1.3633">
        <ele>61</ele>
        <time>2020-12-19T11:39:46.000Z</time>
      </trkpt>
      <trkpt lat="47.22128" lon="-1.36343">
        <ele>61</ele>
        <time>2020-12-19T11:39:48.000Z</time>
      </trkpt>
      <trkpt lat="47.22138" lon="-1.36355">
        <ele>61</ele>
        <time>2020-12-19T11:39:50.000Z</time>
      </trkpt>
      <trkpt lat="47.22149" lon="-1.36367">
        <ele>61</ele>
        <time>2020-12-19T11:39:52.000Z</time>
      </trkpt>
      <trkpt lat="47.22159" lon="-1.36379">
        <ele>61</ele>
        <time>2020-12-19T11:39:54.000Z</time>
      </trkpt>
      <trkpt lat="47.2217" lon="-1.3639">
        <ele>62</ele>
        <time>2020-12-19T11:39:56.000Z</time>
      </trkpt>
      <trkpt lat="47.22181" lon="-1.364">
        <ele>62</ele>
        <time>2020-12-19T11:39:58.000Z</time>
      </trkpt>
      <trkpt lat="47.22193" lon="-1.36408">
        <ele>61</ele>
        <time>2020-12-19T11:40:00.000Z</time>
      </trkpt>
      <trkpt lat="47.22204" lon="-1.36417">
        <ele>62</ele>
        <time>2020-12-19T11:40:02.000Z</time>
      </trkpt>
      <trkpt lat="47.22215" lon="-1.36425">
        <ele>62</ele>
        <time>2020-12-19T11:40:04.000Z</time>
      </trkpt>
      <trkpt lat="47.22227" lon="-1.36432">
        <ele>62</ele>
        <time>2020-12-19T11:40:06.000Z</time>
      </trkpt>
      <trkpt lat="47.22239" lon="-1.3644">
        <ele>62</ele>
        <time>2020-12-19T11:40:08.000Z</time>
      </trkpt>
      <trkpt lat="47.22251" lon="-1.36449">
        <ele>63</ele>
        <time>2020-12-19T11:40:10.000Z</time>
      </trkpt>
      <trkpt lat="47.22263" lon="-1.36458">
        <ele>62</ele>
        <time>2020-12-19T11:40:12.000Z</time>
      </trkpt>
      <trkpt lat="47.22275" lon="-1.36467">
        <ele>63</ele>
        <time>2020-12-19T11:40:14.000Z</time>
      </trkpt>
      <trkpt lat="47.22286" lon="-1.36476">
        <ele>64</ele>
        <time>2020-12-19T11:40:16.000Z</time>
      </trkpt>
      <trkpt lat="47.22298" lon="-1.36485">
        <ele>64</ele>
        <time>2020-12-19T11:40:18.000Z</time>
      </trkpt>
      <trkpt lat="47.22308" lon="-1.36496">
        <ele>64</ele>
        <time>2020-12-19T11:40:20.000Z</time>
      </trkpt>
      <trkpt lat="47.22318" lon="-1.36509">
        <ele>65</ele>
        <time>2020-12-19T11:40:22.000Z</time>
      </trkpt>
      <trkpt lat="47.22326" lon="-1.36524">
        <ele>64</ele>
        <time>2020-12-19T11:40:24.000Z</time>
      </trkpt>
      <trkpt lat="47.22333" lon="-1.36541">
        <ele>64</ele>
        <time>2020-12-19T11:40:26.000Z</time>
      </trkpt>
      <trkpt lat="47.22338" lon="-1.36561">
        <ele>63</ele>
        <time>2020-12-19T11:40:28.000Z</time>
      </trkpt>
      <trkpt lat="47.22342" lon="-1.36581">
        <ele>62</ele>
        <time>2020-12-19T11:40:30.000Z</time>
      </trkpt>
      <trkpt lat="47.22347" lon="-1.36601">
        <ele>62</ele>
        <time>2020-12-19T11:40:32.000Z</time>
      </trkpt>
      <trkpt lat="47.22352" lon="-1.36621">
        <ele>61</ele>
        <time>2020-12-19T11:40:34.000Z</time>
      </trkpt>
      <trkpt lat="47.22357" lon="-1.36642">
        <ele>61</ele>
        <time>2020-12-19T11:40:36.000Z</time>
      </trkpt>
      <trkpt lat="47.22363" lon="-1.36663">
        <ele>60</ele>
        <time>2020-12-19T11:40:38.000Z</time>
      </trkpt>
      <trkpt lat="47.2237" lon="-1.36684">
        <ele>60</ele>
        <time>2020-12-19T11:40:40.000Z</time>
      </trkpt>
      <trkpt lat="47.22379" lon="-1.36704">
        <ele>59</ele>
        <time>2020-12-19T11:40:42.000Z</time>
      </trkpt>
      <trkpt lat="47.22389" lon="-1.36723">
        <ele>58</ele>
        <time>2020-12-19T11:40:44.000Z</time>
      </trkpt>
      <trkpt lat="47.224" lon="-1.36743">
        <ele>58</ele>
        <time>2020-12-19T11:40:46.000Z</time>
      </trkpt>
      <trkpt lat="47.22411" lon="-1.36762">
        <ele>57</ele>
        <time>2020-12-19T11:40:48.000Z</time>
      </trkpt>
      <trkpt lat="47.22422" lon="-1.36781">
        <ele>56</ele>
        <time>2020-12-19T11:40:50.000Z</time>
      </trkpt>
      <trkpt lat="47.22432" lon="-1.36802">
        <ele>56</ele>
        <time>2020-12-19T11:40:52.000Z</time>
      </trkpt>
      <trkpt lat="47.22441" lon="-1.36822">
        <ele>55</ele>
        <time>2020-12-19T11:40:54.000Z</time>
      </trkpt>
      <trkpt lat="47.2245" lon="-1.36843">
        <ele>54</ele>
        <time>2020-12-19T11:40:56.000Z</time>
      </trkpt>
      <trkpt lat="47.22458" lon="-1.36864">
        <ele>54</ele>
        <time>2020-12-19T11:40:58.000Z</time>
      </trkpt>
      <trkpt lat="47.22466" lon="-1.36884">
        <ele>53</ele>
        <time>2020-12-19T11:41:00.000Z</time>
      </trkpt>
      <trkpt lat="47.22474" lon="-1.36905">
        <ele>53</ele>
        <time>2020-12-19T11:41:02.000Z</time>
      </trkpt>
      <trkpt lat="47.22482" lon="-1.36926">
        <ele>53</ele>
        <time>2020-12-19T11:41:04.000Z</time>
      </trkpt>
      <trkpt lat="47.22489" lon="-1.36947">
        <ele>52</ele>
        <time>2020-12-19T11:41:06.000Z</time>
      </trkpt>
      <trkpt lat="47.22497" lon="-1.36968">
        <ele>51</ele>
        <time>2020-12-19T11:41:08.000Z</time>
      </trkpt>
      <trkpt lat="47.22505" lon="-1.36989">
        <ele>51</ele>
        <time>2020-12-19T11:41:10.000Z</time>
      </trkpt>
      <trkpt lat="47.22514" lon="-1.37009">
        <ele>50</ele>
        <time>2020-12-19T11:41:12.000Z</time>
      </trkpt>
      <trkpt lat="47.22523" lon="-1.37028">
        <ele>50</ele>
        <time>2020-12-19T11:41:14.000Z</time>
      </trkpt>
      <trkpt lat="47.22533" lon="-1.37046">
        <ele>49</ele>
        <time>2020-12-19T11:41:16.000Z</time>
      </trkpt>
      <trkpt lat="47.22543" lon="-1.37062">
        <ele>49</ele>
        <time>2020-12-19T11:41:18.000Z</time>
      </trkpt>
      <trkpt lat="47.22553" lon="-1.37075">
        <ele>49</ele>
        <time>2020-12-19T11:41:20.000Z</time>
      </trkpt>
      <trkpt lat="47.22564" lon="-1.37087">
        <ele>49</ele>
        <time>2020-12-19T11:41:22.000Z</time>
      </trkpt>
      <trkpt lat="47.22575" lon="-1.371">
        <ele>50</ele>
        <time>2020-12-19T11:41:24.000Z</time>
      </trkpt>
      <trkpt lat="47.22586" lon="-1.37114">
        <ele>49</ele>
        <time>2020-12-19T11:41:26.000Z</time>
      </trkpt>
      <trkpt lat="47.22598" lon="-1.37127">
        <ele>49</ele>
        <time>2020-12-19T11:41:28.000Z</time>
      </trkpt>
      <trkpt lat="47.22609" lon="-1.3714">
        <ele>49</ele>
        <time>2020-12-19T11:41:30.000Z</time>
      </trkpt>
      <trkpt lat="47.22619" lon="-1.37152">
        <ele>50</ele>
        <time>2020-12-19T11:41:32.000Z</time>
      </trkpt>
      <trkpt lat="47.2263" lon="-1.37165">
        <ele>50</ele>
        <time>2020-12-19T11:41:34.000Z</time>
      </trkpt>
      <trkpt lat="47.2264" lon="-1.37178">
        <ele>49</ele>
        <time>2020-12-19T11:41:36.000Z</time>
      </trkpt>
      <trkpt lat="47.22651" lon="-1.37191">
        <ele>49</ele>
        <time>2020-12-19T11:41:38.000Z</time>
      </trkpt>
      <trkpt lat="47.22661" lon="-1.37204">
        <ele>49</ele>
        <time>2020-12-19T11:41:40.000Z</time>
      </trkpt>
      <trkpt lat="47.22671" lon="-1.37218">
        <ele>48</ele>
        <time>2020-12-19T11:41:42.000Z</time>
      </trkpt>
      <trkpt lat="47.22681" lon="-1.37233">
        <ele>48</ele>
        <time>2020-12-19T11:41:44.000Z</time>
      </trkpt>
      <trkpt lat="47.22691" lon="-1.37248">
        <ele>49</ele>
        <time>2020-12-19T11:41:46.000Z</time>
      </trkpt>
      <trkpt lat="47.22701" lon="-1.37262">
        <ele>49</ele>
        <time>2020-12-19T11:41:48.000Z</time>
      </trkpt>
      <trkpt lat="47.22711" lon="-1.37276">
        <ele>48</ele>
        <time>2020-12-19T11:41:50.000Z</time>
      </trkpt>
      <trkpt lat="47.22721" lon="-1.37289">
        <ele>49</ele>
        <time>2020-12-19T11:41:52.000Z</time>
      </trkpt>
      <trkpt lat="47.22731" lon="-1.37304">
        <ele>49</ele>
        <time>2020-12-19T11:41:54.000Z</time>
      </trkpt>
      <trkpt lat="47.22741" lon="-1.37319">
        <ele>49</ele>
        <time>2020-12-19T11:41:56.000Z</time>
      </trkpt>
      <trkpt lat="47.22751" lon="-1.37335">
        <ele>49</ele>
        <time>2020-12-19T11:41:58.000Z</time>
      </trkpt>
      <trkpt lat="47.22759" lon="-1.37349">
        <ele>50</ele>
        <time>2020-12-19T11:42:00.000Z</time>
      </trkpt>
      <trkpt lat="47.22768" lon="-1.37364">
        <ele>50</ele>
        <time>2020-12-19T11:42:02.000Z</time>
      </trkpt>
      <trkpt lat="47.22777" lon="-1.37379">
        <ele>50</ele>
        <time>2020-12-19T11:42:04.000Z</time>
      </trkpt>
      <trkpt lat="47.22785" lon="-1.37395">
        <ele>50</ele>
        <time>2020-12-19T11:42:06.000Z</time>
      </trkpt>
      <trkpt lat="47.22792" lon="-1.37411">
        <ele>50</ele>
        <time>2020-12-19T11:42:08.000Z</time>
      </trkpt>
      <trkpt lat="47.22799" lon="-1.37427">
        <ele>50</ele>
        <time>2020-12-19T11:42:10.000Z</time>
      </trkpt>
      <trkpt lat="47.22806" lon="-1.37444">
        <ele>50</ele>
        <time>2020-12-19T11:42:12.000Z</time>
      </trkpt>
      <trkpt lat="47.22814" lon="-1.37461">
        <ele>49</ele>
        <time>2020-12-19T11:42:14.000Z</time>
      </trkpt>
      <trkpt lat="47.2282" lon="-1.37478">
        <ele>50</ele>
        <time>2020-12-19T11:42:16.000Z</time>
      </trkpt>
      <trkpt lat="47.22826" lon="-1.37494">
        <ele>49</ele>
        <time>2020-12-19T11:42:18.000Z</time>
      </trkpt>
      <trkpt lat="47.22832" lon="-1.37511">
        <ele>49</ele>
        <time>2020-12-19T11:42:20.000Z</time>
      </trkpt>
      <trkpt lat="47.22838" lon="-1.37528">
        <ele>49</ele>
        <time>2020-12-19T11:42:22.000Z</time>
      </trkpt>
      <trkpt lat="47.22844" lon="-1.37546">
        <ele>48</ele>
        <time>2020-12-19T11:42:24.000Z</time>
      </trkpt>
      <trkpt lat="47.22851" lon="-1.37562">
        <ele>49</ele>
        <time>2020-12-19T11:42:26.000Z</time>
      </trkpt>
      <trkpt lat="47.22857" lon="-1.37579">
        <ele>49</ele>
        <time>2020-12-19T11:42:28.000Z</time>
      </trkpt>
      <trkpt lat="47.22864" lon="-1.37596">
        <ele>49</ele>
        <time>2020-12-19T11:42:30.000Z</time>
      </trkpt>
      <trkpt lat="47.2287" lon="-1.37611">
        <ele>49</ele>
        <time>2020-12-19T11:42:32.000Z</time>
      </trkpt>
      <trkpt lat="47.22876" lon="-1.37626">
        <ele>49</ele>
        <time>2020-12-19T11:42:34.000Z</time>
      </trkpt>
      <trkpt lat="47.22884" lon="-1.3764">
        <ele>49</ele>
        <time>2020-12-19T11:42:36.000Z</time>
      </trkpt>
      <trkpt lat="47.22892" lon="-1.37652">
        <ele>50</ele>
        <time>2020-12-19T11:42:38.000Z</time>
      </trkpt>
      <trkpt lat="47.22901" lon="-1.37663">
        <ele>50</ele>
        <time>2020-12-19T11:42:40.000Z</time>
      </trkpt>
      <trkpt lat="47.2291" lon="-1.37672">
        <ele>51</ele>
        <time>2020-12-19T11:42:42.000Z</time>
      </trkpt>
      <trkpt lat="47.2292" lon="-1.37681">
        <ele>51</ele>
        <time>2020-12-19T11:42:44.000Z</time>
      </trkpt>
      <trkpt lat="47.22929" lon="-1.3769">
        <ele>52</ele>
        <time>2020-12-19T11:42:46.000Z</time>
      </trkpt>
      <trkpt lat="47.2294" lon="-1.37699">
        <ele>53</ele>
        <time>2020-12-19T11:42:48.000Z</time>
      </trkpt>
      <trkpt lat="47.2295" lon="-1.37708">
        <ele>53</ele>
        <time>2020-12-19T11:42:50.000Z</time>
      </trkpt>
      <trkpt lat="47.22961" lon="-1.37716">
        <ele>54</ele>
        <time>2020-12-19T11:42:52.000Z</time>
      </trkpt>
      <trkpt lat="47.22972" lon="-1.37723">
        <ele>54</ele>
        <time>2020-12-19T11:42:54.000Z</time>
      </trkpt>
      <trkpt lat="47.22984" lon="-1.37728">
        <ele>54</ele>
        <time>2020-12-19T11:42:56.000Z</time>
      </trkpt>
      <trkpt lat="47.22996" lon="-1.37732">
        <ele>54</ele>
        <time>2020-12-19T11:42:58.000Z</time>
      </trkpt>
      <trkpt lat="47.23009" lon="-1.37735">
        <ele>53</ele>
        <time>2020-12-19T11:43:00.000Z</time>
      </trkpt>
      <trkpt lat="47.2302" lon="-1.37739">
        <ele>53</ele>
        <time>2020-12-19T11:43:02.000Z</time>
      </trkpt>
      <trkpt lat="47.23033" lon="-1.37745">
        <ele>54</ele>
        <time>2020-12-19T11:43:04.000Z</time>
      </trkpt>
      <trkpt lat="47.23045" lon="-1.37748">
        <ele>54</ele>
        <time>2020-12-19T11:43:06.000Z</time>
      </trkpt>
      <trkpt lat="47.23057" lon="-1.37753">
        <ele>55</ele>
        <time>2020-12-19T11:43:08.000Z</time>
      </trkpt>
      <trkpt lat="47.23069" lon="-1.37758">
        <ele>55</ele>
        <time>2020-12-19T11:43:10.000Z</time>
      </trkpt>
      <trkpt lat="47.23079" lon="-1.37765">
        <ele>55</ele>
        <time>2020-12-19T11:43:12.000Z</time>
      </trkpt>
      <trkpt lat="47.23089" lon="-1.37774">
        <ele>55</ele>
        <time>2020-12-19T11:43:14.000Z</time>
      </trkpt>
      <trkpt lat="47.23097" lon="-1.37786">
        <ele>55</ele>
        <time>2020-12-19T11:43:16.000Z</time>
      </trkpt>
      <trkpt lat="47.23105" lon="-1.37798">
        <ele>56</ele>
        <time>2020-12-19T11:43:18.000Z</time>
      </trkpt>
      <trkpt lat="47.23112" lon="-1.3781">
        <ele>55</ele>
        <time>2020-12-19T11:43:20.000Z</time>
      </trkpt>
      <trkpt lat="47.23119" lon="-1.37825">
        <ele>56</ele>
        <time>2020-12-19T11:43:22.000Z</time>
      </trkpt>
      <trkpt lat="47.23126" lon="-1.37839">
        <ele>56</ele>
        <time>2020-12-19T11:43:24.000Z</time>
      </trkpt>
      <trkpt lat="47.23134" lon="-1.37853">
        <ele>56</ele>
        <time>2020-12-19T11:43:26.000Z</time>
      </trkpt>
      <trkpt lat="47.23141" lon="-1.37867">
        <ele>56</ele>
        <time>2020-12-19T11:43:28.000Z</time>
      </trkpt>
      <trkpt lat="47.23148" lon="-1.37881">
        <ele>56</ele>
        <time>2020-12-19T11:43:30.000Z</time>
      </trkpt>
      <trkpt lat="47.23155" lon="-1.37895">
        <ele>57</ele>
        <time>2020-12-19T11:43:32.000Z</time>
      </trkpt>
      <trkpt lat="47.23162" lon="-1.37908">
        <ele>57</ele>
        <time>2020-12-19T11:43:34.000Z</time>
      </trkpt>
      <trkpt lat="47.23171" lon="-1.37921">
        <ele>57</ele>
        <time>2020-12-19T11:43:36.000Z</time>
      </trkpt>
      <trkpt lat="47.2318" lon="-1.37931">
        <ele>57</ele>
        <time>2020-12-19T11:43:38.000Z</time>
      </trkpt>
      <trkpt lat="47.2319" lon="-1.3794">
        <ele>57</ele>
        <time>2020-12-19T11:43:40.000Z</time>
      </trkpt>
      <trkpt lat="47.232" lon="-1.37948">
        <ele>57</ele>
        <time>2020-12-19T11:43:42.000Z</time>
      </trkpt>
      <trkpt lat="47.23211" lon="-1.37957">
        <ele>57</ele>
        <time>2020-12-19T11:43:44.000Z</time>
      </trkpt>
      <trkpt lat="47.23221" lon="-1.37965">
        <ele>57</ele>
        <time>2020-12-19T11:43:46.000Z</time>
      </trkpt>
      <trkpt lat="47.2323" lon="-1.37975">
        <ele>57</ele>
        <time>2020-12-19T11:43:48.000Z</time>
      </trkpt>
      <trkpt lat="47.23239" lon="-1.37987">
        <ele>57</ele>
        <time>2020-12-19T11:43:50.000Z</time>
      </trkpt>
      <trkpt lat="47.23247" lon="-1.38">
        <ele>57</ele>
        <time>2020-12-19T11:43:52.000Z</time>
      </trkpt>
      <trkpt lat="47.23254" lon="-1.38012">
        <ele>57</ele>
        <time>2020-12-19T11:43:54.000Z</time>
      </trkpt>
      <trkpt lat="47.23261" lon="-1.38026">
        <ele>58</ele>
        <time>2020-12-19T11:43:56.000Z</time>
      </trkpt>
      <trkpt lat="47.23268" lon="-1.38038">
        <ele>58</ele>
        <time>2020-12-19T11:43:58.000Z</time>
      </trkpt>
      <trkpt lat="47.23275" lon="-1.38051">
        <ele>58</ele>
        <time>2020-12-19T11:44:00.000Z</time>
      </trkpt>
      <trkpt lat="47.23281" lon="-1.38064">
        <ele>58</ele>
        <time>2020-12-19T11:44:02.000Z</time>
      </trkpt>
      <trkpt lat="47.23289" lon="-1.38077">
        <ele>59</ele>
        <time>2020-12-19T11:44:04.000Z</time>
      </trkpt>
      <trkpt lat="47.23295" lon="-1.3809">
        <ele>59</ele>
        <time>2020-12-19T11:44:06.000Z</time>
      </trkpt>
      <trkpt lat="47.23302" lon="-1.38103">
        <ele>58</ele>
        <time>2020-12-19T11:44:08.000Z</time>
      </trkpt>
      <trkpt lat="47.23309" lon="-1.38117">
        <ele>58</ele>
        <time>2020-12-19T11:44:10.000Z</time>
      </trkpt>
      <trkpt lat="47.23317" lon="-1.38131">
        <ele>57</ele>
        <time>2020-12-19T11:44:12.000Z</time>
      </trkpt>
      <trkpt lat="47.23323" lon="-1.38145">
        <ele>57</ele>
        <time>2020-12-19T11:44:14.000Z</time>
      </trkpt>
      <trkpt lat="47.23331" lon="-1.38159">
        <ele>58</ele>
        <time>2020-12-19T11:44:16.000Z</time>
      </trkpt>
      <trkpt lat="47.23338" lon="-1.38173">
        <ele>58</ele>
        <time>2020-12-19T11:44:18.000Z</time>
      </trkpt>
      <trkpt lat="47.23346" lon="-1.38187">
        <ele>57</ele>
        <time>2020-12-19T11:44:20.000Z</time>
      </trkpt>
      <trkpt lat="47.23354" lon="-1.38201">
        <ele>57</ele>
        <time>2020-12-19T11:44:22.000Z</time>
      </trkpt>
      <trkpt lat="47.23361" lon="-1.38216">
        <ele>57</ele>
        <time>2020-12-19T11:44:24.000Z</time>
      </trkpt>
      <trkpt lat="47.23369" lon="-1.38229">
        <ele>57</ele>
        <time>2020-12-19T11:44:26.000Z</time>
      </trkpt>
      <trkpt lat="47.23375" lon="-1.38244">
        <ele>58</ele>
        <time>2020-12-19T11:44:28.000Z</time>
      </trkpt>
      <trkpt lat="47.23382" lon="-1.38257">
        <ele>58</ele>
        <time>2020-12-19T11:44:30.000Z</time>
      </trkpt>
      <trkpt lat="47.23389" lon="-1.38271">
        <ele>58</ele>
        <time>2020-12-19T11:44:32.000Z</time>
      </trkpt>
      <trkpt lat="47.23396" lon="-1.38284">
        <ele>59</ele>
        <time>2020-12-19T11:44:34.000Z</time>
      </trkpt>
      <trkpt lat="47.23403" lon="-1.38298">
        <ele>59</ele>
        <time>2020-12-19T11:44:36.000Z</time>
      </trkpt>
      <trkpt lat="47.2341" lon="-1.3831">
        <ele>59</ele>
        <time>2020-12-19T11:44:38.000Z</time>
      </trkpt>
      <trkpt lat="47.23417" lon="-1.38323">
        <ele>60</ele>
        <time>2020-12-19T11:44:40.000Z</time>
      </trkpt>
      <trkpt lat="47.23424" lon="-1.38337">
        <ele>60</ele>
        <time>2020-12-19T11:44:42.000Z</time>
      </trkpt>
      <trkpt lat="47.2343" lon="-1.3835">
        <ele>60</ele>
        <time>2020-12-19T11:44:44.000Z</time>
      </trkpt>
      <trkpt lat="47.23437" lon="-1.38363">
        <ele>61</ele>
        <time>2020-12-19T11:44:46.000Z</time>
      </trkpt>
      <trkpt lat="47.23444" lon="-1.38376">
        <ele>61</ele>
        <time>2020-12-19T11:44:48.000Z</time>
      </trkpt>
      <trkpt lat="47.2345" lon="-1.3839">
        <ele>61</ele>
        <time>2020-12-19T11:44:50.000Z</time>
      </trkpt>
      <trkpt lat="47.23456" lon="-1.38405">
        <ele>61</ele>
        <time>2020-12-19T11:44:52.000Z</time>
      </trkpt>
      <trkpt lat="47.2346" lon="-1.3842">
        <ele>62</ele>
        <time>2020-12-19T11:44:54.000Z</time>
      </trkpt>
      <trkpt lat="47.23465" lon="-1.38435">
        <ele>62</ele>
        <time>2020-12-19T11:44:56.000Z</time>
      </trkpt>
      <trkpt lat="47.23472" lon="-1.38446">
        <ele>62</ele>
        <time>2020-12-19T11:44:58.000Z</time>
      </trkpt>
      <trkpt lat="47.2348" lon="-1.38452">
        <ele>62</ele>
        <time>2020-12-19T11:45:00.000Z</time>
      </trkpt>
      <trkpt lat="47.2349" lon="-1.38453">
        <ele>62</ele>
        <time>2020-12-19T11:45:02.000Z</time>
      </trkpt>
      <trkpt lat="47.23501" lon="-1.38455">
        <ele>61</ele>
        <time>2020-12-19T11:45:04.000Z</time>
      </trkpt>
      <trkpt lat="47.2351" lon="-1.38466">
        <ele>62</ele>
        <time>2020-12-19T11:45:06.000Z</time>
      </trkpt>
      <trkpt lat="47.23518" lon="-1.38477">
        <ele>62</ele>
        <time>2020-12-19T11:45:08.000Z</time>
      </trkpt>
      <trkpt lat="47.23527" lon="-1.38489">
        <ele>62</ele>
        <time>2020-12-19T11:45:10.000Z</time>
      </trkpt>
      <trkpt lat="47.23532" lon="-1.38504">
        <ele>62</ele>
        <time>2020-12-19T11:45:12.000Z</time>
      </trkpt>
      <trkpt lat="47.23534" lon="-1.3852">
        <ele>63</ele>
        <time>2020-12-19T11:45:14.000Z</time>
      </trkpt>
      <trkpt lat="47.23534" lon="-1.38537">
        <ele>64</ele>
        <time>2020-12-19T11:45:16.000Z</time>
      </trkpt>
      <trkpt lat="47.23535" lon="-1.38554">
        <ele>64</ele>
        <time>2020-12-19T11:45:18.000Z</time>
      </trkpt>
      <trkpt lat="47.23536" lon="-1.38571">
        <ele>65</ele>
        <time>2020-12-19T11:45:20.000Z</time>
      </trkpt>
      <trkpt lat="47.2354" lon="-1.38588">
        <ele>65</ele>
        <time>2020-12-19T11:45:22.000Z</time>
      </trkpt>
      <trkpt lat="47.23547" lon="-1.38604">
        <ele>65</ele>
        <time>2020-12-19T11:45:24.000Z</time>
      </trkpt>
      <trkpt lat="47.23554" lon="-1.38619">
        <ele>65</ele>
        <time>2020-12-19T11:45:26.000Z</time>
      </trkpt>
      <trkpt lat="47.23561" lon="-1.38635">
        <ele>64</ele>
        <time>2020-12-19T11:45:28.000Z</time>
      </trkpt>
      <trkpt lat="47.23568" lon="-1.38649">
        <ele>64</ele>
        <time>2020-12-19T11:45:30.000Z</time>
      </trkpt>
      <trkpt lat="47.23576" lon="-1.38663">
        <ele>64</ele>
        <time>2020-12-19T11:45:32.000Z</time>
      </trkpt>
      <trkpt lat="47.23585" lon="-1.38676">
        <ele>64</ele>
        <time>2020-12-19T11:45:34.000Z</time>
      </trkpt>
      <trkpt lat="47.23594" lon="-1.38689">
        <ele>63</ele>
        <time>2020-12-19T11:45:36.000Z</time>
      </trkpt>
      <trkpt lat="47.23604" lon="-1.38702">
        <ele>63</ele>
        <time>2020-12-19T11:45:38.000Z</time>
      </trkpt>
      <trkpt lat="47.23614" lon="-1.38713">
        <ele>63</ele>
        <time>2020-12-19T11:45:40.000Z</time>
      </trkpt>
      <trkpt lat="47.23624" lon="-1.38725">
        <ele>62</ele>
        <time>2020-12-19T11:45:42.000Z</time>
      </trkpt>
      <trkpt lat="47.23634" lon="-1.38737">
        <ele>62</ele>
        <time>2020-12-19T11:45:44.000Z</time>
      </trkpt>
      <trkpt lat="47.23644" lon="-1.38749">
        <ele>62</ele>
        <time>2020-12-19T11:45:46.000Z</time>
      </trkpt>
      <trkpt lat="47.23654" lon="-1.3876">
        <ele>62</ele>
        <time>2020-12-19T11:45:48.000Z</time>
      </trkpt>
      <trkpt lat="47.23664" lon="-1.38772">
        <ele>62</ele>
        <time>2020-12-19T11:45:50.000Z</time>
      </trkpt>
      <trkpt lat="47.23673" lon="-1.38783">
        <ele>62</ele>
        <time>2020-12-19T11:45:52.000Z</time>
      </trkpt>
      <trkpt lat="47.23683" lon="-1.38793">
        <ele>62</ele>
        <time>2020-12-19T11:45:54.000Z</time>
      </trkpt>
      <trkpt lat="47.23692" lon="-1.38805">
        <ele>62</ele>
        <time>2020-12-19T11:45:56.000Z</time>
      </trkpt>
      <trkpt lat="47.23701" lon="-1.38817">
        <ele>63</ele>
        <time>2020-12-19T11:45:58.000Z</time>
      </trkpt>
      <trkpt lat="47.2371" lon="-1.38828">
        <ele>63</ele>
        <time>2020-12-19T11:46:00.000Z</time>
      </trkpt>
      <trkpt lat="47.23719" lon="-1.3884">
        <ele>63</ele>
        <time>2020-12-19T11:46:02.000Z</time>
      </trkpt>
      <trkpt lat="47.23728" lon="-1.38852">
        <ele>62</ele>
        <time>2020-12-19T11:46:04.000Z</time>
      </trkpt>
      <trkpt lat="47.23736" lon="-1.38865">
        <ele>62</ele>
        <time>2020-12-19T11:46:06.000Z</time>
      </trkpt>
      <trkpt lat="47.23744" lon="-1.38877">
        <ele>63</ele>
        <time>2020-12-19T11:46:08.000Z</time>
      </trkpt>
      <trkpt lat="47.23753" lon="-1.3889">
        <ele>62</ele>
        <time>2020-12-19T11:46:10.000Z</time>
      </trkpt>
      <trkpt lat="47.23761" lon="-1.38903">
        <ele>63</ele>
        <time>2020-12-19T11:46:12.000Z</time>
      </trkpt>
      <trkpt lat="47.23769" lon="-1.38917">
        <ele>63</ele>
        <time>2020-12-19T11:46:14.000Z</time>
      </trkpt>
      <trkpt lat="47.23777" lon="-1.3893">
        <ele>63</ele>
        <time>2020-12-19T11:46:16.000Z</time>
      </trkpt>
      <trkpt lat="47.23785" lon="-1.38942">
        <ele>63</ele>
        <time>2020-12-19T11:46:18.000Z</time>
      </trkpt>
      <trkpt lat="47.23793" lon="-1.38955">
        <ele>63</ele>
        <time>2020-12-19T11:46:20.000Z</time>
      </trkpt>
      <trkpt lat="47.23801" lon="-1.38967">
        <ele>63</ele>
        <time>2020-12-19T11:46:22.000Z</time>
      </trkpt>
      <trkpt lat="47.2381" lon="-1.3898">
        <ele>63</ele>
        <time>2020-12-19T11:46:24.000Z</time>
      </trkpt>
      <trkpt lat="47.2382" lon="-1.3899">
        <ele>64</ele>
        <time>2020-12-19T11:46:26.000Z</time>
      </trkpt>
      <trkpt lat="47.2383" lon="-1.39">
        <ele>64</ele>
        <time>2020-12-19T11:46:28.000Z</time>
      </trkpt>
      <trkpt lat="47.23841" lon="-1.39008">
        <ele>64</ele>
        <time>2020-12-19T11:46:30.000Z</time>
      </trkpt>
      <trkpt lat="47.23851" lon="-1.39015">
        <ele>64</ele>
        <time>2020-12-19T11:46:32.000Z</time>
      </trkpt>
      <trkpt lat="47.23862" lon="-1.39022">
        <ele>65</ele>
        <time>2020-12-19T11:46:34.000Z</time>
      </trkpt>
      <trkpt lat="47.23873" lon="-1.3903">
        <ele>65</ele>
        <time>2020-12-19T11:46:36.000Z</time>
      </trkpt>
      <trkpt lat="47.23883" lon="-1.39038">
        <ele>66</ele>
        <time>2020-12-19T11:46:38.000Z</time>
      </trkpt>
      <trkpt lat="47.23893" lon="-1.39047">
        <ele>65</ele>
        <time>2020-12-19T11:46:40.000Z</time>
      </trkpt>
      <trkpt lat="47.23903" lon="-1.39058">
        <ele>65</ele>
        <time>2020-12-19T11:46:42.000Z</time>
      </trkpt>
      <trkpt lat="47.23911" lon="-1.3907">
        <ele>65</ele>
        <time>2020-12-19T11:46:44.000Z</time>
      </trkpt>
      <trkpt lat="47.23919" lon="-1.39082">
        <ele>65</ele>
        <time>2020-12-19T11:46:46.000Z</time>
      </trkpt>
      <trkpt lat="47.23927" lon="-1.39095">
        <ele>65</ele>
        <time>2020-12-19T11:46:48.000Z</time>
      </trkpt>
      <trkpt lat="47.23934" lon="-1.39108">
        <ele>65</ele>
        <time>2020-12-19T11:46:50.000Z</time>
      </trkpt>
      <trkpt lat="47.23942" lon="-1.39121">
        <ele>65</ele>
        <time>2020-12-19T11:46:52.000Z</time>
      </trkpt>
      <trkpt lat="47.2395" lon="-1.39135">
        <ele>65</ele>
        <time>2020-12-19T11:46:54.000Z</time>
      </trkpt>
      <trkpt lat="47.23958" lon="-1.39148">
        <ele>64</ele>
        <time>2020-12-19T11:46:56.000Z</time>
      </trkpt>
      <trkpt lat="47.23966" lon="-1.3916">
        <ele>65</ele>
        <time>2020-12-19T11:46:58.000Z</time>
      </trkpt>
      <trkpt lat="47.23975" lon="-1.39171">
        <ele>65</ele>
        <time>2020-12-19T11:47:00.000Z</time>
      </trkpt>
      <trkpt lat="47.23984" lon="-1.39181">
        <ele>65</ele>
        <time>2020-12-19T11:47:02.000Z</time>
      </trkpt>
      <trkpt lat="47.23995" lon="-1.39189">
        <ele>64</ele>
        <time>2020-12-19T11:47:04.000Z</time>
      </trkpt>
      <trkpt lat="47.24006" lon="-1.39197">
        <ele>64</ele>
        <time>2020-12-19T11:47:06.000Z</time>
      </trkpt>
      <trkpt lat="47.24018" lon="-1.39203">
        <ele>64</ele>
        <time>2020-12-19T11:47:08.000Z</time>
      </trkpt>
      <trkpt lat="47.2403" lon="-1.39208">
        <ele>65</ele>
        <time>2020-12-19T11:47:10.000Z</time>
      </trkpt>
      <trkpt lat="47.24042" lon="-1.39214">
        <ele>65</ele>
        <time>2020-12-19T11:47:12.000Z</time>
      </trkpt>
      <trkpt lat="47.24054" lon="-1.3922">
        <ele>65</ele>
        <time>2020-12-19T11:47:14.000Z</time>
      </trkpt>
      <trkpt lat="47.24066" lon="-1.39225">
        <ele>65</ele>
        <time>2020-12-19T11:47:16.000Z</time>
      </trkpt>
      <trkpt lat="47.24078" lon="-1.39231">
        <ele>65</ele>
        <time>2020-12-19T11:47:18.000Z</time>
      </trkpt>
      <trkpt lat="47.2409" lon="-1.39236">
        <ele>65</ele>
        <time>2020-12-19T11:47:20.000Z</time>
      </trkpt>
      <trkpt lat="47.24102" lon="-1.39242">
        <ele>64</ele>
        <time>2020-12-19T11:47:22.000Z</time>
      </trkpt>
      <trkpt lat="47.24113" lon="-1.39248">
        <ele>64</ele>
        <time>2020-12-19T11:47:24.000Z</time>
      </trkpt>
      <trkpt lat="47.24125" lon="-1.39253">
        <ele>64</ele>
        <time>2020-12-19T11:47:26.000Z</time>
      </trkpt>
      <trkpt lat="47.24137" lon="-1.39258">
        <ele>64</ele>
        <time>2020-12-19T11:47:28.000Z</time>
      </trkpt>
      <trkpt lat="47.24148" lon="-1.39263">
        <ele>64</ele>
        <time>2020-12-19T11:47:30.000Z</time>
      </trkpt>
      <trkpt lat="47.2416" lon="-1.39268">
        <ele>65</ele>
        <time>2020-12-19T11:47:32.000Z</time>
      </trkpt>
      <trkpt lat="47.24171" lon="-1.39273">
        <ele>65</ele>
        <time>2020-12-19T11:47:34.000Z</time>
      </trkpt>
      <trkpt lat="47.24183" lon="-1.39277">
        <ele>64</ele>
        <time>2020-12-19T11:47:36.000Z</time>
      </trkpt>
      <trkpt lat="47.24195" lon="-1.39282">
        <ele>64</ele>
        <time>2020-12-19T11:47:38.000Z</time>
      </trkpt>
      <trkpt lat="47.24207" lon="-1.39288">
        <ele>63</ele>
        <time>2020-12-19T11:47:40.000Z</time>
      </trkpt>
      <trkpt lat="47.2422" lon="-1.39294">
        <ele>63</ele>
        <time>2020-12-19T11:47:42.000Z</time>
      </trkpt>
      <trkpt lat="47.24232" lon="-1.393">
        <ele>63</ele>
        <time>2020-12-19T11:47:44.000Z</time>
      </trkpt>
      <trkpt lat="47.24243" lon="-1.39308">
        <ele>62</ele>
        <time>2020-12-19T11:47:46.000Z</time>
      </trkpt>
      <trkpt lat="47.24254" lon="-1.39316">
        <ele>62</ele>
        <time>2020-12-19T11:47:48.000Z</time>
      </trkpt>
      <trkpt lat="47.24264" lon="-1.39327">
        <ele>63</ele>
        <time>2020-12-19T11:47:50.000Z</time>
      </trkpt>
      <trkpt lat="47.24273" lon="-1.3934">
        <ele>62</ele>
        <time>2020-12-19T11:47:52.000Z</time>
      </trkpt>
      <trkpt lat="47.24282" lon="-1.39354">
        <ele>62</ele>
        <time>2020-12-19T11:47:54.000Z</time>
      </trkpt>
      <trkpt lat="47.24292" lon="-1.39367">
        <ele>62</ele>
        <time>2020-12-19T11:47:56.000Z</time>
      </trkpt>
      <trkpt lat="47.243" lon="-1.3938">
        <ele>62</ele>
        <time>2020-12-19T11:47:58.000Z</time>
      </trkpt>
      <trkpt lat="47.24309" lon="-1.39393">
        <ele>62</ele>
        <time>2020-12-19T11:48:00.000Z</time>
      </trkpt>
      <trkpt lat="47.24317" lon="-1.39406">
        <ele>62</ele>
        <time>2020-12-19T11:48:02.000Z</time>
      </trkpt>
      <trkpt lat="47.24326" lon="-1.39419">
        <ele>62</ele>
        <time>2020-12-19T11:48:04.000Z</time>
      </trkpt>
      <trkpt lat="47.24335" lon="-1.39431">
        <ele>62</ele>
        <time>2020-12-19T11:48:06.000Z</time>
      </trkpt>
      <trkpt lat="47.24343" lon="-1.39445">
        <ele>62</ele>
        <time>2020-12-19T11:48:08.000Z</time>
      </trkpt>
      <trkpt lat="47.24353" lon="-1.39458">
        <ele>62</ele>
        <time>2020-12-19T11:48:10.000Z</time>
      </trkpt>
      <trkpt lat="47.24362" lon="-1.39471">
        <ele>61</ele>
        <time>2020-12-19T11:48:12.000Z</time>
      </trkpt>
      <trkpt lat="47.24371" lon="-1.39483">
        <ele>61</ele>
        <time>2020-12-19T11:48:14.000Z</time>
      </trkpt>
      <trkpt lat="47.24381" lon="-1.39493">
        <ele>61</ele>
        <time>2020-12-19T11:48:16.000Z</time>
      </trkpt>
      <trkpt lat="47.24391" lon="-1.39502">
        <ele>61</ele>
        <time>2020-12-19T11:48:18.000Z</time>
      </trkpt>
      <trkpt lat="47.24403" lon="-1.3951">
        <ele>61</ele>
        <time>2020-12-19T11:48:20.000Z</time>
      </trkpt>
      <trkpt lat="47.24415" lon="-1.39519">
        <ele>60</ele>
        <time>2020-12-19T11:48:22.000Z</time>
      </trkpt>
      <trkpt lat="47.24427" lon="-1.39528">
        <ele>60</ele>
        <time>2020-12-19T11:48:24.000Z</time>
      </trkpt>
      <trkpt lat="47.24438" lon="-1.39537">
        <ele>60</ele>
        <time>2020-12-19T11:48:26.000Z</time>
      </trkpt>
      <trkpt lat="47.2445" lon="-1.39545">
        <ele>60</ele>
        <time>2020-12-19T11:48:28.000Z</time>
      </trkpt>
      <trkpt lat="47.24461" lon="-1.39554">
        <ele>60</ele>
        <time>2020-12-19T11:48:30.000Z</time>
      </trkpt>
      <trkpt lat="47.24473" lon="-1.39562">
        <ele>60</ele>
        <time>2020-12-19T11:48:32.000Z</time>
      </trkpt>
      <trkpt lat="47.24484" lon="-1.39571">
        <ele>60</ele>
        <time>2020-12-19T11:48:34.000Z</time>
      </trkpt>
      <trkpt lat="47.24495" lon="-1.39579">
        <ele>60</ele>
        <time>2020-12-19T11:48:36.000Z</time>
      </trkpt>
      <trkpt lat="47.24505" lon="-1.3959">
        <ele>60</ele>
        <time>2020-12-19T11:48:38.000Z</time>
      </trkpt>
      <trkpt lat="47.24514" lon="-1.39602">
        <ele>60</ele>
        <time>2020-12-19T11:48:40.000Z</time>
      </trkpt>
      <trkpt lat="47.24521" lon="-1.39618">
        <ele>61</ele>
        <time>2020-12-19T11:48:42.000Z</time>
      </trkpt>
      <trkpt lat="47.24526" lon="-1.39632">
        <ele>62</ele>
        <time>2020-12-19T11:48:44.000Z</time>
      </trkpt>
      <trkpt lat="47.24529" lon="-1.39646">
        <ele>62</ele>
        <time>2020-12-19T11:48:46.000Z</time>
      </trkpt>
      <trkpt lat="47.24533" lon="-1.39658">
        <ele>62</ele>
        <time>2020-12-19T11:48:48.000Z</time>
      </trkpt>
      <trkpt lat="47.24538" lon="-1.39675">
        <ele>62</ele>
        <time>2020-12-19T11:48:51.000Z</time>
      </trkpt>
      <trkpt lat="47.24538" lon="-1.39691">
        <ele>62</ele>
        <time>2020-12-19T11:48:53.000Z</time>
      </trkpt>
      <trkpt lat="47.2454" lon="-1.39707">
        <ele>62</ele>
        <time>2020-12-19T11:48:55.000Z</time>
      </trkpt>
      <trkpt lat="47.24547" lon="-1.39721">
        <ele>62</ele>
        <time>2020-12-19T11:48:57.000Z</time>
      </trkpt>
      <trkpt lat="47.24554" lon="-1.39736">
        <ele>63</ele>
        <time>2020-12-19T11:48:59.000Z</time>
      </trkpt>
      <trkpt lat="47.24561" lon="-1.39753">
        <ele>63</ele>
        <time>2020-12-19T11:49:01.000Z</time>
      </trkpt>
      <trkpt lat="47.24568" lon="-1.39768">
        <ele>63</ele>
        <time>2020-12-19T11:49:03.000Z</time>
      </trkpt>
      <trkpt lat="47.24576" lon="-1.39783">
        <ele>64</ele>
        <time>2020-12-19T11:49:05.000Z</time>
      </trkpt>
      <trkpt lat="47.24583" lon="-1.39799">
        <ele>63</ele>
        <time>2020-12-19T11:49:07.000Z</time>
      </trkpt>
      <trkpt lat="47.24589" lon="-1.39816">
        <ele>64</ele>
        <time>2020-12-19T11:49:09.000Z</time>
      </trkpt>
      <trkpt lat="47.24595" lon="-1.39832">
        <ele>64</ele>
        <time>2020-12-19T11:49:11.000Z</time>
      </trkpt>
      <trkpt lat="47.24602" lon="-1.39847">
        <ele>64</ele>
        <time>2020-12-19T11:49:13.000Z</time>
      </trkpt>
      <trkpt lat="47.24609" lon="-1.39861">
        <ele>64</ele>
        <time>2020-12-19T11:49:15.000Z</time>
      </trkpt>
      <trkpt lat="47.24616" lon="-1.39876">
        <ele>63</ele>
        <time>2020-12-19T11:49:17.000Z</time>
      </trkpt>
      <trkpt lat="47.24622" lon="-1.39892">
        <ele>63</ele>
        <time>2020-12-19T11:49:19.000Z</time>
      </trkpt>
      <trkpt lat="47.24628" lon="-1.39908">
        <ele>63</ele>
        <time>2020-12-19T11:49:21.000Z</time>
      </trkpt>
      <trkpt lat="47.24635" lon="-1.39923">
        <ele>63</ele>
        <time>2020-12-19T11:49:23.000Z</time>
      </trkpt>
      <trkpt lat="47.24642" lon="-1.39937">
        <ele>63</ele>
        <time>2020-12-19T11:49:25.000Z</time>
      </trkpt>
      <trkpt lat="47.2465" lon="-1.39951">
        <ele>63</ele>
        <time>2020-12-19T11:49:27.000Z</time>
      </trkpt>
      <trkpt lat="47.24658" lon="-1.39965">
        <ele>62</ele>
        <time>2020-12-19T11:49:29.000Z</time>
      </trkpt>
      <trkpt lat="47.24666" lon="-1.39978">
        <ele>62</ele>
        <time>2020-12-19T11:49:31.000Z</time>
      </trkpt>
      <trkpt lat="47.24674" lon="-1.39991">
        <ele>62</ele>
        <time>2020-12-19T11:49:33.000Z</time>
      </trkpt>
      <trkpt lat="47.24681" lon="-1.40004">
        <ele>62</ele>
        <time>2020-12-19T11:49:35.000Z</time>
      </trkpt>
      <trkpt lat="47.24689" lon="-1.40017">
        <ele>62</ele>
        <time>2020-12-19T11:49:37.000Z</time>
      </trkpt>
      <trkpt lat="47.24696" lon="-1.40029">
        <ele>62</ele>
        <time>2020-12-19T11:49:39.000Z</time>
      </trkpt>
      <trkpt lat="47.24704" lon="-1.40041">
        <ele>62</ele>
        <time>2020-12-19T11:49:41.000Z</time>
      </trkpt>
      <trkpt lat="47.24713" lon="-1.40051">
        <ele>61</ele>
        <time>2020-12-19T11:49:43.000Z</time>
      </trkpt>
      <trkpt lat="47.2472" lon="-1.40061">
        <ele>62</ele>
        <time>2020-12-19T11:49:45.000Z</time>
      </trkpt>
      <trkpt lat="47.24728" lon="-1.40072">
        <ele>61</ele>
        <time>2020-12-19T11:49:47.000Z</time>
      </trkpt>
      <trkpt lat="47.24735" lon="-1.40086">
        <ele>61</ele>
        <time>2020-12-19T11:49:49.000Z</time>
      </trkpt>
      <trkpt lat="47.24742" lon="-1.40102">
        <ele>61</ele>
        <time>2020-12-19T11:49:51.000Z</time>
      </trkpt>
      <trkpt lat="47.24749" lon="-1.40118">
        <ele>61</ele>
        <time>2020-12-19T11:49:53.000Z</time>
      </trkpt>
      <trkpt lat="47.24757" lon="-1.40131">
        <ele>61</ele>
        <time>2020-12-19T11:49:55.000Z</time>
      </trkpt>
      <trkpt lat="47.24765" lon="-1.40146">
        <ele>60</ele>
        <time>2020-12-19T11:49:57.000Z</time>
      </trkpt>
      <trkpt lat="47.24774" lon="-1.4016">
        <ele>60</ele>
        <time>2020-12-19T11:49:59.000Z</time>
      </trkpt>
      <trkpt lat="47.24782" lon="-1.40174">
        <ele>60</ele>
        <time>2020-12-19T11:50:01.000Z</time>
      </trkpt>
      <trkpt lat="47.24791" lon="-1.40189">
        <ele>60</ele>
        <time>2020-12-19T11:50:03.000Z</time>
      </trkpt>
      <trkpt lat="47.248" lon="-1.40203">
        <ele>59</ele>
        <time>2020-12-19T11:50:05.000Z</time>
      </trkpt>
      <trkpt lat="47.24811" lon="-1.40215">
        <ele>58</ele>
        <time>2020-12-19T11:50:07.000Z</time>
      </trkpt>
      <trkpt lat="47.24821" lon="-1.40227">
        <ele>58</ele>
        <time>2020-12-19T11:50:09.000Z</time>
      </trkpt>
      <trkpt lat="47.24831" lon="-1.4024">
        <ele>57</ele>
        <time>2020-12-19T11:50:11.000Z</time>
      </trkpt>
      <trkpt lat="47.24842" lon="-1.40252">
        <ele>57</ele>
        <time>2020-12-19T11:50:13.000Z</time>
      </trkpt>
      <trkpt lat="47.24853" lon="-1.40265">
        <ele>56</ele>
        <time>2020-12-19T11:50:15.000Z</time>
      </trkpt>
      <trkpt lat="47.24864" lon="-1.40278">
        <ele>56</ele>
        <time>2020-12-19T11:50:17.000Z</time>
      </trkpt>
      <trkpt lat="47.24876" lon="-1.40291">
        <ele>56</ele>
        <time>2020-12-19T11:50:19.000Z</time>
      </trkpt>
      <trkpt lat="47.24887" lon="-1.40304">
        <ele>55</ele>
        <time>2020-12-19T11:50:21.000Z</time>
      </trkpt>
      <trkpt lat="47.24899" lon="-1.40317">
        <ele>55</ele>
        <time>2020-12-19T11:50:23.000Z</time>
      </trkpt>
      <trkpt lat="47.24911" lon="-1.40331">
        <ele>54</ele>
        <time>2020-12-19T11:50:25.000Z</time>
      </trkpt>
      <trkpt lat="47.24922" lon="-1.40345">
        <ele>53</ele>
        <time>2020-12-19T11:50:27.000Z</time>
      </trkpt>
      <trkpt lat="47.24934" lon="-1.40359">
        <ele>53</ele>
        <time>2020-12-19T11:50:29.000Z</time>
      </trkpt>
      <trkpt lat="47.24945" lon="-1.40373">
        <ele>52</ele>
        <time>2020-12-19T11:50:31.000Z</time>
      </trkpt>
      <trkpt lat="47.24957" lon="-1.40387">
        <ele>51</ele>
        <time>2020-12-19T11:50:33.000Z</time>
      </trkpt>
      <trkpt lat="47.2497" lon="-1.40401">
        <ele>51</ele>
        <time>2020-12-19T11:50:35.000Z</time>
      </trkpt>
      <trkpt lat="47.24982" lon="-1.40415">
        <ele>50</ele>
        <time>2020-12-19T11:50:37.000Z</time>
      </trkpt>
      <trkpt lat="47.24994" lon="-1.4043">
        <ele>49</ele>
        <time>2020-12-19T11:50:39.000Z</time>
      </trkpt>
      <trkpt lat="47.25006" lon="-1.40444">
        <ele>48</ele>
        <time>2020-12-19T11:50:41.000Z</time>
      </trkpt>
      <trkpt lat="47.25017" lon="-1.40458">
        <ele>48</ele>
        <time>2020-12-19T11:50:43.000Z</time>
      </trkpt>
      <trkpt lat="47.25029" lon="-1.40472">
        <ele>48</ele>
        <time>2020-12-19T11:50:45.000Z</time>
      </trkpt>
      <trkpt lat="47.2504" lon="-1.40484">
        <ele>48</ele>
        <time>2020-12-19T11:50:47.000Z</time>
      </trkpt>
      <trkpt lat="47.2505" lon="-1.40496">
        <ele>47</ele>
        <time>2020-12-19T11:50:49.000Z</time>
      </trkpt>
      <trkpt lat="47.25061" lon="-1.40508">
        <ele>47</ele>
        <time>2020-12-19T11:50:51.000Z</time>
      </trkpt>
      <trkpt lat="47.25071" lon="-1.40521">
        <ele>47</ele>
        <time>2020-12-19T11:50:53.000Z</time>
      </trkpt>
      <trkpt lat="47.25082" lon="-1.40535">
        <ele>47</ele>
        <time>2020-12-19T11:50:55.000Z</time>
      </trkpt>
      <trkpt lat="47.25093" lon="-1.4055">
        <ele>46</ele>
        <time>2020-12-19T11:50:57.000Z</time>
      </trkpt>
      <trkpt lat="47.25105" lon="-1.40565">
        <ele>46</ele>
        <time>2020-12-19T11:50:59.000Z</time>
      </trkpt>
      <trkpt lat="47.25117" lon="-1.40578">
        <ele>46</ele>
        <time>2020-12-19T11:51:01.000Z</time>
      </trkpt>
      <trkpt lat="47.25128" lon="-1.40592">
        <ele>46</ele>
        <time>2020-12-19T11:51:03.000Z</time>
      </trkpt>
      <trkpt lat="47.25139" lon="-1.40605">
        <ele>46</ele>
        <time>2020-12-19T11:51:05.000Z</time>
      </trkpt>
      <trkpt lat="47.2515" lon="-1.40617">
        <ele>46</ele>
        <time>2020-12-19T11:51:07.000Z</time>
      </trkpt>
      <trkpt lat="47.25161" lon="-1.40629">
        <ele>46</ele>
        <time>2020-12-19T11:51:09.000Z</time>
      </trkpt>
      <trkpt lat="47.25171" lon="-1.40642">
        <ele>46</ele>
        <time>2020-12-19T11:51:11.000Z</time>
      </trkpt>
      <trkpt lat="47.25182" lon="-1.40654">
        <ele>46</ele>
        <time>2020-12-19T11:51:13.000Z</time>
      </trkpt>
      <trkpt lat="47.25192" lon="-1.40667">
        <ele>45</ele>
        <time>2020-12-19T11:51:15.000Z</time>
      </trkpt>
      <trkpt lat="47.25203" lon="-1.4068">
        <ele>45</ele>
        <time>2020-12-19T11:51:17.000Z</time>
      </trkpt>
      <trkpt lat="47.25213" lon="-1.40692">
        <ele>45</ele>
        <time>2020-12-19T11:51:19.000Z</time>
      </trkpt>
      <trkpt lat="47.25224" lon="-1.40705">
        <ele>45</ele>
        <time>2020-12-19T11:51:21.000Z</time>
      </trkpt>
      <trkpt lat="47.25234" lon="-1.40718">
        <ele>45</ele>
        <time>2020-12-19T11:51:23.000Z</time>
      </trkpt>
      <trkpt lat="47.25244" lon="-1.4073">
        <ele>46</ele>
        <time>2020-12-19T11:51:25.000Z</time>
      </trkpt>
      <trkpt lat="47.25254" lon="-1.40742">
        <ele>47</ele>
        <time>2020-12-19T11:51:27.000Z</time>
      </trkpt>
      <trkpt lat="47.25264" lon="-1.40755">
        <ele>47</ele>
        <time>2020-12-19T11:51:29.000Z</time>
      </trkpt>
      <trkpt lat="47.25274" lon="-1.40768">
        <ele>47</ele>
        <time>2020-12-19T11:51:31.000Z</time>
      </trkpt>
      <trkpt lat="47.25284" lon="-1.40781">
        <ele>46</ele>
        <time>2020-12-19T11:51:33.000Z</time>
      </trkpt>
      <trkpt lat="47.25294" lon="-1.40793">
        <ele>46</ele>
        <time>2020-12-19T11:51:35.000Z</time>
      </trkpt>
      <trkpt lat="47.25304" lon="-1.40805">
        <ele>47</ele>
        <time>2020-12-19T11:51:37.000Z</time>
      </trkpt>
      <trkpt lat="47.25314" lon="-1.40816">
        <ele>46</ele>
        <time>2020-12-19T11:51:39.000Z</time>
      </trkpt>
      <trkpt lat="47.25324" lon="-1.40827">
        <ele>46</ele>
        <time>2020-12-19T11:51:41.000Z</time>
      </trkpt>
      <trkpt lat="47.25334" lon="-1.40838">
        <ele>46</ele>
        <time>2020-12-19T11:51:43.000Z</time>
      </trkpt>
      <trkpt lat="47.25343" lon="-1.4085">
        <ele>45</ele>
        <time>2020-12-19T11:51:45.000Z</time>
      </trkpt>
      <trkpt lat="47.25353" lon="-1.40861">
        <ele>45</ele>
        <time>2020-12-19T11:51:47.000Z</time>
      </trkpt>
      <trkpt lat="47.25362" lon="-1.40874">
        <ele>45</ele>
        <time>2020-12-19T11:51:49.000Z</time>
      </trkpt>
      <trkpt lat="47.25372" lon="-1.40886">
        <ele>45</ele>
        <time>2020-12-19T11:51:51.000Z</time>
      </trkpt>
      <trkpt lat="47.25382" lon="-1.40897">
        <ele>45</ele>
        <time>2020-12-19T11:51:53.000Z</time>
      </trkpt>
      <trkpt lat="47.25392" lon="-1.40908">
        <ele>45</ele>
        <time>2020-12-19T11:51:55.000Z</time>
      </trkpt>
      <trkpt lat="47.25402" lon="-1.40919">
        <ele>45</ele>
        <time>2020-12-19T11:51:57.000Z</time>
      </trkpt>
      <trkpt lat="47.25412" lon="-1.40929">
        <ele>45</ele>
        <time>2020-12-19T11:51:59.000Z</time>
      </trkpt>
      <trkpt lat="47.25423" lon="-1.40939">
        <ele>45</ele>
        <time>2020-12-19T11:52:01.000Z</time>
      </trkpt>
      <trkpt lat="47.25433" lon="-1.40949">
        <ele>45</ele>
        <time>2020-12-19T11:52:03.000Z</time>
      </trkpt>
      <trkpt lat="47.25444" lon="-1.40958">
        <ele>45</ele>
        <time>2020-12-19T11:52:05.000Z</time>
      </trkpt>
      <trkpt lat="47.25454" lon="-1.40968">
        <ele>45</ele>
        <time>2020-12-19T11:52:07.000Z</time>
      </trkpt>
      <trkpt lat="47.25464" lon="-1.40978">
        <ele>44</ele>
        <time>2020-12-19T11:52:09.000Z</time>
      </trkpt>
      <trkpt lat="47.25474" lon="-1.40987">
        <ele>44</ele>
        <time>2020-12-19T11:52:11.000Z</time>
      </trkpt>
      <trkpt lat="47.25484" lon="-1.40996">
        <ele>44</ele>
        <time>2020-12-19T11:52:13.000Z</time>
      </trkpt>
      <trkpt lat="47.25494" lon="-1.41001">
        <ele>45</ele>
        <time>2020-12-19T11:52:15.000Z</time>
      </trkpt>
      <trkpt lat="47.25504" lon="-1.41004">
        <ele>45</ele>
        <time>2020-12-19T11:52:17.000Z</time>
      </trkpt>
      <trkpt lat="47.25514" lon="-1.41003">
        <ele>46</ele>
        <time>2020-12-19T11:52:19.000Z</time>
      </trkpt>
      <trkpt lat="47.25525" lon="-1.41007">
        <ele>46</ele>
        <time>2020-12-19T11:52:21.000Z</time>
      </trkpt>
      <trkpt lat="47.25533" lon="-1.41021">
        <ele>47</ele>
        <time>2020-12-19T11:52:23.000Z</time>
      </trkpt>
      <trkpt lat="47.25535" lon="-1.41039">
        <ele>48</ele>
        <time>2020-12-19T11:52:25.000Z</time>
      </trkpt>
      <trkpt lat="47.25534" lon="-1.41055">
        <ele>48</ele>
        <time>2020-12-19T11:52:27.000Z</time>
      </trkpt>
      <trkpt lat="47.25536" lon="-1.41069">
        <ele>48</ele>
        <time>2020-12-19T11:52:30.000Z</time>
      </trkpt>
      <trkpt lat="47.25545" lon="-1.41062">
        <ele>47</ele>
        <time>2020-12-19T11:52:34.000Z</time>
      </trkpt>
      <trkpt lat="47.25554" lon="-1.41068">
        <ele>47</ele>
        <time>2020-12-19T11:52:37.000Z</time>
      </trkpt>
      <trkpt lat="47.25556" lon="-1.41082">
        <ele>48</ele>
        <time>2020-12-19T11:52:39.000Z</time>
      </trkpt>
      <trkpt lat="47.25559" lon="-1.41098">
        <ele>48</ele>
        <time>2020-12-19T11:52:41.000Z</time>
      </trkpt>
      <trkpt lat="47.25563" lon="-1.41114">
        <ele>49</ele>
        <time>2020-12-19T11:52:43.000Z</time>
      </trkpt>
      <trkpt lat="47.25564" lon="-1.41131">
        <ele>48</ele>
        <time>2020-12-19T11:52:45.000Z</time>
      </trkpt>
      <trkpt lat="47.25564" lon="-1.41149">
        <ele>49</ele>
        <time>2020-12-19T11:52:47.000Z</time>
      </trkpt>
      <trkpt lat="47.25566" lon="-1.41167">
        <ele>48</ele>
        <time>2020-12-19T11:52:49.000Z</time>
      </trkpt>
      <trkpt lat="47.25569" lon="-1.41183">
        <ele>48</ele>
        <time>2020-12-19T11:52:51.000Z</time>
      </trkpt>
      <trkpt lat="47.25572" lon="-1.41198">
        <ele>48</ele>
        <time>2020-12-19T11:52:53.000Z</time>
      </trkpt>
      <trkpt lat="47.25575" lon="-1.41214">
        <ele>48</ele>
        <time>2020-12-19T11:52:55.000Z</time>
      </trkpt>
      <trkpt lat="47.25577" lon="-1.41231">
        <ele>48</ele>
        <time>2020-12-19T11:52:57.000Z</time>
      </trkpt>
      <trkpt lat="47.25578" lon="-1.41249">
        <ele>48</ele>
        <time>2020-12-19T11:52:59.000Z</time>
      </trkpt>
      <trkpt lat="47.25579" lon="-1.41265">
        <ele>49</ele>
        <time>2020-12-19T11:53:01.000Z</time>
      </trkpt>
      <trkpt lat="47.25582" lon="-1.4128">
        <ele>50</ele>
        <time>2020-12-19T11:53:03.000Z</time>
      </trkpt>
      <trkpt lat="47.25584" lon="-1.41297">
        <ele>50</ele>
        <time>2020-12-19T11:53:05.000Z</time>
      </trkpt>
      <trkpt lat="47.25586" lon="-1.41315">
        <ele>50</ele>
        <time>2020-12-19T11:53:07.000Z</time>
      </trkpt>
      <trkpt lat="47.25589" lon="-1.41332">
        <ele>50</ele>
        <time>2020-12-19T11:53:09.000Z</time>
      </trkpt>
      <trkpt lat="47.2559" lon="-1.41349">
        <ele>50</ele>
        <time>2020-12-19T11:53:11.000Z</time>
      </trkpt>
      <trkpt lat="47.25591" lon="-1.41365">
        <ele>50</ele>
        <time>2020-12-19T11:53:13.000Z</time>
      </trkpt>
      <trkpt lat="47.25592" lon="-1.41383">
        <ele>49</ele>
        <time>2020-12-19T11:53:15.000Z</time>
      </trkpt>
      <trkpt lat="47.25593" lon="-1.41402">
        <ele>49</ele>
        <time>2020-12-19T11:53:17.000Z</time>
      </trkpt>
      <trkpt lat="47.25593" lon="-1.41418">
        <ele>49</ele>
        <time>2020-12-19T11:53:19.000Z</time>
      </trkpt>
      <trkpt lat="47.25595" lon="-1.41434">
        <ele>49</ele>
        <time>2020-12-19T11:53:21.000Z</time>
      </trkpt>
      <trkpt lat="47.25598" lon="-1.41449">
        <ele>49</ele>
        <time>2020-12-19T11:53:23.000Z</time>
      </trkpt>
      <trkpt lat="47.25601" lon="-1.41468">
        <ele>49</ele>
        <time>2020-12-19T11:53:25.000Z</time>
      </trkpt>
      <trkpt lat="47.25602" lon="-1.41485">
        <ele>49</ele>
        <time>2020-12-19T11:53:27.000Z</time>
      </trkpt>
      <trkpt lat="47.25604" lon="-1.41502">
        <ele>49</ele>
        <time>2020-12-19T11:53:29.000Z</time>
      </trkpt>
      <trkpt lat="47.25606" lon="-1.41517">
        <ele>48</ele>
        <time>2020-12-19T11:53:31.000Z</time>
      </trkpt>
      <trkpt lat="47.25607" lon="-1.41534">
        <ele>48</ele>
        <time>2020-12-19T11:53:33.000Z</time>
      </trkpt>
      <trkpt lat="47.25606" lon="-1.41549">
        <ele>48</ele>
        <time>2020-12-19T11:53:35.000Z</time>
      </trkpt>
      <trkpt lat="47.25607" lon="-1.41566">
        <ele>47</ele>
        <time>2020-12-19T11:53:37.000Z</time>
      </trkpt>
      <trkpt lat="47.25609" lon="-1.41584">
        <ele>47</ele>
        <time>2020-12-19T11:53:39.000Z</time>
      </trkpt>
      <trkpt lat="47.2561" lon="-1.416">
        <ele>47</ele>
        <time>2020-12-19T11:53:41.000Z</time>
      </trkpt>
      <trkpt lat="47.25612" lon="-1.41615">
        <ele>47</ele>
        <time>2020-12-19T11:53:43.000Z</time>
      </trkpt>
      <trkpt lat="47.25615" lon="-1.41629">
        <ele>48</ele>
        <time>2020-12-19T11:53:45.000Z</time>
      </trkpt>
      <trkpt lat="47.25618" lon="-1.41644">
        <ele>48</ele>
        <time>2020-12-19T11:53:47.000Z</time>
      </trkpt>
      <trkpt lat="47.2562" lon="-1.4166">
        <ele>48</ele>
        <time>2020-12-19T11:53:49.000Z</time>
      </trkpt>
      <trkpt lat="47.25622" lon="-1.41677">
        <ele>48</ele>
        <time>2020-12-19T11:53:51.000Z</time>
      </trkpt>
      <trkpt lat="47.25624" lon="-1.41695">
        <ele>48</ele>
        <time>2020-12-19T11:53:53.000Z</time>
      </trkpt>
      <trkpt lat="47.25625" lon="-1.41712">
        <ele>48</ele>
        <time>2020-12-19T11:53:55.000Z</time>
      </trkpt>
      <trkpt lat="47.25627" lon="-1.41729">
        <ele>48</ele>
        <time>2020-12-19T11:53:57.000Z</time>
      </trkpt>
      <trkpt lat="47.25629" lon="-1.41745">
        <ele>48</ele>
        <time>2020-12-19T11:53:59.000Z</time>
      </trkpt>
      <trkpt lat="47.2563" lon="-1.41762">
        <ele>48</ele>
        <time>2020-12-19T11:54:01.000Z</time>
      </trkpt>
      <trkpt lat="47.25632" lon="-1.41779">
        <ele>48</ele>
        <time>2020-12-19T11:54:03.000Z</time>
      </trkpt>
      <trkpt lat="47.25634" lon="-1.41795">
        <ele>49</ele>
        <time>2020-12-19T11:54:05.000Z</time>
      </trkpt>
      <trkpt lat="47.25635" lon="-1.4181">
        <ele>49</ele>
        <time>2020-12-19T11:54:07.000Z</time>
      </trkpt>
      <trkpt lat="47.25637" lon="-1.41825">
        <ele>49</ele>
        <time>2020-12-19T11:54:09.000Z</time>
      </trkpt>
      <trkpt lat="47.25639" lon="-1.4184">
        <ele>49</ele>
        <time>2020-12-19T11:54:11.000Z</time>
      </trkpt>
      <trkpt lat="47.25641" lon="-1.41856">
        <ele>48</ele>
        <time>2020-12-19T11:54:13.000Z</time>
      </trkpt>
      <trkpt lat="47.25642" lon="-1.41872">
        <ele>48</ele>
        <time>2020-12-19T11:54:15.000Z</time>
      </trkpt>
      <trkpt lat="47.25644" lon="-1.41889">
        <ele>48</ele>
        <time>2020-12-19T11:54:17.000Z</time>
      </trkpt>
      <trkpt lat="47.25645" lon="-1.41905">
        <ele>48</ele>
        <time>2020-12-19T11:54:19.000Z</time>
      </trkpt>
      <trkpt lat="47.25646" lon="-1.41921">
        <ele>48</ele>
        <time>2020-12-19T11:54:21.000Z</time>
      </trkpt>
      <trkpt lat="47.25646" lon="-1.41935">
        <ele>48</ele>
        <time>2020-12-19T11:54:23.000Z</time>
      </trkpt>
      <trkpt lat="47.25648" lon="-1.41951">
        <ele>48</ele>
        <time>2020-12-19T11:54:25.000Z</time>
      </trkpt>
      <trkpt lat="47.25651" lon="-1.41967">
        <ele>48</ele>
        <time>2020-12-19T11:54:27.000Z</time>
      </trkpt>
      <trkpt lat="47.25654" lon="-1.41982">
        <ele>49</ele>
        <time>2020-12-19T11:54:29.000Z</time>
      </trkpt>
      <trkpt lat="47.25656" lon="-1.41998">
        <ele>48</ele>
        <time>2020-12-19T11:54:31.000Z</time>
      </trkpt>
      <trkpt lat="47.25657" lon="-1.42015">
        <ele>48</ele>
        <time>2020-12-19T11:54:33.000Z</time>
      </trkpt>
      <trkpt lat="47.25659" lon="-1.4203">
        <ele>48</ele>
        <time>2020-12-19T11:54:35.000Z</time>
      </trkpt>
      <trkpt lat="47.2566" lon="-1.42046">
        <ele>49</ele>
        <time>2020-12-19T11:54:37.000Z</time>
      </trkpt>
      <trkpt lat="47.25662" lon="-1.42061">
        <ele>49</ele>
        <time>2020-12-19T11:54:39.000Z</time>
      </trkpt>
      <trkpt lat="47.25664" lon="-1.42077">
        <ele>49</ele>
        <time>2020-12-19T11:54:41.000Z</time>
      </trkpt>
      <trkpt lat="47.25666" lon="-1.42092">
        <ele>49</ele>
        <time>2020-12-19T11:54:43.000Z</time>
      </trkpt>
      <trkpt lat="47.25667" lon="-1.42106">
        <ele>49</ele>
        <time>2020-12-19T11:54:45.000Z</time>
      </trkpt>
      <trkpt lat="47.25669" lon="-1.42121">
        <ele>49</ele>
        <time>2020-12-19T11:54:47.000Z</time>
      </trkpt>
      <trkpt lat="47.25667" lon="-1.42135">
        <ele>49</ele>
        <time>2020-12-19T11:54:50.000Z</time>
      </trkpt>
      <trkpt lat="47.25666" lon="-1.42149">
        <ele>51</ele>
        <time>2020-12-19T11:54:53.000Z</time>
      </trkpt>
      <trkpt lat="47.25669" lon="-1.42163">
        <ele>50</ele>
        <time>2020-12-19T11:54:55.000Z</time>
      </trkpt>
      <trkpt lat="47.2567" lon="-1.42179">
        <ele>50</ele>
        <time>2020-12-19T11:54:57.000Z</time>
      </trkpt>
      <trkpt lat="47.25672" lon="-1.42193">
        <ele>50</ele>
        <time>2020-12-19T11:54:59.000Z</time>
      </trkpt>
      <trkpt lat="47.25674" lon="-1.42209">
        <ele>50</ele>
        <time>2020-12-19T11:55:01.000Z</time>
      </trkpt>
      <trkpt lat="47.25676" lon="-1.42225">
        <ele>50</ele>
        <time>2020-12-19T11:55:03.000Z</time>
      </trkpt>
      <trkpt lat="47.25678" lon="-1.4224">
        <ele>50</ele>
        <time>2020-12-19T11:55:05.000Z</time>
      </trkpt>
      <trkpt lat="47.2568" lon="-1.42257">
        <ele>50</ele>
        <time>2020-12-19T11:55:07.000Z</time>
      </trkpt>
      <trkpt lat="47.25682" lon="-1.42273">
        <ele>49</ele>
        <time>2020-12-19T11:55:09.000Z</time>
      </trkpt>
      <trkpt lat="47.25683" lon="-1.42289">
        <ele>49</ele>
        <time>2020-12-19T11:55:11.000Z</time>
      </trkpt>
      <trkpt lat="47.25685" lon="-1.42304">
        <ele>49</ele>
        <time>2020-12-19T11:55:13.000Z</time>
      </trkpt>
      <trkpt lat="47.25687" lon="-1.4232">
        <ele>50</ele>
        <time>2020-12-19T11:55:15.000Z</time>
      </trkpt>
      <trkpt lat="47.25688" lon="-1.42335">
        <ele>50</ele>
        <time>2020-12-19T11:55:17.000Z</time>
      </trkpt>
      <trkpt lat="47.2569" lon="-1.42351">
        <ele>50</ele>
        <time>2020-12-19T11:55:19.000Z</time>
      </trkpt>
      <trkpt lat="47.25691" lon="-1.42366">
        <ele>50</ele>
        <time>2020-12-19T11:55:21.000Z</time>
      </trkpt>
      <trkpt lat="47.25693" lon="-1.42382">
        <ele>50</ele>
        <time>2020-12-19T11:55:23.000Z</time>
      </trkpt>
      <trkpt lat="47.25695" lon="-1.42398">
        <ele>50</ele>
        <time>2020-12-19T11:55:25.000Z</time>
      </trkpt>
      <trkpt lat="47.25696" lon="-1.42414">
        <ele>51</ele>
        <time>2020-12-19T11:55:27.000Z</time>
      </trkpt>
      <trkpt lat="47.25698" lon="-1.4243">
        <ele>51</ele>
        <time>2020-12-19T11:55:29.000Z</time>
      </trkpt>
      <trkpt lat="47.257" lon="-1.42446">
        <ele>51</ele>
        <time>2020-12-19T11:55:31.000Z</time>
      </trkpt>
      <trkpt lat="47.25701" lon="-1.42462">
        <ele>51</ele>
        <time>2020-12-19T11:55:33.000Z</time>
      </trkpt>
      <trkpt lat="47.25703" lon="-1.42478">
        <ele>51</ele>
        <time>2020-12-19T11:55:35.000Z</time>
      </trkpt>
      <trkpt lat="47.25704" lon="-1.42492">
        <ele>51</ele>
        <time>2020-12-19T11:55:37.000Z</time>
      </trkpt>
      <trkpt lat="47.25706" lon="-1.42508">
        <ele>50</ele>
        <time>2020-12-19T11:55:39.000Z</time>
      </trkpt>
      <trkpt lat="47.25708" lon="-1.42524">
        <ele>51</ele>
        <time>2020-12-19T11:55:41.000Z</time>
      </trkpt>
      <trkpt lat="47.2571" lon="-1.42539">
        <ele>51</ele>
        <time>2020-12-19T11:55:43.000Z</time>
      </trkpt>
      <trkpt lat="47.25711" lon="-1.42555">
        <ele>51</ele>
        <time>2020-12-19T11:55:45.000Z</time>
      </trkpt>
      <trkpt lat="47.25713" lon="-1.42569">
        <ele>51</ele>
        <time>2020-12-19T11:55:47.000Z</time>
      </trkpt>
      <trkpt lat="47.25717" lon="-1.42589">
        <ele>51</ele>
        <time>2020-12-19T11:55:50.000Z</time>
      </trkpt>
      <trkpt lat="47.25722" lon="-1.426">
        <ele>51</ele>
        <time>2020-12-19T11:55:54.000Z</time>
      </trkpt>
      <trkpt lat="47.25729" lon="-1.4261">
        <ele>53</ele>
        <time>2020-12-19T11:55:57.000Z</time>
      </trkpt>
      <trkpt lat="47.25734" lon="-1.42623">
        <ele>53</ele>
        <time>2020-12-19T11:55:59.000Z</time>
      </trkpt>
      <trkpt lat="47.25739" lon="-1.42637">
        <ele>53</ele>
        <time>2020-12-19T11:56:01.000Z</time>
      </trkpt>
      <trkpt lat="47.25746" lon="-1.42652">
        <ele>54</ele>
        <time>2020-12-19T11:56:03.000Z</time>
      </trkpt>
      <trkpt lat="47.25752" lon="-1.42667">
        <ele>55</ele>
        <time>2020-12-19T11:56:05.000Z</time>
      </trkpt>
      <trkpt lat="47.25758" lon="-1.42681">
        <ele>55</ele>
        <time>2020-12-19T11:56:07.000Z</time>
      </trkpt>
      <trkpt lat="47.25764" lon="-1.42695">
        <ele>55</ele>
        <time>2020-12-19T11:56:09.000Z</time>
      </trkpt>
      <trkpt lat="47.2577" lon="-1.42709">
        <ele>55</ele>
        <time>2020-12-19T11:56:11.000Z</time>
      </trkpt>
      <trkpt lat="47.25775" lon="-1.42723">
        <ele>55</ele>
        <time>2020-12-19T11:56:13.000Z</time>
      </trkpt>
      <trkpt lat="47.25781" lon="-1.42737">
        <ele>55</ele>
        <time>2020-12-19T11:56:15.000Z</time>
      </trkpt>
      <trkpt lat="47.25787" lon="-1.4275">
        <ele>55</ele>
        <time>2020-12-19T11:56:17.000Z</time>
      </trkpt>
      <trkpt lat="47.25793" lon="-1.42764">
        <ele>55</ele>
        <time>2020-12-19T11:56:19.000Z</time>
      </trkpt>
      <trkpt lat="47.25798" lon="-1.42777">
        <ele>55</ele>
        <time>2020-12-19T11:56:21.000Z</time>
      </trkpt>
      <trkpt lat="47.25803" lon="-1.4279">
        <ele>55</ele>
        <time>2020-12-19T11:56:23.000Z</time>
      </trkpt>
      <trkpt lat="47.25809" lon="-1.42804">
        <ele>55</ele>
        <time>2020-12-19T11:56:25.000Z</time>
      </trkpt>
      <trkpt lat="47.25814" lon="-1.42816">
        <ele>56</ele>
        <time>2020-12-19T11:56:27.000Z</time>
      </trkpt>
      <trkpt lat="47.25819" lon="-1.4283">
        <ele>55</ele>
        <time>2020-12-19T11:56:29.000Z</time>
      </trkpt>
      <trkpt lat="47.25824" lon="-1.42843">
        <ele>55</ele>
        <time>2020-12-19T11:56:31.000Z</time>
      </trkpt>
      <trkpt lat="47.25829" lon="-1.42856">
        <ele>55</ele>
        <time>2020-12-19T11:56:33.000Z</time>
      </trkpt>
      <trkpt lat="47.25835" lon="-1.42868">
        <ele>56</ele>
        <time>2020-12-19T11:56:35.000Z</time>
      </trkpt>
      <trkpt lat="47.2584" lon="-1.42881">
        <ele>56</ele>
        <time>2020-12-19T11:56:37.000Z</time>
      </trkpt>
      <trkpt lat="47.25846" lon="-1.42894">
        <ele>56</ele>
        <time>2020-12-19T11:56:39.000Z</time>
      </trkpt>
      <trkpt lat="47.25851" lon="-1.42908">
        <ele>55</ele>
        <time>2020-12-19T11:56:41.000Z</time>
      </trkpt>
      <trkpt lat="47.25857" lon="-1.42923">
        <ele>54</ele>
        <time>2020-12-19T11:56:43.000Z</time>
      </trkpt>
      <trkpt lat="47.25864" lon="-1.42939">
        <ele>53</ele>
        <time>2020-12-19T11:56:45.000Z</time>
      </trkpt>
      <trkpt lat="47.2587" lon="-1.42956">
        <ele>53</ele>
        <time>2020-12-19T11:56:47.000Z</time>
      </trkpt>
      <trkpt lat="47.25877" lon="-1.42974">
        <ele>52</ele>
        <time>2020-12-19T11:56:49.000Z</time>
      </trkpt>
      <trkpt lat="47.25885" lon="-1.42992">
        <ele>52</ele>
        <time>2020-12-19T11:56:51.000Z</time>
      </trkpt>
      <trkpt lat="47.25892" lon="-1.43009">
        <ele>52</ele>
        <time>2020-12-19T11:56:53.000Z</time>
      </trkpt>
      <trkpt lat="47.25899" lon="-1.43026">
        <ele>52</ele>
        <time>2020-12-19T11:56:55.000Z</time>
      </trkpt>
      <trkpt lat="47.25906" lon="-1.43043">
        <ele>52</ele>
        <time>2020-12-19T11:56:57.000Z</time>
      </trkpt>
      <trkpt lat="47.25913" lon="-1.4306">
        <ele>52</ele>
        <time>2020-12-19T11:56:59.000Z</time>
      </trkpt>
      <trkpt lat="47.25919" lon="-1.43076">
        <ele>52</ele>
        <time>2020-12-19T11:57:01.000Z</time>
      </trkpt>
      <trkpt lat="47.25926" lon="-1.43093">
        <ele>52</ele>
        <time>2020-12-19T11:57:03.000Z</time>
      </trkpt>
      <trkpt lat="47.25933" lon="-1.43109">
        <ele>52</ele>
        <time>2020-12-19T11:57:05.000Z</time>
      </trkpt>
      <trkpt lat="47.25942" lon="-1.43124">
        <ele>52</ele>
        <time>2020-12-19T11:57:07.000Z</time>
      </trkpt>
      <trkpt lat="47.2595" lon="-1.43137">
        <ele>52</ele>
        <time>2020-12-19T11:57:09.000Z</time>
      </trkpt>
      <trkpt lat="47.2596" lon="-1.43149">
        <ele>52</ele>
        <time>2020-12-19T11:57:11.000Z</time>
      </trkpt>
      <trkpt lat="47.25968" lon="-1.43162">
        <ele>52</ele>
        <time>2020-12-19T11:57:13.000Z</time>
      </trkpt>
      <trkpt lat="47.25976" lon="-1.43173">
        <ele>52</ele>
        <time>2020-12-19T11:57:15.000Z</time>
      </trkpt>
      <trkpt lat="47.25983" lon="-1.43184">
        <ele>53</ele>
        <time>2020-12-19T11:57:17.000Z</time>
      </trkpt>
      <trkpt lat="47.25992" lon="-1.43193">
        <ele>54</ele>
        <time>2020-12-19T11:57:19.000Z</time>
      </trkpt>
      <trkpt lat="47.25999" lon="-1.43204">
        <ele>54</ele>
        <time>2020-12-19T11:57:21.000Z</time>
      </trkpt>
      <trkpt lat="47.26006" lon="-1.43215">
        <ele>54</ele>
        <time>2020-12-19T11:57:23.000Z</time>
      </trkpt>
      <trkpt lat="47.26014" lon="-1.43225">
        <ele>54</ele>
        <time>2020-12-19T11:57:25.000Z</time>
      </trkpt>
      <trkpt lat="47.26023" lon="-1.43237">
        <ele>54</ele>
        <time>2020-12-19T11:57:27.000Z</time>
      </trkpt>
      <trkpt lat="47.2603" lon="-1.43248">
        <ele>54</ele>
        <time>2020-12-19T11:57:29.000Z</time>
      </trkpt>
      <trkpt lat="47.26037" lon="-1.4326">
        <ele>53</ele>
        <time>2020-12-19T11:57:31.000Z</time>
      </trkpt>
      <trkpt lat="47.26045" lon="-1.43271">
        <ele>54</ele>
        <time>2020-12-19T11:57:33.000Z</time>
      </trkpt>
      <trkpt lat="47.26053" lon="-1.43282">
        <ele>53</ele>
        <time>2020-12-19T11:57:35.000Z</time>
      </trkpt>
      <trkpt lat="47.26061" lon="-1.43293">
        <ele>53</ele>
        <time>2020-12-19T11:57:37.000Z</time>
      </trkpt>
      <trkpt lat="47.26068" lon="-1.43303">
        <ele>53</ele>
        <time>2020-12-19T11:57:39.000Z</time>
      </trkpt>
      <trkpt lat="47.26076" lon="-1.43314">
        <ele>52</ele>
        <time>2020-12-19T11:57:41.000Z</time>
      </trkpt>
      <trkpt lat="47.26083" lon="-1.43325">
        <ele>53</ele>
        <time>2020-12-19T11:57:43.000Z</time>
      </trkpt>
      <trkpt lat="47.2609" lon="-1.43335">
        <ele>53</ele>
        <time>2020-12-19T11:57:45.000Z</time>
      </trkpt>
      <trkpt lat="47.26096" lon="-1.43347">
        <ele>52</ele>
        <time>2020-12-19T11:57:47.000Z</time>
      </trkpt>
      <trkpt lat="47.26105" lon="-1.43359">
        <ele>52</ele>
        <time>2020-12-19T11:57:49.000Z</time>
      </trkpt>
      <trkpt lat="47.26113" lon="-1.4337">
        <ele>52</ele>
        <time>2020-12-19T11:57:51.000Z</time>
      </trkpt>
      <trkpt lat="47.2612" lon="-1.43381">
        <ele>52</ele>
        <time>2020-12-19T11:57:53.000Z</time>
      </trkpt>
      <trkpt lat="47.26128" lon="-1.43392">
        <ele>52</ele>
        <time>2020-12-19T11:57:55.000Z</time>
      </trkpt>
      <trkpt lat="47.26137" lon="-1.43404">
        <ele>53</ele>
        <time>2020-12-19T11:57:57.000Z</time>
      </trkpt>
      <trkpt lat="47.26145" lon="-1.43416">
        <ele>53</ele>
        <time>2020-12-19T11:57:59.000Z</time>
      </trkpt>
      <trkpt lat="47.26152" lon="-1.43427">
        <ele>53</ele>
        <time>2020-12-19T11:58:01.000Z</time>
      </trkpt>
      <trkpt lat="47.26161" lon="-1.43438">
        <ele>53</ele>
        <time>2020-12-19T11:58:03.000Z</time>
      </trkpt>
      <trkpt lat="47.26169" lon="-1.43449">
        <ele>54</ele>
        <time>2020-12-19T11:58:05.000Z</time>
      </trkpt>
      <trkpt lat="47.26177" lon="-1.4346">
        <ele>54</ele>
        <time>2020-12-19T11:58:07.000Z</time>
      </trkpt>
      <trkpt lat="47.26186" lon="-1.43472">
        <ele>54</ele>
        <time>2020-12-19T11:58:09.000Z</time>
      </trkpt>
      <trkpt lat="47.26195" lon="-1.43486">
        <ele>54</ele>
        <time>2020-12-19T11:58:11.000Z</time>
      </trkpt>
      <trkpt lat="47.26203" lon="-1.43499">
        <ele>54</ele>
        <time>2020-12-19T11:58:13.000Z</time>
      </trkpt>
      <trkpt lat="47.26212" lon="-1.4351">
        <ele>53</ele>
        <time>2020-12-19T11:58:15.000Z</time>
      </trkpt>
      <trkpt lat="47.26221" lon="-1.43522">
        <ele>52</ele>
        <time>2020-12-19T11:58:17.000Z</time>
      </trkpt>
      <trkpt lat="47.26228" lon="-1.43535">
        <ele>52</ele>
        <time>2020-12-19T11:58:20.000Z</time>
      </trkpt>
      <trkpt lat="47.26235" lon="-1.43545">
        <ele>52</ele>
        <time>2020-12-19T11:58:23.000Z</time>
      </trkpt>
      <trkpt lat="47.26239" lon="-1.43558">
        <ele>52</ele>
        <time>2020-12-19T11:58:28.000Z</time>
      </trkpt>
      <trkpt lat="47.26231" lon="-1.43567">
        <ele>51</ele>
        <time>2020-12-19T11:58:30.000Z</time>
      </trkpt>
      <trkpt lat="47.26222" lon="-1.43578">
        <ele>51</ele>
        <time>2020-12-19T11:58:32.000Z</time>
      </trkpt>
      <trkpt lat="47.26213" lon="-1.4359">
        <ele>51</ele>
        <time>2020-12-19T11:58:34.000Z</time>
      </trkpt>
      <trkpt lat="47.26204" lon="-1.43604">
        <ele>50</ele>
        <time>2020-12-19T11:58:36.000Z</time>
      </trkpt>
      <trkpt lat="47.26194" lon="-1.43618">
        <ele>50</ele>
        <time>2020-12-19T11:58:38.000Z</time>
      </trkpt>
      <trkpt lat="47.26184" lon="-1.43631">
        <ele>50</ele>
        <time>2020-12-19T11:58:40.000Z</time>
      </trkpt>
      <trkpt lat="47.26175" lon="-1.43645">
        <ele>50</ele>
        <time>2020-12-19T11:58:42.000Z</time>
      </trkpt>
      <trkpt lat="47.26165" lon="-1.43659">
        <ele>50</ele>
        <time>2020-12-19T11:58:44.000Z</time>
      </trkpt>
      <trkpt lat="47.26155" lon="-1.43674">
        <ele>49</ele>
        <time>2020-12-19T11:58:46.000Z</time>
      </trkpt>
      <trkpt lat="47.26145" lon="-1.43687">
        <ele>50</ele>
        <time>2020-12-19T11:58:48.000Z</time>
      </trkpt>
      <trkpt lat="47.26136" lon="-1.43701">
        <ele>49</ele>
        <time>2020-12-19T11:58:50.000Z</time>
      </trkpt>
      <trkpt lat="47.26127" lon="-1.43716">
        <ele>50</ele>
        <time>2020-12-19T11:58:52.000Z</time>
      </trkpt>
      <trkpt lat="47.26119" lon="-1.43731">
        <ele>50</ele>
        <time>2020-12-19T11:58:54.000Z</time>
      </trkpt>
      <trkpt lat="47.26111" lon="-1.43744">
        <ele>50</ele>
        <time>2020-12-19T11:58:56.000Z</time>
      </trkpt>
      <trkpt lat="47.26102" lon="-1.43756">
        <ele>50</ele>
        <time>2020-12-19T11:58:58.000Z</time>
      </trkpt>
      <trkpt lat="47.26093" lon="-1.43768">
        <ele>50</ele>
        <time>2020-12-19T11:59:00.000Z</time>
      </trkpt>
      <trkpt lat="47.26084" lon="-1.4378">
        <ele>51</ele>
        <time>2020-12-19T11:59:02.000Z</time>
      </trkpt>
      <trkpt lat="47.26074" lon="-1.43793">
        <ele>52</ele>
        <time>2020-12-19T11:59:04.000Z</time>
      </trkpt>
      <trkpt lat="47.26065" lon="-1.43806">
        <ele>52</ele>
        <time>2020-12-19T11:59:06.000Z</time>
      </trkpt>
      <trkpt lat="47.26056" lon="-1.43822">
        <ele>52</ele>
        <time>2020-12-19T11:59:08.000Z</time>
      </trkpt>
      <trkpt lat="47.26049" lon="-1.43838">
        <ele>52</ele>
        <time>2020-12-19T11:59:10.000Z</time>
      </trkpt>
      <trkpt lat="47.26041" lon="-1.43854">
        <ele>52</ele>
        <time>2020-12-19T11:59:12.000Z</time>
      </trkpt>
      <trkpt lat="47.26031" lon="-1.43866">
        <ele>52</ele>
        <time>2020-12-19T11:59:14.000Z</time>
      </trkpt>
      <trkpt lat="47.2602" lon="-1.43875">
        <ele>52</ele>
        <time>2020-12-19T11:59:16.000Z</time>
      </trkpt>
      <trkpt lat="47.26009" lon="-1.43885">
        <ele>51</ele>
        <time>2020-12-19T11:59:18.000Z</time>
      </trkpt>
      <trkpt lat="47.25999" lon="-1.43896">
        <ele>52</ele>
        <time>2020-12-19T11:59:20.000Z</time>
      </trkpt>
      <trkpt lat="47.25989" lon="-1.43908">
        <ele>51</ele>
        <time>2020-12-19T11:59:22.000Z</time>
      </trkpt>
      <trkpt lat="47.2598" lon="-1.4392">
        <ele>50</ele>
        <time>2020-12-19T11:59:24.000Z</time>
      </trkpt>
      <trkpt lat="47.2597" lon="-1.43931">
        <ele>50</ele>
        <time>2020-12-19T11:59:26.000Z</time>
      </trkpt>
      <trkpt lat="47.2596" lon="-1.43943">
        <ele>49</ele>
        <time>2020-12-19T11:59:28.000Z</time>
      </trkpt>
      <trkpt lat="47.2595" lon="-1.43954">
        <ele>49</ele>
        <time>2020-12-19T11:59:30.000Z</time>
      </trkpt>
      <trkpt lat="47.25941" lon="-1.43965">
        <ele>49</ele>
        <time>2020-12-19T11:59:32.000Z</time>
      </trkpt>
      <trkpt lat="47.25932" lon="-1.43975">
        <ele>49</ele>
        <time>2020-12-19T11:59:34.000Z</time>
      </trkpt>
      <trkpt lat="47.25923" lon="-1.43985">
        <ele>49</ele>
        <time>2020-12-19T11:59:36.000Z</time>
      </trkpt>
      <trkpt lat="47.25913" lon="-1.43995">
        <ele>48</ele>
        <time>2020-12-19T11:59:38.000Z</time>
      </trkpt>
      <trkpt lat="47.25904" lon="-1.44006">
        <ele>49</ele>
        <time>2020-12-19T11:59:40.000Z</time>
      </trkpt>
      <trkpt lat="47.25896" lon="-1.44016">
        <ele>49</ele>
        <time>2020-12-19T11:59:42.000Z</time>
      </trkpt>
      <trkpt lat="47.25887" lon="-1.44026">
        <ele>48</ele>
        <time>2020-12-19T11:59:44.000Z</time>
      </trkpt>
      <trkpt lat="47.2588" lon="-1.44038">
        <ele>49</ele>
        <time>2020-12-19T11:59:46.000Z</time>
      </trkpt>
      <trkpt lat="47.25875" lon="-1.44054">
        <ele>49</ele>
        <time>2020-12-19T11:59:48.000Z</time>
      </trkpt>
      <trkpt lat="47.2587" lon="-1.4407">
        <ele>49</ele>
        <time>2020-12-19T11:59:50.000Z</time>
      </trkpt>
      <trkpt lat="47.25864" lon="-1.44084">
        <ele>49</ele>
        <time>2020-12-19T11:59:52.000Z</time>
      </trkpt>
      <trkpt lat="47.25855" lon="-1.44095">
        <ele>49</ele>
        <time>2020-12-19T11:59:54.000Z</time>
      </trkpt>
      <trkpt lat="47.25846" lon="-1.44106">
        <ele>49</ele>
        <time>2020-12-19T11:59:56.000Z</time>
      </trkpt>
      <trkpt lat="47.25836" lon="-1.44116">
        <ele>50</ele>
        <time>2020-12-19T11:59:58.000Z</time>
      </trkpt>
      <trkpt lat="47.25827" lon="-1.44126">
        <ele>50</ele>
        <time>2020-12-19T12:00:00.000Z</time>
      </trkpt>
      <trkpt lat="47.25818" lon="-1.44136">
        <ele>50</ele>
        <time>2020-12-19T12:00:02.000Z</time>
      </trkpt>
      <trkpt lat="47.25809" lon="-1.44146">
        <ele>50</ele>
        <time>2020-12-19T12:00:04.000Z</time>
      </trkpt>
      <trkpt lat="47.25799" lon="-1.44155">
        <ele>50</ele>
        <time>2020-12-19T12:00:06.000Z</time>
      </trkpt>
      <trkpt lat="47.2579" lon="-1.44166">
        <ele>50</ele>
        <time>2020-12-19T12:00:08.000Z</time>
      </trkpt>
      <trkpt lat="47.25781" lon="-1.44175">
        <ele>49</ele>
        <time>2020-12-19T12:00:10.000Z</time>
      </trkpt>
      <trkpt lat="47.25773" lon="-1.44185">
        <ele>49</ele>
        <time>2020-12-19T12:00:12.000Z</time>
      </trkpt>
      <trkpt lat="47.25765" lon="-1.44196">
        <ele>49</ele>
        <time>2020-12-19T12:00:14.000Z</time>
      </trkpt>
      <trkpt lat="47.25757" lon="-1.44207">
        <ele>50</ele>
        <time>2020-12-19T12:00:16.000Z</time>
      </trkpt>
      <trkpt lat="47.25748" lon="-1.44217">
        <ele>49</ele>
        <time>2020-12-19T12:00:18.000Z</time>
      </trkpt>
      <trkpt lat="47.25741" lon="-1.44228">
        <ele>50</ele>
        <time>2020-12-19T12:00:20.000Z</time>
      </trkpt>
      <trkpt lat="47.25732" lon="-1.44238">
        <ele>50</ele>
        <time>2020-12-19T12:00:22.000Z</time>
      </trkpt>
      <trkpt lat="47.25723" lon="-1.44249">
        <ele>51</ele>
        <time>2020-12-19T12:00:24.000Z</time>
      </trkpt>
      <trkpt lat="47.25714" lon="-1.44259">
        <ele>51</ele>
        <time>2020-12-19T12:00:26.000Z</time>
      </trkpt>
      <trkpt lat="47.25705" lon="-1.4427">
        <ele>50</ele>
        <time>2020-12-19T12:00:28.000Z</time>
      </trkpt>
      <trkpt lat="47.25697" lon="-1.44281">
        <ele>50</ele>
        <time>2020-12-19T12:00:30.000Z</time>
      </trkpt>
      <trkpt lat="47.25688" lon="-1.44292">
        <ele>50</ele>
        <time>2020-12-19T12:00:32.000Z</time>
      </trkpt>
      <trkpt lat="47.25679" lon="-1.44304">
        <ele>50</ele>
        <time>2020-12-19T12:00:34.000Z</time>
      </trkpt>
      <trkpt lat="47.2567" lon="-1.44316">
        <ele>49</ele>
        <time>2020-12-19T12:00:36.000Z</time>
      </trkpt>
      <trkpt lat="47.25661" lon="-1.44327">
        <ele>49</ele>
        <time>2020-12-19T12:00:38.000Z</time>
      </trkpt>
      <trkpt lat="47.25652" lon="-1.44337">
        <ele>49</ele>
        <time>2020-12-19T12:00:40.000Z</time>
      </trkpt>
      <trkpt lat="47.25643" lon="-1.44347">
        <ele>49</ele>
        <time>2020-12-19T12:00:42.000Z</time>
      </trkpt>
      <trkpt lat="47.25633" lon="-1.44357">
        <ele>49</ele>
        <time>2020-12-19T12:00:44.000Z</time>
      </trkpt>
      <trkpt lat="47.25624" lon="-1.44368">
        <ele>50</ele>
        <time>2020-12-19T12:00:46.000Z</time>
      </trkpt>
      <trkpt lat="47.25615" lon="-1.44378">
        <ele>49</ele>
        <time>2020-12-19T12:00:48.000Z</time>
      </trkpt>
      <trkpt lat="47.25606" lon="-1.44388">
        <ele>49</ele>
        <time>2020-12-19T12:00:50.000Z</time>
      </trkpt>
      <trkpt lat="47.25597" lon="-1.44398">
        <ele>49</ele>
        <time>2020-12-19T12:00:52.000Z</time>
      </trkpt>
      <trkpt lat="47.25589" lon="-1.44408">
        <ele>49</ele>
        <time>2020-12-19T12:00:54.000Z</time>
      </trkpt>
      <trkpt lat="47.25581" lon="-1.44419">
        <ele>49</ele>
        <time>2020-12-19T12:00:56.000Z</time>
      </trkpt>
      <trkpt lat="47.25573" lon="-1.44428">
        <ele>49</ele>
        <time>2020-12-19T12:00:58.000Z</time>
      </trkpt>
      <trkpt lat="47.25564" lon="-1.4444">
        <ele>49</ele>
        <time>2020-12-19T12:01:00.000Z</time>
      </trkpt>
      <trkpt lat="47.25556" lon="-1.44451">
        <ele>49</ele>
        <time>2020-12-19T12:01:02.000Z</time>
      </trkpt>
      <trkpt lat="47.25548" lon="-1.44463">
        <ele>49</ele>
        <time>2020-12-19T12:01:04.000Z</time>
      </trkpt>
      <trkpt lat="47.2554" lon="-1.44474">
        <ele>50</ele>
        <time>2020-12-19T12:01:06.000Z</time>
      </trkpt>
      <trkpt lat="47.25533" lon="-1.44487">
        <ele>49</ele>
        <time>2020-12-19T12:01:08.000Z</time>
      </trkpt>
      <trkpt lat="47.25525" lon="-1.44499">
        <ele>49</ele>
        <time>2020-12-19T12:01:10.000Z</time>
      </trkpt>
      <trkpt lat="47.25517" lon="-1.4451">
        <ele>49</ele>
        <time>2020-12-19T12:01:12.000Z</time>
      </trkpt>
      <trkpt lat="47.25509" lon="-1.44521">
        <ele>49</ele>
        <time>2020-12-19T12:01:14.000Z</time>
      </trkpt>
      <trkpt lat="47.25501" lon="-1.44533">
        <ele>49</ele>
        <time>2020-12-19T12:01:16.000Z</time>
      </trkpt>
      <trkpt lat="47.25492" lon="-1.44545">
        <ele>49</ele>
        <time>2020-12-19T12:01:18.000Z</time>
      </trkpt>
      <trkpt lat="47.25483" lon="-1.44557">
        <ele>49</ele>
        <time>2020-12-19T12:01:20.000Z</time>
      </trkpt>
      <trkpt lat="47.25475" lon="-1.44568">
        <ele>49</ele>
        <time>2020-12-19T12:01:22.000Z</time>
      </trkpt>
      <trkpt lat="47.25467" lon="-1.4458">
        <ele>49</ele>
        <time>2020-12-19T12:01:24.000Z</time>
      </trkpt>
      <trkpt lat="47.25459" lon="-1.44592">
        <ele>49</ele>
        <time>2020-12-19T12:01:26.000Z</time>
      </trkpt>
      <trkpt lat="47.25452" lon="-1.44605">
        <ele>49</ele>
        <time>2020-12-19T12:01:28.000Z</time>
      </trkpt>
      <trkpt lat="47.25444" lon="-1.44616">
        <ele>49</ele>
        <time>2020-12-19T12:01:30.000Z</time>
      </trkpt>
      <trkpt lat="47.25436" lon="-1.44627">
        <ele>49</ele>
        <time>2020-12-19T12:01:32.000Z</time>
      </trkpt>
      <trkpt lat="47.25427" lon="-1.44638">
        <ele>49</ele>
        <time>2020-12-19T12:01:34.000Z</time>
      </trkpt>
      <trkpt lat="47.25419" lon="-1.44649">
        <ele>49</ele>
        <time>2020-12-19T12:01:36.000Z</time>
      </trkpt>
      <trkpt lat="47.25411" lon="-1.44661">
        <ele>49</ele>
        <time>2020-12-19T12:01:38.000Z</time>
      </trkpt>
      <trkpt lat="47.25403" lon="-1.44673">
        <ele>49</ele>
        <time>2020-12-19T12:01:40.000Z</time>
      </trkpt>
      <trkpt lat="47.25395" lon="-1.44684">
        <ele>50</ele>
        <time>2020-12-19T12:01:42.000Z</time>
      </trkpt>
      <trkpt lat="47.25386" lon="-1.44694">
        <ele>50</ele>
        <time>2020-12-19T12:01:44.000Z</time>
      </trkpt>
      <trkpt lat="47.25377" lon="-1.44705">
        <ele>50</ele>
        <time>2020-12-19T12:01:46.000Z</time>
      </trkpt>
      <trkpt lat="47.25368" lon="-1.44715">
        <ele>49</ele>
        <time>2020-12-19T12:01:48.000Z</time>
      </trkpt>
      <trkpt lat="47.2536" lon="-1.44724">
        <ele>49</ele>
        <time>2020-12-19T12:01:50.000Z</time>
      </trkpt>
      <trkpt lat="47.25352" lon="-1.44734">
        <ele>49</ele>
        <time>2020-12-19T12:01:52.000Z</time>
      </trkpt>
      <trkpt lat="47.25344" lon="-1.44743">
        <ele>50</ele>
        <time>2020-12-19T12:01:54.000Z</time>
      </trkpt>
      <trkpt lat="47.25334" lon="-1.44752">
        <ele>49</ele>
        <time>2020-12-19T12:01:56.000Z</time>
      </trkpt>
      <trkpt lat="47.25325" lon="-1.44762">
        <ele>50</ele>
        <time>2020-12-19T12:01:58.000Z</time>
      </trkpt>
      <trkpt lat="47.25316" lon="-1.44772">
        <ele>50</ele>
        <time>2020-12-19T12:02:00.000Z</time>
      </trkpt>
      <trkpt lat="47.25306" lon="-1.44783">
        <ele>50</ele>
        <time>2020-12-19T12:02:02.000Z</time>
      </trkpt>
      <trkpt lat="47.25297" lon="-1.44794">
        <ele>50</ele>
        <time>2020-12-19T12:02:04.000Z</time>
      </trkpt>
      <trkpt lat="47.25287" lon="-1.44804">
        <ele>50</ele>
        <time>2020-12-19T12:02:06.000Z</time>
      </trkpt>
      <trkpt lat="47.25278" lon="-1.44815">
        <ele>50</ele>
        <time>2020-12-19T12:02:08.000Z</time>
      </trkpt>
      <trkpt lat="47.25269" lon="-1.44826">
        <ele>50</ele>
        <time>2020-12-19T12:02:10.000Z</time>
      </trkpt>
      <trkpt lat="47.2526" lon="-1.44837">
        <ele>51</ele>
        <time>2020-12-19T12:02:12.000Z</time>
      </trkpt>
      <trkpt lat="47.2525" lon="-1.44847">
        <ele>51</ele>
        <time>2020-12-19T12:02:14.000Z</time>
      </trkpt>
      <trkpt lat="47.25241" lon="-1.44858">
        <ele>51</ele>
        <time>2020-12-19T12:02:16.000Z</time>
      </trkpt>
      <trkpt lat="47.25231" lon="-1.44868">
        <ele>51</ele>
        <time>2020-12-19T12:02:18.000Z</time>
      </trkpt>
      <trkpt lat="47.2522" lon="-1.44878">
        <ele>51</ele>
        <time>2020-12-19T12:02:20.000Z</time>
      </trkpt>
      <trkpt lat="47.25211" lon="-1.44888">
        <ele>51</ele>
        <time>2020-12-19T12:02:22.000Z</time>
      </trkpt>
      <trkpt lat="47.25199" lon="-1.44896">
        <ele>52</ele>
        <time>2020-12-19T12:02:24.000Z</time>
      </trkpt>
      <trkpt lat="47.25187" lon="-1.44905">
        <ele>52</ele>
        <time>2020-12-19T12:02:26.000Z</time>
      </trkpt>
      <trkpt lat="47.25175" lon="-1.44913">
        <ele>52</ele>
        <time>2020-12-19T12:02:28.000Z</time>
      </trkpt>
      <trkpt lat="47.25164" lon="-1.44921">
        <ele>52</ele>
        <time>2020-12-19T12:02:30.000Z</time>
      </trkpt>
      <trkpt lat="47.25151" lon="-1.4493">
        <ele>51</ele>
        <time>2020-12-19T12:02:32.000Z</time>
      </trkpt>
      <trkpt lat="47.2514" lon="-1.44941">
        <ele>51</ele>
        <time>2020-12-19T12:02:34.000Z</time>
      </trkpt>
      <trkpt lat="47.2513" lon="-1.44952">
        <ele>51</ele>
        <time>2020-12-19T12:02:36.000Z</time>
      </trkpt>
      <trkpt lat="47.2512" lon="-1.44964">
        <ele>51</ele>
        <time>2020-12-19T12:02:38.000Z</time>
      </trkpt>
      <trkpt lat="47.25109" lon="-1.44974">
        <ele>51</ele>
        <time>2020-12-19T12:02:40.000Z</time>
      </trkpt>
      <trkpt lat="47.25097" lon="-1.44984">
        <ele>51</ele>
        <time>2020-12-19T12:02:42.000Z</time>
      </trkpt>
      <trkpt lat="47.25086" lon="-1.44994">
        <ele>51</ele>
        <time>2020-12-19T12:02:44.000Z</time>
      </trkpt>
      <trkpt lat="47.25075" lon="-1.45003">
        <ele>51</ele>
        <time>2020-12-19T12:02:46.000Z</time>
      </trkpt>
      <trkpt lat="47.25065" lon="-1.45012">
        <ele>52</ele>
        <time>2020-12-19T12:02:48.000Z</time>
      </trkpt>
      <trkpt lat="47.25054" lon="-1.45022">
        <ele>52</ele>
        <time>2020-12-19T12:02:50.000Z</time>
      </trkpt>
      <trkpt lat="47.25043" lon="-1.45031">
        <ele>53</ele>
        <time>2020-12-19T12:02:52.000Z</time>
      </trkpt>
      <trkpt lat="47.25032" lon="-1.4504">
        <ele>52</ele>
        <time>2020-12-19T12:02:54.000Z</time>
      </trkpt>
      <trkpt lat="47.2502" lon="-1.45049">
        <ele>52</ele>
        <time>2020-12-19T12:02:56.000Z</time>
      </trkpt>
      <trkpt lat="47.25009" lon="-1.45059">
        <ele>52</ele>
        <time>2020-12-19T12:02:58.000Z</time>
      </trkpt>
      <trkpt lat="47.24998" lon="-1.45071">
        <ele>52</ele>
        <time>2020-12-19T12:03:00.000Z</time>
      </trkpt>
      <trkpt lat="47.24988" lon="-1.45082">
        <ele>51</ele>
        <time>2020-12-19T12:03:02.000Z</time>
      </trkpt>
      <trkpt lat="47.24978" lon="-1.45093">
        <ele>51</ele>
        <time>2020-12-19T12:03:04.000Z</time>
      </trkpt>
      <trkpt lat="47.24967" lon="-1.45103">
        <ele>52</ele>
        <time>2020-12-19T12:03:06.000Z</time>
      </trkpt>
      <trkpt lat="47.24957" lon="-1.45113">
        <ele>52</ele>
        <time>2020-12-19T12:03:08.000Z</time>
      </trkpt>
      <trkpt lat="47.24946" lon="-1.45124">
        <ele>52</ele>
        <time>2020-12-19T12:03:10.000Z</time>
      </trkpt>
      <trkpt lat="47.24936" lon="-1.45135">
        <ele>52</ele>
        <time>2020-12-19T12:03:12.000Z</time>
      </trkpt>
      <trkpt lat="47.24927" lon="-1.45147">
        <ele>51</ele>
        <time>2020-12-19T12:03:14.000Z</time>
      </trkpt>
      <trkpt lat="47.24917" lon="-1.45158">
        <ele>51</ele>
        <time>2020-12-19T12:03:16.000Z</time>
      </trkpt>
      <trkpt lat="47.24908" lon="-1.45168">
        <ele>51</ele>
        <time>2020-12-19T12:03:18.000Z</time>
      </trkpt>
      <trkpt lat="47.249" lon="-1.4518">
        <ele>51</ele>
        <time>2020-12-19T12:03:20.000Z</time>
      </trkpt>
      <trkpt lat="47.24891" lon="-1.45192">
        <ele>51</ele>
        <time>2020-12-19T12:03:22.000Z</time>
      </trkpt>
      <trkpt lat="47.24883" lon="-1.45205">
        <ele>51</ele>
        <time>2020-12-19T12:03:24.000Z</time>
      </trkpt>
      <trkpt lat="47.24874" lon="-1.45217">
        <ele>50</ele>
        <time>2020-12-19T12:03:26.000Z</time>
      </trkpt>
      <trkpt lat="47.24865" lon="-1.4523">
        <ele>50</ele>
        <time>2020-12-19T12:03:28.000Z</time>
      </trkpt>
      <trkpt lat="47.24856" lon="-1.45243">
        <ele>51</ele>
        <time>2020-12-19T12:03:30.000Z</time>
      </trkpt>
      <trkpt lat="47.24848" lon="-1.45255">
        <ele>51</ele>
        <time>2020-12-19T12:03:32.000Z</time>
      </trkpt>
      <trkpt lat="47.24841" lon="-1.45268">
        <ele>51</ele>
        <time>2020-12-19T12:03:34.000Z</time>
      </trkpt>
      <trkpt lat="47.24833" lon="-1.45282">
        <ele>51</ele>
        <time>2020-12-19T12:03:36.000Z</time>
      </trkpt>
      <trkpt lat="47.24826" lon="-1.45295">
        <ele>51</ele>
        <time>2020-12-19T12:03:38.000Z</time>
      </trkpt>
      <trkpt lat="47.24819" lon="-1.45308">
        <ele>51</ele>
        <time>2020-12-19T12:03:40.000Z</time>
      </trkpt>
      <trkpt lat="47.24812" lon="-1.45321">
        <ele>51</ele>
        <time>2020-12-19T12:03:42.000Z</time>
      </trkpt>
      <trkpt lat="47.24805" lon="-1.45334">
        <ele>51</ele>
        <time>2020-12-19T12:03:44.000Z</time>
      </trkpt>
      <trkpt lat="47.24799" lon="-1.45348">
        <ele>51</ele>
        <time>2020-12-19T12:03:46.000Z</time>
      </trkpt>
      <trkpt lat="47.24794" lon="-1.4536">
        <ele>51</ele>
        <time>2020-12-19T12:03:48.000Z</time>
      </trkpt>
      <trkpt lat="47.24789" lon="-1.45374">
        <ele>50</ele>
        <time>2020-12-19T12:03:50.000Z</time>
      </trkpt>
      <trkpt lat="47.24784" lon="-1.45388">
        <ele>51</ele>
        <time>2020-12-19T12:03:52.000Z</time>
      </trkpt>
      <trkpt lat="47.24777" lon="-1.45401">
        <ele>51</ele>
        <time>2020-12-19T12:03:54.000Z</time>
      </trkpt>
      <trkpt lat="47.24769" lon="-1.45414">
        <ele>51</ele>
        <time>2020-12-19T12:03:56.000Z</time>
      </trkpt>
      <trkpt lat="47.24762" lon="-1.4543">
        <ele>51</ele>
        <time>2020-12-19T12:03:58.000Z</time>
      </trkpt>
      <trkpt lat="47.24757" lon="-1.45447">
        <ele>51</ele>
        <time>2020-12-19T12:04:00.000Z</time>
      </trkpt>
      <trkpt lat="47.24752" lon="-1.45463">
        <ele>52</ele>
        <time>2020-12-19T12:04:02.000Z</time>
      </trkpt>
      <trkpt lat="47.24747" lon="-1.45479">
        <ele>52</ele>
        <time>2020-12-19T12:04:04.000Z</time>
      </trkpt>
      <trkpt lat="47.2474" lon="-1.45494">
        <ele>51</ele>
        <time>2020-12-19T12:04:06.000Z</time>
      </trkpt>
      <trkpt lat="47.24733" lon="-1.45508">
        <ele>51</ele>
        <time>2020-12-19T12:04:08.000Z</time>
      </trkpt>
      <trkpt lat="47.24726" lon="-1.45523">
        <ele>50</ele>
        <time>2020-12-19T12:04:10.000Z</time>
      </trkpt>
      <trkpt lat="47.24721" lon="-1.45538">
        <ele>50</ele>
        <time>2020-12-19T12:04:12.000Z</time>
      </trkpt>
      <trkpt lat="47.24716" lon="-1.45554">
        <ele>50</ele>
        <time>2020-12-19T12:04:14.000Z</time>
      </trkpt>
      <trkpt lat="47.24711" lon="-1.4557">
        <ele>50</ele>
        <time>2020-12-19T12:04:16.000Z</time>
      </trkpt>
      <trkpt lat="47.24707" lon="-1.45587">
        <ele>50</ele>
        <time>2020-12-19T12:04:18.000Z</time>
      </trkpt>
      <trkpt lat="47.24702" lon="-1.45602">
        <ele>50</ele>
        <time>2020-12-19T12:04:20.000Z</time>
      </trkpt>
      <trkpt lat="47.24696" lon="-1.45618">
        <ele>50</ele>
        <time>2020-12-19T12:04:22.000Z</time>
      </trkpt>
      <trkpt lat="47.24691" lon="-1.45633">
        <ele>50</ele>
        <time>2020-12-19T12:04:24.000Z</time>
      </trkpt>
      <trkpt lat="47.24685" lon="-1.45648">
        <ele>51</ele>
        <time>2020-12-19T12:04:26.000Z</time>
      </trkpt>
      <trkpt lat="47.24679" lon="-1.45662">
        <ele>51</ele>
        <time>2020-12-19T12:04:28.000Z</time>
      </trkpt>
      <trkpt lat="47.24676" lon="-1.45679">
        <ele>50</ele>
        <time>2020-12-19T12:04:30.000Z</time>
      </trkpt>
      <trkpt lat="47.24673" lon="-1.45696">
        <ele>50</ele>
        <time>2020-12-19T12:04:32.000Z</time>
      </trkpt>
      <trkpt lat="47.24669" lon="-1.45712">
        <ele>50</ele>
        <time>2020-12-19T12:04:34.000Z</time>
      </trkpt>
      <trkpt lat="47.24665" lon="-1.45728">
        <ele>49</ele>
        <time>2020-12-19T12:04:36.000Z</time>
      </trkpt>
      <trkpt lat="47.24661" lon="-1.45745">
        <ele>49</ele>
        <time>2020-12-19T12:04:38.000Z</time>
      </trkpt>
      <trkpt lat="47.24657" lon="-1.45761">
        <ele>50</ele>
        <time>2020-12-19T12:04:40.000Z</time>
      </trkpt>
      <trkpt lat="47.24654" lon="-1.45776">
        <ele>50</ele>
        <time>2020-12-19T12:04:42.000Z</time>
      </trkpt>
      <trkpt lat="47.24649" lon="-1.45791">
        <ele>50</ele>
        <time>2020-12-19T12:04:44.000Z</time>
      </trkpt>
      <trkpt lat="47.24646" lon="-1.45807">
        <ele>50</ele>
        <time>2020-12-19T12:04:46.000Z</time>
      </trkpt>
      <trkpt lat="47.24641" lon="-1.45822">
        <ele>50</ele>
        <time>2020-12-19T12:04:48.000Z</time>
      </trkpt>
      <trkpt lat="47.24637" lon="-1.45838">
        <ele>51</ele>
        <time>2020-12-19T12:04:50.000Z</time>
      </trkpt>
      <trkpt lat="47.24633" lon="-1.45855">
        <ele>51</ele>
        <time>2020-12-19T12:04:52.000Z</time>
      </trkpt>
      <trkpt lat="47.24629" lon="-1.45871">
        <ele>52</ele>
        <time>2020-12-19T12:04:54.000Z</time>
      </trkpt>
      <trkpt lat="47.24625" lon="-1.45888">
        <ele>52</ele>
        <time>2020-12-19T12:04:56.000Z</time>
      </trkpt>
      <trkpt lat="47.24621" lon="-1.45904">
        <ele>52</ele>
        <time>2020-12-19T12:04:58.000Z</time>
      </trkpt>
      <trkpt lat="47.24615" lon="-1.45921">
        <ele>51</ele>
        <time>2020-12-19T12:05:00.000Z</time>
      </trkpt>
      <trkpt lat="47.24608" lon="-1.45936">
        <ele>51</ele>
        <time>2020-12-19T12:05:02.000Z</time>
      </trkpt>
      <trkpt lat="47.24602" lon="-1.4595">
        <ele>51</ele>
        <time>2020-12-19T12:05:04.000Z</time>
      </trkpt>
      <trkpt lat="47.24595" lon="-1.45964">
        <ele>51</ele>
        <time>2020-12-19T12:05:06.000Z</time>
      </trkpt>
      <trkpt lat="47.24587" lon="-1.4598">
        <ele>51</ele>
        <time>2020-12-19T12:05:08.000Z</time>
      </trkpt>
      <trkpt lat="47.2458" lon="-1.45995">
        <ele>51</ele>
        <time>2020-12-19T12:05:10.000Z</time>
      </trkpt>
      <trkpt lat="47.24572" lon="-1.4601">
        <ele>51</ele>
        <time>2020-12-19T12:05:12.000Z</time>
      </trkpt>
      <trkpt lat="47.24565" lon="-1.46026">
        <ele>52</ele>
        <time>2020-12-19T12:05:14.000Z</time>
      </trkpt>
      <trkpt lat="47.24557" lon="-1.4604">
        <ele>52</ele>
        <time>2020-12-19T12:05:16.000Z</time>
      </trkpt>
      <trkpt lat="47.24549" lon="-1.46055">
        <ele>52</ele>
        <time>2020-12-19T12:05:18.000Z</time>
      </trkpt>
      <trkpt lat="47.24541" lon="-1.46069">
        <ele>51</ele>
        <time>2020-12-19T12:05:20.000Z</time>
      </trkpt>
      <trkpt lat="47.24534" lon="-1.46084">
        <ele>52</ele>
        <time>2020-12-19T12:05:22.000Z</time>
      </trkpt>
      <trkpt lat="47.24526" lon="-1.46098">
        <ele>52</ele>
        <time>2020-12-19T12:05:24.000Z</time>
      </trkpt>
      <trkpt lat="47.24518" lon="-1.4611">
        <ele>52</ele>
        <time>2020-12-19T12:05:26.000Z</time>
      </trkpt>
      <trkpt lat="47.24508" lon="-1.46119">
        <ele>52</ele>
        <time>2020-12-19T12:05:28.000Z</time>
      </trkpt>
      <trkpt lat="47.24499" lon="-1.4613">
        <ele>52</ele>
        <time>2020-12-19T12:05:30.000Z</time>
      </trkpt>
      <trkpt lat="47.2449" lon="-1.46143">
        <ele>52</ele>
        <time>2020-12-19T12:05:32.000Z</time>
      </trkpt>
      <trkpt lat="47.24481" lon="-1.46154">
        <ele>52</ele>
        <time>2020-12-19T12:05:34.000Z</time>
      </trkpt>
      <trkpt lat="47.24472" lon="-1.46166">
        <ele>52</ele>
        <time>2020-12-19T12:05:36.000Z</time>
      </trkpt>
      <trkpt lat="47.24463" lon="-1.46178">
        <ele>52</ele>
        <time>2020-12-19T12:05:38.000Z</time>
      </trkpt>
      <trkpt lat="47.24453" lon="-1.4619">
        <ele>52</ele>
        <time>2020-12-19T12:05:40.000Z</time>
      </trkpt>
      <trkpt lat="47.24443" lon="-1.46202">
        <ele>52</ele>
        <time>2020-12-19T12:05:42.000Z</time>
      </trkpt>
      <trkpt lat="47.24433" lon="-1.46214">
        <ele>52</ele>
        <time>2020-12-19T12:05:44.000Z</time>
      </trkpt>
      <trkpt lat="47.24424" lon="-1.46226">
        <ele>52</ele>
        <time>2020-12-19T12:05:46.000Z</time>
      </trkpt>
      <trkpt lat="47.24415" lon="-1.46239">
        <ele>51</ele>
        <time>2020-12-19T12:05:48.000Z</time>
      </trkpt>
      <trkpt lat="47.24406" lon="-1.46252">
        <ele>51</ele>
        <time>2020-12-19T12:05:50.000Z</time>
      </trkpt>
      <trkpt lat="47.24397" lon="-1.46265">
        <ele>51</ele>
        <time>2020-12-19T12:05:52.000Z</time>
      </trkpt>
      <trkpt lat="47.24388" lon="-1.46277">
        <ele>51</ele>
        <time>2020-12-19T12:05:54.000Z</time>
      </trkpt>
      <trkpt lat="47.24379" lon="-1.46291">
        <ele>52</ele>
        <time>2020-12-19T12:05:56.000Z</time>
      </trkpt>
      <trkpt lat="47.2437" lon="-1.46303">
        <ele>52</ele>
        <time>2020-12-19T12:05:58.000Z</time>
      </trkpt>
      <trkpt lat="47.24361" lon="-1.46315">
        <ele>52</ele>
        <time>2020-12-19T12:06:00.000Z</time>
      </trkpt>
      <trkpt lat="47.24354" lon="-1.46328">
        <ele>52</ele>
        <time>2020-12-19T12:06:02.000Z</time>
      </trkpt>
      <trkpt lat="47.24346" lon="-1.46341">
        <ele>52</ele>
        <time>2020-12-19T12:06:04.000Z</time>
      </trkpt>
      <trkpt lat="47.24338" lon="-1.46355">
        <ele>52</ele>
        <time>2020-12-19T12:06:06.000Z</time>
      </trkpt>
      <trkpt lat="47.2433" lon="-1.46368">
        <ele>52</ele>
        <time>2020-12-19T12:06:08.000Z</time>
      </trkpt>
      <trkpt lat="47.24322" lon="-1.46383">
        <ele>52</ele>
        <time>2020-12-19T12:06:10.000Z</time>
      </trkpt>
      <trkpt lat="47.24314" lon="-1.46397">
        <ele>52</ele>
        <time>2020-12-19T12:06:12.000Z</time>
      </trkpt>
      <trkpt lat="47.24306" lon="-1.4641">
        <ele>52</ele>
        <time>2020-12-19T12:06:14.000Z</time>
      </trkpt>
      <trkpt lat="47.24298" lon="-1.46424">
        <ele>52</ele>
        <time>2020-12-19T12:06:16.000Z</time>
      </trkpt>
      <trkpt lat="47.24291" lon="-1.46437">
        <ele>52</ele>
        <time>2020-12-19T12:06:18.000Z</time>
      </trkpt>
      <trkpt lat="47.24282" lon="-1.46451">
        <ele>52</ele>
        <time>2020-12-19T12:06:20.000Z</time>
      </trkpt>
      <trkpt lat="47.24273" lon="-1.46461">
        <ele>51</ele>
        <time>2020-12-19T12:06:22.000Z</time>
      </trkpt>
      <trkpt lat="47.24263" lon="-1.46474">
        <ele>51</ele>
        <time>2020-12-19T12:06:24.000Z</time>
      </trkpt>
      <trkpt lat="47.24254" lon="-1.46485">
        <ele>51</ele>
        <time>2020-12-19T12:06:26.000Z</time>
      </trkpt>
      <trkpt lat="47.24244" lon="-1.46497">
        <ele>51</ele>
        <time>2020-12-19T12:06:28.000Z</time>
      </trkpt>
      <trkpt lat="47.24234" lon="-1.4651">
        <ele>51</ele>
        <time>2020-12-19T12:06:30.000Z</time>
      </trkpt>
      <trkpt lat="47.24224" lon="-1.46522">
        <ele>51</ele>
        <time>2020-12-19T12:06:32.000Z</time>
      </trkpt>
      <trkpt lat="47.24215" lon="-1.46533">
        <ele>51</ele>
        <time>2020-12-19T12:06:34.000Z</time>
      </trkpt>
      <trkpt lat="47.24206" lon="-1.46544">
        <ele>51</ele>
        <time>2020-12-19T12:06:36.000Z</time>
      </trkpt>
      <trkpt lat="47.24197" lon="-1.46557">
        <ele>51</ele>
        <time>2020-12-19T12:06:38.000Z</time>
      </trkpt>
      <trkpt lat="47.24189" lon="-1.46568">
        <ele>51</ele>
        <time>2020-12-19T12:06:40.000Z</time>
      </trkpt>
      <trkpt lat="47.2418" lon="-1.46579">
        <ele>51</ele>
        <time>2020-12-19T12:06:42.000Z</time>
      </trkpt>
      <trkpt lat="47.24171" lon="-1.46591">
        <ele>51</ele>
        <time>2020-12-19T12:06:44.000Z</time>
      </trkpt>
      <trkpt lat="47.24162" lon="-1.46602">
        <ele>51</ele>
        <time>2020-12-19T12:06:46.000Z</time>
      </trkpt>
      <trkpt lat="47.24153" lon="-1.46613">
        <ele>51</ele>
        <time>2020-12-19T12:06:48.000Z</time>
      </trkpt>
      <trkpt lat="47.24145" lon="-1.46624">
        <ele>50</ele>
        <time>2020-12-19T12:06:50.000Z</time>
      </trkpt>
      <trkpt lat="47.24136" lon="-1.46636">
        <ele>50</ele>
        <time>2020-12-19T12:06:52.000Z</time>
      </trkpt>
      <trkpt lat="47.24127" lon="-1.46649">
        <ele>50</ele>
        <time>2020-12-19T12:06:54.000Z</time>
      </trkpt>
      <trkpt lat="47.24118" lon="-1.46661">
        <ele>50</ele>
        <time>2020-12-19T12:06:56.000Z</time>
      </trkpt>
      <trkpt lat="47.2411" lon="-1.46673">
        <ele>51</ele>
        <time>2020-12-19T12:06:58.000Z</time>
      </trkpt>
      <trkpt lat="47.24102" lon="-1.46685">
        <ele>51</ele>
        <time>2020-12-19T12:07:00.000Z</time>
      </trkpt>
      <trkpt lat="47.24094" lon="-1.46697">
        <ele>50</ele>
        <time>2020-12-19T12:07:02.000Z</time>
      </trkpt>
      <trkpt lat="47.24087" lon="-1.4671">
        <ele>51</ele>
        <time>2020-12-19T12:07:04.000Z</time>
      </trkpt>
      <trkpt lat="47.24083" lon="-1.46723">
        <ele>51</ele>
        <time>2020-12-19T12:07:06.000Z</time>
      </trkpt>
      <trkpt lat="47.24075" lon="-1.46736">
        <ele>51</ele>
        <time>2020-12-19T12:07:08.000Z</time>
      </trkpt>
      <trkpt lat="47.24066" lon="-1.46744">
        <ele>51</ele>
        <time>2020-12-19T12:07:10.000Z</time>
      </trkpt>
      <trkpt lat="47.24054" lon="-1.46752">
        <ele>50</ele>
        <time>2020-12-19T12:07:12.000Z</time>
      </trkpt>
      <trkpt lat="47.24042" lon="-1.46763">
        <ele>50</ele>
        <time>2020-12-19T12:07:14.000Z</time>
      </trkpt>
      <trkpt lat="47.24033" lon="-1.46774">
        <ele>51</ele>
        <time>2020-12-19T12:07:16.000Z</time>
      </trkpt>
      <trkpt lat="47.24023" lon="-1.46785">
        <ele>51</ele>
        <time>2020-12-19T12:07:18.000Z</time>
      </trkpt>
      <trkpt lat="47.24013" lon="-1.46796">
        <ele>51</ele>
        <time>2020-12-19T12:07:20.000Z</time>
      </trkpt>
      <trkpt lat="47.24004" lon="-1.46807">
        <ele>51</ele>
        <time>2020-12-19T12:07:22.000Z</time>
      </trkpt>
      <trkpt lat="47.23995" lon="-1.46817">
        <ele>51</ele>
        <time>2020-12-19T12:07:24.000Z</time>
      </trkpt>
      <trkpt lat="47.23984" lon="-1.46827">
        <ele>51</ele>
        <time>2020-12-19T12:07:26.000Z</time>
      </trkpt>
      <trkpt lat="47.23974" lon="-1.46838">
        <ele>51</ele>
        <time>2020-12-19T12:07:28.000Z</time>
      </trkpt>
      <trkpt lat="47.23965" lon="-1.46847">
        <ele>51</ele>
        <time>2020-12-19T12:07:30.000Z</time>
      </trkpt>
      <trkpt lat="47.23956" lon="-1.46856">
        <ele>52</ele>
        <time>2020-12-19T12:07:32.000Z</time>
      </trkpt>
      <trkpt lat="47.23947" lon="-1.46864">
        <ele>52</ele>
        <time>2020-12-19T12:07:34.000Z</time>
      </trkpt>
      <trkpt lat="47.23934" lon="-1.46877">
        <ele>52</ele>
        <time>2020-12-19T12:07:37.000Z</time>
      </trkpt>
      <trkpt lat="47.23925" lon="-1.46887">
        <ele>52</ele>
        <time>2020-12-19T12:07:39.000Z</time>
      </trkpt>
      <trkpt lat="47.23917" lon="-1.46897">
        <ele>52</ele>
        <time>2020-12-19T12:07:41.000Z</time>
      </trkpt>
      <trkpt lat="47.23907" lon="-1.46907">
        <ele>52</ele>
        <time>2020-12-19T12:07:43.000Z</time>
      </trkpt>
      <trkpt lat="47.23898" lon="-1.46918">
        <ele>51</ele>
        <time>2020-12-19T12:07:45.000Z</time>
      </trkpt>
      <trkpt lat="47.23891" lon="-1.4693">
        <ele>51</ele>
        <time>2020-12-19T12:07:47.000Z</time>
      </trkpt>
      <trkpt lat="47.23883" lon="-1.4694">
        <ele>51</ele>
        <time>2020-12-19T12:07:49.000Z</time>
      </trkpt>
      <trkpt lat="47.23875" lon="-1.4695">
        <ele>51</ele>
        <time>2020-12-19T12:07:51.000Z</time>
      </trkpt>
      <trkpt lat="47.23866" lon="-1.46959">
        <ele>51</ele>
        <time>2020-12-19T12:07:53.000Z</time>
      </trkpt>
      <trkpt lat="47.23859" lon="-1.46971">
        <ele>51</ele>
        <time>2020-12-19T12:07:55.000Z</time>
      </trkpt>
      <trkpt lat="47.2385" lon="-1.46982">
        <ele>51</ele>
        <time>2020-12-19T12:07:57.000Z</time>
      </trkpt>
      <trkpt lat="47.23842" lon="-1.46993">
        <ele>51</ele>
        <time>2020-12-19T12:07:59.000Z</time>
      </trkpt>
      <trkpt lat="47.23835" lon="-1.47005">
        <ele>51</ele>
        <time>2020-12-19T12:08:01.000Z</time>
      </trkpt>
      <trkpt lat="47.23822" lon="-1.47022">
        <ele>51</ele>
        <time>2020-12-19T12:08:04.000Z</time>
      </trkpt>
      <trkpt lat="47.23814" lon="-1.47033">
        <ele>51</ele>
        <time>2020-12-19T12:08:06.000Z</time>
      </trkpt>
      <trkpt lat="47.23806" lon="-1.47044">
        <ele>51</ele>
        <time>2020-12-19T12:08:08.000Z</time>
      </trkpt>
      <trkpt lat="47.23798" lon="-1.47055">
        <ele>51</ele>
        <time>2020-12-19T12:08:10.000Z</time>
      </trkpt>
      <trkpt lat="47.23791" lon="-1.47065">
        <ele>51</ele>
        <time>2020-12-19T12:08:12.000Z</time>
      </trkpt>
      <trkpt lat="47.23783" lon="-1.47077">
        <ele>51</ele>
        <time>2020-12-19T12:08:14.000Z</time>
      </trkpt>
      <trkpt lat="47.23771" lon="-1.47093">
        <ele>51</ele>
        <time>2020-12-19T12:08:17.000Z</time>
      </trkpt>
      <trkpt lat="47.23763" lon="-1.47105">
        <ele>51</ele>
        <time>2020-12-19T12:08:19.000Z</time>
      </trkpt>
      <trkpt lat="47.23756" lon="-1.47116">
        <ele>51</ele>
        <time>2020-12-19T12:08:21.000Z</time>
      </trkpt>
      <trkpt lat="47.23748" lon="-1.47127">
        <ele>51</ele>
        <time>2020-12-19T12:08:23.000Z</time>
      </trkpt>
      <trkpt lat="47.2374" lon="-1.47136">
        <ele>52</ele>
        <time>2020-12-19T12:08:25.000Z</time>
      </trkpt>
      <trkpt lat="47.23729" lon="-1.47147">
        <ele>52</ele>
        <time>2020-12-19T12:08:27.000Z</time>
      </trkpt>
      <trkpt lat="47.2372" lon="-1.47159">
        <ele>52</ele>
        <time>2020-12-19T12:08:29.000Z</time>
      </trkpt>
      <trkpt lat="47.23712" lon="-1.4717">
        <ele>52</ele>
        <time>2020-12-19T12:08:31.000Z</time>
      </trkpt>
      <trkpt lat="47.23699" lon="-1.47188">
        <ele>51</ele>
        <time>2020-12-19T12:08:34.000Z</time>
      </trkpt>
      <trkpt lat="47.23692" lon="-1.47199">
        <ele>51</ele>
        <time>2020-12-19T12:08:36.000Z</time>
      </trkpt>
      <trkpt lat="47.23681" lon="-1.47217">
        <ele>51</ele>
        <time>2020-12-19T12:08:39.000Z</time>
      </trkpt>
      <trkpt lat="47.23672" lon="-1.47228">
        <ele>51</ele>
        <time>2020-12-19T12:08:41.000Z</time>
      </trkpt>
      <trkpt lat="47.23663" lon="-1.47238">
        <ele>51</ele>
        <time>2020-12-19T12:08:43.000Z</time>
      </trkpt>
      <trkpt lat="47.23654" lon="-1.47248">
        <ele>51</ele>
        <time>2020-12-19T12:08:45.000Z</time>
      </trkpt>
      <trkpt lat="47.23646" lon="-1.47257">
        <ele>51</ele>
        <time>2020-12-19T12:08:47.000Z</time>
      </trkpt>
      <trkpt lat="47.23637" lon="-1.47267">
        <ele>51</ele>
        <time>2020-12-19T12:08:49.000Z</time>
      </trkpt>
      <trkpt lat="47.23629" lon="-1.47277">
        <ele>51</ele>
        <time>2020-12-19T12:08:51.000Z</time>
      </trkpt>
      <trkpt lat="47.23615" lon="-1.47291">
        <ele>51</ele>
        <time>2020-12-19T12:08:54.000Z</time>
      </trkpt>
      <trkpt lat="47.23606" lon="-1.47301">
        <ele>51</ele>
        <time>2020-12-19T12:08:56.000Z</time>
      </trkpt>
      <trkpt lat="47.23597" lon="-1.4731">
        <ele>51</ele>
        <time>2020-12-19T12:08:58.000Z</time>
      </trkpt>
      <trkpt lat="47.23588" lon="-1.47319">
        <ele>51</ele>
        <time>2020-12-19T12:09:00.000Z</time>
      </trkpt>
      <trkpt lat="47.23578" lon="-1.47327">
        <ele>51</ele>
        <time>2020-12-19T12:09:02.000Z</time>
      </trkpt>
      <trkpt lat="47.23567" lon="-1.47336">
        <ele>51</ele>
        <time>2020-12-19T12:09:04.000Z</time>
      </trkpt>
      <trkpt lat="47.23558" lon="-1.47344">
        <ele>51</ele>
        <time>2020-12-19T12:09:06.000Z</time>
      </trkpt>
      <trkpt lat="47.23548" lon="-1.47351">
        <ele>51</ele>
        <time>2020-12-19T12:09:08.000Z</time>
      </trkpt>
      <trkpt lat="47.23539" lon="-1.47359">
        <ele>51</ele>
        <time>2020-12-19T12:09:10.000Z</time>
      </trkpt>
      <trkpt lat="47.23529" lon="-1.47368">
        <ele>51</ele>
        <time>2020-12-19T12:09:12.000Z</time>
      </trkpt>
      <trkpt lat="47.23515" lon="-1.4738">
        <ele>51</ele>
        <time>2020-12-19T12:09:15.000Z</time>
      </trkpt>
      <trkpt lat="47.23502" lon="-1.47391">
        <ele>51</ele>
        <time>2020-12-19T12:09:18.000Z</time>
      </trkpt>
      <trkpt lat="47.23492" lon="-1.47399">
        <ele>51</ele>
        <time>2020-12-19T12:09:20.000Z</time>
      </trkpt>
      <trkpt lat="47.23482" lon="-1.47404">
        <ele>51</ele>
        <time>2020-12-19T12:09:22.000Z</time>
      </trkpt>
      <trkpt lat="47.23471" lon="-1.47409">
        <ele>51</ele>
        <time>2020-12-19T12:09:24.000Z</time>
      </trkpt>
      <trkpt lat="47.2346" lon="-1.47414">
        <ele>51</ele>
        <time>2020-12-19T12:09:26.000Z</time>
      </trkpt>
      <trkpt lat="47.2345" lon="-1.47419">
        <ele>51</ele>
        <time>2020-12-19T12:09:28.000Z</time>
      </trkpt>
      <trkpt lat="47.2344" lon="-1.47424">
        <ele>50</ele>
        <time>2020-12-19T12:09:30.000Z</time>
      </trkpt>
      <trkpt lat="47.23431" lon="-1.47428">
        <ele>50</ele>
        <time>2020-12-19T12:09:32.000Z</time>
      </trkpt>
      <trkpt lat="47.23417" lon="-1.47437">
        <ele>51</ele>
        <time>2020-12-19T12:09:36.000Z</time>
      </trkpt>
      <trkpt lat="47.23408" lon="-1.47441">
        <ele>51</ele>
        <time>2020-12-19T12:09:38.000Z</time>
      </trkpt>
      <trkpt lat="47.23397" lon="-1.47449">
        <ele>51</ele>
        <time>2020-12-19T12:09:40.000Z</time>
      </trkpt>
      <trkpt lat="47.23387" lon="-1.47457">
        <ele>51</ele>
        <time>2020-12-19T12:09:42.000Z</time>
      </trkpt>
      <trkpt lat="47.23376" lon="-1.47464">
        <ele>51</ele>
        <time>2020-12-19T12:09:44.000Z</time>
      </trkpt>
      <trkpt lat="47.23359" lon="-1.47472">
        <ele>51</ele>
        <time>2020-12-19T12:09:47.000Z</time>
      </trkpt>
      <trkpt lat="47.23348" lon="-1.47476">
        <ele>51</ele>
        <time>2020-12-19T12:09:49.000Z</time>
      </trkpt>
      <trkpt lat="47.23337" lon="-1.47482">
        <ele>51</ele>
        <time>2020-12-19T12:09:51.000Z</time>
      </trkpt>
      <trkpt lat="47.23327" lon="-1.47488">
        <ele>51</ele>
        <time>2020-12-19T12:09:53.000Z</time>
      </trkpt>
      <trkpt lat="47.23319" lon="-1.47497">
        <ele>51</ele>
        <time>2020-12-19T12:09:55.000Z</time>
      </trkpt>
      <trkpt lat="47.23309" lon="-1.47503">
        <ele>51</ele>
        <time>2020-12-19T12:09:57.000Z</time>
      </trkpt>
      <trkpt lat="47.23298" lon="-1.47508">
        <ele>51</ele>
        <time>2020-12-19T12:09:59.000Z</time>
      </trkpt>
      <trkpt lat="47.23288" lon="-1.47514">
        <ele>50</ele>
        <time>2020-12-19T12:10:01.000Z</time>
      </trkpt>
      <trkpt lat="47.23277" lon="-1.4752">
        <ele>51</ele>
        <time>2020-12-19T12:10:03.000Z</time>
      </trkpt>
      <trkpt lat="47.23268" lon="-1.47527">
        <ele>51</ele>
        <time>2020-12-19T12:10:05.000Z</time>
      </trkpt>
      <trkpt lat="47.23261" lon="-1.47538">
        <ele>51</ele>
        <time>2020-12-19T12:10:07.000Z</time>
      </trkpt>
      <trkpt lat="47.23254" lon="-1.4755">
        <ele>51</ele>
        <time>2020-12-19T12:10:09.000Z</time>
      </trkpt>
      <trkpt lat="47.23246" lon="-1.47564">
        <ele>51</ele>
        <time>2020-12-19T12:10:11.000Z</time>
      </trkpt>
      <trkpt lat="47.23239" lon="-1.47577">
        <ele>50</ele>
        <time>2020-12-19T12:10:13.000Z</time>
      </trkpt>
      <trkpt lat="47.23232" lon="-1.4759">
        <ele>50</ele>
        <time>2020-12-19T12:10:15.000Z</time>
      </trkpt>
      <trkpt lat="47.23226" lon="-1.47603">
        <ele>50</ele>
        <time>2020-12-19T12:10:17.000Z</time>
      </trkpt>
      <trkpt lat="47.23219" lon="-1.47616">
        <ele>50</ele>
        <time>2020-12-19T12:10:19.000Z</time>
      </trkpt>
      <trkpt lat="47.23212" lon="-1.47629">
        <ele>49</ele>
        <time>2020-12-19T12:10:21.000Z</time>
      </trkpt>
      <trkpt lat="47.23206" lon="-1.47644">
        <ele>49</ele>
        <time>2020-12-19T12:10:23.000Z</time>
      </trkpt>
      <trkpt lat="47.232" lon="-1.47659">
        <ele>49</ele>
        <time>2020-12-19T12:10:25.000Z</time>
      </trkpt>
      <trkpt lat="47.23191" lon="-1.47683">
        <ele>49</ele>
        <time>2020-12-19T12:10:28.000Z</time>
      </trkpt>
      <trkpt lat="47.23184" lon="-1.47698">
        <ele>49</ele>
        <time>2020-12-19T12:10:30.000Z</time>
      </trkpt>
      <trkpt lat="47.23178" lon="-1.47713">
        <ele>49</ele>
        <time>2020-12-19T12:10:32.000Z</time>
      </trkpt>
      <trkpt lat="47.2317" lon="-1.47729">
        <ele>49</ele>
        <time>2020-12-19T12:10:34.000Z</time>
      </trkpt>
      <trkpt lat="47.23164" lon="-1.47746">
        <ele>50</ele>
        <time>2020-12-19T12:10:36.000Z</time>
      </trkpt>
      <trkpt lat="47.23157" lon="-1.47761">
        <ele>50</ele>
        <time>2020-12-19T12:10:38.000Z</time>
      </trkpt>
      <trkpt lat="47.23151" lon="-1.47776">
        <ele>50</ele>
        <time>2020-12-19T12:10:40.000Z</time>
      </trkpt>
      <trkpt lat="47.23145" lon="-1.47792">
        <ele>50</ele>
        <time>2020-12-19T12:10:42.000Z</time>
      </trkpt>
      <trkpt lat="47.23137" lon="-1.47813">
        <ele>50</ele>
        <time>2020-12-19T12:10:45.000Z</time>
      </trkpt>
      <trkpt lat="47.23132" lon="-1.47828">
        <ele>50</ele>
        <time>2020-12-19T12:10:47.000Z</time>
      </trkpt>
      <trkpt lat="47.23125" lon="-1.47844">
        <ele>50</ele>
        <time>2020-12-19T12:10:49.000Z</time>
      </trkpt>
      <trkpt lat="47.23117" lon="-1.47858">
        <ele>50</ele>
        <time>2020-12-19T12:10:51.000Z</time>
      </trkpt>
      <trkpt lat="47.23109" lon="-1.47871">
        <ele>50</ele>
        <time>2020-12-19T12:10:53.000Z</time>
      </trkpt>
      <trkpt lat="47.231" lon="-1.47884">
        <ele>50</ele>
        <time>2020-12-19T12:10:55.000Z</time>
      </trkpt>
      <trkpt lat="47.23091" lon="-1.47895">
        <ele>49</ele>
        <time>2020-12-19T12:10:57.000Z</time>
      </trkpt>
      <trkpt lat="47.23082" lon="-1.47907">
        <ele>49</ele>
        <time>2020-12-19T12:10:59.000Z</time>
      </trkpt>
      <trkpt lat="47.23073" lon="-1.47919">
        <ele>50</ele>
        <time>2020-12-19T12:11:01.000Z</time>
      </trkpt>
      <trkpt lat="47.23065" lon="-1.47931">
        <ele>50</ele>
        <time>2020-12-19T12:11:03.000Z</time>
      </trkpt>
      <trkpt lat="47.23056" lon="-1.47943">
        <ele>49</ele>
        <time>2020-12-19T12:11:05.000Z</time>
      </trkpt>
      <trkpt lat="47.23047" lon="-1.47955">
        <ele>50</ele>
        <time>2020-12-19T12:11:07.000Z</time>
      </trkpt>
      <trkpt lat="47.23037" lon="-1.47966">
        <ele>50</ele>
        <time>2020-12-19T12:11:09.000Z</time>
      </trkpt>
      <trkpt lat="47.23029" lon="-1.47978">
        <ele>50</ele>
        <time>2020-12-19T12:11:11.000Z</time>
      </trkpt>
      <trkpt lat="47.2302" lon="-1.47991">
        <ele>50</ele>
        <time>2020-12-19T12:11:13.000Z</time>
      </trkpt>
      <trkpt lat="47.23011" lon="-1.48004">
        <ele>49</ele>
        <time>2020-12-19T12:11:15.000Z</time>
      </trkpt>
      <trkpt lat="47.23003" lon="-1.48017">
        <ele>49</ele>
        <time>2020-12-19T12:11:17.000Z</time>
      </trkpt>
      <trkpt lat="47.22996" lon="-1.48031">
        <ele>49</ele>
        <time>2020-12-19T12:11:19.000Z</time>
      </trkpt>
      <trkpt lat="47.22988" lon="-1.48044">
        <ele>49</ele>
        <time>2020-12-19T12:11:21.000Z</time>
      </trkpt>
      <trkpt lat="47.22981" lon="-1.48057">
        <ele>50</ele>
        <time>2020-12-19T12:11:23.000Z</time>
      </trkpt>
      <trkpt lat="47.22973" lon="-1.4807">
        <ele>50</ele>
        <time>2020-12-19T12:11:25.000Z</time>
      </trkpt>
      <trkpt lat="47.22966" lon="-1.48081">
        <ele>50</ele>
        <time>2020-12-19T12:11:27.000Z</time>
      </trkpt>
      <trkpt lat="47.2296" lon="-1.48091">
        <ele>50</ele>
        <time>2020-12-19T12:11:29.000Z</time>
      </trkpt>
      <trkpt lat="47.22953" lon="-1.48103">
        <ele>50</ele>
        <time>2020-12-19T12:11:31.000Z</time>
      </trkpt>
      <trkpt lat="47.22942" lon="-1.48109">
        <ele>49</ele>
        <time>2020-12-19T12:11:33.000Z</time>
      </trkpt>
      <trkpt lat="47.2293" lon="-1.4811">
        <ele>49</ele>
        <time>2020-12-19T12:11:35.000Z</time>
      </trkpt>
      <trkpt lat="47.22918" lon="-1.48113">
        <ele>50</ele>
        <time>2020-12-19T12:11:37.000Z</time>
      </trkpt>
      <trkpt lat="47.22907" lon="-1.48122">
        <ele>50</ele>
        <time>2020-12-19T12:11:39.000Z</time>
      </trkpt>
      <trkpt lat="47.22897" lon="-1.48133">
        <ele>50</ele>
        <time>2020-12-19T12:11:41.000Z</time>
      </trkpt>
      <trkpt lat="47.22888" lon="-1.48145">
        <ele>50</ele>
        <time>2020-12-19T12:11:43.000Z</time>
      </trkpt>
      <trkpt lat="47.22879" lon="-1.48158">
        <ele>50</ele>
        <time>2020-12-19T12:11:45.000Z</time>
      </trkpt>
      <trkpt lat="47.22871" lon="-1.48171">
        <ele>50</ele>
        <time>2020-12-19T12:11:47.000Z</time>
      </trkpt>
      <trkpt lat="47.22863" lon="-1.48184">
        <ele>49</ele>
        <time>2020-12-19T12:11:49.000Z</time>
      </trkpt>
      <trkpt lat="47.22855" lon="-1.48197">
        <ele>49</ele>
        <time>2020-12-19T12:11:51.000Z</time>
      </trkpt>
      <trkpt lat="47.22848" lon="-1.48209">
        <ele>49</ele>
        <time>2020-12-19T12:11:53.000Z</time>
      </trkpt>
      <trkpt lat="47.22839" lon="-1.48222">
        <ele>50</ele>
        <time>2020-12-19T12:11:55.000Z</time>
      </trkpt>
      <trkpt lat="47.22831" lon="-1.48235">
        <ele>50</ele>
        <time>2020-12-19T12:11:57.000Z</time>
      </trkpt>
      <trkpt lat="47.22823" lon="-1.48248">
        <ele>50</ele>
        <time>2020-12-19T12:11:59.000Z</time>
      </trkpt>
      <trkpt lat="47.22814" lon="-1.4826">
        <ele>50</ele>
        <time>2020-12-19T12:12:01.000Z</time>
      </trkpt>
      <trkpt lat="47.22806" lon="-1.48274">
        <ele>51</ele>
        <time>2020-12-19T12:12:03.000Z</time>
      </trkpt>
      <trkpt lat="47.22797" lon="-1.48287">
        <ele>50</ele>
        <time>2020-12-19T12:12:05.000Z</time>
      </trkpt>
      <trkpt lat="47.22789" lon="-1.483">
        <ele>51</ele>
        <time>2020-12-19T12:12:07.000Z</time>
      </trkpt>
      <trkpt lat="47.22781" lon="-1.48314">
        <ele>50</ele>
        <time>2020-12-19T12:12:09.000Z</time>
      </trkpt>
      <trkpt lat="47.22773" lon="-1.48327">
        <ele>50</ele>
        <time>2020-12-19T12:12:11.000Z</time>
      </trkpt>
      <trkpt lat="47.22764" lon="-1.4834">
        <ele>50</ele>
        <time>2020-12-19T12:12:13.000Z</time>
      </trkpt>
      <trkpt lat="47.22755" lon="-1.48352">
        <ele>50</ele>
        <time>2020-12-19T12:12:15.000Z</time>
      </trkpt>
      <trkpt lat="47.22745" lon="-1.48365">
        <ele>49</ele>
        <time>2020-12-19T12:12:17.000Z</time>
      </trkpt>
      <trkpt lat="47.22736" lon="-1.48377">
        <ele>50</ele>
        <time>2020-12-19T12:12:19.000Z</time>
      </trkpt>
      <trkpt lat="47.22727" lon="-1.4839">
        <ele>50</ele>
        <time>2020-12-19T12:12:21.000Z</time>
      </trkpt>
      <trkpt lat="47.22718" lon="-1.48402">
        <ele>49</ele>
        <time>2020-12-19T12:12:23.000Z</time>
      </trkpt>
      <trkpt lat="47.22709" lon="-1.48416">
        <ele>49</ele>
        <time>2020-12-19T12:12:25.000Z</time>
      </trkpt>
      <trkpt lat="47.22702" lon="-1.48432">
        <ele>49</ele>
        <time>2020-12-19T12:12:27.000Z</time>
      </trkpt>
      <trkpt lat="47.22696" lon="-1.4845">
        <ele>49</ele>
        <time>2020-12-19T12:12:29.000Z</time>
      </trkpt>
      <trkpt lat="47.22689" lon="-1.48467">
        <ele>49</ele>
        <time>2020-12-19T12:12:31.000Z</time>
      </trkpt>
      <trkpt lat="47.22682" lon="-1.48482">
        <ele>49</ele>
        <time>2020-12-19T12:12:33.000Z</time>
      </trkpt>
      <trkpt lat="47.22675" lon="-1.48498">
        <ele>50</ele>
        <time>2020-12-19T12:12:35.000Z</time>
      </trkpt>
      <trkpt lat="47.22669" lon="-1.48513">
        <ele>50</ele>
        <time>2020-12-19T12:12:37.000Z</time>
      </trkpt>
      <trkpt lat="47.22663" lon="-1.48531">
        <ele>50</ele>
        <time>2020-12-19T12:12:39.000Z</time>
      </trkpt>
      <trkpt lat="47.22659" lon="-1.48549">
        <ele>49</ele>
        <time>2020-12-19T12:12:41.000Z</time>
      </trkpt>
      <trkpt lat="47.22653" lon="-1.48565">
        <ele>49</ele>
        <time>2020-12-19T12:12:43.000Z</time>
      </trkpt>
      <trkpt lat="47.22647" lon="-1.48581">
        <ele>49</ele>
        <time>2020-12-19T12:12:45.000Z</time>
      </trkpt>
      <trkpt lat="47.22641" lon="-1.48597">
        <ele>49</ele>
        <time>2020-12-19T12:12:47.000Z</time>
      </trkpt>
      <trkpt lat="47.22634" lon="-1.48611">
        <ele>50</ele>
        <time>2020-12-19T12:12:49.000Z</time>
      </trkpt>
      <trkpt lat="47.22629" lon="-1.48627">
        <ele>51</ele>
        <time>2020-12-19T12:12:51.000Z</time>
      </trkpt>
      <trkpt lat="47.22624" lon="-1.48642">
        <ele>51</ele>
        <time>2020-12-19T12:12:53.000Z</time>
      </trkpt>
      <trkpt lat="47.22619" lon="-1.48659">
        <ele>51</ele>
        <time>2020-12-19T12:12:55.000Z</time>
      </trkpt>
      <trkpt lat="47.22614" lon="-1.48675">
        <ele>52</ele>
        <time>2020-12-19T12:12:57.000Z</time>
      </trkpt>
      <trkpt lat="47.22609" lon="-1.48693">
        <ele>51</ele>
        <time>2020-12-19T12:12:59.000Z</time>
      </trkpt>
      <trkpt lat="47.22604" lon="-1.48711">
        <ele>51</ele>
        <time>2020-12-19T12:13:01.000Z</time>
      </trkpt>
      <trkpt lat="47.22599" lon="-1.48728">
        <ele>51</ele>
        <time>2020-12-19T12:13:03.000Z</time>
      </trkpt>
      <trkpt lat="47.22594" lon="-1.48746">
        <ele>51</ele>
        <time>2020-12-19T12:13:05.000Z</time>
      </trkpt>
      <trkpt lat="47.2259" lon="-1.48764">
        <ele>51</ele>
        <time>2020-12-19T12:13:07.000Z</time>
      </trkpt>
      <trkpt lat="47.22585" lon="-1.48781">
        <ele>51</ele>
        <time>2020-12-19T12:13:09.000Z</time>
      </trkpt>
      <trkpt lat="47.22581" lon="-1.48797">
        <ele>50</ele>
        <time>2020-12-19T12:13:11.000Z</time>
      </trkpt>
      <trkpt lat="47.22575" lon="-1.48812">
        <ele>50</ele>
        <time>2020-12-19T12:13:13.000Z</time>
      </trkpt>
      <trkpt lat="47.2257" lon="-1.48827">
        <ele>50</ele>
        <time>2020-12-19T12:13:15.000Z</time>
      </trkpt>
      <trkpt lat="47.22565" lon="-1.48841">
        <ele>51</ele>
        <time>2020-12-19T12:13:17.000Z</time>
      </trkpt>
      <trkpt lat="47.22561" lon="-1.48857">
        <ele>51</ele>
        <time>2020-12-19T12:13:19.000Z</time>
      </trkpt>
      <trkpt lat="47.22556" lon="-1.48873">
        <ele>50</ele>
        <time>2020-12-19T12:13:21.000Z</time>
      </trkpt>
      <trkpt lat="47.22552" lon="-1.48889">
        <ele>50</ele>
        <time>2020-12-19T12:13:23.000Z</time>
      </trkpt>
      <trkpt lat="47.22547" lon="-1.48907">
        <ele>51</ele>
        <time>2020-12-19T12:13:25.000Z</time>
      </trkpt>
      <trkpt lat="47.22541" lon="-1.48925">
        <ele>51</ele>
        <time>2020-12-19T12:13:27.000Z</time>
      </trkpt>
      <trkpt lat="47.22536" lon="-1.48943">
        <ele>51</ele>
        <time>2020-12-19T12:13:29.000Z</time>
      </trkpt>
      <trkpt lat="47.22529" lon="-1.4896">
        <ele>52</ele>
        <time>2020-12-19T12:13:31.000Z</time>
      </trkpt>
      <trkpt lat="47.22523" lon="-1.48976">
        <ele>52</ele>
        <time>2020-12-19T12:13:33.000Z</time>
      </trkpt>
      <trkpt lat="47.22518" lon="-1.48991">
        <ele>52</ele>
        <time>2020-12-19T12:13:35.000Z</time>
      </trkpt>
      <trkpt lat="47.22515" lon="-1.49005">
        <ele>52</ele>
        <time>2020-12-19T12:13:37.000Z</time>
      </trkpt>
      <trkpt lat="47.22511" lon="-1.49019">
        <ele>52</ele>
        <time>2020-12-19T12:13:39.000Z</time>
      </trkpt>
      <trkpt lat="47.22506" lon="-1.49035">
        <ele>52</ele>
        <time>2020-12-19T12:13:41.000Z</time>
      </trkpt>
      <trkpt lat="47.22501" lon="-1.49052">
        <ele>52</ele>
        <time>2020-12-19T12:13:43.000Z</time>
      </trkpt>
      <trkpt lat="47.22496" lon="-1.49069">
        <ele>53</ele>
        <time>2020-12-19T12:13:45.000Z</time>
      </trkpt>
      <trkpt lat="47.2249" lon="-1.49085">
        <ele>53</ele>
        <time>2020-12-19T12:13:47.000Z</time>
      </trkpt>
      <trkpt lat="47.22485" lon="-1.49103">
        <ele>53</ele>
        <time>2020-12-19T12:13:49.000Z</time>
      </trkpt>
      <trkpt lat="47.22478" lon="-1.49121">
        <ele>53</ele>
        <time>2020-12-19T12:13:51.000Z</time>
      </trkpt>
      <trkpt lat="47.22472" lon="-1.49139">
        <ele>53</ele>
        <time>2020-12-19T12:13:53.000Z</time>
      </trkpt>
      <trkpt lat="47.22467" lon="-1.49158">
        <ele>53</ele>
        <time>2020-12-19T12:13:55.000Z</time>
      </trkpt>
      <trkpt lat="47.2246" lon="-1.49175">
        <ele>53</ele>
        <time>2020-12-19T12:13:57.000Z</time>
      </trkpt>
      <trkpt lat="47.22453" lon="-1.49192">
        <ele>53</ele>
        <time>2020-12-19T12:13:59.000Z</time>
      </trkpt>
      <trkpt lat="47.22446" lon="-1.4921">
        <ele>52</ele>
        <time>2020-12-19T12:14:01.000Z</time>
      </trkpt>
      <trkpt lat="47.2244" lon="-1.49227">
        <ele>52</ele>
        <time>2020-12-19T12:14:03.000Z</time>
      </trkpt>
      <trkpt lat="47.22435" lon="-1.49245">
        <ele>53</ele>
        <time>2020-12-19T12:14:05.000Z</time>
      </trkpt>
      <trkpt lat="47.22428" lon="-1.49261">
        <ele>54</ele>
        <time>2020-12-19T12:14:07.000Z</time>
      </trkpt>
      <trkpt lat="47.22421" lon="-1.49278">
        <ele>54</ele>
        <time>2020-12-19T12:14:09.000Z</time>
      </trkpt>
      <trkpt lat="47.22415" lon="-1.49294">
        <ele>54</ele>
        <time>2020-12-19T12:14:11.000Z</time>
      </trkpt>
      <trkpt lat="47.22409" lon="-1.49311">
        <ele>54</ele>
        <time>2020-12-19T12:14:13.000Z</time>
      </trkpt>
      <trkpt lat="47.22403" lon="-1.49329">
        <ele>54</ele>
        <time>2020-12-19T12:14:15.000Z</time>
      </trkpt>
      <trkpt lat="47.22397" lon="-1.49346">
        <ele>54</ele>
        <time>2020-12-19T12:14:17.000Z</time>
      </trkpt>
      <trkpt lat="47.2239" lon="-1.4936">
        <ele>55</ele>
        <time>2020-12-19T12:14:19.000Z</time>
      </trkpt>
      <trkpt lat="47.22385" lon="-1.49375">
        <ele>55</ele>
        <time>2020-12-19T12:14:21.000Z</time>
      </trkpt>
      <trkpt lat="47.22378" lon="-1.49391">
        <ele>54</ele>
        <time>2020-12-19T12:14:23.000Z</time>
      </trkpt>
      <trkpt lat="47.2237" lon="-1.49407">
        <ele>54</ele>
        <time>2020-12-19T12:14:25.000Z</time>
      </trkpt>
      <trkpt lat="47.22364" lon="-1.49423">
        <ele>53</ele>
        <time>2020-12-19T12:14:27.000Z</time>
      </trkpt>
      <trkpt lat="47.22358" lon="-1.49439">
        <ele>53</ele>
        <time>2020-12-19T12:14:29.000Z</time>
      </trkpt>
      <trkpt lat="47.22352" lon="-1.49455">
        <ele>53</ele>
        <time>2020-12-19T12:14:31.000Z</time>
      </trkpt>
      <trkpt lat="47.22347" lon="-1.49473">
        <ele>53</ele>
        <time>2020-12-19T12:14:33.000Z</time>
      </trkpt>
      <trkpt lat="47.22341" lon="-1.49491">
        <ele>53</ele>
        <time>2020-12-19T12:14:35.000Z</time>
      </trkpt>
      <trkpt lat="47.22335" lon="-1.49509">
        <ele>53</ele>
        <time>2020-12-19T12:14:37.000Z</time>
      </trkpt>
      <trkpt lat="47.22329" lon="-1.49527">
        <ele>53</ele>
        <time>2020-12-19T12:14:39.000Z</time>
      </trkpt>
      <trkpt lat="47.22323" lon="-1.49545">
        <ele>53</ele>
        <time>2020-12-19T12:14:41.000Z</time>
      </trkpt>
      <trkpt lat="47.22318" lon="-1.49561">
        <ele>53</ele>
        <time>2020-12-19T12:14:43.000Z</time>
      </trkpt>
      <trkpt lat="47.22312" lon="-1.49577">
        <ele>52</ele>
        <time>2020-12-19T12:14:45.000Z</time>
      </trkpt>
      <trkpt lat="47.22306" lon="-1.49593">
        <ele>53</ele>
        <time>2020-12-19T12:14:47.000Z</time>
      </trkpt>
      <trkpt lat="47.223" lon="-1.49609">
        <ele>52</ele>
        <time>2020-12-19T12:14:49.000Z</time>
      </trkpt>
      <trkpt lat="47.22296" lon="-1.49627">
        <ele>52</ele>
        <time>2020-12-19T12:14:51.000Z</time>
      </trkpt>
      <trkpt lat="47.22291" lon="-1.49645">
        <ele>52</ele>
        <time>2020-12-19T12:14:53.000Z</time>
      </trkpt>
      <trkpt lat="47.22287" lon="-1.49662">
        <ele>53</ele>
        <time>2020-12-19T12:14:55.000Z</time>
      </trkpt>
      <trkpt lat="47.22281" lon="-1.49679">
        <ele>53</ele>
        <time>2020-12-19T12:14:57.000Z</time>
      </trkpt>
      <trkpt lat="47.22275" lon="-1.49696">
        <ele>53</ele>
        <time>2020-12-19T12:14:59.000Z</time>
      </trkpt>
      <trkpt lat="47.22269" lon="-1.49712">
        <ele>53</ele>
        <time>2020-12-19T12:15:01.000Z</time>
      </trkpt>
      <trkpt lat="47.22263" lon="-1.49728">
        <ele>52</ele>
        <time>2020-12-19T12:15:03.000Z</time>
      </trkpt>
      <trkpt lat="47.22259" lon="-1.49745">
        <ele>53</ele>
        <time>2020-12-19T12:15:05.000Z</time>
      </trkpt>
      <trkpt lat="47.22255" lon="-1.49763">
        <ele>54</ele>
        <time>2020-12-19T12:15:07.000Z</time>
      </trkpt>
      <trkpt lat="47.22253" lon="-1.4978">
        <ele>53</ele>
        <time>2020-12-19T12:15:09.000Z</time>
      </trkpt>
      <trkpt lat="47.22251" lon="-1.49798">
        <ele>54</ele>
        <time>2020-12-19T12:15:11.000Z</time>
      </trkpt>
      <trkpt lat="47.22248" lon="-1.49814">
        <ele>54</ele>
        <time>2020-12-19T12:15:13.000Z</time>
      </trkpt>
      <trkpt lat="47.22246" lon="-1.49833">
        <ele>54</ele>
        <time>2020-12-19T12:15:15.000Z</time>
      </trkpt>
      <trkpt lat="47.22242" lon="-1.4985">
        <ele>55</ele>
        <time>2020-12-19T12:15:17.000Z</time>
      </trkpt>
      <trkpt lat="47.22239" lon="-1.49867">
        <ele>53</ele>
        <time>2020-12-19T12:15:19.000Z</time>
      </trkpt>
      <trkpt lat="47.22234" lon="-1.49886">
        <ele>52</ele>
        <time>2020-12-19T12:15:21.000Z</time>
      </trkpt>
      <trkpt lat="47.2223" lon="-1.49903">
        <ele>52</ele>
        <time>2020-12-19T12:15:23.000Z</time>
      </trkpt>
      <trkpt lat="47.22225" lon="-1.4992">
        <ele>52</ele>
        <time>2020-12-19T12:15:25.000Z</time>
      </trkpt>
      <trkpt lat="47.22221" lon="-1.49937">
        <ele>52</ele>
        <time>2020-12-19T12:15:27.000Z</time>
      </trkpt>
      <trkpt lat="47.22218" lon="-1.49952">
        <ele>53</ele>
        <time>2020-12-19T12:15:29.000Z</time>
      </trkpt>
      <trkpt lat="47.22214" lon="-1.49968">
        <ele>53</ele>
        <time>2020-12-19T12:15:31.000Z</time>
      </trkpt>
      <trkpt lat="47.22209" lon="-1.49984">
        <ele>52</ele>
        <time>2020-12-19T12:15:33.000Z</time>
      </trkpt>
      <trkpt lat="47.22203" lon="-1.49999">
        <ele>51</ele>
        <time>2020-12-19T12:15:35.000Z</time>
      </trkpt>
      <trkpt lat="47.22198" lon="-1.5002">
        <ele>51</ele>
        <time>2020-12-19T12:15:37.000Z</time>
      </trkpt>
      <trkpt lat="47.22193" lon="-1.50039">
        <ele>51</ele>
        <time>2020-12-19T12:15:39.000Z</time>
      </trkpt>
      <trkpt lat="47.22189" lon="-1.50058">
        <ele>50</ele>
        <time>2020-12-19T12:15:41.000Z</time>
      </trkpt>
      <trkpt lat="47.22184" lon="-1.50077">
        <ele>50</ele>
        <time>2020-12-19T12:15:43.000Z</time>
      </trkpt>
      <trkpt lat="47.22179" lon="-1.50095">
        <ele>50</ele>
        <time>2020-12-19T12:15:45.000Z</time>
      </trkpt>
      <trkpt lat="47.22174" lon="-1.50113">
        <ele>50</ele>
        <time>2020-12-19T12:15:47.000Z</time>
      </trkpt>
      <trkpt lat="47.22168" lon="-1.50129">
        <ele>51</ele>
        <time>2020-12-19T12:15:49.000Z</time>
      </trkpt>
      <trkpt lat="47.22162" lon="-1.50147">
        <ele>51</ele>
        <time>2020-12-19T12:15:51.000Z</time>
      </trkpt>
      <trkpt lat="47.22156" lon="-1.50164">
        <ele>50</ele>
        <time>2020-12-19T12:15:53.000Z</time>
      </trkpt>
      <trkpt lat="47.22151" lon="-1.50182">
        <ele>51</ele>
        <time>2020-12-19T12:15:55.000Z</time>
      </trkpt>
      <trkpt lat="47.22147" lon="-1.50199">
        <ele>51</ele>
        <time>2020-12-19T12:15:57.000Z</time>
      </trkpt>
      <trkpt lat="47.22142" lon="-1.50217">
        <ele>51</ele>
        <time>2020-12-19T12:15:59.000Z</time>
      </trkpt>
      <trkpt lat="47.22138" lon="-1.50233">
        <ele>51</ele>
        <time>2020-12-19T12:16:01.000Z</time>
      </trkpt>
      <trkpt lat="47.22134" lon="-1.5025">
        <ele>51</ele>
        <time>2020-12-19T12:16:03.000Z</time>
      </trkpt>
      <trkpt lat="47.22129" lon="-1.50267">
        <ele>52</ele>
        <time>2020-12-19T12:16:05.000Z</time>
      </trkpt>
      <trkpt lat="47.22123" lon="-1.50283">
        <ele>52</ele>
        <time>2020-12-19T12:16:07.000Z</time>
      </trkpt>
      <trkpt lat="47.22116" lon="-1.50298">
        <ele>52</ele>
        <time>2020-12-19T12:16:09.000Z</time>
      </trkpt>
      <trkpt lat="47.22109" lon="-1.50312">
        <ele>52</ele>
        <time>2020-12-19T12:16:11.000Z</time>
      </trkpt>
      <trkpt lat="47.22102" lon="-1.50326">
        <ele>53</ele>
        <time>2020-12-19T12:16:13.000Z</time>
      </trkpt>
      <trkpt lat="47.22095" lon="-1.5034">
        <ele>53</ele>
        <time>2020-12-19T12:16:15.000Z</time>
      </trkpt>
      <trkpt lat="47.2209" lon="-1.50356">
        <ele>52</ele>
        <time>2020-12-19T12:16:17.000Z</time>
      </trkpt>
      <trkpt lat="47.22086" lon="-1.50373">
        <ele>52</ele>
        <time>2020-12-19T12:16:19.000Z</time>
      </trkpt>
      <trkpt lat="47.22083" lon="-1.50389">
        <ele>52</ele>
        <time>2020-12-19T12:16:21.000Z</time>
      </trkpt>
      <trkpt lat="47.22079" lon="-1.50403">
        <ele>52</ele>
        <time>2020-12-19T12:16:23.000Z</time>
      </trkpt>
      <trkpt lat="47.22075" lon="-1.50419">
        <ele>52</ele>
        <time>2020-12-19T12:16:25.000Z</time>
      </trkpt>
      <trkpt lat="47.22071" lon="-1.50436">
        <ele>52</ele>
        <time>2020-12-19T12:16:27.000Z</time>
      </trkpt>
      <trkpt lat="47.22068" lon="-1.50454">
        <ele>52</ele>
        <time>2020-12-19T12:16:29.000Z</time>
      </trkpt>
      <trkpt lat="47.22066" lon="-1.50471">
        <ele>52</ele>
        <time>2020-12-19T12:16:31.000Z</time>
      </trkpt>
      <trkpt lat="47.22063" lon="-1.50486">
        <ele>52</ele>
        <time>2020-12-19T12:16:33.000Z</time>
      </trkpt>
      <trkpt lat="47.22063" lon="-1.50503">
        <ele>52</ele>
        <time>2020-12-19T12:16:35.000Z</time>
      </trkpt>
      <trkpt lat="47.22062" lon="-1.50518">
        <ele>52</ele>
        <time>2020-12-19T12:16:37.000Z</time>
      </trkpt>
      <trkpt lat="47.22062" lon="-1.50534">
        <ele>51</ele>
        <time>2020-12-19T12:16:39.000Z</time>
      </trkpt>
      <trkpt lat="47.22061" lon="-1.5055">
        <ele>52</ele>
        <time>2020-12-19T12:16:41.000Z</time>
      </trkpt>
      <trkpt lat="47.22061" lon="-1.50568">
        <ele>51</ele>
        <time>2020-12-19T12:16:43.000Z</time>
      </trkpt>
      <trkpt lat="47.2206" lon="-1.50586">
        <ele>51</ele>
        <time>2020-12-19T12:16:45.000Z</time>
      </trkpt>
      <trkpt lat="47.22058" lon="-1.50604">
        <ele>52</ele>
        <time>2020-12-19T12:16:47.000Z</time>
      </trkpt>
      <trkpt lat="47.22056" lon="-1.50623">
        <ele>52</ele>
        <time>2020-12-19T12:16:49.000Z</time>
      </trkpt>
      <trkpt lat="47.22056" lon="-1.5064">
        <ele>52</ele>
        <time>2020-12-19T12:16:51.000Z</time>
      </trkpt>
      <trkpt lat="47.22054" lon="-1.50658">
        <ele>52</ele>
        <time>2020-12-19T12:16:53.000Z</time>
      </trkpt>
      <trkpt lat="47.22053" lon="-1.50673">
        <ele>52</ele>
        <time>2020-12-19T12:16:55.000Z</time>
      </trkpt>
      <trkpt lat="47.22052" lon="-1.50688">
        <ele>51</ele>
        <time>2020-12-19T12:16:57.000Z</time>
      </trkpt>
      <trkpt lat="47.22052" lon="-1.50703">
        <ele>50</ele>
        <time>2020-12-19T12:16:59.000Z</time>
      </trkpt>
      <trkpt lat="47.22051" lon="-1.50718">
        <ele>51</ele>
        <time>2020-12-19T12:17:01.000Z</time>
      </trkpt>
      <trkpt lat="47.22051" lon="-1.50734">
        <ele>52</ele>
        <time>2020-12-19T12:17:03.000Z</time>
      </trkpt>
      <trkpt lat="47.22048" lon="-1.5075">
        <ele>53</ele>
        <time>2020-12-19T12:17:05.000Z</time>
      </trkpt>
      <trkpt lat="47.22045" lon="-1.50767">
        <ele>52</ele>
        <time>2020-12-19T12:17:07.000Z</time>
      </trkpt>
      <trkpt lat="47.22041" lon="-1.50784">
        <ele>52</ele>
        <time>2020-12-19T12:17:09.000Z</time>
      </trkpt>
      <trkpt lat="47.22035" lon="-1.50801">
        <ele>51</ele>
        <time>2020-12-19T12:17:11.000Z</time>
      </trkpt>
      <trkpt lat="47.22029" lon="-1.50818">
        <ele>52</ele>
        <time>2020-12-19T12:17:13.000Z</time>
      </trkpt>
      <trkpt lat="47.22024" lon="-1.50833">
        <ele>53</ele>
        <time>2020-12-19T12:17:15.000Z</time>
      </trkpt>
      <trkpt lat="47.22018" lon="-1.50849">
        <ele>52</ele>
        <time>2020-12-19T12:17:17.000Z</time>
      </trkpt>
      <trkpt lat="47.2201" lon="-1.50867">
        <ele>53</ele>
        <time>2020-12-19T12:17:19.000Z</time>
      </trkpt>
      <trkpt lat="47.22004" lon="-1.50885">
        <ele>53</ele>
        <time>2020-12-19T12:17:21.000Z</time>
      </trkpt>
      <trkpt lat="47.21998" lon="-1.50902">
        <ele>53</ele>
        <time>2020-12-19T12:17:23.000Z</time>
      </trkpt>
      <trkpt lat="47.21992" lon="-1.50919">
        <ele>53</ele>
        <time>2020-12-19T12:17:25.000Z</time>
      </trkpt>
      <trkpt lat="47.21987" lon="-1.50935">
        <ele>53</ele>
        <time>2020-12-19T12:17:27.000Z</time>
      </trkpt>
      <trkpt lat="47.21982" lon="-1.50952">
        <ele>53</ele>
        <time>2020-12-19T12:17:29.000Z</time>
      </trkpt>
      <trkpt lat="47.21976" lon="-1.50968">
        <ele>53</ele>
        <time>2020-12-19T12:17:31.000Z</time>
      </trkpt>
      <trkpt lat="47.21971" lon="-1.50984">
        <ele>53</ele>
        <time>2020-12-19T12:17:33.000Z</time>
      </trkpt>
      <trkpt lat="47.21966" lon="-1.50999">
        <ele>53</ele>
        <time>2020-12-19T12:17:35.000Z</time>
      </trkpt>
      <trkpt lat="47.21962" lon="-1.51015">
        <ele>54</ele>
        <time>2020-12-19T12:17:37.000Z</time>
      </trkpt>
      <trkpt lat="47.21958" lon="-1.51031">
        <ele>53</ele>
        <time>2020-12-19T12:17:39.000Z</time>
      </trkpt>
      <trkpt lat="47.21954" lon="-1.51046">
        <ele>53</ele>
        <time>2020-12-19T12:17:41.000Z</time>
      </trkpt>
      <trkpt lat="47.21948" lon="-1.51057">
        <ele>53</ele>
        <time>2020-12-19T12:17:43.000Z</time>
      </trkpt>
      <trkpt lat="47.2194" lon="-1.51074">
        <ele>53</ele>
        <time>2020-12-19T12:17:46.000Z</time>
      </trkpt>
      <trkpt lat="47.21933" lon="-1.51089">
        <ele>53</ele>
        <time>2020-12-19T12:17:48.000Z</time>
      </trkpt>
      <trkpt lat="47.21927" lon="-1.51106">
        <ele>52</ele>
        <time>2020-12-19T12:17:50.000Z</time>
      </trkpt>
      <trkpt lat="47.21922" lon="-1.51122">
        <ele>52</ele>
        <time>2020-12-19T12:17:52.000Z</time>
      </trkpt>
      <trkpt lat="47.21917" lon="-1.51138">
        <ele>52</ele>
        <time>2020-12-19T12:17:54.000Z</time>
      </trkpt>
      <trkpt lat="47.21912" lon="-1.51154">
        <ele>52</ele>
        <time>2020-12-19T12:17:56.000Z</time>
      </trkpt>
      <trkpt lat="47.21906" lon="-1.5117">
        <ele>52</ele>
        <time>2020-12-19T12:17:58.000Z</time>
      </trkpt>
      <trkpt lat="47.21901" lon="-1.51185">
        <ele>52</ele>
        <time>2020-12-19T12:18:00.000Z</time>
      </trkpt>
      <trkpt lat="47.21896" lon="-1.51201">
        <ele>52</ele>
        <time>2020-12-19T12:18:02.000Z</time>
      </trkpt>
      <trkpt lat="47.21891" lon="-1.51217">
        <ele>52</ele>
        <time>2020-12-19T12:18:04.000Z</time>
      </trkpt>
      <trkpt lat="47.21885" lon="-1.51233">
        <ele>52</ele>
        <time>2020-12-19T12:18:06.000Z</time>
      </trkpt>
      <trkpt lat="47.2188" lon="-1.51249">
        <ele>51</ele>
        <time>2020-12-19T12:18:08.000Z</time>
      </trkpt>
      <trkpt lat="47.21875" lon="-1.51264">
        <ele>51</ele>
        <time>2020-12-19T12:18:10.000Z</time>
      </trkpt>
      <trkpt lat="47.2187" lon="-1.5128">
        <ele>51</ele>
        <time>2020-12-19T12:18:12.000Z</time>
      </trkpt>
      <trkpt lat="47.21866" lon="-1.51296">
        <ele>52</ele>
        <time>2020-12-19T12:18:14.000Z</time>
      </trkpt>
      <trkpt lat="47.21861" lon="-1.51311">
        <ele>52</ele>
        <time>2020-12-19T12:18:16.000Z</time>
      </trkpt>
      <trkpt lat="47.21856" lon="-1.51327">
        <ele>52</ele>
        <time>2020-12-19T12:18:18.000Z</time>
      </trkpt>
      <trkpt lat="47.21851" lon="-1.51343">
        <ele>53</ele>
        <time>2020-12-19T12:18:20.000Z</time>
      </trkpt>
      <trkpt lat="47.21846" lon="-1.51359">
        <ele>53</ele>
        <time>2020-12-19T12:18:22.000Z</time>
      </trkpt>
      <trkpt lat="47.21842" lon="-1.51375">
        <ele>53</ele>
        <time>2020-12-19T12:18:24.000Z</time>
      </trkpt>
      <trkpt lat="47.21838" lon="-1.51392">
        <ele>53</ele>
        <time>2020-12-19T12:18:26.000Z</time>
      </trkpt>
      <trkpt lat="47.21835" lon="-1.51408">
        <ele>54</ele>
        <time>2020-12-19T12:18:28.000Z</time>
      </trkpt>
      <trkpt lat="47.21831" lon="-1.51424">
        <ele>54</ele>
        <time>2020-12-19T12:18:30.000Z</time>
      </trkpt>
      <trkpt lat="47.21828" lon="-1.51439">
        <ele>54</ele>
        <time>2020-12-19T12:18:32.000Z</time>
      </trkpt>
      <trkpt lat="47.21824" lon="-1.51455">
        <ele>53</ele>
        <time>2020-12-19T12:18:34.000Z</time>
      </trkpt>
      <trkpt lat="47.21821" lon="-1.51471">
        <ele>53</ele>
        <time>2020-12-19T12:18:36.000Z</time>
      </trkpt>
      <trkpt lat="47.21817" lon="-1.51487">
        <ele>53</ele>
        <time>2020-12-19T12:18:38.000Z</time>
      </trkpt>
      <trkpt lat="47.21812" lon="-1.51501">
        <ele>53</ele>
        <time>2020-12-19T12:18:40.000Z</time>
      </trkpt>
      <trkpt lat="47.21805" lon="-1.51513">
        <ele>52</ele>
        <time>2020-12-19T12:18:42.000Z</time>
      </trkpt>
      <trkpt lat="47.218" lon="-1.51527">
        <ele>52</ele>
        <time>2020-12-19T12:18:44.000Z</time>
      </trkpt>
      <trkpt lat="47.21794" lon="-1.51541">
        <ele>52</ele>
        <time>2020-12-19T12:18:46.000Z</time>
      </trkpt>
      <trkpt lat="47.21788" lon="-1.51556">
        <ele>52</ele>
        <time>2020-12-19T12:18:48.000Z</time>
      </trkpt>
      <trkpt lat="47.21781" lon="-1.51571">
        <ele>52</ele>
        <time>2020-12-19T12:18:50.000Z</time>
      </trkpt>
      <trkpt lat="47.21774" lon="-1.51584">
        <ele>52</ele>
        <time>2020-12-19T12:18:52.000Z</time>
      </trkpt>
      <trkpt lat="47.21766" lon="-1.51596">
        <ele>52</ele>
        <time>2020-12-19T12:18:54.000Z</time>
      </trkpt>
      <trkpt lat="47.21758" lon="-1.51607">
        <ele>52</ele>
        <time>2020-12-19T12:18:56.000Z</time>
      </trkpt>
      <trkpt lat="47.21751" lon="-1.51621">
        <ele>51</ele>
        <time>2020-12-19T12:18:58.000Z</time>
      </trkpt>
      <trkpt lat="47.21744" lon="-1.51634">
        <ele>51</ele>
        <time>2020-12-19T12:19:00.000Z</time>
      </trkpt>
      <trkpt lat="47.21737" lon="-1.51648">
        <ele>50</ele>
        <time>2020-12-19T12:19:02.000Z</time>
      </trkpt>
      <trkpt lat="47.21731" lon="-1.51662">
        <ele>50</ele>
        <time>2020-12-19T12:19:04.000Z</time>
      </trkpt>
      <trkpt lat="47.21725" lon="-1.51675">
        <ele>50</ele>
        <time>2020-12-19T12:19:06.000Z</time>
      </trkpt>
      <trkpt lat="47.21719" lon="-1.51688">
        <ele>49</ele>
        <time>2020-12-19T12:19:08.000Z</time>
      </trkpt>
      <trkpt lat="47.21714" lon="-1.517">
        <ele>49</ele>
        <time>2020-12-19T12:19:10.000Z</time>
      </trkpt>
      <trkpt lat="47.2171" lon="-1.51712">
        <ele>49</ele>
        <time>2020-12-19T12:19:12.000Z</time>
      </trkpt>
      <trkpt lat="47.21704" lon="-1.51726">
        <ele>49</ele>
        <time>2020-12-19T12:19:14.000Z</time>
      </trkpt>
      <trkpt lat="47.21697" lon="-1.51741">
        <ele>48</ele>
        <time>2020-12-19T12:19:16.000Z</time>
      </trkpt>
      <trkpt lat="47.2169" lon="-1.51755">
        <ele>49</ele>
        <time>2020-12-19T12:19:18.000Z</time>
      </trkpt>
      <trkpt lat="47.21683" lon="-1.5177">
        <ele>49</ele>
        <time>2020-12-19T12:19:20.000Z</time>
      </trkpt>
      <trkpt lat="47.21677" lon="-1.51785">
        <ele>50</ele>
        <time>2020-12-19T12:19:22.000Z</time>
      </trkpt>
      <trkpt lat="47.21671" lon="-1.51798">
        <ele>50</ele>
        <time>2020-12-19T12:19:24.000Z</time>
      </trkpt>
      <trkpt lat="47.21665" lon="-1.51812">
        <ele>49</ele>
        <time>2020-12-19T12:19:26.000Z</time>
      </trkpt>
      <trkpt lat="47.21658" lon="-1.51827">
        <ele>49</ele>
        <time>2020-12-19T12:19:28.000Z</time>
      </trkpt>
      <trkpt lat="47.21653" lon="-1.51842">
        <ele>49</ele>
        <time>2020-12-19T12:19:30.000Z</time>
      </trkpt>
      <trkpt lat="47.21649" lon="-1.51857">
        <ele>50</ele>
        <time>2020-12-19T12:19:32.000Z</time>
      </trkpt>
      <trkpt lat="47.21648" lon="-1.51873">
        <ele>50</ele>
        <time>2020-12-19T12:19:34.000Z</time>
      </trkpt>
      <trkpt lat="47.21644" lon="-1.51886">
        <ele>50</ele>
        <time>2020-12-19T12:19:36.000Z</time>
      </trkpt>
      <trkpt lat="47.21637" lon="-1.519">
        <ele>49</ele>
        <time>2020-12-19T12:19:38.000Z</time>
      </trkpt>
      <trkpt lat="47.21632" lon="-1.51914">
        <ele>49</ele>
        <time>2020-12-19T12:19:40.000Z</time>
      </trkpt>
      <trkpt lat="47.21627" lon="-1.51928">
        <ele>49</ele>
        <time>2020-12-19T12:19:42.000Z</time>
      </trkpt>
      <trkpt lat="47.21624" lon="-1.51944">
        <ele>49</ele>
        <time>2020-12-19T12:19:44.000Z</time>
      </trkpt>
      <trkpt lat="47.21621" lon="-1.5196">
        <ele>48</ele>
        <time>2020-12-19T12:19:46.000Z</time>
      </trkpt>
      <trkpt lat="47.21618" lon="-1.51975">
        <ele>49</ele>
        <time>2020-12-19T12:19:48.000Z</time>
      </trkpt>
      <trkpt lat="47.21613" lon="-1.51988">
        <ele>50</ele>
        <time>2020-12-19T12:19:51.000Z</time>
      </trkpt>
      <trkpt lat="47.21606" lon="-1.52006">
        <ele>49</ele>
        <time>2020-12-19T12:19:53.000Z</time>
      </trkpt>
      <trkpt lat="47.21599" lon="-1.52022">
        <ele>48</ele>
        <time>2020-12-19T12:19:55.000Z</time>
      </trkpt>
      <trkpt lat="47.21593" lon="-1.52038">
        <ele>48</ele>
        <time>2020-12-19T12:19:57.000Z</time>
      </trkpt>
      <trkpt lat="47.21587" lon="-1.52053">
        <ele>48</ele>
        <time>2020-12-19T12:19:59.000Z</time>
      </trkpt>
      <trkpt lat="47.21582" lon="-1.52068">
        <ele>49</ele>
        <time>2020-12-19T12:20:01.000Z</time>
      </trkpt>
      <trkpt lat="47.21577" lon="-1.52083">
        <ele>49</ele>
        <time>2020-12-19T12:20:03.000Z</time>
      </trkpt>
      <trkpt lat="47.21571" lon="-1.52098">
        <ele>49</ele>
        <time>2020-12-19T12:20:05.000Z</time>
      </trkpt>
      <trkpt lat="47.21566" lon="-1.52113">
        <ele>49</ele>
        <time>2020-12-19T12:20:07.000Z</time>
      </trkpt>
      <trkpt lat="47.2156" lon="-1.52129">
        <ele>49</ele>
        <time>2020-12-19T12:20:09.000Z</time>
      </trkpt>
      <trkpt lat="47.21556" lon="-1.52145">
        <ele>49</ele>
        <time>2020-12-19T12:20:11.000Z</time>
      </trkpt>
      <trkpt lat="47.21551" lon="-1.52161">
        <ele>49</ele>
        <time>2020-12-19T12:20:13.000Z</time>
      </trkpt>
      <trkpt lat="47.21546" lon="-1.52177">
        <ele>49</ele>
        <time>2020-12-19T12:20:15.000Z</time>
      </trkpt>
      <trkpt lat="47.21541" lon="-1.52193">
        <ele>50</ele>
        <time>2020-12-19T12:20:17.000Z</time>
      </trkpt>
      <trkpt lat="47.21536" lon="-1.52208">
        <ele>50</ele>
        <time>2020-12-19T12:20:19.000Z</time>
      </trkpt>
      <trkpt lat="47.21531" lon="-1.52223">
        <ele>50</ele>
        <time>2020-12-19T12:20:21.000Z</time>
      </trkpt>
      <trkpt lat="47.21526" lon="-1.52237">
        <ele>50</ele>
        <time>2020-12-19T12:20:23.000Z</time>
      </trkpt>
      <trkpt lat="47.21521" lon="-1.52252">
        <ele>50</ele>
        <time>2020-12-19T12:20:25.000Z</time>
      </trkpt>
      <trkpt lat="47.21517" lon="-1.52267">
        <ele>50</ele>
        <time>2020-12-19T12:20:27.000Z</time>
      </trkpt>
      <trkpt lat="47.21512" lon="-1.52281">
        <ele>49</ele>
        <time>2020-12-19T12:20:29.000Z</time>
      </trkpt>
      <trkpt lat="47.21507" lon="-1.52295">
        <ele>49</ele>
        <time>2020-12-19T12:20:31.000Z</time>
      </trkpt>
      <trkpt lat="47.21502" lon="-1.5231">
        <ele>49</ele>
        <time>2020-12-19T12:20:33.000Z</time>
      </trkpt>
      <trkpt lat="47.21497" lon="-1.52326">
        <ele>50</ele>
        <time>2020-12-19T12:20:35.000Z</time>
      </trkpt>
      <trkpt lat="47.21492" lon="-1.52341">
        <ele>49</ele>
        <time>2020-12-19T12:20:37.000Z</time>
      </trkpt>
      <trkpt lat="47.21488" lon="-1.52356">
        <ele>49</ele>
        <time>2020-12-19T12:20:39.000Z</time>
      </trkpt>
      <trkpt lat="47.21483" lon="-1.52372">
        <ele>49</ele>
        <time>2020-12-19T12:20:41.000Z</time>
      </trkpt>
      <trkpt lat="47.21478" lon="-1.52388">
        <ele>50</ele>
        <time>2020-12-19T12:20:43.000Z</time>
      </trkpt>
      <trkpt lat="47.21474" lon="-1.52403">
        <ele>50</ele>
        <time>2020-12-19T12:20:45.000Z</time>
      </trkpt>
      <trkpt lat="47.21468" lon="-1.52418">
        <ele>49</ele>
        <time>2020-12-19T12:20:47.000Z</time>
      </trkpt>
      <trkpt lat="47.21463" lon="-1.52433">
        <ele>50</ele>
        <time>2020-12-19T12:20:49.000Z</time>
      </trkpt>
      <trkpt lat="47.21457" lon="-1.52449">
        <ele>49</ele>
        <time>2020-12-19T12:20:51.000Z</time>
      </trkpt>
      <trkpt lat="47.21452" lon="-1.52463">
        <ele>49</ele>
        <time>2020-12-19T12:20:53.000Z</time>
      </trkpt>
      <trkpt lat="47.21448" lon="-1.52478">
        <ele>49</ele>
        <time>2020-12-19T12:20:55.000Z</time>
      </trkpt>
      <trkpt lat="47.21444" lon="-1.52493">
        <ele>49</ele>
        <time>2020-12-19T12:20:57.000Z</time>
      </trkpt>
      <trkpt lat="47.21439" lon="-1.52507">
        <ele>49</ele>
        <time>2020-12-19T12:20:59.000Z</time>
      </trkpt>
      <trkpt lat="47.21435" lon="-1.52522">
        <ele>49</ele>
        <time>2020-12-19T12:21:01.000Z</time>
      </trkpt>
      <trkpt lat="47.2143" lon="-1.52536">
        <ele>49</ele>
        <time>2020-12-19T12:21:03.000Z</time>
      </trkpt>
      <trkpt lat="47.21425" lon="-1.52549">
        <ele>49</ele>
        <time>2020-12-19T12:21:05.000Z</time>
      </trkpt>
      <trkpt lat="47.21421" lon="-1.52562">
        <ele>50</ele>
        <time>2020-12-19T12:21:07.000Z</time>
      </trkpt>
      <trkpt lat="47.21415" lon="-1.5258">
        <ele>50</ele>
        <time>2020-12-19T12:21:10.000Z</time>
      </trkpt>
      <trkpt lat="47.21411" lon="-1.52592">
        <ele>50</ele>
        <time>2020-12-19T12:21:12.000Z</time>
      </trkpt>
      <trkpt lat="47.21406" lon="-1.52605">
        <ele>50</ele>
        <time>2020-12-19T12:21:14.000Z</time>
      </trkpt>
      <trkpt lat="47.21402" lon="-1.52618">
        <ele>49</ele>
        <time>2020-12-19T12:21:16.000Z</time>
      </trkpt>
      <trkpt lat="47.21398" lon="-1.52632">
        <ele>48</ele>
        <time>2020-12-19T12:21:18.000Z</time>
      </trkpt>
      <trkpt lat="47.21393" lon="-1.52651">
        <ele>47</ele>
        <time>2020-12-19T12:21:21.000Z</time>
      </trkpt>
      <trkpt lat="47.2139" lon="-1.52664">
        <ele>47</ele>
        <time>2020-12-19T12:21:23.000Z</time>
      </trkpt>
      <trkpt lat="47.21387" lon="-1.52683">
        <ele>47</ele>
        <time>2020-12-19T12:21:26.000Z</time>
      </trkpt>
      <trkpt lat="47.21383" lon="-1.52697">
        <ele>48</ele>
        <time>2020-12-19T12:21:28.000Z</time>
      </trkpt>
      <trkpt lat="47.21379" lon="-1.52711">
        <ele>47</ele>
        <time>2020-12-19T12:21:30.000Z</time>
      </trkpt>
      <trkpt lat="47.21375" lon="-1.52724">
        <ele>47</ele>
        <time>2020-12-19T12:21:32.000Z</time>
      </trkpt>
      <trkpt lat="47.21373" lon="-1.52739">
        <ele>46</ele>
        <time>2020-12-19T12:21:34.000Z</time>
      </trkpt>
      <trkpt lat="47.2137" lon="-1.52754">
        <ele>47</ele>
        <time>2020-12-19T12:21:36.000Z</time>
      </trkpt>
      <trkpt lat="47.21368" lon="-1.52769">
        <ele>48</ele>
        <time>2020-12-19T12:21:38.000Z</time>
      </trkpt>
      <trkpt lat="47.21366" lon="-1.52784">
        <ele>48</ele>
        <time>2020-12-19T12:21:40.000Z</time>
      </trkpt>
      <trkpt lat="47.21364" lon="-1.52799">
        <ele>49</ele>
        <time>2020-12-19T12:21:42.000Z</time>
      </trkpt>
      <trkpt lat="47.21363" lon="-1.52812">
        <ele>49</ele>
        <time>2020-12-19T12:21:44.000Z</time>
      </trkpt>
      <trkpt lat="47.2136" lon="-1.52826">
        <ele>49</ele>
        <time>2020-12-19T12:21:46.000Z</time>
      </trkpt>
      <trkpt lat="47.21356" lon="-1.5284">
        <ele>48</ele>
        <time>2020-12-19T12:21:48.000Z</time>
      </trkpt>
      <trkpt lat="47.21353" lon="-1.52856">
        <ele>48</ele>
        <time>2020-12-19T12:21:50.000Z</time>
      </trkpt>
      <trkpt lat="47.21349" lon="-1.52871">
        <ele>48</ele>
        <time>2020-12-19T12:21:52.000Z</time>
      </trkpt>
      <trkpt lat="47.21346" lon="-1.52886">
        <ele>48</ele>
        <time>2020-12-19T12:21:54.000Z</time>
      </trkpt>
      <trkpt lat="47.21343" lon="-1.52901">
        <ele>48</ele>
        <time>2020-12-19T12:21:56.000Z</time>
      </trkpt>
      <trkpt lat="47.21341" lon="-1.52915">
        <ele>48</ele>
        <time>2020-12-19T12:21:58.000Z</time>
      </trkpt>
      <trkpt lat="47.2134" lon="-1.52929">
        <ele>48</ele>
        <time>2020-12-19T12:22:00.000Z</time>
      </trkpt>
      <trkpt lat="47.2134" lon="-1.52944">
        <ele>47</ele>
        <time>2020-12-19T12:22:02.000Z</time>
      </trkpt>
      <trkpt lat="47.21339" lon="-1.52959">
        <ele>47</ele>
        <time>2020-12-19T12:22:04.000Z</time>
      </trkpt>
      <trkpt lat="47.21336" lon="-1.52973">
        <ele>48</ele>
        <time>2020-12-19T12:22:06.000Z</time>
      </trkpt>
      <trkpt lat="47.21335" lon="-1.52988">
        <ele>48</ele>
        <time>2020-12-19T12:22:08.000Z</time>
      </trkpt>
      <trkpt lat="47.21334" lon="-1.53003">
        <ele>48</ele>
        <time>2020-12-19T12:22:10.000Z</time>
      </trkpt>
      <trkpt lat="47.21334" lon="-1.53017">
        <ele>49</ele>
        <time>2020-12-19T12:22:12.000Z</time>
      </trkpt>
      <trkpt lat="47.21331" lon="-1.53034">
        <ele>49</ele>
        <time>2020-12-19T12:22:14.000Z</time>
      </trkpt>
      <trkpt lat="47.21329" lon="-1.5305">
        <ele>49</ele>
        <time>2020-12-19T12:22:16.000Z</time>
      </trkpt>
      <trkpt lat="47.21328" lon="-1.53065">
        <ele>49</ele>
        <time>2020-12-19T12:22:18.000Z</time>
      </trkpt>
      <trkpt lat="47.21327" lon="-1.5308">
        <ele>50</ele>
        <time>2020-12-19T12:22:20.000Z</time>
      </trkpt>
      <trkpt lat="47.21327" lon="-1.53095">
        <ele>50</ele>
        <time>2020-12-19T12:22:22.000Z</time>
      </trkpt>
      <trkpt lat="47.21326" lon="-1.5311">
        <ele>51</ele>
        <time>2020-12-19T12:22:24.000Z</time>
      </trkpt>
      <trkpt lat="47.21323" lon="-1.53126">
        <ele>51</ele>
        <time>2020-12-19T12:22:26.000Z</time>
      </trkpt>
      <trkpt lat="47.2132" lon="-1.53143">
        <ele>51</ele>
        <time>2020-12-19T12:22:28.000Z</time>
      </trkpt>
      <trkpt lat="47.21317" lon="-1.5316">
        <ele>50</ele>
        <time>2020-12-19T12:22:30.000Z</time>
      </trkpt>
      <trkpt lat="47.21315" lon="-1.53176">
        <ele>49</ele>
        <time>2020-12-19T12:22:32.000Z</time>
      </trkpt>
      <trkpt lat="47.21314" lon="-1.53193">
        <ele>49</ele>
        <time>2020-12-19T12:22:34.000Z</time>
      </trkpt>
      <trkpt lat="47.21312" lon="-1.53209">
        <ele>48</ele>
        <time>2020-12-19T12:22:36.000Z</time>
      </trkpt>
      <trkpt lat="47.21312" lon="-1.53227">
        <ele>49</ele>
        <time>2020-12-19T12:22:38.000Z</time>
      </trkpt>
      <trkpt lat="47.21312" lon="-1.53243">
        <ele>49</ele>
        <time>2020-12-19T12:22:40.000Z</time>
      </trkpt>
      <trkpt lat="47.21312" lon="-1.5326">
        <ele>49</ele>
        <time>2020-12-19T12:22:42.000Z</time>
      </trkpt>
      <trkpt lat="47.21311" lon="-1.53276">
        <ele>49</ele>
        <time>2020-12-19T12:22:44.000Z</time>
      </trkpt>
      <trkpt lat="47.21311" lon="-1.5329">
        <ele>49</ele>
        <time>2020-12-19T12:22:46.000Z</time>
      </trkpt>
      <trkpt lat="47.21311" lon="-1.53306">
        <ele>49</ele>
        <time>2020-12-19T12:22:48.000Z</time>
      </trkpt>
      <trkpt lat="47.21309" lon="-1.53322">
        <ele>50</ele>
        <time>2020-12-19T12:22:50.000Z</time>
      </trkpt>
      <trkpt lat="47.21306" lon="-1.53337">
        <ele>50</ele>
        <time>2020-12-19T12:22:52.000Z</time>
      </trkpt>
      <trkpt lat="47.21303" lon="-1.53353">
        <ele>49</ele>
        <time>2020-12-19T12:22:54.000Z</time>
      </trkpt>
      <trkpt lat="47.213" lon="-1.53367">
        <ele>49</ele>
        <time>2020-12-19T12:22:56.000Z</time>
      </trkpt>
      <trkpt lat="47.21297" lon="-1.53383">
        <ele>49</ele>
        <time>2020-12-19T12:22:58.000Z</time>
      </trkpt>
      <trkpt lat="47.21295" lon="-1.53397">
        <ele>49</ele>
        <time>2020-12-19T12:23:00.000Z</time>
      </trkpt>
      <trkpt lat="47.21294" lon="-1.53411">
        <ele>49</ele>
        <time>2020-12-19T12:23:02.000Z</time>
      </trkpt>
      <trkpt lat="47.21292" lon="-1.53429">
        <ele>48</ele>
        <time>2020-12-19T12:23:05.000Z</time>
      </trkpt>
      <trkpt lat="47.21292" lon="-1.53443">
        <ele>48</ele>
        <time>2020-12-19T12:23:07.000Z</time>
      </trkpt>
      <trkpt lat="47.21296" lon="-1.53457">
        <ele>48</ele>
        <time>2020-12-19T12:23:09.000Z</time>
      </trkpt>
      <trkpt lat="47.213" lon="-1.53472">
        <ele>48</ele>
        <time>2020-12-19T12:23:11.000Z</time>
      </trkpt>
      <trkpt lat="47.21302" lon="-1.53487">
        <ele>48</ele>
        <time>2020-12-19T12:23:13.000Z</time>
      </trkpt>
      <trkpt lat="47.21302" lon="-1.53502">
        <ele>48</ele>
        <time>2020-12-19T12:23:15.000Z</time>
      </trkpt>
      <trkpt lat="47.21303" lon="-1.53517">
        <ele>48</ele>
        <time>2020-12-19T12:23:17.000Z</time>
      </trkpt>
      <trkpt lat="47.21303" lon="-1.53531">
        <ele>49</ele>
        <time>2020-12-19T12:23:19.000Z</time>
      </trkpt>
      <trkpt lat="47.21305" lon="-1.53545">
        <ele>50</ele>
        <time>2020-12-19T12:23:21.000Z</time>
      </trkpt>
      <trkpt lat="47.21306" lon="-1.53565">
        <ele>51</ele>
        <time>2020-12-19T12:23:24.000Z</time>
      </trkpt>
      <trkpt lat="47.21307" lon="-1.5358">
        <ele>51</ele>
        <time>2020-12-19T12:23:26.000Z</time>
      </trkpt>
      <trkpt lat="47.21306" lon="-1.53595">
        <ele>51</ele>
        <time>2020-12-19T12:23:28.000Z</time>
      </trkpt>
      <trkpt lat="47.21306" lon="-1.53609">
        <ele>51</ele>
        <time>2020-12-19T12:23:30.000Z</time>
      </trkpt>
      <trkpt lat="47.21303" lon="-1.53622">
        <ele>51</ele>
        <time>2020-12-19T12:23:32.000Z</time>
      </trkpt>
      <trkpt lat="47.21297" lon="-1.53632">
        <ele>51</ele>
        <time>2020-12-19T12:23:35.000Z</time>
      </trkpt>
      <trkpt lat="47.21297" lon="-1.53648">
        <ele>51</ele>
        <time>2020-12-19T12:23:39.000Z</time>
      </trkpt>
      <trkpt lat="47.21294" lon="-1.53664">
        <ele>50</ele>
        <time>2020-12-19T12:23:42.000Z</time>
      </trkpt>
      <trkpt lat="47.21298" lon="-1.53683">
        <ele>49</ele>
        <time>2020-12-19T12:23:45.000Z</time>
      </trkpt>
      <trkpt lat="47.21302" lon="-1.53698">
        <ele>49</ele>
        <time>2020-12-19T12:23:47.000Z</time>
      </trkpt>
      <trkpt lat="47.21304" lon="-1.53714">
        <ele>49</ele>
        <time>2020-12-19T12:23:49.000Z</time>
      </trkpt>
      <trkpt lat="47.21308" lon="-1.5373">
        <ele>49</ele>
        <time>2020-12-19T12:23:51.000Z</time>
      </trkpt>
      <trkpt lat="47.21312" lon="-1.53744">
        <ele>48</ele>
        <time>2020-12-19T12:23:53.000Z</time>
      </trkpt>
      <trkpt lat="47.21315" lon="-1.5376">
        <ele>48</ele>
        <time>2020-12-19T12:23:55.000Z</time>
      </trkpt>
      <trkpt lat="47.21317" lon="-1.53776">
        <ele>48</ele>
        <time>2020-12-19T12:23:57.000Z</time>
      </trkpt>
      <trkpt lat="47.21319" lon="-1.53791">
        <ele>48</ele>
        <time>2020-12-19T12:23:59.000Z</time>
      </trkpt>
      <trkpt lat="47.21321" lon="-1.53806">
        <ele>47</ele>
        <time>2020-12-19T12:24:01.000Z</time>
      </trkpt>
      <trkpt lat="47.21323" lon="-1.53821">
        <ele>47</ele>
        <time>2020-12-19T12:24:03.000Z</time>
      </trkpt>
      <trkpt lat="47.21326" lon="-1.53836">
        <ele>48</ele>
        <time>2020-12-19T12:24:05.000Z</time>
      </trkpt>
      <trkpt lat="47.21328" lon="-1.5385">
        <ele>48</ele>
        <time>2020-12-19T12:24:07.000Z</time>
      </trkpt>
      <trkpt lat="47.21331" lon="-1.53866">
        <ele>49</ele>
        <time>2020-12-19T12:24:09.000Z</time>
      </trkpt>
      <trkpt lat="47.21334" lon="-1.53881">
        <ele>49</ele>
        <time>2020-12-19T12:24:11.000Z</time>
      </trkpt>
      <trkpt lat="47.21336" lon="-1.53894">
        <ele>50</ele>
        <time>2020-12-19T12:24:13.000Z</time>
      </trkpt>
      <trkpt lat="47.21338" lon="-1.53907">
        <ele>50</ele>
        <time>2020-12-19T12:24:15.000Z</time>
      </trkpt>
      <trkpt lat="47.21342" lon="-1.5392">
        <ele>50</ele>
        <time>2020-12-19T12:24:19.000Z</time>
      </trkpt>
      <trkpt lat="47.21353" lon="-1.5392">
        <ele>50</ele>
        <time>2020-12-19T12:24:24.000Z</time>
      </trkpt>
      <trkpt lat="47.21365" lon="-1.53927">
        <ele>51</ele>
        <time>2020-12-19T12:24:27.000Z</time>
      </trkpt>
      <trkpt lat="47.21379" lon="-1.53932">
        <ele>51</ele>
        <time>2020-12-19T12:24:30.000Z</time>
      </trkpt>
      <trkpt lat="47.21386" lon="-1.53946">
        <ele>51</ele>
        <time>2020-12-19T12:24:32.000Z</time>
      </trkpt>
      <trkpt lat="47.2139" lon="-1.53966">
        <ele>51</ele>
        <time>2020-12-19T12:24:34.000Z</time>
      </trkpt>
      <trkpt lat="47.21387" lon="-1.53983">
        <ele>51</ele>
        <time>2020-12-19T12:24:36.000Z</time>
      </trkpt>
      <trkpt lat="47.21386" lon="-1.53998">
        <ele>50</ele>
        <time>2020-12-19T12:24:38.000Z</time>
      </trkpt>
      <trkpt lat="47.21392" lon="-1.54011">
        <ele>50</ele>
        <time>2020-12-19T12:24:40.000Z</time>
      </trkpt>
      <trkpt lat="47.21401" lon="-1.54023">
        <ele>51</ele>
        <time>2020-12-19T12:24:42.000Z</time>
      </trkpt>
      <trkpt lat="47.21409" lon="-1.54036">
        <ele>51</ele>
        <time>2020-12-19T12:24:44.000Z</time>
      </trkpt>
      <trkpt lat="47.21417" lon="-1.54048">
        <ele>52</ele>
        <time>2020-12-19T12:24:46.000Z</time>
      </trkpt>
      <trkpt lat="47.21426" lon="-1.54062">
        <ele>53</ele>
        <time>2020-12-19T12:24:48.000Z</time>
      </trkpt>
      <trkpt lat="47.21434" lon="-1.54074">
        <ele>53</ele>
        <time>2020-12-19T12:24:50.000Z</time>
      </trkpt>
      <trkpt lat="47.21443" lon="-1.54086">
        <ele>53</ele>
        <time>2020-12-19T12:24:52.000Z</time>
      </trkpt>
      <trkpt lat="47.21452" lon="-1.54099">
        <ele>53</ele>
        <time>2020-12-19T12:24:54.000Z</time>
      </trkpt>
      <trkpt lat="47.21461" lon="-1.54112">
        <ele>54</ele>
        <time>2020-12-19T12:24:56.000Z</time>
      </trkpt>
      <trkpt lat="47.21468" lon="-1.54124">
        <ele>54</ele>
        <time>2020-12-19T12:24:58.000Z</time>
      </trkpt>
      <trkpt lat="47.21477" lon="-1.54136">
        <ele>54</ele>
        <time>2020-12-19T12:25:00.000Z</time>
      </trkpt>
      <trkpt lat="47.21485" lon="-1.54148">
        <ele>53</ele>
        <time>2020-12-19T12:25:02.000Z</time>
      </trkpt>
      <trkpt lat="47.21492" lon="-1.54158">
        <ele>54</ele>
        <time>2020-12-19T12:25:04.000Z</time>
      </trkpt>
      <trkpt lat="47.21504" lon="-1.54169">
        <ele>54</ele>
        <time>2020-12-19T12:25:07.000Z</time>
      </trkpt>
      <trkpt lat="47.2151" lon="-1.54181">
        <ele>54</ele>
        <time>2020-12-19T12:25:09.000Z</time>
      </trkpt>
      <trkpt lat="47.21518" lon="-1.54195">
        <ele>54</ele>
        <time>2020-12-19T12:25:12.000Z</time>
      </trkpt>
      <trkpt lat="47.21523" lon="-1.54206">
        <ele>54</ele>
        <time>2020-12-19T12:25:15.000Z</time>
      </trkpt>
      <trkpt lat="47.2153" lon="-1.54216">
        <ele>54</ele>
        <time>2020-12-19T12:25:25.000Z</time>
      </trkpt>
      <trkpt lat="47.21536" lon="-1.54227">
        <ele>53</ele>
        <time>2020-12-19T12:25:38.000Z</time>
      </trkpt>
      <trkpt lat="47.21543" lon="-1.54238">
        <ele>53</ele>
        <time>2020-12-19T12:25:42.000Z</time>
      </trkpt>
      <trkpt lat="47.21551" lon="-1.54245">
        <ele>53</ele>
        <time>2020-12-19T12:25:45.000Z</time>
      </trkpt>
      <trkpt lat="47.21563" lon="-1.54242">
        <ele>53</ele>
        <time>2020-12-19T12:25:48.000Z</time>
      </trkpt>
      <trkpt lat="47.21575" lon="-1.54246">
        <ele>53</ele>
        <time>2020-12-19T12:25:51.000Z</time>
      </trkpt>
      <trkpt lat="47.21578" lon="-1.5426">
        <ele>54</ele>
        <time>2020-12-19T12:25:53.000Z</time>
      </trkpt>
      <trkpt lat="47.21578" lon="-1.54277">
        <ele>54</ele>
        <time>2020-12-19T12:25:55.000Z</time>
      </trkpt>
      <trkpt lat="47.21583" lon="-1.54292">
        <ele>53</ele>
        <time>2020-12-19T12:25:57.000Z</time>
      </trkpt>
      <trkpt lat="47.2159" lon="-1.54306">
        <ele>52</ele>
        <time>2020-12-19T12:25:59.000Z</time>
      </trkpt>
      <trkpt lat="47.21598" lon="-1.54316">
        <ele>52</ele>
        <time>2020-12-19T12:26:01.000Z</time>
      </trkpt>
      <trkpt lat="47.21607" lon="-1.54329">
        <ele>52</ele>
        <time>2020-12-19T12:26:03.000Z</time>
      </trkpt>
      <trkpt lat="47.21615" lon="-1.54342">
        <ele>52</ele>
        <time>2020-12-19T12:26:05.000Z</time>
      </trkpt>
      <trkpt lat="47.21624" lon="-1.54354">
        <ele>52</ele>
        <time>2020-12-19T12:26:07.000Z</time>
      </trkpt>
      <trkpt lat="47.21627" lon="-1.54372">
        <ele>53</ele>
        <time>2020-12-19T12:26:09.000Z</time>
      </trkpt>
      <trkpt lat="47.21627" lon="-1.54389">
        <ele>53</ele>
        <time>2020-12-19T12:26:11.000Z</time>
      </trkpt>
      <trkpt lat="47.21623" lon="-1.54406">
        <ele>53</ele>
        <time>2020-12-19T12:26:13.000Z</time>
      </trkpt>
      <trkpt lat="47.21617" lon="-1.54422">
        <ele>52</ele>
        <time>2020-12-19T12:26:15.000Z</time>
      </trkpt>
      <trkpt lat="47.21614" lon="-1.54441">
        <ele>52</ele>
        <time>2020-12-19T12:26:17.000Z</time>
      </trkpt>
      <trkpt lat="47.21613" lon="-1.54459">
        <ele>52</ele>
        <time>2020-12-19T12:26:19.000Z</time>
      </trkpt>
      <trkpt lat="47.2161" lon="-1.54476">
        <ele>52</ele>
        <time>2020-12-19T12:26:21.000Z</time>
      </trkpt>
      <trkpt lat="47.21607" lon="-1.54493">
        <ele>52</ele>
        <time>2020-12-19T12:26:23.000Z</time>
      </trkpt>
      <trkpt lat="47.21603" lon="-1.54509">
        <ele>53</ele>
        <time>2020-12-19T12:26:25.000Z</time>
      </trkpt>
      <trkpt lat="47.21598" lon="-1.54525">
        <ele>53</ele>
        <time>2020-12-19T12:26:27.000Z</time>
      </trkpt>
      <trkpt lat="47.21592" lon="-1.54541">
        <ele>53</ele>
        <time>2020-12-19T12:26:29.000Z</time>
      </trkpt>
      <trkpt lat="47.21586" lon="-1.54557">
        <ele>53</ele>
        <time>2020-12-19T12:26:31.000Z</time>
      </trkpt>
      <trkpt lat="47.21581" lon="-1.54571">
        <ele>52</ele>
        <time>2020-12-19T12:26:33.000Z</time>
      </trkpt>
      <trkpt lat="47.21575" lon="-1.54587">
        <ele>52</ele>
        <time>2020-12-19T12:26:35.000Z</time>
      </trkpt>
      <trkpt lat="47.21569" lon="-1.54603">
        <ele>52</ele>
        <time>2020-12-19T12:26:37.000Z</time>
      </trkpt>
      <trkpt lat="47.21563" lon="-1.5462">
        <ele>51</ele>
        <time>2020-12-19T12:26:39.000Z</time>
      </trkpt>
      <trkpt lat="47.21557" lon="-1.54637">
        <ele>51</ele>
        <time>2020-12-19T12:26:41.000Z</time>
      </trkpt>
      <trkpt lat="47.21551" lon="-1.54651">
        <ele>52</ele>
        <time>2020-12-19T12:26:43.000Z</time>
      </trkpt>
      <trkpt lat="47.21546" lon="-1.54664">
        <ele>51</ele>
        <time>2020-12-19T12:26:45.000Z</time>
      </trkpt>
      <trkpt lat="47.21542" lon="-1.54677">
        <ele>51</ele>
        <time>2020-12-19T12:26:47.000Z</time>
      </trkpt>
      <trkpt lat="47.21539" lon="-1.54691">
        <ele>52</ele>
        <time>2020-12-19T12:26:49.000Z</time>
      </trkpt>
      <trkpt lat="47.21532" lon="-1.54709">
        <ele>52</ele>
        <time>2020-12-19T12:26:51.000Z</time>
      </trkpt>
      <trkpt lat="47.21527" lon="-1.54724">
        <ele>52</ele>
        <time>2020-12-19T12:26:53.000Z</time>
      </trkpt>
      <trkpt lat="47.21521" lon="-1.54739">
        <ele>53</ele>
        <time>2020-12-19T12:26:55.000Z</time>
      </trkpt>
      <trkpt lat="47.21516" lon="-1.54753">
        <ele>54</ele>
        <time>2020-12-19T12:26:57.000Z</time>
      </trkpt>
      <trkpt lat="47.21509" lon="-1.54768">
        <ele>54</ele>
        <time>2020-12-19T12:26:59.000Z</time>
      </trkpt>
      <trkpt lat="47.21503" lon="-1.54784">
        <ele>55</ele>
        <time>2020-12-19T12:27:01.000Z</time>
      </trkpt>
      <trkpt lat="47.21495" lon="-1.548">
        <ele>54</ele>
        <time>2020-12-19T12:27:03.000Z</time>
      </trkpt>
      <trkpt lat="47.21488" lon="-1.54817">
        <ele>54</ele>
        <time>2020-12-19T12:27:05.000Z</time>
      </trkpt>
      <trkpt lat="47.21481" lon="-1.54833">
        <ele>54</ele>
        <time>2020-12-19T12:27:07.000Z</time>
      </trkpt>
      <trkpt lat="47.21473" lon="-1.54848">
        <ele>54</ele>
        <time>2020-12-19T12:27:09.000Z</time>
      </trkpt>
      <trkpt lat="47.21466" lon="-1.54862">
        <ele>55</ele>
        <time>2020-12-19T12:27:11.000Z</time>
      </trkpt>
      <trkpt lat="47.21458" lon="-1.54876">
        <ele>56</ele>
        <time>2020-12-19T12:27:13.000Z</time>
      </trkpt>
      <trkpt lat="47.21451" lon="-1.54891">
        <ele>57</ele>
        <time>2020-12-19T12:27:15.000Z</time>
      </trkpt>
      <trkpt lat="47.21444" lon="-1.54906">
        <ele>56</ele>
        <time>2020-12-19T12:27:17.000Z</time>
      </trkpt>
      <trkpt lat="47.21437" lon="-1.5492">
        <ele>56</ele>
        <time>2020-12-19T12:27:19.000Z</time>
      </trkpt>
      <trkpt lat="47.2143" lon="-1.54936">
        <ele>55</ele>
        <time>2020-12-19T12:27:21.000Z</time>
      </trkpt>
      <trkpt lat="47.21422" lon="-1.54952">
        <ele>55</ele>
        <time>2020-12-19T12:27:23.000Z</time>
      </trkpt>
      <trkpt lat="47.21415" lon="-1.54967">
        <ele>54</ele>
        <time>2020-12-19T12:27:25.000Z</time>
      </trkpt>
      <trkpt lat="47.21409" lon="-1.54982">
        <ele>54</ele>
        <time>2020-12-19T12:27:27.000Z</time>
      </trkpt>
      <trkpt lat="47.21403" lon="-1.54997">
        <ele>54</ele>
        <time>2020-12-19T12:27:29.000Z</time>
      </trkpt>
      <trkpt lat="47.21396" lon="-1.55012">
        <ele>54</ele>
        <time>2020-12-19T12:27:31.000Z</time>
      </trkpt>
      <trkpt lat="47.21389" lon="-1.55026">
        <ele>54</ele>
        <time>2020-12-19T12:27:33.000Z</time>
      </trkpt>
      <trkpt lat="47.21383" lon="-1.55041">
        <ele>54</ele>
        <time>2020-12-19T12:27:35.000Z</time>
      </trkpt>
      <trkpt lat="47.21376" lon="-1.55057">
        <ele>54</ele>
        <time>2020-12-19T12:27:37.000Z</time>
      </trkpt>
      <trkpt lat="47.2137" lon="-1.55072">
        <ele>54</ele>
        <time>2020-12-19T12:27:39.000Z</time>
      </trkpt>
      <trkpt lat="47.21364" lon="-1.55087">
        <ele>53</ele>
        <time>2020-12-19T12:27:41.000Z</time>
      </trkpt>
      <trkpt lat="47.21358" lon="-1.55101">
        <ele>53</ele>
        <time>2020-12-19T12:27:43.000Z</time>
      </trkpt>
      <trkpt lat="47.21352" lon="-1.55116">
        <ele>53</ele>
        <time>2020-12-19T12:27:45.000Z</time>
      </trkpt>
      <trkpt lat="47.21346" lon="-1.55131">
        <ele>52</ele>
        <time>2020-12-19T12:27:47.000Z</time>
      </trkpt>
      <trkpt lat="47.21339" lon="-1.55146">
        <ele>52</ele>
        <time>2020-12-19T12:27:49.000Z</time>
      </trkpt>
      <trkpt lat="47.21332" lon="-1.55162">
        <ele>51</ele>
        <time>2020-12-19T12:27:51.000Z</time>
      </trkpt>
      <trkpt lat="47.21326" lon="-1.55177">
        <ele>51</ele>
        <time>2020-12-19T12:27:53.000Z</time>
      </trkpt>
      <trkpt lat="47.2132" lon="-1.55192">
        <ele>50</ele>
        <time>2020-12-19T12:27:55.000Z</time>
      </trkpt>
      <trkpt lat="47.21314" lon="-1.55207">
        <ele>51</ele>
        <time>2020-12-19T12:27:57.000Z</time>
      </trkpt>
      <trkpt lat="47.21309" lon="-1.55222">
        <ele>50</ele>
        <time>2020-12-19T12:27:59.000Z</time>
      </trkpt>
      <trkpt lat="47.21303" lon="-1.55235">
        <ele>50</ele>
        <time>2020-12-19T12:28:01.000Z</time>
      </trkpt>
      <trkpt lat="47.21297" lon="-1.5525">
        <ele>50</ele>
        <time>2020-12-19T12:28:03.000Z</time>
      </trkpt>
      <trkpt lat="47.21291" lon="-1.55264">
        <ele>51</ele>
        <time>2020-12-19T12:28:05.000Z</time>
      </trkpt>
      <trkpt lat="47.21285" lon="-1.55277">
        <ele>51</ele>
        <time>2020-12-19T12:28:07.000Z</time>
      </trkpt>
      <trkpt lat="47.2128" lon="-1.55289">
        <ele>52</ele>
        <time>2020-12-19T12:28:09.000Z</time>
      </trkpt>
      <trkpt lat="47.2127" lon="-1.55295">
        <ele>52</ele>
        <time>2020-12-19T12:28:12.000Z</time>
      </trkpt>
      <trkpt lat="47.21258" lon="-1.55302">
        <ele>51</ele>
        <time>2020-12-19T12:28:15.000Z</time>
      </trkpt>
      <trkpt lat="47.21259" lon="-1.55323">
        <ele>51</ele>
        <time>2020-12-19T12:28:18.000Z</time>
      </trkpt>
      <trkpt lat="47.21263" lon="-1.55334">
        <ele>51</ele>
        <time>2020-12-19T12:28:20.000Z</time>
      </trkpt>
      <trkpt lat="47.21272" lon="-1.55345">
        <ele>52</ele>
        <time>2020-12-19T12:28:23.000Z</time>
      </trkpt>
      <trkpt lat="47.21281" lon="-1.55351">
        <ele>52</ele>
        <time>2020-12-19T12:28:26.000Z</time>
      </trkpt>
      <trkpt lat="47.21287" lon="-1.55367">
        <ele>52</ele>
        <time>2020-12-19T12:28:29.000Z</time>
      </trkpt>
      <trkpt lat="47.21283" lon="-1.55381">
        <ele>52</ele>
        <time>2020-12-19T12:28:31.000Z</time>
      </trkpt>
      <trkpt lat="47.21276" lon="-1.55393">
        <ele>52</ele>
        <time>2020-12-19T12:28:34.000Z</time>
      </trkpt>
      <trkpt lat="47.2127" lon="-1.55403">
        <ele>52</ele>
        <time>2020-12-19T12:28:45.000Z</time>
      </trkpt>
      <trkpt lat="47.21263" lon="-1.55415">
        <ele>52</ele>
        <time>2020-12-19T12:28:58.000Z</time>
      </trkpt>
      <trkpt lat="47.21254" lon="-1.55426">
        <ele>52</ele>
        <time>2020-12-19T12:29:00.000Z</time>
      </trkpt>
      <trkpt lat="47.21244" lon="-1.55438">
        <ele>52</ele>
        <time>2020-12-19T12:29:02.000Z</time>
      </trkpt>
      <trkpt lat="47.21236" lon="-1.55452">
        <ele>52</ele>
        <time>2020-12-19T12:29:04.000Z</time>
      </trkpt>
      <trkpt lat="47.21229" lon="-1.55468">
        <ele>51</ele>
        <time>2020-12-19T12:29:06.000Z</time>
      </trkpt>
      <trkpt lat="47.21222" lon="-1.55484">
        <ele>51</ele>
        <time>2020-12-19T12:29:08.000Z</time>
      </trkpt>
      <trkpt lat="47.21216" lon="-1.55501">
        <ele>50</ele>
        <time>2020-12-19T12:29:10.000Z</time>
      </trkpt>
      <trkpt lat="47.2121" lon="-1.5552">
        <ele>50</ele>
        <time>2020-12-19T12:29:12.000Z</time>
      </trkpt>
      <trkpt lat="47.21204" lon="-1.5554">
        <ele>50</ele>
        <time>2020-12-19T12:29:14.000Z</time>
      </trkpt>
      <trkpt lat="47.21197" lon="-1.5556">
        <ele>50</ele>
        <time>2020-12-19T12:29:16.000Z</time>
      </trkpt>
      <trkpt lat="47.21191" lon="-1.55579">
        <ele>49</ele>
        <time>2020-12-19T12:29:18.000Z</time>
      </trkpt>
      <trkpt lat="47.21185" lon="-1.55598">
        <ele>49</ele>
        <time>2020-12-19T12:29:20.000Z</time>
      </trkpt>
      <trkpt lat="47.2118" lon="-1.55615">
        <ele>49</ele>
        <time>2020-12-19T12:29:22.000Z</time>
      </trkpt>
      <trkpt lat="47.21175" lon="-1.55632">
        <ele>49</ele>
        <time>2020-12-19T12:29:24.000Z</time>
      </trkpt>
      <trkpt lat="47.21171" lon="-1.55648">
        <ele>49</ele>
        <time>2020-12-19T12:29:26.000Z</time>
      </trkpt>
      <trkpt lat="47.21166" lon="-1.55663">
        <ele>50</ele>
        <time>2020-12-19T12:29:28.000Z</time>
      </trkpt>
      <trkpt lat="47.21159" lon="-1.55674">
        <ele>50</ele>
        <time>2020-12-19T12:29:30.000Z</time>
      </trkpt>
      <trkpt lat="47.21149" lon="-1.55668">
        <ele>50</ele>
        <time>2020-12-19T12:29:32.000Z</time>
      </trkpt>
      <trkpt lat="47.2114" lon="-1.55656">
        <ele>50</ele>
        <time>2020-12-19T12:29:34.000Z</time>
      </trkpt>
      <trkpt lat="47.21127" lon="-1.55647">
        <ele>50</ele>
        <time>2020-12-19T12:29:36.000Z</time>
      </trkpt>
      <trkpt lat="47.21114" lon="-1.55636">
        <ele>50</ele>
        <time>2020-12-19T12:29:38.000Z</time>
      </trkpt>
      <trkpt lat="47.211" lon="-1.55626">
        <ele>51</ele>
        <time>2020-12-19T12:29:40.000Z</time>
      </trkpt>
      <trkpt lat="47.21086" lon="-1.55619">
        <ele>51</ele>
        <time>2020-12-19T12:29:42.000Z</time>
      </trkpt>
      <trkpt lat="47.21072" lon="-1.55611">
        <ele>51</ele>
        <time>2020-12-19T12:29:44.000Z</time>
      </trkpt>
      <trkpt lat="47.21057" lon="-1.55604">
        <ele>51</ele>
        <time>2020-12-19T12:29:46.000Z</time>
      </trkpt>
      <trkpt lat="47.21046" lon="-1.55596">
        <ele>51</ele>
        <time>2020-12-19T12:29:48.000Z</time>
      </trkpt>
      <trkpt lat="47.21035" lon="-1.55589">
        <ele>51</ele>
        <time>2020-12-19T12:29:50.000Z</time>
      </trkpt>
      <trkpt lat="47.21024" lon="-1.55585">
        <ele>51</ele>
        <time>2020-12-19T12:29:52.000Z</time>
      </trkpt>
      <trkpt lat="47.21012" lon="-1.55582">
        <ele>51</ele>
        <time>2020-12-19T12:29:54.000Z</time>
      </trkpt>
      <trkpt lat="47.21002" lon="-1.55579">
        <ele>51</ele>
        <time>2020-12-19T12:29:56.000Z</time>
      </trkpt>
      <trkpt lat="47.2099" lon="-1.55576">
        <ele>51</ele>
        <time>2020-12-19T12:29:58.000Z</time>
      </trkpt>
      <trkpt lat="47.20976" lon="-1.55574">
        <ele>50</ele>
        <time>2020-12-19T12:30:00.000Z</time>
      </trkpt>
      <trkpt lat="47.20962" lon="-1.55572">
        <ele>50</ele>
        <time>2020-12-19T12:30:02.000Z</time>
      </trkpt>
      <trkpt lat="47.20946" lon="-1.55569">
        <ele>49</ele>
        <time>2020-12-19T12:30:04.000Z</time>
      </trkpt>
      <trkpt lat="47.20933" lon="-1.55566">
        <ele>50</ele>
        <time>2020-12-19T12:30:06.000Z</time>
      </trkpt>
      <trkpt lat="47.20919" lon="-1.55562">
        <ele>51</ele>
        <time>2020-12-19T12:30:08.000Z</time>
      </trkpt>
      <trkpt lat="47.20905" lon="-1.55555">
        <ele>51</ele>
        <time>2020-12-19T12:30:10.000Z</time>
      </trkpt>
      <trkpt lat="47.2089" lon="-1.55552">
        <ele>52</ele>
        <time>2020-12-19T12:30:12.000Z</time>
      </trkpt>
      <trkpt lat="47.20876" lon="-1.55547">
        <ele>53</ele>
        <time>2020-12-19T12:30:14.000Z</time>
      </trkpt>
      <trkpt lat="47.20863" lon="-1.55544">
        <ele>53</ele>
        <time>2020-12-19T12:30:16.000Z</time>
      </trkpt>
      <trkpt lat="47.20849" lon="-1.55541">
        <ele>52</ele>
        <time>2020-12-19T12:30:18.000Z</time>
      </trkpt>
      <trkpt lat="47.20837" lon="-1.55538">
        <ele>52</ele>
        <time>2020-12-19T12:30:20.000Z</time>
      </trkpt>
      <trkpt lat="47.20825" lon="-1.55535">
        <ele>52</ele>
        <time>2020-12-19T12:30:22.000Z</time>
      </trkpt>
      <trkpt lat="47.20813" lon="-1.55532">
        <ele>52</ele>
        <time>2020-12-19T12:30:24.000Z</time>
      </trkpt>
      <trkpt lat="47.20802" lon="-1.55529">
        <ele>52</ele>
        <time>2020-12-19T12:30:26.000Z</time>
      </trkpt>
      <trkpt lat="47.20791" lon="-1.55527">
        <ele>52</ele>
        <time>2020-12-19T12:30:28.000Z</time>
      </trkpt>
      <trkpt lat="47.2078" lon="-1.55525">
        <ele>52</ele>
        <time>2020-12-19T12:30:30.000Z</time>
      </trkpt>
      <trkpt lat="47.2077" lon="-1.55523">
        <ele>51</ele>
        <time>2020-12-19T12:30:32.000Z</time>
      </trkpt>
      <trkpt lat="47.2076" lon="-1.55521">
        <ele>51</ele>
        <time>2020-12-19T12:30:34.000Z</time>
      </trkpt>
      <trkpt lat="47.20749" lon="-1.55518">
        <ele>51</ele>
        <time>2020-12-19T12:30:37.000Z</time>
      </trkpt>
      <trkpt lat="47.20738" lon="-1.55518">
        <ele>51</ele>
        <time>2020-12-19T12:30:41.000Z</time>
      </trkpt>
      <trkpt lat="47.20737" lon="-1.55533">
        <ele>51</ele>
        <time>2020-12-19T12:30:45.000Z</time>
      </trkpt>
      <trkpt lat="47.20736" lon="-1.55547">
        <ele>51</ele>
        <time>2020-12-19T12:30:48.000Z</time>
      </trkpt>
      <trkpt lat="47.20738" lon="-1.55563">
        <ele>51</ele>
        <time>2020-12-19T12:30:51.000Z</time>
      </trkpt>
      <trkpt lat="47.20731" lon="-1.55573">
        <ele>51</ele>
        <time>2020-12-19T12:30:56.000Z</time>
      </trkpt>
      <trkpt lat="47.20718" lon="-1.55574">
        <ele>51</ele>
        <time>2020-12-19T12:30:59.000Z</time>
      </trkpt>
      <trkpt lat="47.20709" lon="-1.55572">
        <ele>53</ele>
        <time>2020-12-19T12:31:01.000Z</time>
      </trkpt>
      <trkpt lat="47.20699" lon="-1.55569">
        <ele>55</ele>
        <time>2020-12-19T12:31:03.000Z</time>
      </trkpt>
      <trkpt lat="47.20688" lon="-1.5557">
        <ele>55</ele>
        <time>2020-12-19T12:31:05.000Z</time>
      </trkpt>
      <trkpt lat="47.20679" lon="-1.55563">
        <ele>56</ele>
        <time>2020-12-19T12:31:07.000Z</time>
      </trkpt>
      <trkpt lat="47.20677" lon="-1.55549">
        <ele>55</ele>
        <time>2020-12-19T12:31:11.000Z</time>
      </trkpt>
      <trkpt lat="47.20666" lon="-1.55544">
        <ele>56</ele>
        <time>2020-12-19T12:31:14.000Z</time>
      </trkpt>
      <trkpt lat="47.20656" lon="-1.55544">
        <ele>56</ele>
        <time>2020-12-19T12:31:16.000Z</time>
      </trkpt>
      <trkpt lat="47.20647" lon="-1.55543">
        <ele>56</ele>
        <time>2020-12-19T12:31:20.000Z</time>
      </trkpt>
      <trkpt lat="47.20646" lon="-1.5553">
        <ele>57</ele>
        <time>2020-12-19T12:31:25.000Z</time>
      </trkpt>
      <trkpt lat="47.20647" lon="-1.55514">
        <ele>56</ele>
        <time>2020-12-19T12:31:27.000Z</time>
      </trkpt>
      <trkpt lat="47.20641" lon="-1.55498">
        <ele>56</ele>
        <time>2020-12-19T12:31:30.000Z</time>
      </trkpt>
      <trkpt lat="47.20629" lon="-1.55494">
        <ele>55</ele>
        <time>2020-12-19T12:31:33.000Z</time>
      </trkpt>
      <trkpt lat="47.20618" lon="-1.55493">
        <ele>55</ele>
        <time>2020-12-19T12:31:36.000Z</time>
      </trkpt>
      <trkpt lat="47.20609" lon="-1.55491">
        <ele>55</ele>
        <time>2020-12-19T12:31:38.000Z</time>
      </trkpt>
      <trkpt lat="47.20597" lon="-1.55489">
        <ele>54</ele>
        <time>2020-12-19T12:31:40.000Z</time>
      </trkpt>
      <trkpt lat="47.20587" lon="-1.55487">
        <ele>55</ele>
        <time>2020-12-19T12:31:42.000Z</time>
      </trkpt>
      <trkpt lat="47.20577" lon="-1.55486">
        <ele>53</ele>
        <time>2020-12-19T12:31:44.000Z</time>
      </trkpt>
      <trkpt lat="47.20567" lon="-1.55488">
        <ele>53</ele>
        <time>2020-12-19T12:31:49.000Z</time>
      </trkpt>
      <trkpt lat="47.20555" lon="-1.55496">
        <ele>52</ele>
        <time>2020-12-19T12:31:55.000Z</time>
      </trkpt>
      <trkpt lat="47.20545" lon="-1.55507">
        <ele>52</ele>
        <time>2020-12-19T12:31:57.000Z</time>
      </trkpt>
      <trkpt lat="47.20531" lon="-1.55508">
        <ele>53</ele>
        <time>2020-12-19T12:31:59.000Z</time>
      </trkpt>
      <trkpt lat="47.20516" lon="-1.55497">
        <ele>53</ele>
        <time>2020-12-19T12:32:01.000Z</time>
      </trkpt>
      <trkpt lat="47.20506" lon="-1.55481">
        <ele>53</ele>
        <time>2020-12-19T12:32:03.000Z</time>
      </trkpt>
      <trkpt lat="47.20502" lon="-1.55461">
        <ele>54</ele>
        <time>2020-12-19T12:32:05.000Z</time>
      </trkpt>
      <trkpt lat="47.20505" lon="-1.55442">
        <ele>53</ele>
        <time>2020-12-19T12:32:07.000Z</time>
      </trkpt>
      <trkpt lat="47.20505" lon="-1.55428">
        <ele>52</ele>
        <time>2020-12-19T12:32:09.000Z</time>
      </trkpt>
      <trkpt lat="47.20502" lon="-1.55414">
        <ele>52</ele>
        <time>2020-12-19T12:32:11.000Z</time>
      </trkpt>
      <trkpt lat="47.20495" lon="-1.55403">
        <ele>51</ele>
        <time>2020-12-19T12:32:13.000Z</time>
      </trkpt>
      <trkpt lat="47.20489" lon="-1.55392">
        <ele>52</ele>
        <time>2020-12-19T12:32:15.000Z</time>
      </trkpt>
      <trkpt lat="47.20483" lon="-1.55382">
        <ele>51</ele>
        <time>2020-12-19T12:32:18.000Z</time>
      </trkpt>
      <trkpt lat="47.20477" lon="-1.55371">
        <ele>51</ele>
        <time>2020-12-19T12:32:22.000Z</time>
      </trkpt>
      <trkpt lat="47.20468" lon="-1.55361">
        <ele>50</ele>
        <time>2020-12-19T12:32:29.000Z</time>
      </trkpt>
      <trkpt lat="47.20462" lon="-1.55342">
        <ele>52</ele>
        <time>2020-12-19T12:32:32.000Z</time>
      </trkpt>
      <trkpt lat="47.20453" lon="-1.55325">
        <ele>53</ele>
        <time>2020-12-19T12:32:34.000Z</time>
      </trkpt>
      <trkpt lat="47.20444" lon="-1.55308">
        <ele>53</ele>
        <time>2020-12-19T12:32:36.000Z</time>
      </trkpt>
      <trkpt lat="47.20435" lon="-1.55292">
        <ele>52</ele>
        <time>2020-12-19T12:32:38.000Z</time>
      </trkpt>
      <trkpt lat="47.20425" lon="-1.55274">
        <ele>52</ele>
        <time>2020-12-19T12:32:40.000Z</time>
      </trkpt>
      <trkpt lat="47.20417" lon="-1.55255">
        <ele>52</ele>
        <time>2020-12-19T12:32:42.000Z</time>
      </trkpt>
      <trkpt lat="47.20409" lon="-1.55237">
        <ele>52</ele>
        <time>2020-12-19T12:32:44.000Z</time>
      </trkpt>
      <trkpt lat="47.20402" lon="-1.5522">
        <ele>52</ele>
        <time>2020-12-19T12:32:46.000Z</time>
      </trkpt>
      <trkpt lat="47.20395" lon="-1.55202">
        <ele>52</ele>
        <time>2020-12-19T12:32:48.000Z</time>
      </trkpt>
      <trkpt lat="47.20388" lon="-1.55192">
        <ele>52</ele>
        <time>2020-12-19T12:32:50.000Z</time>
      </trkpt>
      <trkpt lat="47.20378" lon="-1.55185">
        <ele>52</ele>
        <time>2020-12-19T12:32:53.000Z</time>
      </trkpt>
      <trkpt lat="47.20366" lon="-1.55194">
        <ele>54</ele>
        <time>2020-12-19T12:32:56.000Z</time>
      </trkpt>
      <trkpt lat="47.20358" lon="-1.55208">
        <ele>52</ele>
        <time>2020-12-19T12:32:58.000Z</time>
      </trkpt>
      <trkpt lat="47.20348" lon="-1.55221">
        <ele>52</ele>
        <time>2020-12-19T12:33:00.000Z</time>
      </trkpt>
      <trkpt lat="47.20337" lon="-1.55235">
        <ele>52</ele>
        <time>2020-12-19T12:33:02.000Z</time>
      </trkpt>
      <trkpt lat="47.20325" lon="-1.55249">
        <ele>52</ele>
        <time>2020-12-19T12:33:04.000Z</time>
      </trkpt>
      <trkpt lat="47.20316" lon="-1.55262">
        <ele>54</ele>
        <time>2020-12-19T12:33:06.000Z</time>
      </trkpt>
      <trkpt lat="47.20307" lon="-1.55274">
        <ele>55</ele>
        <time>2020-12-19T12:33:08.000Z</time>
      </trkpt>
      <trkpt lat="47.20297" lon="-1.55286">
        <ele>55</ele>
        <time>2020-12-19T12:33:10.000Z</time>
      </trkpt>
      <trkpt lat="47.20287" lon="-1.55298">
        <ele>56</ele>
        <time>2020-12-19T12:33:12.000Z</time>
      </trkpt>
      <trkpt lat="47.20277" lon="-1.55311">
        <ele>55</ele>
        <time>2020-12-19T12:33:14.000Z</time>
      </trkpt>
      <trkpt lat="47.20267" lon="-1.55325">
        <ele>56</ele>
        <time>2020-12-19T12:33:16.000Z</time>
      </trkpt>
      <trkpt lat="47.20258" lon="-1.55337">
        <ele>56</ele>
        <time>2020-12-19T12:33:18.000Z</time>
      </trkpt>
      <trkpt lat="47.20249" lon="-1.55351">
        <ele>55</ele>
        <time>2020-12-19T12:33:20.000Z</time>
      </trkpt>
      <trkpt lat="47.20239" lon="-1.55365">
        <ele>54</ele>
        <time>2020-12-19T12:33:22.000Z</time>
      </trkpt>
      <trkpt lat="47.20229" lon="-1.55378">
        <ele>54</ele>
        <time>2020-12-19T12:33:24.000Z</time>
      </trkpt>
      <trkpt lat="47.2022" lon="-1.55389">
        <ele>55</ele>
        <time>2020-12-19T12:33:26.000Z</time>
      </trkpt>
      <trkpt lat="47.20212" lon="-1.554">
        <ele>55</ele>
        <time>2020-12-19T12:33:28.000Z</time>
      </trkpt>
      <trkpt lat="47.20203" lon="-1.55411">
        <ele>55</ele>
        <time>2020-12-19T12:33:30.000Z</time>
      </trkpt>
      <trkpt lat="47.20196" lon="-1.55423">
        <ele>56</ele>
        <time>2020-12-19T12:33:32.000Z</time>
      </trkpt>
      <trkpt lat="47.20187" lon="-1.55433">
        <ele>55</ele>
        <time>2020-12-19T12:33:34.000Z</time>
      </trkpt>
      <trkpt lat="47.20176" lon="-1.55444">
        <ele>54</ele>
        <time>2020-12-19T12:33:36.000Z</time>
      </trkpt>
      <trkpt lat="47.20166" lon="-1.55455">
        <ele>54</ele>
        <time>2020-12-19T12:33:38.000Z</time>
      </trkpt>
      <trkpt lat="47.20157" lon="-1.55466">
        <ele>53</ele>
        <time>2020-12-19T12:33:40.000Z</time>
      </trkpt>
      <trkpt lat="47.20147" lon="-1.55478">
        <ele>53</ele>
        <time>2020-12-19T12:33:42.000Z</time>
      </trkpt>
      <trkpt lat="47.20138" lon="-1.55488">
        <ele>53</ele>
        <time>2020-12-19T12:33:44.000Z</time>
      </trkpt>
      <trkpt lat="47.20128" lon="-1.5549">
        <ele>53</ele>
        <time>2020-12-19T12:33:46.000Z</time>
      </trkpt>
      <trkpt lat="47.20118" lon="-1.55502">
        <ele>53</ele>
        <time>2020-12-19T12:33:48.000Z</time>
      </trkpt>
      <trkpt lat="47.20107" lon="-1.55516">
        <ele>53</ele>
        <time>2020-12-19T12:33:50.000Z</time>
      </trkpt>
      <trkpt lat="47.20097" lon="-1.55529">
        <ele>52</ele>
        <time>2020-12-19T12:33:52.000Z</time>
      </trkpt>
      <trkpt lat="47.20086" lon="-1.55544">
        <ele>52</ele>
        <time>2020-12-19T12:33:54.000Z</time>
      </trkpt>
      <trkpt lat="47.20076" lon="-1.55557">
        <ele>53</ele>
        <time>2020-12-19T12:33:56.000Z</time>
      </trkpt>
      <trkpt lat="47.20066" lon="-1.55571">
        <ele>52</ele>
        <time>2020-12-19T12:33:58.000Z</time>
      </trkpt>
      <trkpt lat="47.20056" lon="-1.55585">
        <ele>53</ele>
        <time>2020-12-19T12:34:00.000Z</time>
      </trkpt>
      <trkpt lat="47.20047" lon="-1.55601">
        <ele>53</ele>
        <time>2020-12-19T12:34:02.000Z</time>
      </trkpt>
      <trkpt lat="47.20037" lon="-1.55615">
        <ele>54</ele>
        <time>2020-12-19T12:34:04.000Z</time>
      </trkpt>
      <trkpt lat="47.20027" lon="-1.55626">
        <ele>55</ele>
        <time>2020-12-19T12:34:06.000Z</time>
      </trkpt>
      <trkpt lat="47.20016" lon="-1.55634">
        <ele>55</ele>
        <time>2020-12-19T12:34:08.000Z</time>
      </trkpt>
      <trkpt lat="47.20003" lon="-1.55635">
        <ele>55</ele>
        <time>2020-12-19T12:34:10.000Z</time>
      </trkpt>
      <trkpt lat="47.19991" lon="-1.55642">
        <ele>55</ele>
        <time>2020-12-19T12:34:12.000Z</time>
      </trkpt>
      <trkpt lat="47.19979" lon="-1.5565">
        <ele>54</ele>
        <time>2020-12-19T12:34:14.000Z</time>
      </trkpt>
      <trkpt lat="47.19968" lon="-1.55656">
        <ele>54</ele>
        <time>2020-12-19T12:34:16.000Z</time>
      </trkpt>
      <trkpt lat="47.19957" lon="-1.55665">
        <ele>54</ele>
        <time>2020-12-19T12:34:18.000Z</time>
      </trkpt>
      <trkpt lat="47.19949" lon="-1.55675">
        <ele>53</ele>
        <time>2020-12-19T12:34:20.000Z</time>
      </trkpt>
      <trkpt lat="47.19941" lon="-1.55689">
        <ele>53</ele>
        <time>2020-12-19T12:34:22.000Z</time>
      </trkpt>
      <trkpt lat="47.19935" lon="-1.55705">
        <ele>53</ele>
        <time>2020-12-19T12:34:24.000Z</time>
      </trkpt>
      <trkpt lat="47.19932" lon="-1.55721">
        <ele>53</ele>
        <time>2020-12-19T12:34:26.000Z</time>
      </trkpt>
      <trkpt lat="47.19931" lon="-1.55738">
        <ele>52</ele>
        <time>2020-12-19T12:34:28.000Z</time>
      </trkpt>
      <trkpt lat="47.1993" lon="-1.55755">
        <ele>52</ele>
        <time>2020-12-19T12:34:30.000Z</time>
      </trkpt>
      <trkpt lat="47.1993" lon="-1.55772">
        <ele>53</ele>
        <time>2020-12-19T12:34:32.000Z</time>
      </trkpt>
      <trkpt lat="47.19931" lon="-1.55789">
        <ele>53</ele>
        <time>2020-12-19T12:34:34.000Z</time>
      </trkpt>
      <trkpt lat="47.19931" lon="-1.55806">
        <ele>53</ele>
        <time>2020-12-19T12:34:36.000Z</time>
      </trkpt>
      <trkpt lat="47.19932" lon="-1.55824">
        <ele>53</ele>
        <time>2020-12-19T12:34:38.000Z</time>
      </trkpt>
      <trkpt lat="47.19931" lon="-1.55841">
        <ele>54</ele>
        <time>2020-12-19T12:34:40.000Z</time>
      </trkpt>
      <trkpt lat="47.19932" lon="-1.55858">
        <ele>54</ele>
        <time>2020-12-19T12:34:42.000Z</time>
      </trkpt>
      <trkpt lat="47.19933" lon="-1.55874">
        <ele>53</ele>
        <time>2020-12-19T12:34:44.000Z</time>
      </trkpt>
      <trkpt lat="47.19933" lon="-1.5589">
        <ele>53</ele>
        <time>2020-12-19T12:34:46.000Z</time>
      </trkpt>
      <trkpt lat="47.19934" lon="-1.55907">
        <ele>54</ele>
        <time>2020-12-19T12:34:48.000Z</time>
      </trkpt>
      <trkpt lat="47.19933" lon="-1.55923">
        <ele>53</ele>
        <time>2020-12-19T12:34:50.000Z</time>
      </trkpt>
      <trkpt lat="47.19933" lon="-1.5594">
        <ele>53</ele>
        <time>2020-12-19T12:34:52.000Z</time>
      </trkpt>
      <trkpt lat="47.19933" lon="-1.55958">
        <ele>53</ele>
        <time>2020-12-19T12:34:54.000Z</time>
      </trkpt>
      <trkpt lat="47.19933" lon="-1.55975">
        <ele>53</ele>
        <time>2020-12-19T12:34:56.000Z</time>
      </trkpt>
      <trkpt lat="47.19933" lon="-1.55992">
        <ele>53</ele>
        <time>2020-12-19T12:34:58.000Z</time>
      </trkpt>
      <trkpt lat="47.19934" lon="-1.56008">
        <ele>53</ele>
        <time>2020-12-19T12:35:00.000Z</time>
      </trkpt>
      <trkpt lat="47.19933" lon="-1.56025">
        <ele>53</ele>
        <time>2020-12-19T12:35:02.000Z</time>
      </trkpt>
      <trkpt lat="47.19934" lon="-1.56042">
        <ele>53</ele>
        <time>2020-12-19T12:35:04.000Z</time>
      </trkpt>
      <trkpt lat="47.19935" lon="-1.56059">
        <ele>53</ele>
        <time>2020-12-19T12:35:06.000Z</time>
      </trkpt>
      <trkpt lat="47.19938" lon="-1.56075">
        <ele>53</ele>
        <time>2020-12-19T12:35:08.000Z</time>
      </trkpt>
      <trkpt lat="47.19943" lon="-1.5609">
        <ele>53</ele>
        <time>2020-12-19T12:35:10.000Z</time>
      </trkpt>
      <trkpt lat="47.1995" lon="-1.56103">
        <ele>53</ele>
        <time>2020-12-19T12:35:12.000Z</time>
      </trkpt>
      <trkpt lat="47.19955" lon="-1.56115">
        <ele>53</ele>
        <time>2020-12-19T12:35:14.000Z</time>
      </trkpt>
      <trkpt lat="47.19958" lon="-1.56131">
        <ele>54</ele>
        <time>2020-12-19T12:35:17.000Z</time>
      </trkpt>
      <trkpt lat="47.19965" lon="-1.56141">
        <ele>54</ele>
        <time>2020-12-19T12:35:21.000Z</time>
      </trkpt>
      <trkpt lat="47.19968" lon="-1.56158">
        <ele>54</ele>
        <time>2020-12-19T12:35:24.000Z</time>
      </trkpt>
      <trkpt lat="47.19959" lon="-1.56168">
        <ele>54</ele>
        <time>2020-12-19T12:35:27.000Z</time>
      </trkpt>
      <trkpt lat="47.19948" lon="-1.56171">
        <ele>55</ele>
        <time>2020-12-19T12:35:29.000Z</time>
      </trkpt>
      <trkpt lat="47.19937" lon="-1.56173">
        <ele>55</ele>
        <time>2020-12-19T12:35:31.000Z</time>
      </trkpt>
      <trkpt lat="47.19928" lon="-1.56175">
        <ele>56</ele>
        <time>2020-12-19T12:35:33.000Z</time>
      </trkpt>
      <trkpt lat="47.19918" lon="-1.56176">
        <ele>56</ele>
        <time>2020-12-19T12:35:35.000Z</time>
      </trkpt>
      <trkpt lat="47.19908" lon="-1.56178">
        <ele>56</ele>
        <time>2020-12-19T12:35:37.000Z</time>
      </trkpt>
      <trkpt lat="47.19898" lon="-1.56179">
        <ele>57</ele>
        <time>2020-12-19T12:35:39.000Z</time>
      </trkpt>
      <trkpt lat="47.19889" lon="-1.56181">
        <ele>57</ele>
        <time>2020-12-19T12:35:41.000Z</time>
      </trkpt>
      <trkpt lat="47.1988" lon="-1.56182">
        <ele>57</ele>
        <time>2020-12-19T12:35:43.000Z</time>
      </trkpt>
      <trkpt lat="47.19871" lon="-1.56183">
        <ele>57</ele>
        <time>2020-12-19T12:35:45.000Z</time>
      </trkpt>
      <trkpt lat="47.1986" lon="-1.56184">
        <ele>57</ele>
        <time>2020-12-19T12:35:47.000Z</time>
      </trkpt>
      <trkpt lat="47.1985" lon="-1.56186">
        <ele>58</ele>
        <time>2020-12-19T12:35:49.000Z</time>
      </trkpt>
      <trkpt lat="47.1984" lon="-1.56188">
        <ele>58</ele>
        <time>2020-12-19T12:35:51.000Z</time>
      </trkpt>
      <trkpt lat="47.1983" lon="-1.5619">
        <ele>58</ele>
        <time>2020-12-19T12:35:53.000Z</time>
      </trkpt>
      <trkpt lat="47.19821" lon="-1.56193">
        <ele>58</ele>
        <time>2020-12-19T12:35:55.000Z</time>
      </trkpt>
      <trkpt lat="47.19812" lon="-1.56195">
        <ele>58</ele>
        <time>2020-12-19T12:35:57.000Z</time>
      </trkpt>
      <trkpt lat="47.19802" lon="-1.56197">
        <ele>58</ele>
        <time>2020-12-19T12:35:59.000Z</time>
      </trkpt>
      <trkpt lat="47.19792" lon="-1.56198">
        <ele>58</ele>
        <time>2020-12-19T12:36:01.000Z</time>
      </trkpt>
      <trkpt lat="47.19783" lon="-1.562">
        <ele>57</ele>
        <time>2020-12-19T12:36:03.000Z</time>
      </trkpt>
      <trkpt lat="47.19773" lon="-1.56202">
        <ele>57</ele>
        <time>2020-12-19T12:36:05.000Z</time>
      </trkpt>
      <trkpt lat="47.19762" lon="-1.56204">
        <ele>57</ele>
        <time>2020-12-19T12:36:07.000Z</time>
      </trkpt>
      <trkpt lat="47.19752" lon="-1.56206">
        <ele>56</ele>
        <time>2020-12-19T12:36:09.000Z</time>
      </trkpt>
      <trkpt lat="47.19742" lon="-1.56208">
        <ele>56</ele>
        <time>2020-12-19T12:36:11.000Z</time>
      </trkpt>
      <trkpt lat="47.19731" lon="-1.5621">
        <ele>55</ele>
        <time>2020-12-19T12:36:13.000Z</time>
      </trkpt>
      <trkpt lat="47.19719" lon="-1.56212">
        <ele>55</ele>
        <time>2020-12-19T12:36:15.000Z</time>
      </trkpt>
      <trkpt lat="47.19708" lon="-1.56213">
        <ele>54</ele>
        <time>2020-12-19T12:36:17.000Z</time>
      </trkpt>
      <trkpt lat="47.19696" lon="-1.56215">
        <ele>53</ele>
        <time>2020-12-19T12:36:19.000Z</time>
      </trkpt>
      <trkpt lat="47.19684" lon="-1.56218">
        <ele>53</ele>
        <time>2020-12-19T12:36:21.000Z</time>
      </trkpt>
      <trkpt lat="47.19671" lon="-1.56223">
        <ele>52</ele>
        <time>2020-12-19T12:36:23.000Z</time>
      </trkpt>
      <trkpt lat="47.19658" lon="-1.56227">
        <ele>52</ele>
        <time>2020-12-19T12:36:25.000Z</time>
      </trkpt>
      <trkpt lat="47.19645" lon="-1.56232">
        <ele>51</ele>
        <time>2020-12-19T12:36:27.000Z</time>
      </trkpt>
      <trkpt lat="47.19638" lon="-1.56244">
        <ele>51</ele>
        <time>2020-12-19T12:36:29.000Z</time>
      </trkpt>
      <trkpt lat="47.19635" lon="-1.56263">
        <ele>51</ele>
        <time>2020-12-19T12:36:31.000Z</time>
      </trkpt>
      <trkpt lat="47.19634" lon="-1.56282">
        <ele>51</ele>
        <time>2020-12-19T12:36:33.000Z</time>
      </trkpt>
      <trkpt lat="47.19634" lon="-1.56301">
        <ele>51</ele>
        <time>2020-12-19T12:36:35.000Z</time>
      </trkpt>
      <trkpt lat="47.19633" lon="-1.56319">
        <ele>50</ele>
        <time>2020-12-19T12:36:37.000Z</time>
      </trkpt>
      <trkpt lat="47.19632" lon="-1.56337">
        <ele>50</ele>
        <time>2020-12-19T12:36:39.000Z</time>
      </trkpt>
      <trkpt lat="47.19631" lon="-1.56355">
        <ele>51</ele>
        <time>2020-12-19T12:36:41.000Z</time>
      </trkpt>
      <trkpt lat="47.19631" lon="-1.56374">
        <ele>51</ele>
        <time>2020-12-19T12:36:43.000Z</time>
      </trkpt>
      <trkpt lat="47.19631" lon="-1.56392">
        <ele>51</ele>
        <time>2020-12-19T12:36:45.000Z</time>
      </trkpt>
      <trkpt lat="47.19632" lon="-1.56411">
        <ele>51</ele>
        <time>2020-12-19T12:36:47.000Z</time>
      </trkpt>
      <trkpt lat="47.19633" lon="-1.5643">
        <ele>51</ele>
        <time>2020-12-19T12:36:49.000Z</time>
      </trkpt>
      <trkpt lat="47.19634" lon="-1.56449">
        <ele>52</ele>
        <time>2020-12-19T12:36:51.000Z</time>
      </trkpt>
      <trkpt lat="47.19634" lon="-1.56468">
        <ele>52</ele>
        <time>2020-12-19T12:36:53.000Z</time>
      </trkpt>
      <trkpt lat="47.19635" lon="-1.56487">
        <ele>52</ele>
        <time>2020-12-19T12:36:55.000Z</time>
      </trkpt>
      <trkpt lat="47.19635" lon="-1.56505">
        <ele>52</ele>
        <time>2020-12-19T12:36:57.000Z</time>
      </trkpt>
      <trkpt lat="47.19635" lon="-1.56523">
        <ele>52</ele>
        <time>2020-12-19T12:36:59.000Z</time>
      </trkpt>
      <trkpt lat="47.19635" lon="-1.56539">
        <ele>53</ele>
        <time>2020-12-19T12:37:01.000Z</time>
      </trkpt>
      <trkpt lat="47.19634" lon="-1.56557">
        <ele>53</ele>
        <time>2020-12-19T12:37:03.000Z</time>
      </trkpt>
      <trkpt lat="47.19634" lon="-1.56576">
        <ele>54</ele>
        <time>2020-12-19T12:37:05.000Z</time>
      </trkpt>
      <trkpt lat="47.19634" lon="-1.56594">
        <ele>54</ele>
        <time>2020-12-19T12:37:07.000Z</time>
      </trkpt>
      <trkpt lat="47.19634" lon="-1.56612">
        <ele>54</ele>
        <time>2020-12-19T12:37:09.000Z</time>
      </trkpt>
      <trkpt lat="47.19632" lon="-1.56629">
        <ele>54</ele>
        <time>2020-12-19T12:37:11.000Z</time>
      </trkpt>
      <trkpt lat="47.19631" lon="-1.56646">
        <ele>53</ele>
        <time>2020-12-19T12:37:13.000Z</time>
      </trkpt>
      <trkpt lat="47.1963" lon="-1.56664">
        <ele>53</ele>
        <time>2020-12-19T12:37:15.000Z</time>
      </trkpt>
      <trkpt lat="47.19629" lon="-1.56682">
        <ele>53</ele>
        <time>2020-12-19T12:37:17.000Z</time>
      </trkpt>
      <trkpt lat="47.19628" lon="-1.56701">
        <ele>53</ele>
        <time>2020-12-19T12:37:19.000Z</time>
      </trkpt>
      <trkpt lat="47.19627" lon="-1.56719">
        <ele>52</ele>
        <time>2020-12-19T12:37:21.000Z</time>
      </trkpt>
      <trkpt lat="47.19626" lon="-1.56739">
        <ele>52</ele>
        <time>2020-12-19T12:37:23.000Z</time>
      </trkpt>
      <trkpt lat="47.19624" lon="-1.56758">
        <ele>52</ele>
        <time>2020-12-19T12:37:25.000Z</time>
      </trkpt>
      <trkpt lat="47.19622" lon="-1.56776">
        <ele>52</ele>
        <time>2020-12-19T12:37:27.000Z</time>
      </trkpt>
      <trkpt lat="47.19621" lon="-1.56794">
        <ele>52</ele>
        <time>2020-12-19T12:37:29.000Z</time>
      </trkpt>
      <trkpt lat="47.1962" lon="-1.56812">
        <ele>52</ele>
        <time>2020-12-19T12:37:31.000Z</time>
      </trkpt>
      <trkpt lat="47.19619" lon="-1.5683">
        <ele>52</ele>
        <time>2020-12-19T12:37:33.000Z</time>
      </trkpt>
      <trkpt lat="47.19618" lon="-1.56848">
        <ele>52</ele>
        <time>2020-12-19T12:37:35.000Z</time>
      </trkpt>
      <trkpt lat="47.19617" lon="-1.56866">
        <ele>52</ele>
        <time>2020-12-19T12:37:37.000Z</time>
      </trkpt>
      <trkpt lat="47.19616" lon="-1.56884">
        <ele>52</ele>
        <time>2020-12-19T12:37:39.000Z</time>
      </trkpt>
      <trkpt lat="47.19615" lon="-1.56902">
        <ele>52</ele>
        <time>2020-12-19T12:37:41.000Z</time>
      </trkpt>
      <trkpt lat="47.19613" lon="-1.56921">
        <ele>52</ele>
        <time>2020-12-19T12:37:43.000Z</time>
      </trkpt>
      <trkpt lat="47.19612" lon="-1.56939">
        <ele>52</ele>
        <time>2020-12-19T12:37:45.000Z</time>
      </trkpt>
      <trkpt lat="47.19612" lon="-1.56955">
        <ele>52</ele>
        <time>2020-12-19T12:37:47.000Z</time>
      </trkpt>
      <trkpt lat="47.1961" lon="-1.56972">
        <ele>53</ele>
        <time>2020-12-19T12:37:49.000Z</time>
      </trkpt>
      <trkpt lat="47.19609" lon="-1.56989">
        <ele>53</ele>
        <time>2020-12-19T12:37:51.000Z</time>
      </trkpt>
      <trkpt lat="47.19608" lon="-1.57007">
        <ele>53</ele>
        <time>2020-12-19T12:37:53.000Z</time>
      </trkpt>
      <trkpt lat="47.19607" lon="-1.57025">
        <ele>53</ele>
        <time>2020-12-19T12:37:55.000Z</time>
      </trkpt>
      <trkpt lat="47.19607" lon="-1.57043">
        <ele>52</ele>
        <time>2020-12-19T12:37:57.000Z</time>
      </trkpt>
      <trkpt lat="47.19606" lon="-1.57061">
        <ele>52</ele>
        <time>2020-12-19T12:37:59.000Z</time>
      </trkpt>
      <trkpt lat="47.19605" lon="-1.57079">
        <ele>51</ele>
        <time>2020-12-19T12:38:01.000Z</time>
      </trkpt>
      <trkpt lat="47.19605" lon="-1.57096">
        <ele>51</ele>
        <time>2020-12-19T12:38:03.000Z</time>
      </trkpt>
      <trkpt lat="47.19603" lon="-1.57113">
        <ele>51</ele>
        <time>2020-12-19T12:38:05.000Z</time>
      </trkpt>
      <trkpt lat="47.19602" lon="-1.5713">
        <ele>52</ele>
        <time>2020-12-19T12:38:07.000Z</time>
      </trkpt>
      <trkpt lat="47.19599" lon="-1.57147">
        <ele>51</ele>
        <time>2020-12-19T12:38:09.000Z</time>
      </trkpt>
      <trkpt lat="47.19598" lon="-1.57164">
        <ele>51</ele>
        <time>2020-12-19T12:38:11.000Z</time>
      </trkpt>
      <trkpt lat="47.19598" lon="-1.57179">
        <ele>51</ele>
        <time>2020-12-19T12:38:13.000Z</time>
      </trkpt>
      <trkpt lat="47.19597" lon="-1.57198">
        <ele>51</ele>
        <time>2020-12-19T12:38:15.000Z</time>
      </trkpt>
      <trkpt lat="47.19596" lon="-1.57217">
        <ele>50</ele>
        <time>2020-12-19T12:38:17.000Z</time>
      </trkpt>
      <trkpt lat="47.19594" lon="-1.57235">
        <ele>51</ele>
        <time>2020-12-19T12:38:19.000Z</time>
      </trkpt>
      <trkpt lat="47.19591" lon="-1.57253">
        <ele>50</ele>
        <time>2020-12-19T12:38:21.000Z</time>
      </trkpt>
      <trkpt lat="47.1959" lon="-1.57271">
        <ele>51</ele>
        <time>2020-12-19T12:38:23.000Z</time>
      </trkpt>
      <trkpt lat="47.1959" lon="-1.5729">
        <ele>51</ele>
        <time>2020-12-19T12:38:25.000Z</time>
      </trkpt>
      <trkpt lat="47.19589" lon="-1.57307">
        <ele>51</ele>
        <time>2020-12-19T12:38:27.000Z</time>
      </trkpt>
      <trkpt lat="47.19587" lon="-1.57323">
        <ele>50</ele>
        <time>2020-12-19T12:38:29.000Z</time>
      </trkpt>
      <trkpt lat="47.19584" lon="-1.5734">
        <ele>50</ele>
        <time>2020-12-19T12:38:31.000Z</time>
      </trkpt>
      <trkpt lat="47.1958" lon="-1.57357">
        <ele>49</ele>
        <time>2020-12-19T12:38:33.000Z</time>
      </trkpt>
      <trkpt lat="47.19577" lon="-1.57373">
        <ele>49</ele>
        <time>2020-12-19T12:38:35.000Z</time>
      </trkpt>
      <trkpt lat="47.19574" lon="-1.5739">
        <ele>49</ele>
        <time>2020-12-19T12:38:37.000Z</time>
      </trkpt>
      <trkpt lat="47.19571" lon="-1.57407">
        <ele>49</ele>
        <time>2020-12-19T12:38:39.000Z</time>
      </trkpt>
      <trkpt lat="47.19568" lon="-1.57424">
        <ele>49</ele>
        <time>2020-12-19T12:38:41.000Z</time>
      </trkpt>
      <trkpt lat="47.19565" lon="-1.5744">
        <ele>49</ele>
        <time>2020-12-19T12:38:43.000Z</time>
      </trkpt>
      <trkpt lat="47.19562" lon="-1.57456">
        <ele>49</ele>
        <time>2020-12-19T12:38:45.000Z</time>
      </trkpt>
      <trkpt lat="47.19559" lon="-1.57472">
        <ele>49</ele>
        <time>2020-12-19T12:38:47.000Z</time>
      </trkpt>
      <trkpt lat="47.19557" lon="-1.57488">
        <ele>48</ele>
        <time>2020-12-19T12:38:49.000Z</time>
      </trkpt>
      <trkpt lat="47.19553" lon="-1.57506">
        <ele>49</ele>
        <time>2020-12-19T12:38:51.000Z</time>
      </trkpt>
      <trkpt lat="47.19549" lon="-1.57524">
        <ele>49</ele>
        <time>2020-12-19T12:38:53.000Z</time>
      </trkpt>
      <trkpt lat="47.19546" lon="-1.5754">
        <ele>49</ele>
        <time>2020-12-19T12:38:55.000Z</time>
      </trkpt>
      <trkpt lat="47.19543" lon="-1.57557">
        <ele>50</ele>
        <time>2020-12-19T12:38:57.000Z</time>
      </trkpt>
      <trkpt lat="47.1954" lon="-1.57573">
        <ele>49</ele>
        <time>2020-12-19T12:38:59.000Z</time>
      </trkpt>
      <trkpt lat="47.19536" lon="-1.5759">
        <ele>50</ele>
        <time>2020-12-19T12:39:01.000Z</time>
      </trkpt>
      <trkpt lat="47.19531" lon="-1.57608">
        <ele>50</ele>
        <time>2020-12-19T12:39:03.000Z</time>
      </trkpt>
      <trkpt lat="47.19527" lon="-1.57624">
        <ele>50</ele>
        <time>2020-12-19T12:39:05.000Z</time>
      </trkpt>
      <trkpt lat="47.19523" lon="-1.5764">
        <ele>49</ele>
        <time>2020-12-19T12:39:07.000Z</time>
      </trkpt>
      <trkpt lat="47.1952" lon="-1.57658">
        <ele>50</ele>
        <time>2020-12-19T12:39:09.000Z</time>
      </trkpt>
      <trkpt lat="47.19517" lon="-1.57675">
        <ele>50</ele>
        <time>2020-12-19T12:39:11.000Z</time>
      </trkpt>
      <trkpt lat="47.19513" lon="-1.57692">
        <ele>50</ele>
        <time>2020-12-19T12:39:13.000Z</time>
      </trkpt>
      <trkpt lat="47.1951" lon="-1.57709">
        <ele>50</ele>
        <time>2020-12-19T12:39:15.000Z</time>
      </trkpt>
      <trkpt lat="47.19506" lon="-1.57725">
        <ele>51</ele>
        <time>2020-12-19T12:39:17.000Z</time>
      </trkpt>
      <trkpt lat="47.19502" lon="-1.57742">
        <ele>51</ele>
        <time>2020-12-19T12:39:19.000Z</time>
      </trkpt>
      <trkpt lat="47.19499" lon="-1.57757">
        <ele>51</ele>
        <time>2020-12-19T12:39:21.000Z</time>
      </trkpt>
      <trkpt lat="47.19496" lon="-1.57774">
        <ele>51</ele>
        <time>2020-12-19T12:39:23.000Z</time>
      </trkpt>
      <trkpt lat="47.19492" lon="-1.57791">
        <ele>51</ele>
        <time>2020-12-19T12:39:25.000Z</time>
      </trkpt>
      <trkpt lat="47.19489" lon="-1.57807">
        <ele>50</ele>
        <time>2020-12-19T12:39:27.000Z</time>
      </trkpt>
      <trkpt lat="47.19485" lon="-1.57825">
        <ele>50</ele>
        <time>2020-12-19T12:39:29.000Z</time>
      </trkpt>
      <trkpt lat="47.19483" lon="-1.5784">
        <ele>50</ele>
        <time>2020-12-19T12:39:31.000Z</time>
      </trkpt>
      <trkpt lat="47.19481" lon="-1.57857">
        <ele>50</ele>
        <time>2020-12-19T12:39:33.000Z</time>
      </trkpt>
      <trkpt lat="47.19479" lon="-1.57874">
        <ele>50</ele>
        <time>2020-12-19T12:39:35.000Z</time>
      </trkpt>
      <trkpt lat="47.19475" lon="-1.57892">
        <ele>49</ele>
        <time>2020-12-19T12:39:37.000Z</time>
      </trkpt>
      <trkpt lat="47.19472" lon="-1.5791">
        <ele>49</ele>
        <time>2020-12-19T12:39:39.000Z</time>
      </trkpt>
      <trkpt lat="47.1947" lon="-1.57928">
        <ele>49</ele>
        <time>2020-12-19T12:39:41.000Z</time>
      </trkpt>
      <trkpt lat="47.19468" lon="-1.57946">
        <ele>49</ele>
        <time>2020-12-19T12:39:43.000Z</time>
      </trkpt>
      <trkpt lat="47.19466" lon="-1.57962">
        <ele>48</ele>
        <time>2020-12-19T12:39:45.000Z</time>
      </trkpt>
      <trkpt lat="47.19465" lon="-1.57977">
        <ele>48</ele>
        <time>2020-12-19T12:39:47.000Z</time>
      </trkpt>
      <trkpt lat="47.19464" lon="-1.57994">
        <ele>47</ele>
        <time>2020-12-19T12:39:49.000Z</time>
      </trkpt>
      <trkpt lat="47.19463" lon="-1.58011">
        <ele>48</ele>
        <time>2020-12-19T12:39:51.000Z</time>
      </trkpt>
      <trkpt lat="47.19461" lon="-1.58028">
        <ele>48</ele>
        <time>2020-12-19T12:39:53.000Z</time>
      </trkpt>
      <trkpt lat="47.1946" lon="-1.58044">
        <ele>48</ele>
        <time>2020-12-19T12:39:55.000Z</time>
      </trkpt>
      <trkpt lat="47.19458" lon="-1.58059">
        <ele>47</ele>
        <time>2020-12-19T12:39:57.000Z</time>
      </trkpt>
      <trkpt lat="47.19456" lon="-1.58074">
        <ele>47</ele>
        <time>2020-12-19T12:39:59.000Z</time>
      </trkpt>
      <trkpt lat="47.19453" lon="-1.58094">
        <ele>47</ele>
        <time>2020-12-19T12:40:02.000Z</time>
      </trkpt>
      <trkpt lat="47.19444" lon="-1.58106">
        <ele>48</ele>
        <time>2020-12-19T12:40:04.000Z</time>
      </trkpt>
      <trkpt lat="47.19434" lon="-1.58117">
        <ele>49</ele>
        <time>2020-12-19T12:40:06.000Z</time>
      </trkpt>
      <trkpt lat="47.19423" lon="-1.58128">
        <ele>49</ele>
        <time>2020-12-19T12:40:08.000Z</time>
      </trkpt>
      <trkpt lat="47.19414" lon="-1.5814">
        <ele>49</ele>
        <time>2020-12-19T12:40:10.000Z</time>
      </trkpt>
      <trkpt lat="47.19406" lon="-1.58154">
        <ele>49</ele>
        <time>2020-12-19T12:40:12.000Z</time>
      </trkpt>
      <trkpt lat="47.19398" lon="-1.58167">
        <ele>49</ele>
        <time>2020-12-19T12:40:14.000Z</time>
      </trkpt>
      <trkpt lat="47.19392" lon="-1.58181">
        <ele>50</ele>
        <time>2020-12-19T12:40:16.000Z</time>
      </trkpt>
      <trkpt lat="47.19386" lon="-1.58196">
        <ele>50</ele>
        <time>2020-12-19T12:40:18.000Z</time>
      </trkpt>
      <trkpt lat="47.19379" lon="-1.58211">
        <ele>50</ele>
        <time>2020-12-19T12:40:20.000Z</time>
      </trkpt>
      <trkpt lat="47.19374" lon="-1.58227">
        <ele>51</ele>
        <time>2020-12-19T12:40:22.000Z</time>
      </trkpt>
      <trkpt lat="47.19368" lon="-1.58242">
        <ele>50</ele>
        <time>2020-12-19T12:40:24.000Z</time>
      </trkpt>
      <trkpt lat="47.19361" lon="-1.58258">
        <ele>50</ele>
        <time>2020-12-19T12:40:26.000Z</time>
      </trkpt>
      <trkpt lat="47.19355" lon="-1.58273">
        <ele>49</ele>
        <time>2020-12-19T12:40:28.000Z</time>
      </trkpt>
      <trkpt lat="47.19346" lon="-1.58284">
        <ele>50</ele>
        <time>2020-12-19T12:40:30.000Z</time>
      </trkpt>
      <trkpt lat="47.19336" lon="-1.58293">
        <ele>50</ele>
        <time>2020-12-19T12:40:32.000Z</time>
      </trkpt>
      <trkpt lat="47.19325" lon="-1.58303">
        <ele>49</ele>
        <time>2020-12-19T12:40:34.000Z</time>
      </trkpt>
      <trkpt lat="47.19315" lon="-1.58313">
        <ele>49</ele>
        <time>2020-12-19T12:40:36.000Z</time>
      </trkpt>
      <trkpt lat="47.19306" lon="-1.58322">
        <ele>50</ele>
        <time>2020-12-19T12:40:38.000Z</time>
      </trkpt>
      <trkpt lat="47.19296" lon="-1.58331">
        <ele>49</ele>
        <time>2020-12-19T12:40:40.000Z</time>
      </trkpt>
      <trkpt lat="47.19287" lon="-1.5834">
        <ele>50</ele>
        <time>2020-12-19T12:40:42.000Z</time>
      </trkpt>
      <trkpt lat="47.19277" lon="-1.5835">
        <ele>49</ele>
        <time>2020-12-19T12:40:44.000Z</time>
      </trkpt>
      <trkpt lat="47.19268" lon="-1.58359">
        <ele>50</ele>
        <time>2020-12-19T12:40:46.000Z</time>
      </trkpt>
      <trkpt lat="47.19258" lon="-1.58368">
        <ele>50</ele>
        <time>2020-12-19T12:40:48.000Z</time>
      </trkpt>
      <trkpt lat="47.19249" lon="-1.58377">
        <ele>50</ele>
        <time>2020-12-19T12:40:50.000Z</time>
      </trkpt>
      <trkpt lat="47.19239" lon="-1.58386">
        <ele>51</ele>
        <time>2020-12-19T12:40:52.000Z</time>
      </trkpt>
      <trkpt lat="47.1923" lon="-1.58394">
        <ele>50</ele>
        <time>2020-12-19T12:40:54.000Z</time>
      </trkpt>
      <trkpt lat="47.1922" lon="-1.58402">
        <ele>50</ele>
        <time>2020-12-19T12:40:56.000Z</time>
      </trkpt>
      <trkpt lat="47.19211" lon="-1.5841">
        <ele>50</ele>
        <time>2020-12-19T12:40:58.000Z</time>
      </trkpt>
      <trkpt lat="47.19202" lon="-1.58419">
        <ele>50</ele>
        <time>2020-12-19T12:41:00.000Z</time>
      </trkpt>
      <trkpt lat="47.19192" lon="-1.58427">
        <ele>49</ele>
        <time>2020-12-19T12:41:02.000Z</time>
      </trkpt>
      <trkpt lat="47.19183" lon="-1.58435">
        <ele>49</ele>
        <time>2020-12-19T12:41:04.000Z</time>
      </trkpt>
      <trkpt lat="47.19175" lon="-1.58443">
        <ele>49</ele>
        <time>2020-12-19T12:41:06.000Z</time>
      </trkpt>
      <trkpt lat="47.19166" lon="-1.58452">
        <ele>48</ele>
        <time>2020-12-19T12:41:08.000Z</time>
      </trkpt>
      <trkpt lat="47.19159" lon="-1.58461">
        <ele>48</ele>
        <time>2020-12-19T12:41:10.000Z</time>
      </trkpt>
      <trkpt lat="47.1915" lon="-1.5847">
        <ele>48</ele>
        <time>2020-12-19T12:41:13.000Z</time>
      </trkpt>
      <trkpt lat="47.19142" lon="-1.5848">
        <ele>47</ele>
        <time>2020-12-19T12:41:16.000Z</time>
      </trkpt>
      <trkpt lat="47.19133" lon="-1.58488">
        <ele>48</ele>
        <time>2020-12-19T12:41:18.000Z</time>
      </trkpt>
      <trkpt lat="47.19123" lon="-1.58497">
        <ele>48</ele>
        <time>2020-12-19T12:41:20.000Z</time>
      </trkpt>
      <trkpt lat="47.19114" lon="-1.58506">
        <ele>48</ele>
        <time>2020-12-19T12:41:22.000Z</time>
      </trkpt>
      <trkpt lat="47.19104" lon="-1.58515">
        <ele>48</ele>
        <time>2020-12-19T12:41:24.000Z</time>
      </trkpt>
      <trkpt lat="47.19095" lon="-1.58524">
        <ele>48</ele>
        <time>2020-12-19T12:41:26.000Z</time>
      </trkpt>
      <trkpt lat="47.19086" lon="-1.58533">
        <ele>48</ele>
        <time>2020-12-19T12:41:28.000Z</time>
      </trkpt>
      <trkpt lat="47.19076" lon="-1.58542">
        <ele>48</ele>
        <time>2020-12-19T12:41:30.000Z</time>
      </trkpt>
      <trkpt lat="47.19067" lon="-1.58551">
        <ele>48</ele>
        <time>2020-12-19T12:41:32.000Z</time>
      </trkpt>
      <trkpt lat="47.19058" lon="-1.58561">
        <ele>48</ele>
        <time>2020-12-19T12:41:34.000Z</time>
      </trkpt>
      <trkpt lat="47.1905" lon="-1.58568">
        <ele>48</ele>
        <time>2020-12-19T12:41:36.000Z</time>
      </trkpt>
      <trkpt lat="47.19041" lon="-1.58577">
        <ele>48</ele>
        <time>2020-12-19T12:41:38.000Z</time>
      </trkpt>
      <trkpt lat="47.19033" lon="-1.58586">
        <ele>48</ele>
        <time>2020-12-19T12:41:40.000Z</time>
      </trkpt>
      <trkpt lat="47.19025" lon="-1.58595">
        <ele>48</ele>
        <time>2020-12-19T12:41:42.000Z</time>
      </trkpt>
      <trkpt lat="47.19017" lon="-1.58604">
        <ele>48</ele>
        <time>2020-12-19T12:41:44.000Z</time>
      </trkpt>
      <trkpt lat="47.19008" lon="-1.58613">
        <ele>48</ele>
        <time>2020-12-19T12:41:46.000Z</time>
      </trkpt>
      <trkpt lat="47.18999" lon="-1.58621">
        <ele>48</ele>
        <time>2020-12-19T12:41:48.000Z</time>
      </trkpt>
      <trkpt lat="47.18992" lon="-1.5863">
        <ele>48</ele>
        <time>2020-12-19T12:41:50.000Z</time>
      </trkpt>
      <trkpt lat="47.18983" lon="-1.58637">
        <ele>49</ele>
        <time>2020-12-19T12:41:52.000Z</time>
      </trkpt>
      <trkpt lat="47.18975" lon="-1.58645">
        <ele>48</ele>
        <time>2020-12-19T12:41:54.000Z</time>
      </trkpt>
      <trkpt lat="47.18967" lon="-1.58654">
        <ele>48</ele>
        <time>2020-12-19T12:41:56.000Z</time>
      </trkpt>
      <trkpt lat="47.18958" lon="-1.58662">
        <ele>48</ele>
        <time>2020-12-19T12:41:58.000Z</time>
      </trkpt>
      <trkpt lat="47.18949" lon="-1.5867">
        <ele>48</ele>
        <time>2020-12-19T12:42:00.000Z</time>
      </trkpt>
      <trkpt lat="47.1894" lon="-1.58678">
        <ele>48</ele>
        <time>2020-12-19T12:42:02.000Z</time>
      </trkpt>
      <trkpt lat="47.18932" lon="-1.58686">
        <ele>48</ele>
        <time>2020-12-19T12:42:04.000Z</time>
      </trkpt>
      <trkpt lat="47.18923" lon="-1.58695">
        <ele>49</ele>
        <time>2020-12-19T12:42:06.000Z</time>
      </trkpt>
      <trkpt lat="47.18914" lon="-1.58703">
        <ele>50</ele>
        <time>2020-12-19T12:42:08.000Z</time>
      </trkpt>
      <trkpt lat="47.18905" lon="-1.5871">
        <ele>50</ele>
        <time>2020-12-19T12:42:10.000Z</time>
      </trkpt>
      <trkpt lat="47.18895" lon="-1.58716">
        <ele>50</ele>
        <time>2020-12-19T12:42:12.000Z</time>
      </trkpt>
      <trkpt lat="47.18886" lon="-1.58722">
        <ele>50</ele>
        <time>2020-12-19T12:42:14.000Z</time>
      </trkpt>
      <trkpt lat="47.18878" lon="-1.58728">
        <ele>50</ele>
        <time>2020-12-19T12:42:16.000Z</time>
      </trkpt>
      <trkpt lat="47.18869" lon="-1.58732">
        <ele>50</ele>
        <time>2020-12-19T12:42:18.000Z</time>
      </trkpt>
      <trkpt lat="47.18861" lon="-1.58736">
        <ele>49</ele>
        <time>2020-12-19T12:42:20.000Z</time>
      </trkpt>
      <trkpt lat="47.18852" lon="-1.5874">
        <ele>50</ele>
        <time>2020-12-19T12:42:22.000Z</time>
      </trkpt>
      <trkpt lat="47.18839" lon="-1.58747">
        <ele>50</ele>
        <time>2020-12-19T12:42:25.000Z</time>
      </trkpt>
      <trkpt lat="47.18833" lon="-1.58757">
        <ele>50</ele>
        <time>2020-12-19T12:42:27.000Z</time>
      </trkpt>
      <trkpt lat="47.18831" lon="-1.5877">
        <ele>50</ele>
        <time>2020-12-19T12:42:29.000Z</time>
      </trkpt>
      <trkpt lat="47.18826" lon="-1.58784">
        <ele>50</ele>
        <time>2020-12-19T12:42:31.000Z</time>
      </trkpt>
      <trkpt lat="47.18819" lon="-1.58795">
        <ele>50</ele>
        <time>2020-12-19T12:42:33.000Z</time>
      </trkpt>
      <trkpt lat="47.18811" lon="-1.58804">
        <ele>50</ele>
        <time>2020-12-19T12:42:35.000Z</time>
      </trkpt>
      <trkpt lat="47.18802" lon="-1.5881">
        <ele>50</ele>
        <time>2020-12-19T12:42:37.000Z</time>
      </trkpt>
      <trkpt lat="47.18793" lon="-1.58817">
        <ele>50</ele>
        <time>2020-12-19T12:42:39.000Z</time>
      </trkpt>
      <trkpt lat="47.18789" lon="-1.58831">
        <ele>50</ele>
        <time>2020-12-19T12:42:41.000Z</time>
      </trkpt>
      <trkpt lat="47.18787" lon="-1.58846">
        <ele>50</ele>
        <time>2020-12-19T12:42:43.000Z</time>
      </trkpt>
      <trkpt lat="47.18784" lon="-1.58862">
        <ele>50</ele>
        <time>2020-12-19T12:42:45.000Z</time>
      </trkpt>
      <trkpt lat="47.1878" lon="-1.58879">
        <ele>50</ele>
        <time>2020-12-19T12:42:47.000Z</time>
      </trkpt>
      <trkpt lat="47.18778" lon="-1.58894">
        <ele>50</ele>
        <time>2020-12-19T12:42:49.000Z</time>
      </trkpt>
      <trkpt lat="47.18776" lon="-1.58911">
        <ele>50</ele>
        <time>2020-12-19T12:42:51.000Z</time>
      </trkpt>
      <trkpt lat="47.18774" lon="-1.58928">
        <ele>50</ele>
        <time>2020-12-19T12:42:53.000Z</time>
      </trkpt>
      <trkpt lat="47.18772" lon="-1.58945">
        <ele>50</ele>
        <time>2020-12-19T12:42:55.000Z</time>
      </trkpt>
      <trkpt lat="47.18769" lon="-1.58961">
        <ele>49</ele>
        <time>2020-12-19T12:42:57.000Z</time>
      </trkpt>
      <trkpt lat="47.18767" lon="-1.58978">
        <ele>49</ele>
        <time>2020-12-19T12:42:59.000Z</time>
      </trkpt>
      <trkpt lat="47.18766" lon="-1.58994">
        <ele>49</ele>
        <time>2020-12-19T12:43:01.000Z</time>
      </trkpt>
      <trkpt lat="47.18764" lon="-1.59011">
        <ele>49</ele>
        <time>2020-12-19T12:43:03.000Z</time>
      </trkpt>
      <trkpt lat="47.18762" lon="-1.59027">
        <ele>49</ele>
        <time>2020-12-19T12:43:05.000Z</time>
      </trkpt>
      <trkpt lat="47.1876" lon="-1.59045">
        <ele>49</ele>
        <time>2020-12-19T12:43:07.000Z</time>
      </trkpt>
      <trkpt lat="47.18759" lon="-1.59061">
        <ele>49</ele>
        <time>2020-12-19T12:43:09.000Z</time>
      </trkpt>
      <trkpt lat="47.18757" lon="-1.59078">
        <ele>49</ele>
        <time>2020-12-19T12:43:11.000Z</time>
      </trkpt>
      <trkpt lat="47.18755" lon="-1.59093">
        <ele>49</ele>
        <time>2020-12-19T12:43:13.000Z</time>
      </trkpt>
      <trkpt lat="47.18753" lon="-1.59109">
        <ele>50</ele>
        <time>2020-12-19T12:43:15.000Z</time>
      </trkpt>
      <trkpt lat="47.18751" lon="-1.59125">
        <ele>50</ele>
        <time>2020-12-19T12:43:17.000Z</time>
      </trkpt>
      <trkpt lat="47.1875" lon="-1.5914">
        <ele>50</ele>
        <time>2020-12-19T12:43:19.000Z</time>
      </trkpt>
      <trkpt lat="47.18748" lon="-1.59156">
        <ele>50</ele>
        <time>2020-12-19T12:43:21.000Z</time>
      </trkpt>
      <trkpt lat="47.18746" lon="-1.59172">
        <ele>50</ele>
        <time>2020-12-19T12:43:23.000Z</time>
      </trkpt>
      <trkpt lat="47.18744" lon="-1.59188">
        <ele>50</ele>
        <time>2020-12-19T12:43:25.000Z</time>
      </trkpt>
      <trkpt lat="47.18742" lon="-1.59203">
        <ele>50</ele>
        <time>2020-12-19T12:43:27.000Z</time>
      </trkpt>
      <trkpt lat="47.18741" lon="-1.59219">
        <ele>50</ele>
        <time>2020-12-19T12:43:29.000Z</time>
      </trkpt>
      <trkpt lat="47.18739" lon="-1.59235">
        <ele>50</ele>
        <time>2020-12-19T12:43:31.000Z</time>
      </trkpt>
      <trkpt lat="47.18737" lon="-1.5925">
        <ele>51</ele>
        <time>2020-12-19T12:43:33.000Z</time>
      </trkpt>
      <trkpt lat="47.18735" lon="-1.59265">
        <ele>51</ele>
        <time>2020-12-19T12:43:35.000Z</time>
      </trkpt>
      <trkpt lat="47.18733" lon="-1.5928">
        <ele>51</ele>
        <time>2020-12-19T12:43:37.000Z</time>
      </trkpt>
      <trkpt lat="47.18731" lon="-1.59295">
        <ele>50</ele>
        <time>2020-12-19T12:43:39.000Z</time>
      </trkpt>
      <trkpt lat="47.1873" lon="-1.59309">
        <ele>50</ele>
        <time>2020-12-19T12:43:41.000Z</time>
      </trkpt>
      <trkpt lat="47.18728" lon="-1.59324">
        <ele>50</ele>
        <time>2020-12-19T12:43:43.000Z</time>
      </trkpt>
      <trkpt lat="47.18726" lon="-1.5934">
        <ele>49</ele>
        <time>2020-12-19T12:43:45.000Z</time>
      </trkpt>
      <trkpt lat="47.18725" lon="-1.59355">
        <ele>49</ele>
        <time>2020-12-19T12:43:47.000Z</time>
      </trkpt>
      <trkpt lat="47.18723" lon="-1.5937">
        <ele>48</ele>
        <time>2020-12-19T12:43:49.000Z</time>
      </trkpt>
      <trkpt lat="47.18722" lon="-1.59385">
        <ele>48</ele>
        <time>2020-12-19T12:43:51.000Z</time>
      </trkpt>
      <trkpt lat="47.1872" lon="-1.59401">
        <ele>48</ele>
        <time>2020-12-19T12:43:53.000Z</time>
      </trkpt>
      <trkpt lat="47.18718" lon="-1.59416">
        <ele>47</ele>
        <time>2020-12-19T12:43:55.000Z</time>
      </trkpt>
      <trkpt lat="47.18716" lon="-1.5943">
        <ele>48</ele>
        <time>2020-12-19T12:43:57.000Z</time>
      </trkpt>
      <trkpt lat="47.18715" lon="-1.59444">
        <ele>48</ele>
        <time>2020-12-19T12:43:59.000Z</time>
      </trkpt>
      <trkpt lat="47.18713" lon="-1.59459">
        <ele>48</ele>
        <time>2020-12-19T12:44:01.000Z</time>
      </trkpt>
      <trkpt lat="47.18712" lon="-1.59473">
        <ele>48</ele>
        <time>2020-12-19T12:44:03.000Z</time>
      </trkpt>
      <trkpt lat="47.1871" lon="-1.59487">
        <ele>48</ele>
        <time>2020-12-19T12:44:05.000Z</time>
      </trkpt>
      <trkpt lat="47.18709" lon="-1.59502">
        <ele>48</ele>
        <time>2020-12-19T12:44:07.000Z</time>
      </trkpt>
      <trkpt lat="47.18707" lon="-1.59517">
        <ele>48</ele>
        <time>2020-12-19T12:44:09.000Z</time>
      </trkpt>
      <trkpt lat="47.18706" lon="-1.59531">
        <ele>48</ele>
        <time>2020-12-19T12:44:11.000Z</time>
      </trkpt>
      <trkpt lat="47.18704" lon="-1.59546">
        <ele>48</ele>
        <time>2020-12-19T12:44:13.000Z</time>
      </trkpt>
      <trkpt lat="47.18702" lon="-1.59562">
        <ele>48</ele>
        <time>2020-12-19T12:44:15.000Z</time>
      </trkpt>
      <trkpt lat="47.187" lon="-1.59577">
        <ele>48</ele>
        <time>2020-12-19T12:44:17.000Z</time>
      </trkpt>
      <trkpt lat="47.18698" lon="-1.59592">
        <ele>48</ele>
        <time>2020-12-19T12:44:19.000Z</time>
      </trkpt>
      <trkpt lat="47.18696" lon="-1.59606">
        <ele>48</ele>
        <time>2020-12-19T12:44:21.000Z</time>
      </trkpt>
      <trkpt lat="47.18694" lon="-1.5962">
        <ele>48</ele>
        <time>2020-12-19T12:44:23.000Z</time>
      </trkpt>
      <trkpt lat="47.18692" lon="-1.59636">
        <ele>48</ele>
        <time>2020-12-19T12:44:25.000Z</time>
      </trkpt>
      <trkpt lat="47.18691" lon="-1.5965">
        <ele>48</ele>
        <time>2020-12-19T12:44:27.000Z</time>
      </trkpt>
      <trkpt lat="47.18689" lon="-1.59664">
        <ele>48</ele>
        <time>2020-12-19T12:44:29.000Z</time>
      </trkpt>
      <trkpt lat="47.18687" lon="-1.59677">
        <ele>48</ele>
        <time>2020-12-19T12:44:31.000Z</time>
      </trkpt>
      <trkpt lat="47.18685" lon="-1.59691">
        <ele>48</ele>
        <time>2020-12-19T12:44:33.000Z</time>
      </trkpt>
      <trkpt lat="47.18683" lon="-1.59705">
        <ele>48</ele>
        <time>2020-12-19T12:44:35.000Z</time>
      </trkpt>
      <trkpt lat="47.18682" lon="-1.59719">
        <ele>48</ele>
        <time>2020-12-19T12:44:37.000Z</time>
      </trkpt>
      <trkpt lat="47.18681" lon="-1.59734">
        <ele>48</ele>
        <time>2020-12-19T12:44:39.000Z</time>
      </trkpt>
      <trkpt lat="47.18682" lon="-1.59747">
        <ele>48</ele>
        <time>2020-12-19T12:44:41.000Z</time>
      </trkpt>
      <trkpt lat="47.18682" lon="-1.59761">
        <ele>47</ele>
        <time>2020-12-19T12:44:43.000Z</time>
      </trkpt>
      <trkpt lat="47.18685" lon="-1.59776">
        <ele>47</ele>
        <time>2020-12-19T12:44:45.000Z</time>
      </trkpt>
      <trkpt lat="47.18684" lon="-1.59793">
        <ele>48</ele>
        <time>2020-12-19T12:44:47.000Z</time>
      </trkpt>
      <trkpt lat="47.18682" lon="-1.59811">
        <ele>48</ele>
        <time>2020-12-19T12:44:49.000Z</time>
      </trkpt>
      <trkpt lat="47.18677" lon="-1.59827">
        <ele>49</ele>
        <time>2020-12-19T12:44:51.000Z</time>
      </trkpt>
      <trkpt lat="47.18668" lon="-1.5984">
        <ele>49</ele>
        <time>2020-12-19T12:44:53.000Z</time>
      </trkpt>
      <trkpt lat="47.18657" lon="-1.59846">
        <ele>50</ele>
        <time>2020-12-19T12:44:55.000Z</time>
      </trkpt>
      <trkpt lat="47.18645" lon="-1.59844">
        <ele>50</ele>
        <time>2020-12-19T12:44:57.000Z</time>
      </trkpt>
      <trkpt lat="47.18634" lon="-1.59836">
        <ele>49</ele>
        <time>2020-12-19T12:44:59.000Z</time>
      </trkpt>
      <trkpt lat="47.18623" lon="-1.5983">
        <ele>49</ele>
        <time>2020-12-19T12:45:01.000Z</time>
      </trkpt>
      <trkpt lat="47.18617" lon="-1.59845">
        <ele>49</ele>
        <time>2020-12-19T12:45:04.000Z</time>
      </trkpt>
      <trkpt lat="47.18623" lon="-1.59858">
        <ele>48</ele>
        <time>2020-12-19T12:45:06.000Z</time>
      </trkpt>
      <trkpt lat="47.18623" lon="-1.59875">
        <ele>48</ele>
        <time>2020-12-19T12:45:08.000Z</time>
      </trkpt>
      <trkpt lat="47.18618" lon="-1.59892">
        <ele>48</ele>
        <time>2020-12-19T12:45:10.000Z</time>
      </trkpt>
      <trkpt lat="47.18613" lon="-1.5991">
        <ele>48</ele>
        <time>2020-12-19T12:45:12.000Z</time>
      </trkpt>
      <trkpt lat="47.18608" lon="-1.59927">
        <ele>48</ele>
        <time>2020-12-19T12:45:14.000Z</time>
      </trkpt>
      <trkpt lat="47.18603" lon="-1.59943">
        <ele>48</ele>
        <time>2020-12-19T12:45:16.000Z</time>
      </trkpt>
      <trkpt lat="47.18598" lon="-1.59959">
        <ele>48</ele>
        <time>2020-12-19T12:45:18.000Z</time>
      </trkpt>
      <trkpt lat="47.18593" lon="-1.59975">
        <ele>47</ele>
        <time>2020-12-19T12:45:20.000Z</time>
      </trkpt>
      <trkpt lat="47.18588" lon="-1.5999">
        <ele>48</ele>
        <time>2020-12-19T12:45:22.000Z</time>
      </trkpt>
      <trkpt lat="47.18584" lon="-1.60005">
        <ele>48</ele>
        <time>2020-12-19T12:45:24.000Z</time>
      </trkpt>
      <trkpt lat="47.18579" lon="-1.60021">
        <ele>48</ele>
        <time>2020-12-19T12:45:26.000Z</time>
      </trkpt>
      <trkpt lat="47.18573" lon="-1.60035">
        <ele>48</ele>
        <time>2020-12-19T12:45:28.000Z</time>
      </trkpt>
      <trkpt lat="47.18568" lon="-1.6005">
        <ele>48</ele>
        <time>2020-12-19T12:45:30.000Z</time>
      </trkpt>
      <trkpt lat="47.18563" lon="-1.60064">
        <ele>48</ele>
        <time>2020-12-19T12:45:32.000Z</time>
      </trkpt>
      <trkpt lat="47.18559" lon="-1.60077">
        <ele>48</ele>
        <time>2020-12-19T12:45:34.000Z</time>
      </trkpt>
      <trkpt lat="47.18554" lon="-1.6009">
        <ele>48</ele>
        <time>2020-12-19T12:45:36.000Z</time>
      </trkpt>
      <trkpt lat="47.18548" lon="-1.60104">
        <ele>49</ele>
        <time>2020-12-19T12:45:38.000Z</time>
      </trkpt>
      <trkpt lat="47.18542" lon="-1.60118">
        <ele>49</ele>
        <time>2020-12-19T12:45:40.000Z</time>
      </trkpt>
      <trkpt lat="47.18536" lon="-1.60132">
        <ele>50</ele>
        <time>2020-12-19T12:45:42.000Z</time>
      </trkpt>
      <trkpt lat="47.1853" lon="-1.60145">
        <ele>50</ele>
        <time>2020-12-19T12:45:44.000Z</time>
      </trkpt>
      <trkpt lat="47.18524" lon="-1.60158">
        <ele>50</ele>
        <time>2020-12-19T12:45:46.000Z</time>
      </trkpt>
      <trkpt lat="47.18518" lon="-1.60171">
        <ele>49</ele>
        <time>2020-12-19T12:45:48.000Z</time>
      </trkpt>
      <trkpt lat="47.18512" lon="-1.60185">
        <ele>49</ele>
        <time>2020-12-19T12:45:50.000Z</time>
      </trkpt>
      <trkpt lat="47.18506" lon="-1.60197">
        <ele>50</ele>
        <time>2020-12-19T12:45:52.000Z</time>
      </trkpt>
      <trkpt lat="47.18499" lon="-1.6021">
        <ele>49</ele>
        <time>2020-12-19T12:45:54.000Z</time>
      </trkpt>
      <trkpt lat="47.18493" lon="-1.60221">
        <ele>49</ele>
        <time>2020-12-19T12:45:56.000Z</time>
      </trkpt>
      <trkpt lat="47.18487" lon="-1.60234">
        <ele>49</ele>
        <time>2020-12-19T12:45:58.000Z</time>
      </trkpt>
      <trkpt lat="47.18481" lon="-1.60246">
        <ele>49</ele>
        <time>2020-12-19T12:46:00.000Z</time>
      </trkpt>
      <trkpt lat="47.18474" lon="-1.60259">
        <ele>49</ele>
        <time>2020-12-19T12:46:02.000Z</time>
      </trkpt>
      <trkpt lat="47.18467" lon="-1.6027">
        <ele>48</ele>
        <time>2020-12-19T12:46:04.000Z</time>
      </trkpt>
      <trkpt lat="47.1846" lon="-1.60283">
        <ele>49</ele>
        <time>2020-12-19T12:46:06.000Z</time>
      </trkpt>
      <trkpt lat="47.18453" lon="-1.60295">
        <ele>49</ele>
        <time>2020-12-19T12:46:08.000Z</time>
      </trkpt>
      <trkpt lat="47.18446" lon="-1.60307">
        <ele>49</ele>
        <time>2020-12-19T12:46:10.000Z</time>
      </trkpt>
      <trkpt lat="47.18439" lon="-1.60319">
        <ele>49</ele>
        <time>2020-12-19T12:46:12.000Z</time>
      </trkpt>
      <trkpt lat="47.18432" lon="-1.60331">
        <ele>49</ele>
        <time>2020-12-19T12:46:14.000Z</time>
      </trkpt>
      <trkpt lat="47.18425" lon="-1.60342">
        <ele>49</ele>
        <time>2020-12-19T12:46:16.000Z</time>
      </trkpt>
      <trkpt lat="47.18417" lon="-1.60353">
        <ele>49</ele>
        <time>2020-12-19T12:46:18.000Z</time>
      </trkpt>
      <trkpt lat="47.1841" lon="-1.60363">
        <ele>49</ele>
        <time>2020-12-19T12:46:20.000Z</time>
      </trkpt>
      <trkpt lat="47.18402" lon="-1.60374">
        <ele>49</ele>
        <time>2020-12-19T12:46:22.000Z</time>
      </trkpt>
      <trkpt lat="47.18394" lon="-1.60385">
        <ele>49</ele>
        <time>2020-12-19T12:46:24.000Z</time>
      </trkpt>
      <trkpt lat="47.18386" lon="-1.60395">
        <ele>49</ele>
        <time>2020-12-19T12:46:26.000Z</time>
      </trkpt>
      <trkpt lat="47.18378" lon="-1.60406">
        <ele>49</ele>
        <time>2020-12-19T12:46:28.000Z</time>
      </trkpt>
      <trkpt lat="47.1837" lon="-1.60416">
        <ele>49</ele>
        <time>2020-12-19T12:46:30.000Z</time>
      </trkpt>
      <trkpt lat="47.18363" lon="-1.60426">
        <ele>48</ele>
        <time>2020-12-19T12:46:32.000Z</time>
      </trkpt>
      <trkpt lat="47.18355" lon="-1.60436">
        <ele>48</ele>
        <time>2020-12-19T12:46:34.000Z</time>
      </trkpt>
      <trkpt lat="47.18346" lon="-1.60446">
        <ele>48</ele>
        <time>2020-12-19T12:46:36.000Z</time>
      </trkpt>
      <trkpt lat="47.18338" lon="-1.60455">
        <ele>48</ele>
        <time>2020-12-19T12:46:38.000Z</time>
      </trkpt>
      <trkpt lat="47.1833" lon="-1.60465">
        <ele>47</ele>
        <time>2020-12-19T12:46:40.000Z</time>
      </trkpt>
      <trkpt lat="47.18322" lon="-1.60474">
        <ele>47</ele>
        <time>2020-12-19T12:46:42.000Z</time>
      </trkpt>
      <trkpt lat="47.18313" lon="-1.60483">
        <ele>47</ele>
        <time>2020-12-19T12:46:44.000Z</time>
      </trkpt>
      <trkpt lat="47.18305" lon="-1.60492">
        <ele>47</ele>
        <time>2020-12-19T12:46:46.000Z</time>
      </trkpt>
      <trkpt lat="47.18297" lon="-1.60502">
        <ele>47</ele>
        <time>2020-12-19T12:46:48.000Z</time>
      </trkpt>
      <trkpt lat="47.18288" lon="-1.60511">
        <ele>47</ele>
        <time>2020-12-19T12:46:50.000Z</time>
      </trkpt>
      <trkpt lat="47.18279" lon="-1.6052">
        <ele>47</ele>
        <time>2020-12-19T12:46:52.000Z</time>
      </trkpt>
      <trkpt lat="47.18266" lon="-1.60533">
        <ele>47</ele>
        <time>2020-12-19T12:46:55.000Z</time>
      </trkpt>
      <trkpt lat="47.18257" lon="-1.60541">
        <ele>47</ele>
        <time>2020-12-19T12:46:57.000Z</time>
      </trkpt>
      <trkpt lat="47.18247" lon="-1.60548">
        <ele>47</ele>
        <time>2020-12-19T12:46:59.000Z</time>
      </trkpt>
      <trkpt lat="47.18238" lon="-1.60555">
        <ele>47</ele>
        <time>2020-12-19T12:47:01.000Z</time>
      </trkpt>
      <trkpt lat="47.18229" lon="-1.60562">
        <ele>47</ele>
        <time>2020-12-19T12:47:03.000Z</time>
      </trkpt>
      <trkpt lat="47.1822" lon="-1.60567">
        <ele>47</ele>
        <time>2020-12-19T12:47:05.000Z</time>
      </trkpt>
      <trkpt lat="47.18207" lon="-1.60573">
        <ele>47</ele>
        <time>2020-12-19T12:47:08.000Z</time>
      </trkpt>
      <trkpt lat="47.18196" lon="-1.60577">
        <ele>47</ele>
        <time>2020-12-19T12:47:11.000Z</time>
      </trkpt>
      <trkpt lat="47.1819" lon="-1.6059">
        <ele>47</ele>
        <time>2020-12-19T12:47:15.000Z</time>
      </trkpt>
      <trkpt lat="47.18176" lon="-1.60604">
        <ele>49</ele>
        <time>2020-12-19T12:47:19.000Z</time>
      </trkpt>
      <trkpt lat="47.18166" lon="-1.60606">
        <ele>48</ele>
        <time>2020-12-19T12:47:21.000Z</time>
      </trkpt>
      <trkpt lat="47.18155" lon="-1.60607">
        <ele>48</ele>
        <time>2020-12-19T12:47:23.000Z</time>
      </trkpt>
      <trkpt lat="47.18145" lon="-1.60607">
        <ele>48</ele>
        <time>2020-12-19T12:47:25.000Z</time>
      </trkpt>
      <trkpt lat="47.18136" lon="-1.60606">
        <ele>49</ele>
        <time>2020-12-19T12:47:27.000Z</time>
      </trkpt>
      <trkpt lat="47.18124" lon="-1.60603">
        <ele>49</ele>
        <time>2020-12-19T12:47:29.000Z</time>
      </trkpt>
      <trkpt lat="47.18112" lon="-1.60599">
        <ele>49</ele>
        <time>2020-12-19T12:47:31.000Z</time>
      </trkpt>
      <trkpt lat="47.181" lon="-1.60592">
        <ele>49</ele>
        <time>2020-12-19T12:47:33.000Z</time>
      </trkpt>
      <trkpt lat="47.18083" lon="-1.60582">
        <ele>48</ele>
        <time>2020-12-19T12:47:36.000Z</time>
      </trkpt>
      <trkpt lat="47.18067" lon="-1.60572">
        <ele>49</ele>
        <time>2020-12-19T12:47:39.000Z</time>
      </trkpt>
      <trkpt lat="47.18057" lon="-1.60566">
        <ele>49</ele>
        <time>2020-12-19T12:47:41.000Z</time>
      </trkpt>
      <trkpt lat="47.18046" lon="-1.60559">
        <ele>49</ele>
        <time>2020-12-19T12:47:43.000Z</time>
      </trkpt>
      <trkpt lat="47.18036" lon="-1.60554">
        <ele>48</ele>
        <time>2020-12-19T12:47:45.000Z</time>
      </trkpt>
      <trkpt lat="47.18025" lon="-1.60552">
        <ele>48</ele>
        <time>2020-12-19T12:47:47.000Z</time>
      </trkpt>
      <trkpt lat="47.18014" lon="-1.60553">
        <ele>48</ele>
        <time>2020-12-19T12:47:49.000Z</time>
      </trkpt>
      <trkpt lat="47.18003" lon="-1.60555">
        <ele>48</ele>
        <time>2020-12-19T12:47:51.000Z</time>
      </trkpt>
      <trkpt lat="47.17992" lon="-1.60558">
        <ele>48</ele>
        <time>2020-12-19T12:47:53.000Z</time>
      </trkpt>
      <trkpt lat="47.17982" lon="-1.60562">
        <ele>48</ele>
        <time>2020-12-19T12:47:55.000Z</time>
      </trkpt>
      <trkpt lat="47.17972" lon="-1.60567">
        <ele>49</ele>
        <time>2020-12-19T12:47:57.000Z</time>
      </trkpt>
      <trkpt lat="47.17963" lon="-1.60571">
        <ele>49</ele>
        <time>2020-12-19T12:47:59.000Z</time>
      </trkpt>
      <trkpt lat="47.17954" lon="-1.60579">
        <ele>49</ele>
        <time>2020-12-19T12:48:01.000Z</time>
      </trkpt>
      <trkpt lat="47.17939" lon="-1.60586">
        <ele>49</ele>
        <time>2020-12-19T12:48:04.000Z</time>
      </trkpt>
      <trkpt lat="47.17926" lon="-1.60589">
        <ele>50</ele>
        <time>2020-12-19T12:48:07.000Z</time>
      </trkpt>
      <trkpt lat="47.17916" lon="-1.60591">
        <ele>50</ele>
        <time>2020-12-19T12:48:10.000Z</time>
      </trkpt>
      <trkpt lat="47.17903" lon="-1.60607">
        <ele>50</ele>
        <time>2020-12-19T12:48:14.000Z</time>
      </trkpt>
      <trkpt lat="47.17898" lon="-1.60624">
        <ele>49</ele>
        <time>2020-12-19T12:48:16.000Z</time>
      </trkpt>
      <trkpt lat="47.17892" lon="-1.60641">
        <ele>48</ele>
        <time>2020-12-19T12:48:18.000Z</time>
      </trkpt>
      <trkpt lat="47.17887" lon="-1.60658">
        <ele>48</ele>
        <time>2020-12-19T12:48:20.000Z</time>
      </trkpt>
      <trkpt lat="47.17882" lon="-1.60675">
        <ele>48</ele>
        <time>2020-12-19T12:48:22.000Z</time>
      </trkpt>
      <trkpt lat="47.17877" lon="-1.60692">
        <ele>47</ele>
        <time>2020-12-19T12:48:24.000Z</time>
      </trkpt>
      <trkpt lat="47.17873" lon="-1.60709">
        <ele>47</ele>
        <time>2020-12-19T12:48:26.000Z</time>
      </trkpt>
      <trkpt lat="47.17868" lon="-1.60725">
        <ele>47</ele>
        <time>2020-12-19T12:48:28.000Z</time>
      </trkpt>
      <trkpt lat="47.17864" lon="-1.60742">
        <ele>47</ele>
        <time>2020-12-19T12:48:30.000Z</time>
      </trkpt>
      <trkpt lat="47.17861" lon="-1.60758">
        <ele>47</ele>
        <time>2020-12-19T12:48:32.000Z</time>
      </trkpt>
      <trkpt lat="47.17858" lon="-1.60774">
        <ele>47</ele>
        <time>2020-12-19T12:48:34.000Z</time>
      </trkpt>
      <trkpt lat="47.17855" lon="-1.60789">
        <ele>47</ele>
        <time>2020-12-19T12:48:36.000Z</time>
      </trkpt>
      <trkpt lat="47.17851" lon="-1.60805">
        <ele>48</ele>
        <time>2020-12-19T12:48:38.000Z</time>
      </trkpt>
      <trkpt lat="47.17847" lon="-1.60822">
        <ele>48</ele>
        <time>2020-12-19T12:48:40.000Z</time>
      </trkpt>
      <trkpt lat="47.17843" lon="-1.60837">
        <ele>48</ele>
        <time>2020-12-19T12:48:42.000Z</time>
      </trkpt>
      <trkpt lat="47.17837" lon="-1.6085">
        <ele>48</ele>
        <time>2020-12-19T12:48:44.000Z</time>
      </trkpt>
      <trkpt lat="47.17831" lon="-1.60862">
        <ele>48</ele>
        <time>2020-12-19T12:48:46.000Z</time>
      </trkpt>
      <trkpt lat="47.17821" lon="-1.60879">
        <ele>48</ele>
        <time>2020-12-19T12:48:49.000Z</time>
      </trkpt>
      <trkpt lat="47.17813" lon="-1.60889">
        <ele>48</ele>
        <time>2020-12-19T12:48:51.000Z</time>
      </trkpt>
      <trkpt lat="47.17805" lon="-1.60897">
        <ele>48</ele>
        <time>2020-12-19T12:48:53.000Z</time>
      </trkpt>
      <trkpt lat="47.17796" lon="-1.60903">
        <ele>48</ele>
        <time>2020-12-19T12:48:55.000Z</time>
      </trkpt>
      <trkpt lat="47.17787" lon="-1.6091">
        <ele>49</ele>
        <time>2020-12-19T12:48:57.000Z</time>
      </trkpt>
      <trkpt lat="47.17778" lon="-1.60917">
        <ele>49</ele>
        <time>2020-12-19T12:48:59.000Z</time>
      </trkpt>
      <trkpt lat="47.17769" lon="-1.60924">
        <ele>48</ele>
        <time>2020-12-19T12:49:01.000Z</time>
      </trkpt>
      <trkpt lat="47.1776" lon="-1.60931">
        <ele>48</ele>
        <time>2020-12-19T12:49:03.000Z</time>
      </trkpt>
      <trkpt lat="47.1775" lon="-1.60938">
        <ele>48</ele>
        <time>2020-12-19T12:49:05.000Z</time>
      </trkpt>
      <trkpt lat="47.17741" lon="-1.60944">
        <ele>48</ele>
        <time>2020-12-19T12:49:07.000Z</time>
      </trkpt>
      <trkpt lat="47.17732" lon="-1.60951">
        <ele>48</ele>
        <time>2020-12-19T12:49:09.000Z</time>
      </trkpt>
      <trkpt lat="47.17723" lon="-1.60957">
        <ele>48</ele>
        <time>2020-12-19T12:49:11.000Z</time>
      </trkpt>
      <trkpt lat="47.17714" lon="-1.60964">
        <ele>48</ele>
        <time>2020-12-19T12:49:13.000Z</time>
      </trkpt>
      <trkpt lat="47.17705" lon="-1.60971">
        <ele>48</ele>
        <time>2020-12-19T12:49:15.000Z</time>
      </trkpt>
      <trkpt lat="47.17695" lon="-1.60976">
        <ele>47</ele>
        <time>2020-12-19T12:49:17.000Z</time>
      </trkpt>
      <trkpt lat="47.17678" lon="-1.60975">
        <ele>47</ele>
        <time>2020-12-19T12:49:20.000Z</time>
      </trkpt>
      <trkpt lat="47.17665" lon="-1.60973">
        <ele>47</ele>
        <time>2020-12-19T12:49:22.000Z</time>
      </trkpt>
      <trkpt lat="47.17655" lon="-1.60977">
        <ele>47</ele>
        <time>2020-12-19T12:49:24.000Z</time>
      </trkpt>
      <trkpt lat="47.17646" lon="-1.60985">
        <ele>47</ele>
        <time>2020-12-19T12:49:26.000Z</time>
      </trkpt>
      <trkpt lat="47.17637" lon="-1.60993">
        <ele>47</ele>
        <time>2020-12-19T12:49:28.000Z</time>
      </trkpt>
      <trkpt lat="47.17628" lon="-1.61001">
        <ele>47</ele>
        <time>2020-12-19T12:49:30.000Z</time>
      </trkpt>
      <trkpt lat="47.17619" lon="-1.61007">
        <ele>47</ele>
        <time>2020-12-19T12:49:32.000Z</time>
      </trkpt>
      <trkpt lat="47.17611" lon="-1.61015">
        <ele>47</ele>
        <time>2020-12-19T12:49:34.000Z</time>
      </trkpt>
      <trkpt lat="47.17603" lon="-1.61023">
        <ele>47</ele>
        <time>2020-12-19T12:49:36.000Z</time>
      </trkpt>
      <trkpt lat="47.17595" lon="-1.61031">
        <ele>47</ele>
        <time>2020-12-19T12:49:38.000Z</time>
      </trkpt>
      <trkpt lat="47.17586" lon="-1.61037">
        <ele>47</ele>
        <time>2020-12-19T12:49:40.000Z</time>
      </trkpt>
      <trkpt lat="47.17578" lon="-1.61043">
        <ele>47</ele>
        <time>2020-12-19T12:49:42.000Z</time>
      </trkpt>
      <trkpt lat="47.17569" lon="-1.61051">
        <ele>47</ele>
        <time>2020-12-19T12:49:44.000Z</time>
      </trkpt>
      <trkpt lat="47.17561" lon="-1.61059">
        <ele>47</ele>
        <time>2020-12-19T12:49:46.000Z</time>
      </trkpt>
      <trkpt lat="47.17552" lon="-1.61067">
        <ele>47</ele>
        <time>2020-12-19T12:49:48.000Z</time>
      </trkpt>
      <trkpt lat="47.17543" lon="-1.61075">
        <ele>47</ele>
        <time>2020-12-19T12:49:50.000Z</time>
      </trkpt>
      <trkpt lat="47.17534" lon="-1.61083">
        <ele>48</ele>
        <time>2020-12-19T12:49:52.000Z</time>
      </trkpt>
      <trkpt lat="47.17525" lon="-1.61091">
        <ele>48</ele>
        <time>2020-12-19T12:49:54.000Z</time>
      </trkpt>
      <trkpt lat="47.17516" lon="-1.61099">
        <ele>48</ele>
        <time>2020-12-19T12:49:56.000Z</time>
      </trkpt>
      <trkpt lat="47.17507" lon="-1.61104">
        <ele>48</ele>
        <time>2020-12-19T12:49:58.000Z</time>
      </trkpt>
      <trkpt lat="47.17497" lon="-1.61107">
        <ele>48</ele>
        <time>2020-12-19T12:50:00.000Z</time>
      </trkpt>
      <trkpt lat="47.17486" lon="-1.61106">
        <ele>48</ele>
        <time>2020-12-19T12:50:02.000Z</time>
      </trkpt>
      <trkpt lat="47.17477" lon="-1.61104">
        <ele>49</ele>
        <time>2020-12-19T12:50:04.000Z</time>
      </trkpt>
      <trkpt lat="47.17467" lon="-1.61099">
        <ele>49</ele>
        <time>2020-12-19T12:50:06.000Z</time>
      </trkpt>
      <trkpt lat="47.17459" lon="-1.61091">
        <ele>49</ele>
        <time>2020-12-19T12:50:08.000Z</time>
      </trkpt>
      <trkpt lat="47.17451" lon="-1.6108">
        <ele>49</ele>
        <time>2020-12-19T12:50:10.000Z</time>
      </trkpt>
      <trkpt lat="47.17444" lon="-1.61069">
        <ele>49</ele>
        <time>2020-12-19T12:50:12.000Z</time>
      </trkpt>
      <trkpt lat="47.17438" lon="-1.61056">
        <ele>49</ele>
        <time>2020-12-19T12:50:14.000Z</time>
      </trkpt>
      <trkpt lat="47.17433" lon="-1.61042">
        <ele>49</ele>
        <time>2020-12-19T12:50:16.000Z</time>
      </trkpt>
      <trkpt lat="47.17428" lon="-1.61026">
        <ele>49</ele>
        <time>2020-12-19T12:50:19.000Z</time>
      </trkpt>
      <trkpt lat="47.17419" lon="-1.61026">
        <ele>49</ele>
        <time>2020-12-19T12:50:24.000Z</time>
      </trkpt>
      <trkpt lat="47.17421" lon="-1.61043">
        <ele>50</ele>
        <time>2020-12-19T12:50:27.000Z</time>
      </trkpt>
      <trkpt lat="47.17426" lon="-1.61056">
        <ele>50</ele>
        <time>2020-12-19T12:50:29.000Z</time>
      </trkpt>
      <trkpt lat="47.17431" lon="-1.61069">
        <ele>50</ele>
        <time>2020-12-19T12:50:31.000Z</time>
      </trkpt>
      <trkpt lat="47.17437" lon="-1.61081">
        <ele>51</ele>
        <time>2020-12-19T12:50:33.000Z</time>
      </trkpt>
      <trkpt lat="47.17443" lon="-1.61094">
        <ele>52</ele>
        <time>2020-12-19T12:50:35.000Z</time>
      </trkpt>
      <trkpt lat="47.17448" lon="-1.61106">
        <ele>52</ele>
        <time>2020-12-19T12:50:37.000Z</time>
      </trkpt>
      <trkpt lat="47.17453" lon="-1.6112">
        <ele>52</ele>
        <time>2020-12-19T12:50:39.000Z</time>
      </trkpt>
      <trkpt lat="47.17458" lon="-1.61132">
        <ele>53</ele>
        <time>2020-12-19T12:50:41.000Z</time>
      </trkpt>
      <trkpt lat="47.17463" lon="-1.61145">
        <ele>53</ele>
        <time>2020-12-19T12:50:43.000Z</time>
      </trkpt>
      <trkpt lat="47.17469" lon="-1.61158">
        <ele>54</ele>
        <time>2020-12-19T12:50:45.000Z</time>
      </trkpt>
      <trkpt lat="47.17474" lon="-1.6117">
        <ele>53</ele>
        <time>2020-12-19T12:50:47.000Z</time>
      </trkpt>
      <trkpt lat="47.17478" lon="-1.61183">
        <ele>54</ele>
        <time>2020-12-19T12:50:49.000Z</time>
      </trkpt>
      <trkpt lat="47.17483" lon="-1.61195">
        <ele>54</ele>
        <time>2020-12-19T12:50:51.000Z</time>
      </trkpt>
      <trkpt lat="47.17488" lon="-1.61207">
        <ele>54</ele>
        <time>2020-12-19T12:50:53.000Z</time>
      </trkpt>
      <trkpt lat="47.17493" lon="-1.61218">
        <ele>54</ele>
        <time>2020-12-19T12:50:55.000Z</time>
      </trkpt>
      <trkpt lat="47.17498" lon="-1.6123">
        <ele>54</ele>
        <time>2020-12-19T12:50:57.000Z</time>
      </trkpt>
      <trkpt lat="47.17504" lon="-1.61241">
        <ele>54</ele>
        <time>2020-12-19T12:50:59.000Z</time>
      </trkpt>
      <trkpt lat="47.1751" lon="-1.61252">
        <ele>55</ele>
        <time>2020-12-19T12:51:01.000Z</time>
      </trkpt>
      <trkpt lat="47.17517" lon="-1.61263">
        <ele>55</ele>
        <time>2020-12-19T12:51:03.000Z</time>
      </trkpt>
      <trkpt lat="47.17523" lon="-1.61273">
        <ele>56</ele>
        <time>2020-12-19T12:51:05.000Z</time>
      </trkpt>
      <trkpt lat="47.17531" lon="-1.61281">
        <ele>56</ele>
        <time>2020-12-19T12:51:07.000Z</time>
      </trkpt>
      <trkpt lat="47.1754" lon="-1.61288">
        <ele>57</ele>
        <time>2020-12-19T12:51:09.000Z</time>
      </trkpt>
      <trkpt lat="47.17549" lon="-1.61293">
        <ele>56</ele>
        <time>2020-12-19T12:51:11.000Z</time>
      </trkpt>
      <trkpt lat="47.17558" lon="-1.61305">
        <ele>57</ele>
        <time>2020-12-19T12:51:13.000Z</time>
      </trkpt>
      <trkpt lat="47.1756" lon="-1.61322">
        <ele>56</ele>
        <time>2020-12-19T12:51:15.000Z</time>
      </trkpt>
      <trkpt lat="47.17558" lon="-1.61339">
        <ele>57</ele>
        <time>2020-12-19T12:51:17.000Z</time>
      </trkpt>
      <trkpt lat="47.1755" lon="-1.61352">
        <ele>57</ele>
        <time>2020-12-19T12:51:19.000Z</time>
      </trkpt>
      <trkpt lat="47.1754" lon="-1.61359">
        <ele>57</ele>
        <time>2020-12-19T12:51:21.000Z</time>
      </trkpt>
      <trkpt lat="47.17532" lon="-1.61369">
        <ele>57</ele>
        <time>2020-12-19T12:51:23.000Z</time>
      </trkpt>
      <trkpt lat="47.17527" lon="-1.61384">
        <ele>56</ele>
        <time>2020-12-19T12:51:25.000Z</time>
      </trkpt>
      <trkpt lat="47.17524" lon="-1.61398">
        <ele>56</ele>
        <time>2020-12-19T12:51:27.000Z</time>
      </trkpt>
      <trkpt lat="47.17521" lon="-1.61411">
        <ele>56</ele>
        <time>2020-12-19T12:51:29.000Z</time>
      </trkpt>
      <trkpt lat="47.17517" lon="-1.61425">
        <ele>56</ele>
        <time>2020-12-19T12:51:31.000Z</time>
      </trkpt>
      <trkpt lat="47.17514" lon="-1.61438">
        <ele>56</ele>
        <time>2020-12-19T12:51:33.000Z</time>
      </trkpt>
      <trkpt lat="47.17511" lon="-1.61451">
        <ele>57</ele>
        <time>2020-12-19T12:51:35.000Z</time>
      </trkpt>
      <trkpt lat="47.175" lon="-1.61463">
        <ele>57</ele>
        <time>2020-12-19T12:51:38.000Z</time>
      </trkpt>
      <trkpt lat="47.17491" lon="-1.61468">
        <ele>58</ele>
        <time>2020-12-19T12:51:40.000Z</time>
      </trkpt>
      <trkpt lat="47.17482" lon="-1.61472">
        <ele>59</ele>
        <time>2020-12-19T12:51:42.000Z</time>
      </trkpt>
      <trkpt lat="47.1747" lon="-1.61477">
        <ele>60</ele>
        <time>2020-12-19T12:51:45.000Z</time>
      </trkpt>
      <trkpt lat="47.17461" lon="-1.61481">
        <ele>60</ele>
        <time>2020-12-19T12:51:47.000Z</time>
      </trkpt>
      <trkpt lat="47.17452" lon="-1.61485">
        <ele>61</ele>
        <time>2020-12-19T12:51:49.000Z</time>
      </trkpt>
      <trkpt lat="47.17443" lon="-1.6149">
        <ele>61</ele>
        <time>2020-12-19T12:51:51.000Z</time>
      </trkpt>
      <trkpt lat="47.17435" lon="-1.61495">
        <ele>61</ele>
        <time>2020-12-19T12:51:53.000Z</time>
      </trkpt>
      <trkpt lat="47.17427" lon="-1.61501">
        <ele>61</ele>
        <time>2020-12-19T12:51:55.000Z</time>
      </trkpt>
      <trkpt lat="47.17418" lon="-1.61507">
        <ele>61</ele>
        <time>2020-12-19T12:51:57.000Z</time>
      </trkpt>
      <trkpt lat="47.17406" lon="-1.61514">
        <ele>61</ele>
        <time>2020-12-19T12:52:00.000Z</time>
      </trkpt>
      <trkpt lat="47.17394" lon="-1.61523">
        <ele>61</ele>
        <time>2020-12-19T12:52:03.000Z</time>
      </trkpt>
      <trkpt lat="47.17383" lon="-1.61533">
        <ele>62</ele>
        <time>2020-12-19T12:52:06.000Z</time>
      </trkpt>
      <trkpt lat="47.17375" lon="-1.61541">
        <ele>63</ele>
        <time>2020-12-19T12:52:08.000Z</time>
      </trkpt>
      <trkpt lat="47.17368" lon="-1.61549">
        <ele>64</ele>
        <time>2020-12-19T12:52:10.000Z</time>
      </trkpt>
      <trkpt lat="47.17357" lon="-1.6156">
        <ele>64</ele>
        <time>2020-12-19T12:52:13.000Z</time>
      </trkpt>
      <trkpt lat="47.1735" lon="-1.61569">
        <ele>64</ele>
        <time>2020-12-19T12:52:15.000Z</time>
      </trkpt>
      <trkpt lat="47.17343" lon="-1.61578">
        <ele>64</ele>
        <time>2020-12-19T12:52:17.000Z</time>
      </trkpt>
      <trkpt lat="47.17336" lon="-1.61587">
        <ele>65</ele>
        <time>2020-12-19T12:52:19.000Z</time>
      </trkpt>
      <trkpt lat="47.17328" lon="-1.61595">
        <ele>66</ele>
        <time>2020-12-19T12:52:21.000Z</time>
      </trkpt>
      <trkpt lat="47.17318" lon="-1.61608">
        <ele>66</ele>
        <time>2020-12-19T12:52:24.000Z</time>
      </trkpt>
      <trkpt lat="47.17312" lon="-1.61618">
        <ele>66</ele>
        <time>2020-12-19T12:52:26.000Z</time>
      </trkpt>
      <trkpt lat="47.17306" lon="-1.61628">
        <ele>66</ele>
        <time>2020-12-19T12:52:28.000Z</time>
      </trkpt>
      <trkpt lat="47.17299" lon="-1.61638">
        <ele>66</ele>
        <time>2020-12-19T12:52:30.000Z</time>
      </trkpt>
      <trkpt lat="47.17291" lon="-1.61653">
        <ele>66</ele>
        <time>2020-12-19T12:52:33.000Z</time>
      </trkpt>
      <trkpt lat="47.17283" lon="-1.61669">
        <ele>66</ele>
        <time>2020-12-19T12:52:36.000Z</time>
      </trkpt>
      <trkpt lat="47.17278" lon="-1.6168">
        <ele>65</ele>
        <time>2020-12-19T12:52:38.000Z</time>
      </trkpt>
      <trkpt lat="47.17272" lon="-1.61692">
        <ele>66</ele>
        <time>2020-12-19T12:52:40.000Z</time>
      </trkpt>
      <trkpt lat="47.17267" lon="-1.61702">
        <ele>65</ele>
        <time>2020-12-19T12:52:42.000Z</time>
      </trkpt>
      <trkpt lat="47.17261" lon="-1.61714">
        <ele>66</ele>
        <time>2020-12-19T12:52:44.000Z</time>
      </trkpt>
      <trkpt lat="47.17256" lon="-1.61725">
        <ele>66</ele>
        <time>2020-12-19T12:52:46.000Z</time>
      </trkpt>
      <trkpt lat="47.17251" lon="-1.61737">
        <ele>66</ele>
        <time>2020-12-19T12:52:48.000Z</time>
      </trkpt>
      <trkpt lat="47.17247" lon="-1.6175">
        <ele>66</ele>
        <time>2020-12-19T12:52:50.000Z</time>
      </trkpt>
      <trkpt lat="47.17245" lon="-1.61763">
        <ele>65</ele>
        <time>2020-12-19T12:52:52.000Z</time>
      </trkpt>
      <trkpt lat="47.17241" lon="-1.61777">
        <ele>65</ele>
        <time>2020-12-19T12:52:54.000Z</time>
      </trkpt>
      <trkpt lat="47.17232" lon="-1.61787">
        <ele>64</ele>
        <time>2020-12-19T12:52:56.000Z</time>
      </trkpt>
      <trkpt lat="47.17222" lon="-1.61795">
        <ele>63</ele>
        <time>2020-12-19T12:52:58.000Z</time>
      </trkpt>
      <trkpt lat="47.17214" lon="-1.61803">
        <ele>63</ele>
        <time>2020-12-19T12:53:00.000Z</time>
      </trkpt>
      <trkpt lat="47.17205" lon="-1.6181">
        <ele>64</ele>
        <time>2020-12-19T12:53:02.000Z</time>
      </trkpt>
      <trkpt lat="47.17196" lon="-1.61818">
        <ele>64</ele>
        <time>2020-12-19T12:53:04.000Z</time>
      </trkpt>
      <trkpt lat="47.17187" lon="-1.61826">
        <ele>64</ele>
        <time>2020-12-19T12:53:06.000Z</time>
      </trkpt>
      <trkpt lat="47.17179" lon="-1.61834">
        <ele>64</ele>
        <time>2020-12-19T12:53:08.000Z</time>
      </trkpt>
      <trkpt lat="47.17171" lon="-1.61843">
        <ele>64</ele>
        <time>2020-12-19T12:53:10.000Z</time>
      </trkpt>
      <trkpt lat="47.17163" lon="-1.61851">
        <ele>64</ele>
        <time>2020-12-19T12:53:12.000Z</time>
      </trkpt>
      <trkpt lat="47.17154" lon="-1.61858">
        <ele>64</ele>
        <time>2020-12-19T12:53:14.000Z</time>
      </trkpt>
      <trkpt lat="47.17145" lon="-1.61867">
        <ele>64</ele>
        <time>2020-12-19T12:53:16.000Z</time>
      </trkpt>
      <trkpt lat="47.17136" lon="-1.61876">
        <ele>63</ele>
        <time>2020-12-19T12:53:18.000Z</time>
      </trkpt>
      <trkpt lat="47.17126" lon="-1.61884">
        <ele>64</ele>
        <time>2020-12-19T12:53:20.000Z</time>
      </trkpt>
      <trkpt lat="47.17119" lon="-1.61892">
        <ele>64</ele>
        <time>2020-12-19T12:53:22.000Z</time>
      </trkpt>
      <trkpt lat="47.1711" lon="-1.61901">
        <ele>64</ele>
        <time>2020-12-19T12:53:24.000Z</time>
      </trkpt>
      <trkpt lat="47.17101" lon="-1.61909">
        <ele>64</ele>
        <time>2020-12-19T12:53:26.000Z</time>
      </trkpt>
      <trkpt lat="47.17092" lon="-1.61917">
        <ele>63</ele>
        <time>2020-12-19T12:53:28.000Z</time>
      </trkpt>
      <trkpt lat="47.17084" lon="-1.61925">
        <ele>64</ele>
        <time>2020-12-19T12:53:30.000Z</time>
      </trkpt>
      <trkpt lat="47.17076" lon="-1.61934">
        <ele>64</ele>
        <time>2020-12-19T12:53:32.000Z</time>
      </trkpt>
      <trkpt lat="47.17068" lon="-1.61941">
        <ele>64</ele>
        <time>2020-12-19T12:53:34.000Z</time>
      </trkpt>
      <trkpt lat="47.17059" lon="-1.6195">
        <ele>64</ele>
        <time>2020-12-19T12:53:36.000Z</time>
      </trkpt>
      <trkpt lat="47.17052" lon="-1.61961">
        <ele>65</ele>
        <time>2020-12-19T12:53:38.000Z</time>
      </trkpt>
      <trkpt lat="47.17045" lon="-1.61971">
        <ele>65</ele>
        <time>2020-12-19T12:53:40.000Z</time>
      </trkpt>
      <trkpt lat="47.17037" lon="-1.61982">
        <ele>65</ele>
        <time>2020-12-19T12:53:42.000Z</time>
      </trkpt>
      <trkpt lat="47.17029" lon="-1.61993">
        <ele>65</ele>
        <time>2020-12-19T12:53:44.000Z</time>
      </trkpt>
      <trkpt lat="47.17022" lon="-1.62004">
        <ele>65</ele>
        <time>2020-12-19T12:53:46.000Z</time>
      </trkpt>
      <trkpt lat="47.17015" lon="-1.62015">
        <ele>65</ele>
        <time>2020-12-19T12:53:48.000Z</time>
      </trkpt>
      <trkpt lat="47.17008" lon="-1.62026">
        <ele>65</ele>
        <time>2020-12-19T12:53:50.000Z</time>
      </trkpt>
      <trkpt lat="47.17001" lon="-1.62038">
        <ele>65</ele>
        <time>2020-12-19T12:53:52.000Z</time>
      </trkpt>
      <trkpt lat="47.16995" lon="-1.6205">
        <ele>65</ele>
        <time>2020-12-19T12:53:54.000Z</time>
      </trkpt>
      <trkpt lat="47.16988" lon="-1.62062">
        <ele>65</ele>
        <time>2020-12-19T12:53:56.000Z</time>
      </trkpt>
      <trkpt lat="47.16982" lon="-1.62073">
        <ele>65</ele>
        <time>2020-12-19T12:53:58.000Z</time>
      </trkpt>
      <trkpt lat="47.16975" lon="-1.62084">
        <ele>65</ele>
        <time>2020-12-19T12:54:00.000Z</time>
      </trkpt>
      <trkpt lat="47.16968" lon="-1.62095">
        <ele>64</ele>
        <time>2020-12-19T12:54:02.000Z</time>
      </trkpt>
      <trkpt lat="47.16962" lon="-1.62107">
        <ele>64</ele>
        <time>2020-12-19T12:54:04.000Z</time>
      </trkpt>
      <trkpt lat="47.16956" lon="-1.62119">
        <ele>64</ele>
        <time>2020-12-19T12:54:06.000Z</time>
      </trkpt>
      <trkpt lat="47.1695" lon="-1.62131">
        <ele>65</ele>
        <time>2020-12-19T12:54:08.000Z</time>
      </trkpt>
      <trkpt lat="47.16944" lon="-1.62143">
        <ele>65</ele>
        <time>2020-12-19T12:54:10.000Z</time>
      </trkpt>
      <trkpt lat="47.16938" lon="-1.62154">
        <ele>65</ele>
        <time>2020-12-19T12:54:12.000Z</time>
      </trkpt>
      <trkpt lat="47.16932" lon="-1.62167">
        <ele>65</ele>
        <time>2020-12-19T12:54:14.000Z</time>
      </trkpt>
      <trkpt lat="47.16927" lon="-1.62179">
        <ele>66</ele>
        <time>2020-12-19T12:54:16.000Z</time>
      </trkpt>
      <trkpt lat="47.16922" lon="-1.62191">
        <ele>66</ele>
        <time>2020-12-19T12:54:18.000Z</time>
      </trkpt>
      <trkpt lat="47.16915" lon="-1.62202">
        <ele>65</ele>
        <time>2020-12-19T12:54:20.000Z</time>
      </trkpt>
      <trkpt lat="47.16908" lon="-1.62213">
        <ele>65</ele>
        <time>2020-12-19T12:54:22.000Z</time>
      </trkpt>
      <trkpt lat="47.169" lon="-1.62223">
        <ele>65</ele>
        <time>2020-12-19T12:54:24.000Z</time>
      </trkpt>
      <trkpt lat="47.16892" lon="-1.62233">
        <ele>66</ele>
        <time>2020-12-19T12:54:26.000Z</time>
      </trkpt>
      <trkpt lat="47.16884" lon="-1.62243">
        <ele>66</ele>
        <time>2020-12-19T12:54:28.000Z</time>
      </trkpt>
      <trkpt lat="47.16876" lon="-1.62252">
        <ele>65</ele>
        <time>2020-12-19T12:54:30.000Z</time>
      </trkpt>
      <trkpt lat="47.16868" lon="-1.62262">
        <ele>65</ele>
        <time>2020-12-19T12:54:32.000Z</time>
      </trkpt>
      <trkpt lat="47.1686" lon="-1.62271">
        <ele>64</ele>
        <time>2020-12-19T12:54:34.000Z</time>
      </trkpt>
      <trkpt lat="47.16852" lon="-1.62281">
        <ele>64</ele>
        <time>2020-12-19T12:54:36.000Z</time>
      </trkpt>
      <trkpt lat="47.16845" lon="-1.6229">
        <ele>64</ele>
        <time>2020-12-19T12:54:38.000Z</time>
      </trkpt>
      <trkpt lat="47.16837" lon="-1.62299">
        <ele>64</ele>
        <time>2020-12-19T12:54:40.000Z</time>
      </trkpt>
      <trkpt lat="47.16829" lon="-1.62309">
        <ele>64</ele>
        <time>2020-12-19T12:54:42.000Z</time>
      </trkpt>
      <trkpt lat="47.16821" lon="-1.62316">
        <ele>64</ele>
        <time>2020-12-19T12:54:44.000Z</time>
      </trkpt>
      <trkpt lat="47.16812" lon="-1.62323">
        <ele>64</ele>
        <time>2020-12-19T12:54:46.000Z</time>
      </trkpt>
      <trkpt lat="47.16803" lon="-1.62329">
        <ele>64</ele>
        <time>2020-12-19T12:54:48.000Z</time>
      </trkpt>
      <trkpt lat="47.16794" lon="-1.62334">
        <ele>64</ele>
        <time>2020-12-19T12:54:50.000Z</time>
      </trkpt>
      <trkpt lat="47.16784" lon="-1.62339">
        <ele>64</ele>
        <time>2020-12-19T12:54:52.000Z</time>
      </trkpt>
      <trkpt lat="47.16774" lon="-1.62345">
        <ele>64</ele>
        <time>2020-12-19T12:54:54.000Z</time>
      </trkpt>
      <trkpt lat="47.16764" lon="-1.6235">
        <ele>64</ele>
        <time>2020-12-19T12:54:56.000Z</time>
      </trkpt>
      <trkpt lat="47.16755" lon="-1.62357">
        <ele>63</ele>
        <time>2020-12-19T12:54:58.000Z</time>
      </trkpt>
      <trkpt lat="47.16746" lon="-1.62367">
        <ele>63</ele>
        <time>2020-12-19T12:55:00.000Z</time>
      </trkpt>
      <trkpt lat="47.16738" lon="-1.62379">
        <ele>62</ele>
        <time>2020-12-19T12:55:02.000Z</time>
      </trkpt>
      <trkpt lat="47.16734" lon="-1.62393">
        <ele>62</ele>
        <time>2020-12-19T12:55:04.000Z</time>
      </trkpt>
      <trkpt lat="47.16731" lon="-1.62408">
        <ele>62</ele>
        <time>2020-12-19T12:55:06.000Z</time>
      </trkpt>
      <trkpt lat="47.16728" lon="-1.62422">
        <ele>62</ele>
        <time>2020-12-19T12:55:08.000Z</time>
      </trkpt>
      <trkpt lat="47.16726" lon="-1.62437">
        <ele>63</ele>
        <time>2020-12-19T12:55:10.000Z</time>
      </trkpt>
      <trkpt lat="47.16722" lon="-1.62452">
        <ele>63</ele>
        <time>2020-12-19T12:55:12.000Z</time>
      </trkpt>
      <trkpt lat="47.16719" lon="-1.62467">
        <ele>63</ele>
        <time>2020-12-19T12:55:14.000Z</time>
      </trkpt>
      <trkpt lat="47.16716" lon="-1.6248">
        <ele>63</ele>
        <time>2020-12-19T12:55:16.000Z</time>
      </trkpt>
      <trkpt lat="47.16721" lon="-1.62496">
        <ele>63</ele>
        <time>2020-12-19T12:55:19.000Z</time>
      </trkpt>
      <trkpt lat="47.16732" lon="-1.62501">
        <ele>63</ele>
        <time>2020-12-19T12:55:21.000Z</time>
      </trkpt>
      <trkpt lat="47.16742" lon="-1.62504">
        <ele>64</ele>
        <time>2020-12-19T12:55:23.000Z</time>
      </trkpt>
      <trkpt lat="47.16752" lon="-1.62509">
        <ele>65</ele>
        <time>2020-12-19T12:55:25.000Z</time>
      </trkpt>
      <trkpt lat="47.16763" lon="-1.62514">
        <ele>65</ele>
        <time>2020-12-19T12:55:27.000Z</time>
      </trkpt>
      <trkpt lat="47.16772" lon="-1.6252">
        <ele>66</ele>
        <time>2020-12-19T12:55:29.000Z</time>
      </trkpt>
      <trkpt lat="47.16782" lon="-1.62527">
        <ele>66</ele>
        <time>2020-12-19T12:55:31.000Z</time>
      </trkpt>
      <trkpt lat="47.16792" lon="-1.62533">
        <ele>67</ele>
        <time>2020-12-19T12:55:33.000Z</time>
      </trkpt>
      <trkpt lat="47.16802" lon="-1.62539">
        <ele>66</ele>
        <time>2020-12-19T12:55:35.000Z</time>
      </trkpt>
      <trkpt lat="47.16811" lon="-1.62545">
        <ele>66</ele>
        <time>2020-12-19T12:55:37.000Z</time>
      </trkpt>
      <trkpt lat="47.16819" lon="-1.62554">
        <ele>67</ele>
        <time>2020-12-19T12:55:39.000Z</time>
      </trkpt>
      <trkpt lat="47.16827" lon="-1.62564">
        <ele>66</ele>
        <time>2020-12-19T12:55:41.000Z</time>
      </trkpt>
      <trkpt lat="47.1683" lon="-1.6258">
        <ele>66</ele>
        <time>2020-12-19T12:55:43.000Z</time>
      </trkpt>
      <trkpt lat="47.16825" lon="-1.62594">
        <ele>66</ele>
        <time>2020-12-19T12:55:45.000Z</time>
      </trkpt>
      <trkpt lat="47.16818" lon="-1.62606">
        <ele>66</ele>
        <time>2020-12-19T12:55:47.000Z</time>
      </trkpt>
      <trkpt lat="47.16812" lon="-1.62617">
        <ele>66</ele>
        <time>2020-12-19T12:55:49.000Z</time>
      </trkpt>
      <trkpt lat="47.16805" lon="-1.62628">
        <ele>65</ele>
        <time>2020-12-19T12:55:51.000Z</time>
      </trkpt>
      <trkpt lat="47.16798" lon="-1.62639">
        <ele>65</ele>
        <time>2020-12-19T12:55:53.000Z</time>
      </trkpt>
      <trkpt lat="47.16792" lon="-1.6265">
        <ele>65</ele>
        <time>2020-12-19T12:55:55.000Z</time>
      </trkpt>
      <trkpt lat="47.16784" lon="-1.62663">
        <ele>66</ele>
        <time>2020-12-19T12:55:58.000Z</time>
      </trkpt>
      <trkpt lat="47.16776" lon="-1.62655">
        <ele>65</ele>
        <time>2020-12-19T12:56:02.000Z</time>
      </trkpt>
    </trkseg>
  </trk>
</gpx>